<?xml version='1.0' encoding='UTF-8'?><gpx version="1.1" creator="JPX - https://github.com/jenetics/jpx" xmlns="http://www.topografix.com/GPX/1/1"><trk><trkseg><trkpt lat="43.2077431" lon="13.2779552"><ele>216.99999999999997</ele><time>2026-05-03T06:42:39.928Z</time></trkpt><trkpt lat="43.2076422" lon="13.2779298"><ele>217.0</ele><time>2026-05-03T06:42:41.922Z</time></trkpt><trkpt lat="43.2075831" lon="13.2778895"><ele>217.0</ele><time>2026-05-03T06:42:42.921Z</time></trkpt><trkpt lat="43.2075138" lon="13.2778322"><ele>217.0</ele><time>2026-05-03T06:42:43.918Z</time></trkpt><trkpt lat="43.2074433" lon="13.2777774"><ele>216.99999999999997</ele><time>2026-05-03T06:42:44.924Z</time></trkpt><trkpt lat="43.20739" lon="13.27773"><ele>217.0</ele><time>2026-05-03T06:42:45.923Z</time></trkpt><trkpt lat="43.2072893" lon="13.2776469"><ele>216.0</ele><time>2026-05-03T06:42:47.912Z</time></trkpt><trkpt lat="43.2072209" lon="13.2775912"><ele>215.0</ele><time>2026-05-03T06:42:48.925Z</time></trkpt><trkpt lat="43.2071439" lon="13.2775306"><ele>214.0</ele><time>2026-05-03T06:42:49.91Z</time></trkpt><trkpt lat="43.2070562" lon="13.2774654"><ele>213.0</ele><time>2026-05-03T06:42:50.911Z</time></trkpt><trkpt lat="43.2069625" lon="13.2773943"><ele>212.0</ele><time>2026-05-03T06:42:51.907Z</time></trkpt><trkpt lat="43.2068631" lon="13.2773167"><ele>212.0</ele><time>2026-05-03T06:42:52.911Z</time></trkpt><trkpt lat="43.2067541" lon="13.2772272"><ele>212.0</ele><time>2026-05-03T06:42:53.908Z</time></trkpt><trkpt lat="43.2066421" lon="13.2771338"><ele>212.0</ele><time>2026-05-03T06:42:54.918Z</time></trkpt><trkpt lat="43.2065249" lon="13.2770384"><ele>212.0</ele><time>2026-05-03T06:42:55.93Z</time></trkpt><trkpt lat="43.2063854" lon="13.276916"><ele>212.0</ele><time>2026-05-03T06:42:56.928Z</time></trkpt><trkpt lat="43.206241" lon="13.2767918"><ele>212.0</ele><time>2026-05-03T06:42:57.922Z</time></trkpt><trkpt lat="43.206103" lon="13.2766726"><ele>212.0</ele><time>2026-05-03T06:42:58.929Z</time></trkpt><trkpt lat="43.2059745" lon="13.2765615"><ele>212.0</ele><time>2026-05-03T06:42:59.908Z</time></trkpt><trkpt lat="43.2058485" lon="13.276449"><ele>212.0</ele><time>2026-05-03T06:43:00.93Z</time></trkpt><trkpt lat="43.2057206" lon="13.2763297"><ele>212.0</ele><time>2026-05-03T06:43:01.927Z</time></trkpt><trkpt lat="43.2055911" lon="13.2762097"><ele>211.5</ele><time>2026-05-03T06:43:02.92Z</time></trkpt><trkpt lat="43.2054614" lon="13.2760919"><ele>211.0</ele><time>2026-05-03T06:43:03.918Z</time></trkpt><trkpt lat="43.2053402" lon="13.2759835"><ele>210.5</ele><time>2026-05-03T06:43:04.922Z</time></trkpt><trkpt lat="43.2052336" lon="13.2758866"><ele>210.0</ele><time>2026-05-03T06:43:05.916Z</time></trkpt><trkpt lat="43.2051441" lon="13.2757846"><ele>210.0</ele><time>2026-05-03T06:43:06.928Z</time></trkpt><trkpt lat="43.2050552" lon="13.2756847"><ele>210.0</ele><time>2026-05-03T06:43:07.922Z</time></trkpt><trkpt lat="43.2049563" lon="13.2755702"><ele>210.0</ele><time>2026-05-03T06:43:08.923Z</time></trkpt><trkpt lat="43.2048552" lon="13.2754494"><ele>210.0</ele><time>2026-05-03T06:43:09.936Z</time></trkpt><trkpt lat="43.2047469" lon="13.2753181"><ele>209.33333333333331</ele><time>2026-05-03T06:43:10.919Z</time></trkpt><trkpt lat="43.2046336" lon="13.2751845"><ele>208.66666666666666</ele><time>2026-05-03T06:43:11.918Z</time></trkpt><trkpt lat="43.2045144" lon="13.2750412"><ele>208.0</ele><time>2026-05-03T06:43:12.918Z</time></trkpt><trkpt lat="43.2043928" lon="13.2748867"><ele>209.0</ele><time>2026-05-03T06:43:13.928Z</time></trkpt><trkpt lat="43.2042717" lon="13.2747366"><ele>210.0</ele><time>2026-05-03T06:43:14.919Z</time></trkpt><trkpt lat="43.2041474" lon="13.2745864"><ele>211.0</ele><time>2026-05-03T06:43:15.927Z</time></trkpt><trkpt lat="43.2040254" lon="13.2744337"><ele>210.33333333333331</ele><time>2026-05-03T06:43:16.907Z</time></trkpt><trkpt lat="43.2039012" lon="13.2742821"><ele>209.66666666666669</ele><time>2026-05-03T06:43:17.908Z</time></trkpt><trkpt lat="43.203779" lon="13.274132"><ele>209.0</ele><time>2026-05-03T06:43:18.915Z</time></trkpt><trkpt lat="43.2036645" lon="13.2739884"><ele>210.33333333333334</ele><time>2026-05-03T06:43:19.906Z</time></trkpt><trkpt lat="43.2035476" lon="13.2738392"><ele>211.66666666666669</ele><time>2026-05-03T06:43:20.918Z</time></trkpt><trkpt lat="43.2034319" lon="13.2736919"><ele>213.0</ele><time>2026-05-03T06:43:21.915Z</time></trkpt><trkpt lat="43.2033141" lon="13.2735423"><ele>213.0</ele><time>2026-05-03T06:43:22.915Z</time></trkpt><trkpt lat="43.2031996" lon="13.2733929"><ele>213.0</ele><time>2026-05-03T06:43:23.921Z</time></trkpt><trkpt lat="43.2030932" lon="13.273238"><ele>213.0</ele><time>2026-05-03T06:43:24.917Z</time></trkpt><trkpt lat="43.2029956" lon="13.2730596"><ele>212.0</ele><time>2026-05-03T06:43:25.921Z</time></trkpt><trkpt lat="43.202906" lon="13.2728673"><ele>211.0</ele><time>2026-05-03T06:43:26.916Z</time></trkpt><trkpt lat="43.2028146" lon="13.2726624"><ele>210.0</ele><time>2026-05-03T06:43:27.917Z</time></trkpt><trkpt lat="43.2027265" lon="13.2724594"><ele>209.66666666666669</ele><time>2026-05-03T06:43:28.916Z</time></trkpt><trkpt lat="43.2026099" lon="13.2722456"><ele>209.33333333333334</ele><time>2026-05-03T06:43:29.922Z</time></trkpt><trkpt lat="43.2024782" lon="13.2720532"><ele>209.0</ele><time>2026-05-03T06:43:30.911Z</time></trkpt><trkpt lat="43.2023247" lon="13.2718558"><ele>209.0</ele><time>2026-05-03T06:43:31.925Z</time></trkpt><trkpt lat="43.2021605" lon="13.2716716"><ele>209.0</ele><time>2026-05-03T06:43:32.923Z</time></trkpt><trkpt lat="43.2019911" lon="13.2714962"><ele>209.0</ele><time>2026-05-03T06:43:33.922Z</time></trkpt><trkpt lat="43.2017993" lon="13.2713371"><ele>210.33333333333334</ele><time>2026-05-03T06:43:34.918Z</time></trkpt><trkpt lat="43.2016096" lon="13.271195"><ele>211.66666666666669</ele><time>2026-05-03T06:43:35.923Z</time></trkpt><trkpt lat="43.2014224" lon="13.2710529"><ele>213.0</ele><time>2026-05-03T06:43:36.92Z</time></trkpt><trkpt lat="43.2012562" lon="13.2709396"><ele>213.0</ele><time>2026-05-03T06:43:37.914Z</time></trkpt><trkpt lat="43.2010986" lon="13.2708361"><ele>213.0</ele><time>2026-05-03T06:43:38.924Z</time></trkpt><trkpt lat="43.2009557" lon="13.2707411"><ele>213.0</ele><time>2026-05-03T06:43:39.919Z</time></trkpt><trkpt lat="43.2008121" lon="13.2706466"><ele>212.66666666666669</ele><time>2026-05-03T06:43:40.912Z</time></trkpt><trkpt lat="43.2006726" lon="13.2705337"><ele>212.33333333333334</ele><time>2026-05-03T06:43:41.912Z</time></trkpt><trkpt lat="43.2005332" lon="13.2704231"><ele>212.0</ele><time>2026-05-03T06:43:42.922Z</time></trkpt><trkpt lat="43.2004066" lon="13.2702712"><ele>212.0</ele><time>2026-05-03T06:43:43.91Z</time></trkpt><trkpt lat="43.2003012" lon="13.2701168"><ele>212.0</ele><time>2026-05-03T06:43:44.922Z</time></trkpt><trkpt lat="43.2001838" lon="13.2699667"><ele>212.0</ele><time>2026-05-03T06:43:45.914Z</time></trkpt><trkpt lat="43.2000662" lon="13.269819"><ele>213.66666666666669</ele><time>2026-05-03T06:43:46.902Z</time></trkpt><trkpt lat="43.1999138" lon="13.2697172"><ele>215.33333333333331</ele><time>2026-05-03T06:43:47.926Z</time></trkpt><trkpt lat="43.1997579" lon="13.2696268"><ele>217.0</ele><time>2026-05-03T06:43:48.908Z</time></trkpt><trkpt lat="43.1995738" lon="13.2695704"><ele>217.0</ele><time>2026-05-03T06:43:49.929Z</time></trkpt><trkpt lat="43.1993819" lon="13.2695141"><ele>217.0</ele><time>2026-05-03T06:43:50.916Z</time></trkpt><trkpt lat="43.1991741" lon="13.2694789"><ele>217.0</ele><time>2026-05-03T06:43:51.921Z</time></trkpt><trkpt lat="43.1989569" lon="13.269436"><ele>213.0</ele><time>2026-05-03T06:43:52.906Z</time></trkpt><trkpt lat="43.1987347" lon="13.2693945"><ele>209.0</ele><time>2026-05-03T06:43:53.915Z</time></trkpt><trkpt lat="43.1985083" lon="13.2693536"><ele>209.0</ele><time>2026-05-03T06:43:54.929Z</time></trkpt><trkpt lat="43.1982945" lon="13.2693136"><ele>209.0</ele><time>2026-05-03T06:43:55.914Z</time></trkpt><trkpt lat="43.1980969" lon="13.269281"><ele>209.0</ele><time>2026-05-03T06:43:56.93Z</time></trkpt><trkpt lat="43.1979054" lon="13.2692491"><ele>209.0</ele><time>2026-05-03T06:43:57.918Z</time></trkpt><trkpt lat="43.1977075" lon="13.2692182"><ele>209.0</ele><time>2026-05-03T06:43:58.914Z</time></trkpt><trkpt lat="43.1975042" lon="13.2691953"><ele>209.0</ele><time>2026-05-03T06:43:59.923Z</time></trkpt><trkpt lat="43.1972989" lon="13.2691666"><ele>209.0</ele><time>2026-05-03T06:44:00.909Z</time></trkpt><trkpt lat="43.1970811" lon="13.2691574"><ele>209.0</ele><time>2026-05-03T06:44:01.913Z</time></trkpt><trkpt lat="43.1968621" lon="13.2691396"><ele>209.0</ele><time>2026-05-03T06:44:02.917Z</time></trkpt><trkpt lat="43.196662" lon="13.2691203"><ele>209.66666666666669</ele><time>2026-05-03T06:44:03.914Z</time></trkpt><trkpt lat="43.1964654" lon="13.2690969"><ele>210.33333333333331</ele><time>2026-05-03T06:44:04.914Z</time></trkpt><trkpt lat="43.1962868" lon="13.2690828"><ele>211.0</ele><time>2026-05-03T06:44:05.914Z</time></trkpt><trkpt lat="43.1961073" lon="13.2690669"><ele>211.0</ele><time>2026-05-03T06:44:06.923Z</time></trkpt><trkpt lat="43.195931" lon="13.2690376"><ele>211.0</ele><time>2026-05-03T06:44:07.908Z</time></trkpt><trkpt lat="43.1957535" lon="13.2689936"><ele>211.0</ele><time>2026-05-03T06:44:08.899Z</time></trkpt><trkpt lat="43.1955801" lon="13.2688914"><ele>211.66666666666666</ele><time>2026-05-03T06:44:09.921Z</time></trkpt><trkpt lat="43.1954146" lon="13.2687528"><ele>212.33333333333331</ele><time>2026-05-03T06:44:10.914Z</time></trkpt><trkpt lat="43.195258" lon="13.2685874"><ele>213.0</ele><time>2026-05-03T06:44:11.93Z</time></trkpt><trkpt lat="43.1951291" lon="13.2684044"><ele>213.0</ele><time>2026-05-03T06:44:12.925Z</time></trkpt><trkpt lat="43.1950179" lon="13.2681982"><ele>213.0</ele><time>2026-05-03T06:44:13.91Z</time></trkpt><trkpt lat="43.1949203" lon="13.2679775"><ele>213.0</ele><time>2026-05-03T06:44:14.919Z</time></trkpt><trkpt lat="43.1948336" lon="13.2677635"><ele>213.0</ele><time>2026-05-03T06:44:15.926Z</time></trkpt><trkpt lat="43.1947674" lon="13.2675523"><ele>213.0</ele><time>2026-05-03T06:44:16.907Z</time></trkpt><trkpt lat="43.1946759" lon="13.2673749"><ele>213.0</ele><time>2026-05-03T06:44:17.914Z</time></trkpt><trkpt lat="43.1945588" lon="13.2672218"><ele>215.33333333333331</ele><time>2026-05-03T06:44:18.917Z</time></trkpt><trkpt lat="43.194417" lon="13.2671013"><ele>217.66666666666666</ele><time>2026-05-03T06:44:19.923Z</time></trkpt><trkpt lat="43.1942563" lon="13.2670113"><ele>220.0</ele><time>2026-05-03T06:44:20.915Z</time></trkpt><trkpt lat="43.1940765" lon="13.2669293"><ele>218.33333333333331</ele><time>2026-05-03T06:44:21.898Z</time></trkpt><trkpt lat="43.1938991" lon="13.2668653"><ele>216.66666666666669</ele><time>2026-05-03T06:44:22.911Z</time></trkpt><trkpt lat="43.1937331" lon="13.2668346"><ele>215.0</ele><time>2026-05-03T06:44:23.907Z</time></trkpt><trkpt lat="43.1935659" lon="13.2668357"><ele>215.0</ele><time>2026-05-03T06:44:24.931Z</time></trkpt><trkpt lat="43.1934025" lon="13.266871"><ele>215.0</ele><time>2026-05-03T06:44:25.916Z</time></trkpt><trkpt lat="43.1932483" lon="13.2669467"><ele>215.0</ele><time>2026-05-03T06:44:26.926Z</time></trkpt><trkpt lat="43.1931007" lon="13.2670586"><ele>215.0</ele><time>2026-05-03T06:44:27.901Z</time></trkpt><trkpt lat="43.192957" lon="13.2671925"><ele>215.0</ele><time>2026-05-03T06:44:28.915Z</time></trkpt><trkpt lat="43.1928128" lon="13.2673222"><ele>215.0</ele><time>2026-05-03T06:44:29.911Z</time></trkpt><trkpt lat="43.1926588" lon="13.2674123"><ele>215.0</ele><time>2026-05-03T06:44:30.917Z</time></trkpt><trkpt lat="43.1924926" lon="13.2674532"><ele>215.0</ele><time>2026-05-03T06:44:31.923Z</time></trkpt><trkpt lat="43.1923212" lon="13.2674742"><ele>215.0</ele><time>2026-05-03T06:44:32.928Z</time></trkpt><trkpt lat="43.1921403" lon="13.2674389"><ele>215.0</ele><time>2026-05-03T06:44:33.91Z</time></trkpt><trkpt lat="43.1919611" lon="13.267409"><ele>215.0</ele><time>2026-05-03T06:44:34.916Z</time></trkpt><trkpt lat="43.1917932" lon="13.267387"><ele>215.0</ele><time>2026-05-03T06:44:35.923Z</time></trkpt><trkpt lat="43.1916322" lon="13.2673642"><ele>215.5</ele><time>2026-05-03T06:44:36.915Z</time></trkpt><trkpt lat="43.1914949" lon="13.2673436"><ele>216.0</ele><time>2026-05-03T06:44:37.93Z</time></trkpt><trkpt lat="43.1913521" lon="13.2673197"><ele>216.5</ele><time>2026-05-03T06:44:38.918Z</time></trkpt><trkpt lat="43.1912203" lon="13.267291"><ele>217.0</ele><time>2026-05-03T06:44:39.923Z</time></trkpt><trkpt lat="43.1910756" lon="13.2672636"><ele>217.5</ele><time>2026-05-03T06:44:40.913Z</time></trkpt><trkpt lat="43.1909353" lon="13.2672327"><ele>218.0</ele><time>2026-05-03T06:44:41.922Z</time></trkpt><trkpt lat="43.190792" lon="13.2671909"><ele>218.5</ele><time>2026-05-03T06:44:42.926Z</time></trkpt><trkpt lat="43.1906446" lon="13.2671348"><ele>219.0</ele><time>2026-05-03T06:44:43.922Z</time></trkpt><trkpt lat="43.1904924" lon="13.2670551"><ele>219.75</ele><time>2026-05-03T06:44:44.908Z</time></trkpt><trkpt lat="43.1903509" lon="13.266965"><ele>220.5</ele><time>2026-05-03T06:44:45.923Z</time></trkpt><trkpt lat="43.1902212" lon="13.2668772"><ele>221.25</ele><time>2026-05-03T06:44:46.925Z</time></trkpt><trkpt lat="43.1900899" lon="13.2667853"><ele>222.0</ele><time>2026-05-03T06:44:47.923Z</time></trkpt><trkpt lat="43.1899549" lon="13.2666838"><ele>222.33333333333331</ele><time>2026-05-03T06:44:48.93Z</time></trkpt><trkpt lat="43.1898132" lon="13.2665687"><ele>222.66666666666666</ele><time>2026-05-03T06:44:49.926Z</time></trkpt><trkpt lat="43.189661" lon="13.2664465"><ele>223.0</ele><time>2026-05-03T06:44:50.92Z</time></trkpt><trkpt lat="43.1895013" lon="13.2663271"><ele>224.33333333333331</ele><time>2026-05-03T06:44:51.924Z</time></trkpt><trkpt lat="43.1893343" lon="13.2662112"><ele>225.66666666666669</ele><time>2026-05-03T06:44:52.928Z</time></trkpt><trkpt lat="43.1891635" lon="13.2660928"><ele>227.0</ele><time>2026-05-03T06:44:53.917Z</time></trkpt><trkpt lat="43.1889874" lon="13.2659843"><ele>227.0</ele><time>2026-05-03T06:44:54.921Z</time></trkpt><trkpt lat="43.1888122" lon="13.2658712"><ele>227.0</ele><time>2026-05-03T06:44:55.91Z</time></trkpt><trkpt lat="43.1886466" lon="13.2657653"><ele>227.0</ele><time>2026-05-03T06:44:56.922Z</time></trkpt><trkpt lat="43.1884982" lon="13.2656677"><ele>228.0</ele><time>2026-05-03T06:44:57.911Z</time></trkpt><trkpt lat="43.1883651" lon="13.2655805"><ele>229.0</ele><time>2026-05-03T06:44:58.914Z</time></trkpt><trkpt lat="43.1882436" lon="13.2654933"><ele>230.0</ele><time>2026-05-03T06:44:59.913Z</time></trkpt><trkpt lat="43.1881194" lon="13.2654079"><ele>231.0</ele><time>2026-05-03T06:45:00.928Z</time></trkpt><trkpt lat="43.1879873" lon="13.2653195"><ele>231.66666666666669</ele><time>2026-05-03T06:45:01.92Z</time></trkpt><trkpt lat="43.1878419" lon="13.2652245"><ele>232.33333333333334</ele><time>2026-05-03T06:45:02.921Z</time></trkpt><trkpt lat="43.187699" lon="13.265127"><ele>233.0</ele><time>2026-05-03T06:45:03.926Z</time></trkpt><trkpt lat="43.1875404" lon="13.2650247"><ele>233.0</ele><time>2026-05-03T06:45:04.905Z</time></trkpt><trkpt lat="43.1874108" lon="13.2649165"><ele>233.0</ele><time>2026-05-03T06:45:05.913Z</time></trkpt><trkpt lat="43.187311" lon="13.2647862"><ele>233.0</ele><time>2026-05-03T06:45:06.923Z</time></trkpt><trkpt lat="43.1872346" lon="13.2646191"><ele>233.0</ele><time>2026-05-03T06:45:07.911Z</time></trkpt><trkpt lat="43.1871623" lon="13.2644166"><ele>234.0</ele><time>2026-05-03T06:45:08.911Z</time></trkpt><trkpt lat="43.1871209" lon="13.2641588"><ele>235.0</ele><time>2026-05-03T06:45:09.922Z</time></trkpt><trkpt lat="43.1870648" lon="13.2638936"><ele>236.0</ele><time>2026-05-03T06:45:10.917Z</time></trkpt><trkpt lat="43.1869695" lon="13.2636211"><ele>236.0</ele><time>2026-05-03T06:45:11.919Z</time></trkpt><trkpt lat="43.1868471" lon="13.2633579"><ele>236.0</ele><time>2026-05-03T06:45:12.918Z</time></trkpt><trkpt lat="43.1867123" lon="13.263107"><ele>236.66666666666669</ele><time>2026-05-03T06:45:13.905Z</time></trkpt><trkpt lat="43.1865833" lon="13.2628657"><ele>237.33333333333331</ele><time>2026-05-03T06:45:14.921Z</time></trkpt><trkpt lat="43.186459" lon="13.2626362"><ele>238.0</ele><time>2026-05-03T06:45:15.917Z</time></trkpt><trkpt lat="43.1863332" lon="13.2624145"><ele>238.66666666666666</ele><time>2026-05-03T06:45:16.927Z</time></trkpt><trkpt lat="43.1862004" lon="13.2621975"><ele>239.33333333333331</ele><time>2026-05-03T06:45:17.918Z</time></trkpt><trkpt lat="43.1860692" lon="13.2619814"><ele>240.0</ele><time>2026-05-03T06:45:18.921Z</time></trkpt><trkpt lat="43.1859144" lon="13.2617736"><ele>240.0</ele><time>2026-05-03T06:45:19.922Z</time></trkpt><trkpt lat="43.1857649" lon="13.2615658"><ele>240.0</ele><time>2026-05-03T06:45:20.925Z</time></trkpt><trkpt lat="43.1856249" lon="13.2613594"><ele>240.0</ele><time>2026-05-03T06:45:21.91Z</time></trkpt><trkpt lat="43.1854802" lon="13.2611521"><ele>239.0</ele><time>2026-05-03T06:45:22.921Z</time></trkpt><trkpt lat="43.1853337" lon="13.2609441"><ele>238.0</ele><time>2026-05-03T06:45:23.914Z</time></trkpt><trkpt lat="43.1851918" lon="13.2607363"><ele>237.0</ele><time>2026-05-03T06:45:24.921Z</time></trkpt><trkpt lat="43.1850476" lon="13.260535"><ele>236.66666666666669</ele><time>2026-05-03T06:45:25.925Z</time></trkpt><trkpt lat="43.1849065" lon="13.260335"><ele>236.33333333333334</ele><time>2026-05-03T06:45:26.912Z</time></trkpt><trkpt lat="43.18476" lon="13.2601369"><ele>236.0</ele><time>2026-05-03T06:45:27.921Z</time></trkpt><trkpt lat="43.1846229" lon="13.2599375"><ele>235.33333333333334</ele><time>2026-05-03T06:45:28.915Z</time></trkpt><trkpt lat="43.1844982" lon="13.2597543"><ele>234.66666666666669</ele><time>2026-05-03T06:45:29.933Z</time></trkpt><trkpt lat="43.1843916" lon="13.2595785"><ele>234.0</ele><time>2026-05-03T06:45:30.903Z</time></trkpt><trkpt lat="43.1843048" lon="13.2594068"><ele>234.0</ele><time>2026-05-03T06:45:31.912Z</time></trkpt><trkpt lat="43.1842273" lon="13.2592219"><ele>234.0</ele><time>2026-05-03T06:45:32.915Z</time></trkpt><trkpt lat="43.1841642" lon="13.259011"><ele>234.0</ele><time>2026-05-03T06:45:33.922Z</time></trkpt><trkpt lat="43.184123" lon="13.2587692"><ele>234.5</ele><time>2026-05-03T06:45:34.907Z</time></trkpt><trkpt lat="43.1840707" lon="13.2582366"><ele>235.0</ele><time>2026-05-03T06:45:36.918Z</time></trkpt><trkpt lat="43.1840437" lon="13.2579508"><ele>235.33333333333331</ele><time>2026-05-03T06:45:37.925Z</time></trkpt><trkpt lat="43.184019" lon="13.2576591"><ele>235.66666666666669</ele><time>2026-05-03T06:45:38.918Z</time></trkpt><trkpt lat="43.1839663" lon="13.2573697"><ele>236.0</ele><time>2026-05-03T06:45:39.917Z</time></trkpt><trkpt lat="43.1839047" lon="13.2570702"><ele>232.5</ele><time>2026-05-03T06:45:40.905Z</time></trkpt><trkpt lat="43.1838383" lon="13.2567704"><ele>229.0</ele><time>2026-05-03T06:45:41.923Z</time></trkpt><trkpt lat="43.183768" lon="13.2564821"><ele>229.33333333333331</ele><time>2026-05-03T06:45:42.922Z</time></trkpt><trkpt lat="43.1836977" lon="13.2562175"><ele>229.66666666666669</ele><time>2026-05-03T06:45:43.913Z</time></trkpt><trkpt lat="43.1836352" lon="13.255987"><ele>230.0</ele><time>2026-05-03T06:45:44.923Z</time></trkpt><trkpt lat="43.1835806" lon="13.2557955"><ele>230.0</ele><time>2026-05-03T06:45:45.925Z</time></trkpt><trkpt lat="43.1835332" lon="13.2556255"><ele>230.0</ele><time>2026-05-03T06:45:46.925Z</time></trkpt><trkpt lat="43.1834885" lon="13.2554791"><ele>230.0</ele><time>2026-05-03T06:45:47.907Z</time></trkpt><trkpt lat="43.1834538" lon="13.2553488"><ele>230.0</ele><time>2026-05-03T06:45:48.913Z</time></trkpt><trkpt lat="43.1834283" lon="13.2552288"><ele>230.0</ele><time>2026-05-03T06:45:49.908Z</time></trkpt><trkpt lat="43.1834229" lon="13.2551142"><ele>230.00000000000003</ele><time>2026-05-03T06:45:50.911Z</time></trkpt><trkpt lat="43.1834217" lon="13.254994"><ele>230.0</ele><time>2026-05-03T06:45:51.921Z</time></trkpt><trkpt lat="43.183427" lon="13.2548814"><ele>230.0</ele><time>2026-05-03T06:45:52.899Z</time></trkpt><trkpt lat="43.1834217" lon="13.2547702"><ele>230.0</ele><time>2026-05-03T06:45:53.921Z</time></trkpt><trkpt lat="43.1833764" lon="13.2546691"><ele>230.00000000000003</ele><time>2026-05-03T06:45:54.918Z</time></trkpt><trkpt lat="43.1832906" lon="13.2546071"><ele>230.0</ele><time>2026-05-03T06:45:55.908Z</time></trkpt><trkpt lat="43.1831868" lon="13.2545357"><ele>231.0</ele><time>2026-05-03T06:45:56.912Z</time></trkpt><trkpt lat="43.18306" lon="13.2544499"><ele>232.0</ele><time>2026-05-03T06:45:57.912Z</time></trkpt><trkpt lat="43.1829247" lon="13.2543353"><ele>233.0</ele><time>2026-05-03T06:45:58.919Z</time></trkpt><trkpt lat="43.1827618" lon="13.2542162"><ele>233.0</ele><time>2026-05-03T06:45:59.911Z</time></trkpt><trkpt lat="43.1825668" lon="13.2540972"><ele>233.0</ele><time>2026-05-03T06:46:00.921Z</time></trkpt><trkpt lat="43.1823589" lon="13.2539779"><ele>233.0</ele><time>2026-05-03T06:46:01.925Z</time></trkpt><trkpt lat="43.1821397" lon="13.2538454"><ele>234.5</ele><time>2026-05-03T06:46:02.913Z</time></trkpt><trkpt lat="43.1819185" lon="13.2537098"><ele>236.0</ele><time>2026-05-03T06:46:03.925Z</time></trkpt><trkpt lat="43.1817001" lon="13.2535756"><ele>239.0</ele><time>2026-05-03T06:46:04.912Z</time></trkpt><trkpt lat="43.1814823" lon="13.2534617"><ele>242.0</ele><time>2026-05-03T06:46:05.924Z</time></trkpt><trkpt lat="43.1812601" lon="13.2533678"><ele>242.0</ele><time>2026-05-03T06:46:06.905Z</time></trkpt><trkpt lat="43.1810599" lon="13.2532791"><ele>242.0</ele><time>2026-05-03T06:46:07.918Z</time></trkpt><trkpt lat="43.1808767" lon="13.2532112"><ele>242.0</ele><time>2026-05-03T06:46:08.926Z</time></trkpt><trkpt lat="43.1807083" lon="13.2531433"><ele>243.0</ele><time>2026-05-03T06:46:09.911Z</time></trkpt><trkpt lat="43.180545" lon="13.2530815"><ele>244.0</ele><time>2026-05-03T06:46:10.928Z</time></trkpt><trkpt lat="43.1803787" lon="13.2530234"><ele>245.0</ele><time>2026-05-03T06:46:11.914Z</time></trkpt><trkpt lat="43.1802095" lon="13.2529642"><ele>245.0</ele><time>2026-05-03T06:46:12.902Z</time></trkpt><trkpt lat="43.1800354" lon="13.2529074"><ele>245.0</ele><time>2026-05-03T06:46:13.911Z</time></trkpt><trkpt lat="43.1798604" lon="13.2528517"><ele>245.0</ele><time>2026-05-03T06:46:14.908Z</time></trkpt><trkpt lat="43.1796865" lon="13.2527977"><ele>246.33333333333334</ele><time>2026-05-03T06:46:15.928Z</time></trkpt><trkpt lat="43.1795161" lon="13.2527856"><ele>247.66666666666669</ele><time>2026-05-03T06:46:16.916Z</time></trkpt><trkpt lat="43.1793577" lon="13.2527921"><ele>249.0</ele><time>2026-05-03T06:46:17.926Z</time></trkpt><trkpt lat="43.1792122" lon="13.2528075"><ele>249.0</ele><time>2026-05-03T06:46:18.901Z</time></trkpt><trkpt lat="43.1790718" lon="13.2528263"><ele>249.0</ele><time>2026-05-03T06:46:19.922Z</time></trkpt><trkpt lat="43.1789355" lon="13.2528339"><ele>249.0</ele><time>2026-05-03T06:46:20.917Z</time></trkpt><trkpt lat="43.1787924" lon="13.2528366"><ele>249.0</ele><time>2026-05-03T06:46:21.913Z</time></trkpt><trkpt lat="43.1786513" lon="13.2528112"><ele>249.0</ele><time>2026-05-03T06:46:22.911Z</time></trkpt><trkpt lat="43.1785187" lon="13.2527507"><ele>249.0</ele><time>2026-05-03T06:46:23.924Z</time></trkpt><trkpt lat="43.1783981" lon="13.252672"><ele>249.0</ele><time>2026-05-03T06:46:24.905Z</time></trkpt><trkpt lat="43.1782899" lon="13.252581"><ele>249.0</ele><time>2026-05-03T06:46:25.924Z</time></trkpt><trkpt lat="43.1781849" lon="13.2524847"><ele>250.0</ele><time>2026-05-03T06:46:26.91Z</time></trkpt><trkpt lat="43.1780783" lon="13.2523864"><ele>251.0</ele><time>2026-05-03T06:46:27.907Z</time></trkpt><trkpt lat="43.1779701" lon="13.252296"><ele>252.0</ele><time>2026-05-03T06:46:28.918Z</time></trkpt><trkpt lat="43.1778572" lon="13.2522204"><ele>253.0</ele><time>2026-05-03T06:46:29.922Z</time></trkpt><trkpt lat="43.1777385" lon="13.2521706"><ele>253.0</ele><time>2026-05-03T06:46:30.914Z</time></trkpt><trkpt lat="43.1776172" lon="13.2521363"><ele>253.0</ele><time>2026-05-03T06:46:31.928Z</time></trkpt><trkpt lat="43.1774923" lon="13.2521089"><ele>253.0</ele><time>2026-05-03T06:46:32.924Z</time></trkpt><trkpt lat="43.1773579" lon="13.2520703"><ele>253.0</ele><time>2026-05-03T06:46:33.927Z</time></trkpt><trkpt lat="43.1772348" lon="13.2520327"><ele>252.25</ele><time>2026-05-03T06:46:34.909Z</time></trkpt><trkpt lat="43.1771077" lon="13.2519825"><ele>251.5</ele><time>2026-05-03T06:46:35.912Z</time></trkpt><trkpt lat="43.1769766" lon="13.251924"><ele>250.75</ele><time>2026-05-03T06:46:36.908Z</time></trkpt><trkpt lat="43.1768465" lon="13.2518633"><ele>250.0</ele><time>2026-05-03T06:46:37.913Z</time></trkpt><trkpt lat="43.1767229" lon="13.2518058"><ele>250.0</ele><time>2026-05-03T06:46:38.926Z</time></trkpt><trkpt lat="43.1766059" lon="13.2517573"><ele>250.0</ele><time>2026-05-03T06:46:39.905Z</time></trkpt><trkpt lat="43.1764787" lon="13.2517199"><ele>250.0</ele><time>2026-05-03T06:46:40.92Z</time></trkpt><trkpt lat="43.1763436" lon="13.2517089"><ele>250.0</ele><time>2026-05-03T06:46:41.909Z</time></trkpt><trkpt lat="43.1762113" lon="13.2517173"><ele>249.0</ele><time>2026-05-03T06:46:42.912Z</time></trkpt><trkpt lat="43.1760865" lon="13.2517394"><ele>248.0</ele><time>2026-05-03T06:46:43.92Z</time></trkpt><trkpt lat="43.1759624" lon="13.2517607"><ele>247.0</ele><time>2026-05-03T06:46:44.92Z</time></trkpt><trkpt lat="43.1758361" lon="13.2517861"><ele>246.0</ele><time>2026-05-03T06:46:45.911Z</time></trkpt><trkpt lat="43.1757074" lon="13.2518079"><ele>245.0</ele><time>2026-05-03T06:46:46.917Z</time></trkpt><trkpt lat="43.175575" lon="13.251813"><ele>244.0</ele><time>2026-05-03T06:46:47.907Z</time></trkpt><trkpt lat="43.1754398" lon="13.2518012"><ele>243.0</ele><time>2026-05-03T06:46:48.913Z</time></trkpt><trkpt lat="43.1753151" lon="13.2517657"><ele>242.0</ele><time>2026-05-03T06:46:49.911Z</time></trkpt><trkpt lat="43.1751992" lon="13.2517092"><ele>242.0</ele><time>2026-05-03T06:46:50.92Z</time></trkpt><trkpt lat="43.1750858" lon="13.2516347"><ele>242.0</ele><time>2026-05-03T06:46:51.909Z</time></trkpt><trkpt lat="43.1749765" lon="13.2515493"><ele>242.0</ele><time>2026-05-03T06:46:52.918Z</time></trkpt><trkpt lat="43.1748707" lon="13.251464"><ele>242.0</ele><time>2026-05-03T06:46:53.918Z</time></trkpt><trkpt lat="43.174763" lon="13.2513809"><ele>243.0</ele><time>2026-05-03T06:46:54.914Z</time></trkpt><trkpt lat="43.1746571" lon="13.2513061"><ele>244.0</ele><time>2026-05-03T06:46:55.919Z</time></trkpt><trkpt lat="43.1745486" lon="13.2512256"><ele>245.0</ele><time>2026-05-03T06:46:56.924Z</time></trkpt><trkpt lat="43.1744354" lon="13.2511613"><ele>246.0</ele><time>2026-05-03T06:46:57.92Z</time></trkpt><trkpt lat="43.1743159" lon="13.2510951"><ele>246.0</ele><time>2026-05-03T06:46:58.903Z</time></trkpt><trkpt lat="43.1741948" lon="13.2510223"><ele>246.0</ele><time>2026-05-03T06:46:59.92Z</time></trkpt><trkpt lat="43.1740727" lon="13.2509579"><ele>246.0</ele><time>2026-05-03T06:47:00.905Z</time></trkpt><trkpt lat="43.1739404" lon="13.2508979"><ele>246.0</ele><time>2026-05-03T06:47:01.924Z</time></trkpt><trkpt lat="43.1737798" lon="13.2508374"><ele>245.33333333333331</ele><time>2026-05-03T06:47:02.901Z</time></trkpt><trkpt lat="43.1735966" lon="13.2507723"><ele>244.66666666666666</ele><time>2026-05-03T06:47:03.905Z</time></trkpt><trkpt lat="43.1734121" lon="13.2507032"><ele>244.0</ele><time>2026-05-03T06:47:04.91Z</time></trkpt><trkpt lat="43.1732188" lon="13.2506289"><ele>244.0</ele><time>2026-05-03T06:47:05.909Z</time></trkpt><trkpt lat="43.1730251" lon="13.2505534"><ele>244.0</ele><time>2026-05-03T06:47:06.919Z</time></trkpt><trkpt lat="43.172844" lon="13.2504782"><ele>244.0</ele><time>2026-05-03T06:47:07.907Z</time></trkpt><trkpt lat="43.1726716" lon="13.2504031"><ele>244.0</ele><time>2026-05-03T06:47:08.93Z</time></trkpt><trkpt lat="43.1724997" lon="13.2503238"><ele>244.0</ele><time>2026-05-03T06:47:09.908Z</time></trkpt><trkpt lat="43.1723363" lon="13.2502401"><ele>244.0</ele><time>2026-05-03T06:47:10.914Z</time></trkpt><trkpt lat="43.1721876" lon="13.2501497"><ele>244.0</ele><time>2026-05-03T06:47:11.909Z</time></trkpt><trkpt lat="43.1720551" lon="13.25004"><ele>244.0</ele><time>2026-05-03T06:47:12.912Z</time></trkpt><trkpt lat="43.1719372" lon="13.2498908"><ele>244.0</ele><time>2026-05-03T06:47:13.902Z</time></trkpt><trkpt lat="43.1718374" lon="13.2497082"><ele>244.0</ele><time>2026-05-03T06:47:14.918Z</time></trkpt><trkpt lat="43.1717437" lon="13.2495076"><ele>244.0</ele><time>2026-05-03T06:47:15.916Z</time></trkpt><trkpt lat="43.1716466" lon="13.2492994"><ele>244.0</ele><time>2026-05-03T06:47:16.918Z</time></trkpt><trkpt lat="43.1715444" lon="13.2490982"><ele>245.0</ele><time>2026-05-03T06:47:17.913Z</time></trkpt><trkpt lat="43.1714426" lon="13.2489086"><ele>246.0</ele><time>2026-05-03T06:47:18.912Z</time></trkpt><trkpt lat="43.1713141" lon="13.2487518"><ele>247.0</ele><time>2026-05-03T06:47:19.924Z</time></trkpt><trkpt lat="43.1711641" lon="13.2486219"><ele>247.0</ele><time>2026-05-03T06:47:20.922Z</time></trkpt><trkpt lat="43.170994" lon="13.2485163"><ele>247.0</ele><time>2026-05-03T06:47:21.912Z</time></trkpt><trkpt lat="43.1708095" lon="13.2484361"><ele>247.0</ele><time>2026-05-03T06:47:22.913Z</time></trkpt><trkpt lat="43.1706334" lon="13.2483611"><ele>248.0</ele><time>2026-05-03T06:47:23.915Z</time></trkpt><trkpt lat="43.1704659" lon="13.2482877"><ele>249.0</ele><time>2026-05-03T06:47:24.914Z</time></trkpt><trkpt lat="43.1703242" lon="13.2481747"><ele>250.0</ele><time>2026-05-03T06:47:25.918Z</time></trkpt><trkpt lat="43.1701901" lon="13.2480212"><ele>250.0</ele><time>2026-05-03T06:47:26.926Z</time></trkpt><trkpt lat="43.1700649" lon="13.247822"><ele>250.0</ele><time>2026-05-03T06:47:27.91Z</time></trkpt><trkpt lat="43.1699564" lon="13.2475971"><ele>250.0</ele><time>2026-05-03T06:47:28.911Z</time></trkpt><trkpt lat="43.1698552" lon="13.2473615"><ele>249.0</ele><time>2026-05-03T06:47:29.905Z</time></trkpt><trkpt lat="43.1697448" lon="13.2471238"><ele>248.0</ele><time>2026-05-03T06:47:30.916Z</time></trkpt><trkpt lat="43.1696516" lon="13.2468547"><ele>247.0</ele><time>2026-05-03T06:47:31.919Z</time></trkpt><trkpt lat="43.1695553" lon="13.2465929"><ele>247.66666666666666</ele><time>2026-05-03T06:47:32.914Z</time></trkpt><trkpt lat="43.1694534" lon="13.2463573"><ele>248.33333333333331</ele><time>2026-05-03T06:47:33.92Z</time></trkpt><trkpt lat="43.1693612" lon="13.2461403"><ele>249.0</ele><time>2026-05-03T06:47:34.921Z</time></trkpt><trkpt lat="43.1692697" lon="13.2459601"><ele>249.0</ele><time>2026-05-03T06:47:35.922Z</time></trkpt><trkpt lat="43.1691715" lon="13.2458065"><ele>249.0</ele><time>2026-05-03T06:47:36.912Z</time></trkpt><trkpt lat="43.1690609" lon="13.2456625"><ele>249.0</ele><time>2026-05-03T06:47:37.92Z</time></trkpt><trkpt lat="43.1689332" lon="13.2455366"><ele>249.66666666666669</ele><time>2026-05-03T06:47:38.922Z</time></trkpt><trkpt lat="43.1687842" lon="13.2454327"><ele>250.33333333333334</ele><time>2026-05-03T06:47:39.913Z</time></trkpt><trkpt lat="43.1686166" lon="13.2453454"><ele>251.0</ele><time>2026-05-03T06:47:40.923Z</time></trkpt><trkpt lat="43.1684446" lon="13.2452622"><ele>251.0</ele><time>2026-05-03T06:47:41.916Z</time></trkpt><trkpt lat="43.1682789" lon="13.2451862"><ele>251.0</ele><time>2026-05-03T06:47:42.919Z</time></trkpt><trkpt lat="43.1681264" lon="13.2451174"><ele>251.0</ele><time>2026-05-03T06:47:43.921Z</time></trkpt><trkpt lat="43.1679796" lon="13.2450391"><ele>251.33333333333334</ele><time>2026-05-03T06:47:44.912Z</time></trkpt><trkpt lat="43.1678464" lon="13.2449386"><ele>251.66666666666669</ele><time>2026-05-03T06:47:45.914Z</time></trkpt><trkpt lat="43.1677262" lon="13.2448049"><ele>252.0</ele><time>2026-05-03T06:47:46.926Z</time></trkpt><trkpt lat="43.1676184" lon="13.2446378"><ele>251.33333333333331</ele><time>2026-05-03T06:47:47.916Z</time></trkpt><trkpt lat="43.1675133" lon="13.2444455"><ele>250.66666666666666</ele><time>2026-05-03T06:47:48.916Z</time></trkpt><trkpt lat="43.1674061" lon="13.244243"><ele>250.0</ele><time>2026-05-03T06:47:49.917Z</time></trkpt><trkpt lat="43.1672964" lon="13.2440418"><ele>251.33333333333331</ele><time>2026-05-03T06:47:50.916Z</time></trkpt><trkpt lat="43.1671835" lon="13.2438529"><ele>252.66666666666669</ele><time>2026-05-03T06:47:51.923Z</time></trkpt><trkpt lat="43.1670677" lon="13.2436812"><ele>254.0</ele><time>2026-05-03T06:47:52.903Z</time></trkpt><trkpt lat="43.1669502" lon="13.243527"><ele>254.0</ele><time>2026-05-03T06:47:53.913Z</time></trkpt><trkpt lat="43.1668326" lon="13.2433872"><ele>254.0</ele><time>2026-05-03T06:47:54.916Z</time></trkpt><trkpt lat="43.1667169" lon="13.2432545"><ele>254.0</ele><time>2026-05-03T06:47:55.92Z</time></trkpt><trkpt lat="43.1665954" lon="13.243129"><ele>255.66666666666669</ele><time>2026-05-03T06:47:56.921Z</time></trkpt><trkpt lat="43.1664654" lon="13.243013"><ele>257.3333333333333</ele><time>2026-05-03T06:47:57.917Z</time></trkpt><trkpt lat="43.1663324" lon="13.2429059"><ele>259.0</ele><time>2026-05-03T06:47:58.925Z</time></trkpt><trkpt lat="43.1662061" lon="13.242813"><ele>259.0</ele><time>2026-05-03T06:47:59.922Z</time></trkpt><trkpt lat="43.1660825" lon="13.2427305"><ele>259.0</ele><time>2026-05-03T06:48:00.928Z</time></trkpt><trkpt lat="43.1659592" lon="13.2426539"><ele>259.0</ele><time>2026-05-03T06:48:01.919Z</time></trkpt><trkpt lat="43.1658322" lon="13.2425824"><ele>259.0</ele><time>2026-05-03T06:48:02.913Z</time></trkpt><trkpt lat="43.1657007" lon="13.2425184"><ele>257.75</ele><time>2026-05-03T06:48:03.915Z</time></trkpt><trkpt lat="43.1655643" lon="13.2424586"><ele>256.5</ele><time>2026-05-03T06:48:04.924Z</time></trkpt><trkpt lat="43.165431" lon="13.2424066"><ele>255.25</ele><time>2026-05-03T06:48:05.916Z</time></trkpt><trkpt lat="43.1653136" lon="13.2423662"><ele>254.0</ele><time>2026-05-03T06:48:06.926Z</time></trkpt><trkpt lat="43.1652102" lon="13.2423337"><ele>254.0</ele><time>2026-05-03T06:48:07.919Z</time></trkpt><trkpt lat="43.1651146" lon="13.2423079"><ele>253.99999999999997</ele><time>2026-05-03T06:48:08.918Z</time></trkpt><trkpt lat="43.1650204" lon="13.2422872"><ele>253.99999999999997</ele><time>2026-05-03T06:48:09.912Z</time></trkpt><trkpt lat="43.1649167" lon="13.242265"><ele>254.0</ele><time>2026-05-03T06:48:10.915Z</time></trkpt><trkpt lat="43.1647963" lon="13.2422371"><ele>254.0</ele><time>2026-05-03T06:48:11.907Z</time></trkpt><trkpt lat="43.1646617" lon="13.2422011"><ele>253.66666666666669</ele><time>2026-05-03T06:48:12.927Z</time></trkpt><trkpt lat="43.1645138" lon="13.242161"><ele>253.33333333333331</ele><time>2026-05-03T06:48:13.922Z</time></trkpt><trkpt lat="43.1643578" lon="13.2421149"><ele>253.0</ele><time>2026-05-03T06:48:14.916Z</time></trkpt><trkpt lat="43.1641974" lon="13.2420711"><ele>253.0</ele><time>2026-05-03T06:48:15.928Z</time></trkpt><trkpt lat="43.1640272" lon="13.2420432"><ele>253.0</ele><time>2026-05-03T06:48:16.922Z</time></trkpt><trkpt lat="43.1638665" lon="13.2420527"><ele>253.0</ele><time>2026-05-03T06:48:17.923Z</time></trkpt><trkpt lat="43.1637146" lon="13.2420872"><ele>253.0</ele><time>2026-05-03T06:48:18.924Z</time></trkpt><trkpt lat="43.1635739" lon="13.2421167"><ele>253.0</ele><time>2026-05-03T06:48:19.921Z</time></trkpt><trkpt lat="43.1634387" lon="13.2421181"><ele>253.0</ele><time>2026-05-03T06:48:20.916Z</time></trkpt><trkpt lat="43.1633039" lon="13.2420773"><ele>253.0</ele><time>2026-05-03T06:48:21.911Z</time></trkpt><trkpt lat="43.1631896" lon="13.2419998"><ele>250.66666666666666</ele><time>2026-05-03T06:48:22.911Z</time></trkpt><trkpt lat="43.1630891" lon="13.2418812"><ele>248.33333333333331</ele><time>2026-05-03T06:48:23.904Z</time></trkpt><trkpt lat="43.1629911" lon="13.2417159"><ele>246.0</ele><time>2026-05-03T06:48:24.919Z</time></trkpt><trkpt lat="43.1628867" lon="13.2415201"><ele>249.66666666666669</ele><time>2026-05-03T06:48:25.922Z</time></trkpt><trkpt lat="43.1627777" lon="13.2413182"><ele>253.33333333333334</ele><time>2026-05-03T06:48:26.922Z</time></trkpt><trkpt lat="43.1626698" lon="13.2411137"><ele>257.0</ele><time>2026-05-03T06:48:27.921Z</time></trkpt><trkpt lat="43.1625617" lon="13.240921"><ele>257.0</ele><time>2026-05-03T06:48:28.925Z</time></trkpt><trkpt lat="43.1624464" lon="13.2407488"><ele>257.0</ele><time>2026-05-03T06:48:29.918Z</time></trkpt><trkpt lat="43.1623148" lon="13.2406002"><ele>257.0</ele><time>2026-05-03T06:48:30.934Z</time></trkpt><trkpt lat="43.1621674" lon="13.2404722"><ele>257.6666666666667</ele><time>2026-05-03T06:48:31.923Z</time></trkpt><trkpt lat="43.1620029" lon="13.2403636"><ele>258.3333333333333</ele><time>2026-05-03T06:48:32.915Z</time></trkpt><trkpt lat="43.161822" lon="13.2402633"><ele>259.0</ele><time>2026-05-03T06:48:33.913Z</time></trkpt><trkpt lat="43.161621" lon="13.2401555"><ele>257.0</ele><time>2026-05-03T06:48:34.921Z</time></trkpt><trkpt lat="43.1614159" lon="13.2400394"><ele>255.0</ele><time>2026-05-03T06:48:35.921Z</time></trkpt><trkpt lat="43.1612241" lon="13.2399295"><ele>253.0</ele><time>2026-05-03T06:48:36.909Z</time></trkpt><trkpt lat="43.1610443" lon="13.2398287"><ele>252.66666666666666</ele><time>2026-05-03T06:48:37.915Z</time></trkpt><trkpt lat="43.1608816" lon="13.2397351"><ele>252.33333333333331</ele><time>2026-05-03T06:48:38.922Z</time></trkpt><trkpt lat="43.160739" lon="13.2396445"><ele>252.0</ele><time>2026-05-03T06:48:39.922Z</time></trkpt><trkpt lat="43.1606127" lon="13.2395465"><ele>252.0</ele><time>2026-05-03T06:48:40.912Z</time></trkpt><trkpt lat="43.160502" lon="13.2394343"><ele>252.0</ele><time>2026-05-03T06:48:41.927Z</time></trkpt><trkpt lat="43.1604033" lon="13.2393061"><ele>252.0</ele><time>2026-05-03T06:48:42.913Z</time></trkpt><trkpt lat="43.1603186" lon="13.2391625"><ele>252.0</ele><time>2026-05-03T06:48:43.922Z</time></trkpt><trkpt lat="43.1602492" lon="13.2389984"><ele>253.0</ele><time>2026-05-03T06:48:44.922Z</time></trkpt><trkpt lat="43.1601935" lon="13.2388121"><ele>254.0</ele><time>2026-05-03T06:48:45.911Z</time></trkpt><trkpt lat="43.1601481" lon="13.2386063"><ele>255.0</ele><time>2026-05-03T06:48:46.921Z</time></trkpt><trkpt lat="43.1601064" lon="13.2383872"><ele>255.0</ele><time>2026-05-03T06:48:47.924Z</time></trkpt><trkpt lat="43.1600665" lon="13.2381556"><ele>255.0</ele><time>2026-05-03T06:48:48.926Z</time></trkpt><trkpt lat="43.1600245" lon="13.2378971"><ele>255.0</ele><time>2026-05-03T06:48:49.915Z</time></trkpt><trkpt lat="43.1599801" lon="13.2376126"><ele>255.0</ele><time>2026-05-03T06:48:50.918Z</time></trkpt><trkpt lat="43.1599332" lon="13.237313"><ele>255.0</ele><time>2026-05-03T06:48:51.926Z</time></trkpt><trkpt lat="43.1598814" lon="13.2369914"><ele>254.0</ele><time>2026-05-03T06:48:52.925Z</time></trkpt><trkpt lat="43.1598295" lon="13.2366659"><ele>253.0</ele><time>2026-05-03T06:48:53.918Z</time></trkpt><trkpt lat="43.1597791" lon="13.2363509"><ele>253.0</ele><time>2026-05-03T06:48:54.922Z</time></trkpt><trkpt lat="43.1597256" lon="13.2360624"><ele>253.0</ele><time>2026-05-03T06:48:55.928Z</time></trkpt><trkpt lat="43.1596606" lon="13.2357914"><ele>253.0</ele><time>2026-05-03T06:48:56.911Z</time></trkpt><trkpt lat="43.1595748" lon="13.2355268"><ele>256.0</ele><time>2026-05-03T06:48:57.924Z</time></trkpt><trkpt lat="43.1594701" lon="13.2352708"><ele>259.0</ele><time>2026-05-03T06:48:58.911Z</time></trkpt><trkpt lat="43.15936" lon="13.2350275"><ele>262.0</ele><time>2026-05-03T06:48:59.927Z</time></trkpt><trkpt lat="43.1592456" lon="13.2347765"><ele>260.3333333333333</ele><time>2026-05-03T06:49:00.922Z</time></trkpt><trkpt lat="43.1591338" lon="13.2345243"><ele>258.6666666666667</ele><time>2026-05-03T06:49:01.926Z</time></trkpt><trkpt lat="43.15901" lon="13.2342674"><ele>257.0</ele><time>2026-05-03T06:49:02.915Z</time></trkpt><trkpt lat="43.1588822" lon="13.2340134"><ele>259.0</ele><time>2026-05-03T06:49:03.905Z</time></trkpt><trkpt lat="43.1587633" lon="13.2337579"><ele>261.0</ele><time>2026-05-03T06:49:04.907Z</time></trkpt><trkpt lat="43.1586484" lon="13.2335139"><ele>263.0</ele><time>2026-05-03T06:49:05.916Z</time></trkpt><trkpt lat="43.1585412" lon="13.233269"><ele>264.6666666666667</ele><time>2026-05-03T06:49:06.907Z</time></trkpt><trkpt lat="43.1584348" lon="13.2330345"><ele>266.3333333333333</ele><time>2026-05-03T06:49:07.934Z</time></trkpt><trkpt lat="43.1583261" lon="13.2328065"><ele>268.0</ele><time>2026-05-03T06:49:08.922Z</time></trkpt><trkpt lat="43.1582019" lon="13.2325837"><ele>268.66666666666663</ele><time>2026-05-03T06:49:09.912Z</time></trkpt><trkpt lat="43.1580714" lon="13.2323707"><ele>269.3333333333333</ele><time>2026-05-03T06:49:10.924Z</time></trkpt><trkpt lat="43.1579433" lon="13.2321705"><ele>270.0</ele><time>2026-05-03T06:49:11.915Z</time></trkpt><trkpt lat="43.1578164" lon="13.2319842"><ele>270.0</ele><time>2026-05-03T06:49:12.922Z</time></trkpt><trkpt lat="43.1577012" lon="13.2318063"><ele>270.0</ele><time>2026-05-03T06:49:13.912Z</time></trkpt><trkpt lat="43.1575997" lon="13.2316223"><ele>270.0</ele><time>2026-05-03T06:49:14.925Z</time></trkpt><trkpt lat="43.1575113" lon="13.2314245"><ele>271.0</ele><time>2026-05-03T06:49:15.916Z</time></trkpt><trkpt lat="43.1574232" lon="13.2312232"><ele>272.0</ele><time>2026-05-03T06:49:16.917Z</time></trkpt><trkpt lat="43.1573545" lon="13.2309877"><ele>273.0</ele><time>2026-05-03T06:49:17.926Z</time></trkpt><trkpt lat="43.1572956" lon="13.2307343"><ele>268.3333333333333</ele><time>2026-05-03T06:49:18.919Z</time></trkpt><trkpt lat="43.157247" lon="13.2304543"><ele>263.66666666666663</ele><time>2026-05-03T06:49:19.927Z</time></trkpt><trkpt lat="43.1571783" lon="13.2301698"><ele>259.0</ele><time>2026-05-03T06:49:20.922Z</time></trkpt><trkpt lat="43.1571083" lon="13.2298705"><ele>263.0</ele><time>2026-05-03T06:49:21.913Z</time></trkpt><trkpt lat="43.1569932" lon="13.2295759"><ele>267.0</ele><time>2026-05-03T06:49:22.909Z</time></trkpt><trkpt lat="43.1568715" lon="13.2292769"><ele>267.0</ele><time>2026-05-03T06:49:23.911Z</time></trkpt><trkpt lat="43.1567232" lon="13.2289941"><ele>267.0</ele><time>2026-05-03T06:49:24.933Z</time></trkpt><trkpt lat="43.1565893" lon="13.2287212"><ele>267.3333333333333</ele><time>2026-05-03T06:49:25.91Z</time></trkpt><trkpt lat="43.1564696" lon="13.2284613"><ele>267.66666666666663</ele><time>2026-05-03T06:49:26.917Z</time></trkpt><trkpt lat="43.1563872" lon="13.2282002"><ele>268.0</ele><time>2026-05-03T06:49:27.915Z</time></trkpt><trkpt lat="43.1563072" lon="13.2279458"><ele>268.0</ele><time>2026-05-03T06:49:28.921Z</time></trkpt><trkpt lat="43.1562151" lon="13.2277038"><ele>268.0</ele><time>2026-05-03T06:49:29.909Z</time></trkpt><trkpt lat="43.1561126" lon="13.2274643"><ele>268.0</ele><time>2026-05-03T06:49:30.91Z</time></trkpt><trkpt lat="43.1559893" lon="13.2272243"><ele>266.0</ele><time>2026-05-03T06:49:31.915Z</time></trkpt><trkpt lat="43.1558485" lon="13.2269793"><ele>264.0</ele><time>2026-05-03T06:49:32.904Z</time></trkpt><trkpt lat="43.1556874" lon="13.226734"><ele>264.0</ele><time>2026-05-03T06:49:33.928Z</time></trkpt><trkpt lat="43.1555176" lon="13.2264794"><ele>264.0</ele><time>2026-05-03T06:49:34.915Z</time></trkpt><trkpt lat="43.1553512" lon="13.2262312"><ele>266.0</ele><time>2026-05-03T06:49:35.919Z</time></trkpt><trkpt lat="43.1551915" lon="13.2259914"><ele>268.0</ele><time>2026-05-03T06:49:36.911Z</time></trkpt><trkpt lat="43.1550485" lon="13.2257749"><ele>268.66666666666663</ele><time>2026-05-03T06:49:37.913Z</time></trkpt><trkpt lat="43.1549129" lon="13.2255712"><ele>269.3333333333333</ele><time>2026-05-03T06:49:38.92Z</time></trkpt><trkpt lat="43.1547956" lon="13.2253689"><ele>270.0</ele><time>2026-05-03T06:49:39.915Z</time></trkpt><trkpt lat="43.1546908" lon="13.2251804"><ele>268.0</ele><time>2026-05-03T06:49:40.922Z</time></trkpt><trkpt lat="43.1546143" lon="13.2249791"><ele>266.0</ele><time>2026-05-03T06:49:41.918Z</time></trkpt><trkpt lat="43.1545506" lon="13.2247705"><ele>264.0</ele><time>2026-05-03T06:49:42.921Z</time></trkpt><trkpt lat="43.1544993" lon="13.2245523"><ele>264.0</ele><time>2026-05-03T06:49:43.897Z</time></trkpt><trkpt lat="43.1544921" lon="13.2243229"><ele>264.0</ele><time>2026-05-03T06:49:44.905Z</time></trkpt><trkpt lat="43.154499" lon="13.2240814"><ele>264.0</ele><time>2026-05-03T06:49:45.921Z</time></trkpt><trkpt lat="43.1545102" lon="13.2238277"><ele>263.6666666666667</ele><time>2026-05-03T06:49:46.91Z</time></trkpt><trkpt lat="43.1545186" lon="13.2235774"><ele>263.33333333333337</ele><time>2026-05-03T06:49:47.915Z</time></trkpt><trkpt lat="43.1545156" lon="13.2233333"><ele>263.0</ele><time>2026-05-03T06:49:48.919Z</time></trkpt><trkpt lat="43.1545017" lon="13.2230908"><ele>264.33333333333337</ele><time>2026-05-03T06:49:49.912Z</time></trkpt><trkpt lat="43.1544727" lon="13.2228532"><ele>265.6666666666667</ele><time>2026-05-03T06:49:50.919Z</time></trkpt><trkpt lat="43.1544189" lon="13.2226168"><ele>267.0</ele><time>2026-05-03T06:49:51.907Z</time></trkpt><trkpt lat="43.1543368" lon="13.2223834"><ele>266.3333333333333</ele><time>2026-05-03T06:49:52.92Z</time></trkpt><trkpt lat="43.1542285" lon="13.222159"><ele>265.66666666666663</ele><time>2026-05-03T06:49:53.916Z</time></trkpt><trkpt lat="43.1541168" lon="13.2219404"><ele>265.0</ele><time>2026-05-03T06:49:54.912Z</time></trkpt><trkpt lat="43.1539685" lon="13.2217497"><ele>265.0</ele><time>2026-05-03T06:49:55.922Z</time></trkpt><trkpt lat="43.1538023" lon="13.2215576"><ele>265.0</ele><time>2026-05-03T06:49:56.913Z</time></trkpt><trkpt lat="43.1536306" lon="13.2213591"><ele>265.0</ele><time>2026-05-03T06:49:57.926Z</time></trkpt><trkpt lat="43.1534555" lon="13.2211522"><ele>266.0</ele><time>2026-05-03T06:49:58.92Z</time></trkpt><trkpt lat="43.1532947" lon="13.2209614"><ele>267.0</ele><time>2026-05-03T06:49:59.924Z</time></trkpt><trkpt lat="43.1531472" lon="13.2207786"><ele>268.0</ele><time>2026-05-03T06:50:00.919Z</time></trkpt><trkpt lat="43.1530133" lon="13.2206128"><ele>270.3333333333333</ele><time>2026-05-03T06:50:01.919Z</time></trkpt><trkpt lat="43.1528888" lon="13.2204587"><ele>272.6666666666667</ele><time>2026-05-03T06:50:02.938Z</time></trkpt><trkpt lat="43.1527656" lon="13.220315"><ele>275.0</ele><time>2026-05-03T06:50:03.914Z</time></trkpt><trkpt lat="43.15265" lon="13.2201846"><ele>275.0</ele><time>2026-05-03T06:50:04.904Z</time></trkpt><trkpt lat="43.1525181" lon="13.2200731"><ele>275.0</ele><time>2026-05-03T06:50:05.919Z</time></trkpt><trkpt lat="43.1523699" lon="13.2199802"><ele>275.0</ele><time>2026-05-03T06:50:06.914Z</time></trkpt><trkpt lat="43.1521971" lon="13.2199402"><ele>274.6666666666667</ele><time>2026-05-03T06:50:07.921Z</time></trkpt><trkpt lat="43.1520245" lon="13.2198987"><ele>274.3333333333333</ele><time>2026-05-03T06:50:08.92Z</time></trkpt><trkpt lat="43.151843" lon="13.21983"><ele>274.0</ele><time>2026-05-03T06:50:09.906Z</time></trkpt><trkpt lat="43.1516623" lon="13.2197411"><ele>273.66666666666663</ele><time>2026-05-03T06:50:10.912Z</time></trkpt><trkpt lat="43.1514856" lon="13.2196445"><ele>273.3333333333333</ele><time>2026-05-03T06:50:11.91Z</time></trkpt><trkpt lat="43.1513195" lon="13.2195504"><ele>273.0</ele><time>2026-05-03T06:50:12.911Z</time></trkpt><trkpt lat="43.1511712" lon="13.2194629"><ele>273.0</ele><time>2026-05-03T06:50:13.916Z</time></trkpt><trkpt lat="43.1510266" lon="13.2193758"><ele>273.0</ele><time>2026-05-03T06:50:14.919Z</time></trkpt><trkpt lat="43.150895" lon="13.2192646"><ele>273.0</ele><time>2026-05-03T06:50:15.91Z</time></trkpt><trkpt lat="43.150771" lon="13.2191349"><ele>270.3333333333333</ele><time>2026-05-03T06:50:16.909Z</time></trkpt><trkpt lat="43.150663" lon="13.2189718"><ele>267.66666666666663</ele><time>2026-05-03T06:50:17.917Z</time></trkpt><trkpt lat="43.150557" lon="13.2187922"><ele>265.0</ele><time>2026-05-03T06:50:18.916Z</time></trkpt><trkpt lat="43.1504833" lon="13.2185692"><ele>265.0</ele><time>2026-05-03T06:50:19.91Z</time></trkpt><trkpt lat="43.1504251" lon="13.2183243"><ele>265.0</ele><time>2026-05-03T06:50:20.901Z</time></trkpt><trkpt lat="43.1503767" lon="13.2180706"><ele>265.0</ele><time>2026-05-03T06:50:21.915Z</time></trkpt><trkpt lat="43.1503286" lon="13.2178031"><ele>266.0</ele><time>2026-05-03T06:50:22.905Z</time></trkpt><trkpt lat="43.1502823" lon="13.21753"><ele>267.0</ele><time>2026-05-03T06:50:23.929Z</time></trkpt><trkpt lat="43.1502368" lon="13.2172682"><ele>268.0</ele><time>2026-05-03T06:50:24.915Z</time></trkpt><trkpt lat="43.1501875" lon="13.2170039"><ele>270.3333333333333</ele><time>2026-05-03T06:50:25.913Z</time></trkpt><trkpt lat="43.1501373" lon="13.216734"><ele>272.6666666666667</ele><time>2026-05-03T06:50:26.917Z</time></trkpt><trkpt lat="43.1500869" lon="13.2164605"><ele>275.0</ele><time>2026-05-03T06:50:27.915Z</time></trkpt><trkpt lat="43.1500365" lon="13.2161838"><ele>275.0</ele><time>2026-05-03T06:50:28.908Z</time></trkpt><trkpt lat="43.1499903" lon="13.2159056"><ele>275.0</ele><time>2026-05-03T06:50:29.912Z</time></trkpt><trkpt lat="43.1499424" lon="13.2156321"><ele>275.0</ele><time>2026-05-03T06:50:30.924Z</time></trkpt><trkpt lat="43.1498954" lon="13.2153648"><ele>275.0</ele><time>2026-05-03T06:50:31.924Z</time></trkpt><trkpt lat="43.149849" lon="13.215105"><ele>275.0</ele><time>2026-05-03T06:50:32.913Z</time></trkpt><trkpt lat="43.149801" lon="13.2148537"><ele>275.0</ele><time>2026-05-03T06:50:33.918Z</time></trkpt><trkpt lat="43.1497525" lon="13.2146103"><ele>275.6666666666667</ele><time>2026-05-03T06:50:34.918Z</time></trkpt><trkpt lat="43.1497082" lon="13.2143745"><ele>276.3333333333333</ele><time>2026-05-03T06:50:35.913Z</time></trkpt><trkpt lat="43.1496678" lon="13.2141469"><ele>277.0</ele><time>2026-05-03T06:50:36.923Z</time></trkpt><trkpt lat="43.1496296" lon="13.2139282"><ele>277.3333333333333</ele><time>2026-05-03T06:50:37.904Z</time></trkpt><trkpt lat="43.1495895" lon="13.2137177"><ele>277.6666666666667</ele><time>2026-05-03T06:50:38.923Z</time></trkpt><trkpt lat="43.149541" lon="13.2135135"><ele>278.0</ele><time>2026-05-03T06:50:39.915Z</time></trkpt><trkpt lat="43.1494705" lon="13.2133125"><ele>279.33333333333337</ele><time>2026-05-03T06:50:40.898Z</time></trkpt><trkpt lat="43.1493758" lon="13.2131209"><ele>280.6666666666667</ele><time>2026-05-03T06:50:41.926Z</time></trkpt><trkpt lat="43.1492705" lon="13.2129314"><ele>282.0</ele><time>2026-05-03T06:50:42.916Z</time></trkpt><trkpt lat="43.1491667" lon="13.2127469"><ele>282.0</ele><time>2026-05-03T06:50:43.929Z</time></trkpt><trkpt lat="43.1490692" lon="13.2125783"><ele>282.0</ele><time>2026-05-03T06:50:44.916Z</time></trkpt><trkpt lat="43.148977" lon="13.2124245"><ele>282.0</ele><time>2026-05-03T06:50:45.915Z</time></trkpt><trkpt lat="43.1488795" lon="13.2122709"><ele>281.6666666666667</ele><time>2026-05-03T06:50:46.918Z</time></trkpt><trkpt lat="43.1487748" lon="13.2121203"><ele>281.33333333333337</ele><time>2026-05-03T06:50:47.924Z</time></trkpt><trkpt lat="43.1486478" lon="13.2119659"><ele>281.0</ele><time>2026-05-03T06:50:48.92Z</time></trkpt><trkpt lat="43.1485146" lon="13.2118232"><ele>281.0</ele><time>2026-05-03T06:50:49.923Z</time></trkpt><trkpt lat="43.1483827" lon="13.2116907"><ele>281.0</ele><time>2026-05-03T06:50:50.931Z</time></trkpt><trkpt lat="43.1482664" lon="13.211579"><ele>281.0</ele><time>2026-05-03T06:50:51.92Z</time></trkpt><trkpt lat="43.1481603" lon="13.2114631"><ele>281.0</ele><time>2026-05-03T06:50:52.927Z</time></trkpt><trkpt lat="43.148057" lon="13.2113451"><ele>280.6666666666667</ele><time>2026-05-03T06:50:53.924Z</time></trkpt><trkpt lat="43.1479582" lon="13.2112131"><ele>280.3333333333333</ele><time>2026-05-03T06:50:54.904Z</time></trkpt><trkpt lat="43.1478527" lon="13.2110604"><ele>280.0</ele><time>2026-05-03T06:50:55.902Z</time></trkpt><trkpt lat="43.147744" lon="13.2108777"><ele>280.0</ele><time>2026-05-03T06:50:56.921Z</time></trkpt><trkpt lat="43.1476299" lon="13.2106736"><ele>280.0</ele><time>2026-05-03T06:50:57.91Z</time></trkpt><trkpt lat="43.1475201" lon="13.2104505"><ele>280.0</ele><time>2026-05-03T06:50:58.908Z</time></trkpt><trkpt lat="43.1474203" lon="13.2102232"><ele>279.3333333333333</ele><time>2026-05-03T06:50:59.917Z</time></trkpt><trkpt lat="43.1473246" lon="13.2099887"><ele>278.6666666666667</ele><time>2026-05-03T06:51:00.904Z</time></trkpt><trkpt lat="43.1472339" lon="13.2097518"><ele>278.0</ele><time>2026-05-03T06:51:01.928Z</time></trkpt><trkpt lat="43.147147" lon="13.2095133"><ele>279.6666666666667</ele><time>2026-05-03T06:51:02.904Z</time></trkpt><trkpt lat="43.1470642" lon="13.2092747"><ele>281.3333333333333</ele><time>2026-05-03T06:51:03.926Z</time></trkpt><trkpt lat="43.1469861" lon="13.2090488"><ele>283.0</ele><time>2026-05-03T06:51:04.91Z</time></trkpt><trkpt lat="43.146914" lon="13.2088411"><ele>285.3333333333333</ele><time>2026-05-03T06:51:05.905Z</time></trkpt><trkpt lat="43.146843" lon="13.2086428"><ele>287.6666666666667</ele><time>2026-05-03T06:51:06.913Z</time></trkpt><trkpt lat="43.1467698" lon="13.2084459"><ele>290.0</ele><time>2026-05-03T06:51:07.914Z</time></trkpt><trkpt lat="43.1466957" lon="13.2082501"><ele>290.0</ele><time>2026-05-03T06:51:08.915Z</time></trkpt><trkpt lat="43.1466209" lon="13.2080524"><ele>290.0</ele><time>2026-05-03T06:51:09.912Z</time></trkpt><trkpt lat="43.146545" lon="13.2078536"><ele>290.0</ele><time>2026-05-03T06:51:10.912Z</time></trkpt><trkpt lat="43.1464694" lon="13.2076543"><ele>290.0</ele><time>2026-05-03T06:51:11.925Z</time></trkpt><trkpt lat="43.1464017" lon="13.207468"><ele>290.0</ele><time>2026-05-03T06:51:12.923Z</time></trkpt><trkpt lat="43.1463464" lon="13.207287"><ele>290.0</ele><time>2026-05-03T06:51:13.915Z</time></trkpt><trkpt lat="43.1463058" lon="13.2070945"><ele>290.0</ele><time>2026-05-03T06:51:14.908Z</time></trkpt><trkpt lat="43.1462873" lon="13.2068873"><ele>290.0</ele><time>2026-05-03T06:51:15.91Z</time></trkpt><trkpt lat="43.1462936" lon="13.2066687"><ele>290.0</ele><time>2026-05-03T06:51:16.912Z</time></trkpt><trkpt lat="43.1463117" lon="13.2064607"><ele>290.0</ele><time>2026-05-03T06:51:17.917Z</time></trkpt><trkpt lat="43.1463494" lon="13.2062667"><ele>289.0</ele><time>2026-05-03T06:51:18.923Z</time></trkpt><trkpt lat="43.1463989" lon="13.2061067"><ele>288.0</ele><time>2026-05-03T06:51:19.921Z</time></trkpt><trkpt lat="43.1464581" lon="13.2059446"><ele>287.0</ele><time>2026-05-03T06:51:20.911Z</time></trkpt><trkpt lat="43.1465351" lon="13.2057928"><ele>286.0</ele><time>2026-05-03T06:51:21.923Z</time></trkpt><trkpt lat="43.1466238" lon="13.2056272"><ele>289.66666666666663</ele><time>2026-05-03T06:51:22.92Z</time></trkpt><trkpt lat="43.1467163" lon="13.2054451"><ele>293.3333333333333</ele><time>2026-05-03T06:51:23.916Z</time></trkpt><trkpt lat="43.1467994" lon="13.2052456"><ele>297.0</ele><time>2026-05-03T06:51:24.924Z</time></trkpt><trkpt lat="43.1468746" lon="13.2050402"><ele>298.3333333333333</ele><time>2026-05-03T06:51:25.9Z</time></trkpt><trkpt lat="43.1469042" lon="13.2048039"><ele>299.66666666666663</ele><time>2026-05-03T06:51:26.917Z</time></trkpt><trkpt lat="43.1469193" lon="13.2045347"><ele>301.0</ele><time>2026-05-03T06:51:27.902Z</time></trkpt><trkpt lat="43.1469146" lon="13.2042345"><ele>300.5</ele><time>2026-05-03T06:51:28.921Z</time></trkpt><trkpt lat="43.1468988" lon="13.2039203"><ele>300.0</ele><time>2026-05-03T06:51:29.922Z</time></trkpt><trkpt lat="43.1468797" lon="13.2036054"><ele>300.0</ele><time>2026-05-03T06:51:30.914Z</time></trkpt><trkpt lat="43.1468659" lon="13.2033111"><ele>300.0</ele><time>2026-05-03T06:51:31.922Z</time></trkpt><trkpt lat="43.1468548" lon="13.203042"><ele>300.0</ele><time>2026-05-03T06:51:32.906Z</time></trkpt><trkpt lat="43.1468501" lon="13.2027979"><ele>300.6666666666667</ele><time>2026-05-03T06:51:33.918Z</time></trkpt><trkpt lat="43.1468482" lon="13.2025725"><ele>301.33333333333337</ele><time>2026-05-03T06:51:34.923Z</time></trkpt><trkpt lat="43.1468474" lon="13.2023515"><ele>302.0</ele><time>2026-05-03T06:51:35.928Z</time></trkpt><trkpt lat="43.1468462" lon="13.20213"><ele>303.0</ele><time>2026-05-03T06:51:36.924Z</time></trkpt><trkpt lat="43.14684" lon="13.2019024"><ele>304.0</ele><time>2026-05-03T06:51:37.923Z</time></trkpt><trkpt lat="43.146828" lon="13.2016702"><ele>305.0</ele><time>2026-05-03T06:51:38.927Z</time></trkpt><trkpt lat="43.1468087" lon="13.201431"><ele>306.6666666666667</ele><time>2026-05-03T06:51:39.916Z</time></trkpt><trkpt lat="43.1467834" lon="13.2011904"><ele>308.3333333333333</ele><time>2026-05-03T06:51:40.923Z</time></trkpt><trkpt lat="43.1467487" lon="13.2009527"><ele>310.0</ele><time>2026-05-03T06:51:41.926Z</time></trkpt><trkpt lat="43.1466964" lon="13.2007183"><ele>307.66666666666663</ele><time>2026-05-03T06:51:42.918Z</time></trkpt><trkpt lat="43.1466264" lon="13.2004872"><ele>305.3333333333333</ele><time>2026-05-03T06:51:43.923Z</time></trkpt><trkpt lat="43.1465434" lon="13.2002619"><ele>303.0</ele><time>2026-05-03T06:51:44.912Z</time></trkpt><trkpt lat="43.1464534" lon="13.2000596"><ele>303.0</ele><time>2026-05-03T06:51:45.909Z</time></trkpt><trkpt lat="43.1463575" lon="13.1998873"><ele>303.0</ele><time>2026-05-03T06:51:46.918Z</time></trkpt><trkpt lat="43.1462497" lon="13.1997362"><ele>303.0</ele><time>2026-05-03T06:51:47.916Z</time></trkpt><trkpt lat="43.1461379" lon="13.1996117"><ele>303.25</ele><time>2026-05-03T06:51:48.914Z</time></trkpt><trkpt lat="43.1460321" lon="13.1995013"><ele>303.5</ele><time>2026-05-03T06:51:49.914Z</time></trkpt><trkpt lat="43.1459402" lon="13.1993917"><ele>303.75</ele><time>2026-05-03T06:51:50.92Z</time></trkpt><trkpt lat="43.1458675" lon="13.1992819"><ele>304.0</ele><time>2026-05-03T06:51:51.915Z</time></trkpt><trkpt lat="43.1458178" lon="13.1991695"><ele>304.0</ele><time>2026-05-03T06:51:52.915Z</time></trkpt><trkpt lat="43.1457917" lon="13.19905"><ele>304.0</ele><time>2026-05-03T06:51:53.916Z</time></trkpt><trkpt lat="43.1457982" lon="13.1989362"><ele>304.0</ele><time>2026-05-03T06:51:54.897Z</time></trkpt><trkpt lat="43.145838" lon="13.1988371"><ele>304.0</ele><time>2026-05-03T06:51:55.908Z</time></trkpt><trkpt lat="43.1458882" lon="13.198735"><ele>304.0</ele><time>2026-05-03T06:51:56.902Z</time></trkpt><trkpt lat="43.145972" lon="13.1986366"><ele>304.8</ele><time>2026-05-03T06:51:57.9Z</time></trkpt><trkpt lat="43.1460675" lon="13.1985727"><ele>305.59999999999997</ele><time>2026-05-03T06:51:58.908Z</time></trkpt><trkpt lat="43.1461353" lon="13.1985238"><ele>306.4</ele><time>2026-05-03T06:51:59.906Z</time></trkpt><trkpt lat="43.1462189" lon="13.198429"><ele>307.2</ele><time>2026-05-03T06:52:01.896Z</time></trkpt><trkpt lat="43.1461985" lon="13.1982367"><ele>308.0</ele><time>2026-05-03T06:52:03.906Z</time></trkpt><trkpt lat="43.146116" lon="13.1981078"><ele>309.75</ele><time>2026-05-03T06:52:04.91Z</time></trkpt><trkpt lat="43.1460175" lon="13.197969"><ele>311.5</ele><time>2026-05-03T06:52:05.922Z</time></trkpt><trkpt lat="43.1458941" lon="13.197856"><ele>313.25</ele><time>2026-05-03T06:52:06.924Z</time></trkpt><trkpt lat="43.1457676" lon="13.1977267"><ele>315.0</ele><time>2026-05-03T06:52:07.919Z</time></trkpt><trkpt lat="43.1456565" lon="13.1975741"><ele>310.0</ele><time>2026-05-03T06:52:08.919Z</time></trkpt><trkpt lat="43.1455678" lon="13.1973941"><ele>305.0</ele><time>2026-05-03T06:52:09.92Z</time></trkpt><trkpt lat="43.1454876" lon="13.1971685"><ele>300.0</ele><time>2026-05-03T06:52:10.915Z</time></trkpt><trkpt lat="43.1454098" lon="13.1969154"><ele>300.0</ele><time>2026-05-03T06:52:11.915Z</time></trkpt><trkpt lat="43.1453412" lon="13.1966415"><ele>300.0</ele><time>2026-05-03T06:52:12.918Z</time></trkpt><trkpt lat="43.1452734" lon="13.1963597"><ele>300.0</ele><time>2026-05-03T06:52:13.921Z</time></trkpt><trkpt lat="43.145221" lon="13.1960739"><ele>301.3333333333333</ele><time>2026-05-03T06:52:14.897Z</time></trkpt><trkpt lat="43.1451798" lon="13.1957903"><ele>302.66666666666663</ele><time>2026-05-03T06:52:15.915Z</time></trkpt><trkpt lat="43.1451362" lon="13.1954985"><ele>304.0</ele><time>2026-05-03T06:52:16.898Z</time></trkpt><trkpt lat="43.1450991" lon="13.1951898"><ele>306.66666666666663</ele><time>2026-05-03T06:52:17.918Z</time></trkpt><trkpt lat="43.1450604" lon="13.194894"><ele>309.3333333333333</ele><time>2026-05-03T06:52:18.922Z</time></trkpt><trkpt lat="43.1450196" lon="13.1945852"><ele>312.0</ele><time>2026-05-03T06:52:19.923Z</time></trkpt><trkpt lat="43.1449806" lon="13.1942826"><ele>308.0</ele><time>2026-05-03T06:52:20.917Z</time></trkpt><trkpt lat="43.1449325" lon="13.1939811"><ele>304.0</ele><time>2026-05-03T06:52:21.906Z</time></trkpt><trkpt lat="43.1448663" lon="13.1936764"><ele>304.0</ele><time>2026-05-03T06:52:22.913Z</time></trkpt><trkpt lat="43.1448118" lon="13.1933725"><ele>304.0</ele><time>2026-05-03T06:52:23.901Z</time></trkpt><trkpt lat="43.1447627" lon="13.1930668"><ele>306.0</ele><time>2026-05-03T06:52:24.915Z</time></trkpt><trkpt lat="43.1447265" lon="13.1927584"><ele>308.0</ele><time>2026-05-03T06:52:25.908Z</time></trkpt><trkpt lat="43.1447003" lon="13.192443"><ele>307.0</ele><time>2026-05-03T06:52:26.921Z</time></trkpt><trkpt lat="43.1446594" lon="13.1921299"><ele>306.0</ele><time>2026-05-03T06:52:27.916Z</time></trkpt><trkpt lat="43.1446218" lon="13.1918159"><ele>306.0</ele><time>2026-05-03T06:52:28.905Z</time></trkpt><trkpt lat="43.1445822" lon="13.1915124"><ele>306.0</ele><time>2026-05-03T06:52:29.916Z</time></trkpt><trkpt lat="43.1445407" lon="13.1912026"><ele>306.6666666666667</ele><time>2026-05-03T06:52:30.909Z</time></trkpt><trkpt lat="43.1445005" lon="13.1909073"><ele>307.33333333333337</ele><time>2026-05-03T06:52:31.92Z</time></trkpt><trkpt lat="43.1444585" lon="13.1906146"><ele>308.0</ele><time>2026-05-03T06:52:32.921Z</time></trkpt><trkpt lat="43.1444068" lon="13.1903219"><ele>308.6666666666667</ele><time>2026-05-03T06:52:33.919Z</time></trkpt><trkpt lat="43.14435" lon="13.1900383"><ele>309.3333333333333</ele><time>2026-05-03T06:52:34.921Z</time></trkpt><trkpt lat="43.144292" lon="13.1897743"><ele>310.0</ele><time>2026-05-03T06:52:35.928Z</time></trkpt><trkpt lat="43.1442262" lon="13.1895216"><ele>310.66666666666663</ele><time>2026-05-03T06:52:36.907Z</time></trkpt><trkpt lat="43.144153" lon="13.1892647"><ele>311.3333333333333</ele><time>2026-05-03T06:52:37.913Z</time></trkpt><trkpt lat="43.1440672" lon="13.1890071"><ele>312.0</ele><time>2026-05-03T06:52:38.919Z</time></trkpt><trkpt lat="43.143962" lon="13.1887482"><ele>312.0</ele><time>2026-05-03T06:52:39.916Z</time></trkpt><trkpt lat="43.1438432" lon="13.1884883"><ele>312.0</ele><time>2026-05-03T06:52:40.92Z</time></trkpt><trkpt lat="43.1437139" lon="13.1882337"><ele>313.0</ele><time>2026-05-03T06:52:41.9Z</time></trkpt><trkpt lat="43.1435729" lon="13.1879743"><ele>314.0</ele><time>2026-05-03T06:52:42.918Z</time></trkpt><trkpt lat="43.1434268" lon="13.1877227"><ele>314.0</ele><time>2026-05-03T06:52:43.909Z</time></trkpt><trkpt lat="43.1432811" lon="13.1874735"><ele>314.0</ele><time>2026-05-03T06:52:44.914Z</time></trkpt><trkpt lat="43.1431285" lon="13.1872266"><ele>309.5</ele><time>2026-05-03T06:52:45.921Z</time></trkpt><trkpt lat="43.1429774" lon="13.1869818"><ele>305.0</ele><time>2026-05-03T06:52:46.901Z</time></trkpt><trkpt lat="43.1428236" lon="13.1867291"><ele>306.5</ele><time>2026-05-03T06:52:47.919Z</time></trkpt><trkpt lat="43.1426732" lon="13.1864712"><ele>308.0</ele><time>2026-05-03T06:52:48.921Z</time></trkpt><trkpt lat="43.1425272" lon="13.1862033"><ele>308.0</ele><time>2026-05-03T06:52:49.919Z</time></trkpt><trkpt lat="43.1423854" lon="13.185924"><ele>308.0</ele><time>2026-05-03T06:52:50.916Z</time></trkpt><trkpt lat="43.1422455" lon="13.1856362"><ele>307.5</ele><time>2026-05-03T06:52:51.917Z</time></trkpt><trkpt lat="43.1421051" lon="13.1853414"><ele>307.0</ele><time>2026-05-03T06:52:52.927Z</time></trkpt><trkpt lat="43.1419704" lon="13.1850419"><ele>313.5</ele><time>2026-05-03T06:52:53.916Z</time></trkpt><trkpt lat="43.1418399" lon="13.1847319"><ele>320.0</ele><time>2026-05-03T06:52:54.929Z</time></trkpt><trkpt lat="43.1417204" lon="13.1844187"><ele>320.0</ele><time>2026-05-03T06:52:55.904Z</time></trkpt><trkpt lat="43.1416069" lon="13.1840929"><ele>320.0</ele><time>2026-05-03T06:52:56.918Z</time></trkpt><trkpt lat="43.1415024" lon="13.1837642"><ele>314.0</ele><time>2026-05-03T06:52:57.918Z</time></trkpt><trkpt lat="43.1414045" lon="13.1834271"><ele>308.0</ele><time>2026-05-03T06:52:58.915Z</time></trkpt><trkpt lat="43.141311" lon="13.1830806"><ele>308.0</ele><time>2026-05-03T06:52:59.922Z</time></trkpt><trkpt lat="43.1412223" lon="13.1827326"><ele>308.0</ele><time>2026-05-03T06:53:00.916Z</time></trkpt><trkpt lat="43.1411406" lon="13.1823814"><ele>313.0</ele><time>2026-05-03T06:53:01.913Z</time></trkpt><trkpt lat="43.1410688" lon="13.1820297"><ele>318.0</ele><time>2026-05-03T06:53:02.902Z</time></trkpt><trkpt lat="43.141005" lon="13.1816769"><ele>322.0</ele><time>2026-05-03T06:53:03.909Z</time></trkpt><trkpt lat="43.1409465" lon="13.1813306"><ele>326.0</ele><time>2026-05-03T06:53:04.909Z</time></trkpt><trkpt lat="43.1408893" lon="13.1809891"><ele>327.5</ele><time>2026-05-03T06:53:05.922Z</time></trkpt><trkpt lat="43.1408357" lon="13.1806692"><ele>329.0</ele><time>2026-05-03T06:53:06.913Z</time></trkpt><trkpt lat="43.1407885" lon="13.1803783"><ele>329.0</ele><time>2026-05-03T06:53:07.916Z</time></trkpt><trkpt lat="43.1407439" lon="13.1801112"><ele>329.0</ele><time>2026-05-03T06:53:08.922Z</time></trkpt><trkpt lat="43.1407033" lon="13.1798716"><ele>329.0</ele><time>2026-05-03T06:53:09.911Z</time></trkpt><trkpt lat="43.1406647" lon="13.1796433"><ele>322.33333333333337</ele><time>2026-05-03T06:53:10.91Z</time></trkpt><trkpt lat="43.1406258" lon="13.1794288"><ele>315.6666666666667</ele><time>2026-05-03T06:53:11.899Z</time></trkpt><trkpt lat="43.1405863" lon="13.1792256"><ele>309.0</ele><time>2026-05-03T06:53:12.916Z</time></trkpt><trkpt lat="43.1405402" lon="13.1790302"><ele>310.6666666666667</ele><time>2026-05-03T06:53:13.902Z</time></trkpt><trkpt lat="43.1404799" lon="13.1788204"><ele>312.33333333333337</ele><time>2026-05-03T06:53:14.92Z</time></trkpt><trkpt lat="43.140399" lon="13.1786073"><ele>314.0</ele><time>2026-05-03T06:53:15.901Z</time></trkpt><trkpt lat="43.1403083" lon="13.1783912"><ele>315.0</ele><time>2026-05-03T06:53:16.909Z</time></trkpt><trkpt lat="43.1402011" lon="13.1781768"><ele>316.0</ele><time>2026-05-03T06:53:17.902Z</time></trkpt><trkpt lat="43.1400811" lon="13.1779594"><ele>317.0</ele><time>2026-05-03T06:53:18.903Z</time></trkpt><trkpt lat="43.1399457" lon="13.1777415"><ele>312.6666666666667</ele><time>2026-05-03T06:53:19.918Z</time></trkpt><trkpt lat="43.1398115" lon="13.1775358"><ele>308.3333333333333</ele><time>2026-05-03T06:53:20.923Z</time></trkpt><trkpt lat="43.1396815" lon="13.1773356"><ele>304.0</ele><time>2026-05-03T06:53:21.915Z</time></trkpt><trkpt lat="43.1395667" lon="13.1771154"><ele>304.0</ele><time>2026-05-03T06:53:22.92Z</time></trkpt><trkpt lat="43.1394668" lon="13.1768662"><ele>304.0</ele><time>2026-05-03T06:53:23.912Z</time></trkpt><trkpt lat="43.1393806" lon="13.1766013"><ele>304.0</ele><time>2026-05-03T06:53:24.922Z</time></trkpt><trkpt lat="43.1393127" lon="13.1763477"><ele>305.0</ele><time>2026-05-03T06:53:25.905Z</time></trkpt><trkpt lat="43.1392448" lon="13.1761176"><ele>306.0</ele><time>2026-05-03T06:53:26.91Z</time></trkpt><trkpt lat="43.1391725" lon="13.1759182"><ele>307.0</ele><time>2026-05-03T06:53:27.917Z</time></trkpt><trkpt lat="43.1390852" lon="13.1757391"><ele>306.25</ele><time>2026-05-03T06:53:28.924Z</time></trkpt><trkpt lat="43.138987" lon="13.1755838"><ele>305.5</ele><time>2026-05-03T06:53:29.918Z</time></trkpt><trkpt lat="43.1388908" lon="13.1754332"><ele>304.75</ele><time>2026-05-03T06:53:30.92Z</time></trkpt><trkpt lat="43.1388059" lon="13.1752756"><ele>304.0</ele><time>2026-05-03T06:53:31.921Z</time></trkpt><trkpt lat="43.138739" lon="13.1750987"><ele>304.0</ele><time>2026-05-03T06:53:32.914Z</time></trkpt><trkpt lat="43.1386983" lon="13.1748983"><ele>304.0</ele><time>2026-05-03T06:53:33.923Z</time></trkpt><trkpt lat="43.1386813" lon="13.1746822"><ele>304.0</ele><time>2026-05-03T06:53:34.924Z</time></trkpt><trkpt lat="43.1386741" lon="13.1744523"><ele>304.3333333333333</ele><time>2026-05-03T06:53:35.928Z</time></trkpt><trkpt lat="43.1386643" lon="13.1742224"><ele>304.6666666666667</ele><time>2026-05-03T06:53:36.911Z</time></trkpt><trkpt lat="43.1386516" lon="13.174013"><ele>305.0</ele><time>2026-05-03T06:53:37.899Z</time></trkpt><trkpt lat="43.1386378" lon="13.1738261"><ele>305.0</ele><time>2026-05-03T06:53:38.914Z</time></trkpt><trkpt lat="43.138631" lon="13.1736807"><ele>305.0</ele><time>2026-05-03T06:53:39.908Z</time></trkpt><trkpt lat="43.1386251" lon="13.1735641"><ele>305.0</ele><time>2026-05-03T06:53:40.92Z</time></trkpt><trkpt lat="43.1386201" lon="13.1734596"><ele>305.0</ele><time>2026-05-03T06:53:41.917Z</time></trkpt><trkpt lat="43.1386122" lon="13.1733687"><ele>305.0</ele><time>2026-05-03T06:53:42.903Z</time></trkpt><trkpt lat="43.1386108" lon="13.1732535"><ele>305.0</ele><time>2026-05-03T06:53:44.904Z</time></trkpt><trkpt lat="43.1386043" lon="13.1731635"><ele>304.5</ele><time>2026-05-03T06:53:46.914Z</time></trkpt><trkpt lat="43.1385928" lon="13.1730621"><ele>304.0</ele><time>2026-05-03T06:53:50.916Z</time></trkpt><trkpt lat="43.1385828" lon="13.1729428"><ele>303.5</ele><time>2026-05-03T06:54:09.921Z</time></trkpt><trkpt lat="43.1385763" lon="13.172845"><ele>303.0</ele><time>2026-05-03T06:54:10.903Z</time></trkpt><trkpt lat="43.1385735" lon="13.1727309"><ele>302.5</ele><time>2026-05-03T06:54:11.898Z</time></trkpt><trkpt lat="43.1385746" lon="13.1725933"><ele>302.0</ele><time>2026-05-03T06:54:12.915Z</time></trkpt><trkpt lat="43.1385779" lon="13.1724266"><ele>303.25</ele><time>2026-05-03T06:54:13.906Z</time></trkpt><trkpt lat="43.1385817" lon="13.1722457"><ele>304.5</ele><time>2026-05-03T06:54:14.915Z</time></trkpt><trkpt lat="43.1385872" lon="13.1720591"><ele>305.75</ele><time>2026-05-03T06:54:15.911Z</time></trkpt><trkpt lat="43.1385931" lon="13.1718684"><ele>307.0</ele><time>2026-05-03T06:54:16.904Z</time></trkpt><trkpt lat="43.1385902" lon="13.1716634"><ele>308.3333333333333</ele><time>2026-05-03T06:54:17.923Z</time></trkpt><trkpt lat="43.1385941" lon="13.1714584"><ele>309.6666666666667</ele><time>2026-05-03T06:54:18.915Z</time></trkpt><trkpt lat="43.1385764" lon="13.1712492"><ele>311.0</ele><time>2026-05-03T06:54:19.905Z</time></trkpt><trkpt lat="43.1385514" lon="13.171048"><ele>311.0</ele><time>2026-05-03T06:54:20.918Z</time></trkpt><trkpt lat="43.1385128" lon="13.1708515"><ele>311.0</ele><time>2026-05-03T06:54:21.905Z</time></trkpt><trkpt lat="43.1384753" lon="13.1706475"><ele>311.0</ele><time>2026-05-03T06:54:22.914Z</time></trkpt><trkpt lat="43.1384353" lon="13.1704499"><ele>311.33333333333337</ele><time>2026-05-03T06:54:23.903Z</time></trkpt><trkpt lat="43.1384005" lon="13.1702426"><ele>311.6666666666667</ele><time>2026-05-03T06:54:24.902Z</time></trkpt><trkpt lat="43.138351" lon="13.1700267"><ele>312.0</ele><time>2026-05-03T06:54:25.902Z</time></trkpt><trkpt lat="43.138307" lon="13.1698135"><ele>311.3333333333333</ele><time>2026-05-03T06:54:26.916Z</time></trkpt><trkpt lat="43.1382584" lon="13.1695965"><ele>310.66666666666663</ele><time>2026-05-03T06:54:27.908Z</time></trkpt><trkpt lat="43.1382141" lon="13.1693817"><ele>310.0</ele><time>2026-05-03T06:54:28.911Z</time></trkpt><trkpt lat="43.1381714" lon="13.1691589"><ele>309.66666666666663</ele><time>2026-05-03T06:54:29.914Z</time></trkpt><trkpt lat="43.1381282" lon="13.168933"><ele>309.3333333333333</ele><time>2026-05-03T06:54:30.909Z</time></trkpt><trkpt lat="43.1380944" lon="13.1687018"><ele>309.0</ele><time>2026-05-03T06:54:31.918Z</time></trkpt><trkpt lat="43.1380642" lon="13.1684645"><ele>309.0</ele><time>2026-05-03T06:54:32.913Z</time></trkpt><trkpt lat="43.1380354" lon="13.1682278"><ele>309.0</ele><time>2026-05-03T06:54:33.919Z</time></trkpt><trkpt lat="43.1380142" lon="13.1679957"><ele>309.0</ele><time>2026-05-03T06:54:34.902Z</time></trkpt><trkpt lat="43.1379957" lon="13.1677741"><ele>308.6666666666667</ele><time>2026-05-03T06:54:35.92Z</time></trkpt><trkpt lat="43.1379652" lon="13.1675503"><ele>308.33333333333337</ele><time>2026-05-03T06:54:36.898Z</time></trkpt><trkpt lat="43.1379278" lon="13.1673274"><ele>308.0</ele><time>2026-05-03T06:54:37.908Z</time></trkpt><trkpt lat="43.1378909" lon="13.1670978"><ele>307.6666666666667</ele><time>2026-05-03T06:54:38.905Z</time></trkpt><trkpt lat="43.1378561" lon="13.1668632"><ele>307.3333333333333</ele><time>2026-05-03T06:54:39.911Z</time></trkpt><trkpt lat="43.1378405" lon="13.1666104"><ele>307.0</ele><time>2026-05-03T06:54:40.913Z</time></trkpt><trkpt lat="43.137838" lon="13.1663472"><ele>307.0</ele><time>2026-05-03T06:54:41.915Z</time></trkpt><trkpt lat="43.1378426" lon="13.1660816"><ele>307.0</ele><time>2026-05-03T06:54:42.917Z</time></trkpt><trkpt lat="43.1378476" lon="13.1658254"><ele>307.0</ele><time>2026-05-03T06:54:43.916Z</time></trkpt><trkpt lat="43.1378524" lon="13.1655761"><ele>308.66666666666663</ele><time>2026-05-03T06:54:44.912Z</time></trkpt><trkpt lat="43.137832" lon="13.1653179"><ele>310.3333333333333</ele><time>2026-05-03T06:54:45.911Z</time></trkpt><trkpt lat="43.1378021" lon="13.1650567"><ele>312.0</ele><time>2026-05-03T06:54:46.923Z</time></trkpt><trkpt lat="43.1377629" lon="13.1647925"><ele>314.0</ele><time>2026-05-03T06:54:47.907Z</time></trkpt><trkpt lat="43.1377237" lon="13.1645398"><ele>316.0</ele><time>2026-05-03T06:54:48.918Z</time></trkpt><trkpt lat="43.1376871" lon="13.1642937"><ele>318.0</ele><time>2026-05-03T06:54:49.917Z</time></trkpt><trkpt lat="43.1376565" lon="13.1640517"><ele>318.6666666666667</ele><time>2026-05-03T06:54:50.902Z</time></trkpt><trkpt lat="43.137634" lon="13.1638172"><ele>319.33333333333337</ele><time>2026-05-03T06:54:51.918Z</time></trkpt><trkpt lat="43.1376201" lon="13.1635819"><ele>320.0</ele><time>2026-05-03T06:54:52.925Z</time></trkpt><trkpt lat="43.1376189" lon="13.163349"><ele>319.33333333333337</ele><time>2026-05-03T06:54:53.908Z</time></trkpt><trkpt lat="43.1376207" lon="13.1631221"><ele>318.6666666666667</ele><time>2026-05-03T06:54:54.925Z</time></trkpt><trkpt lat="43.1376415" lon="13.1629045"><ele>318.0</ele><time>2026-05-03T06:54:55.912Z</time></trkpt><trkpt lat="43.1376538" lon="13.1626867"><ele>318.0</ele><time>2026-05-03T06:54:56.914Z</time></trkpt><trkpt lat="43.1376446" lon="13.1624669"><ele>318.0</ele><time>2026-05-03T06:54:57.921Z</time></trkpt><trkpt lat="43.1376168" lon="13.162256"><ele>318.0</ele><time>2026-05-03T06:54:58.913Z</time></trkpt><trkpt lat="43.1375773" lon="13.1620569"><ele>320.0</ele><time>2026-05-03T06:54:59.917Z</time></trkpt><trkpt lat="43.1375081" lon="13.1618701"><ele>322.0</ele><time>2026-05-03T06:55:00.91Z</time></trkpt><trkpt lat="43.1374108" lon="13.1616945"><ele>324.0</ele><time>2026-05-03T06:55:01.911Z</time></trkpt><trkpt lat="43.1372945" lon="13.161544"><ele>320.25</ele><time>2026-05-03T06:55:02.913Z</time></trkpt><trkpt lat="43.1371826" lon="13.1614114"><ele>316.5</ele><time>2026-05-03T06:55:03.914Z</time></trkpt><trkpt lat="43.1370895" lon="13.1612857"><ele>312.75</ele><time>2026-05-03T06:55:04.917Z</time></trkpt><trkpt lat="43.1370219" lon="13.1611585"><ele>309.0</ele><time>2026-05-03T06:55:05.915Z</time></trkpt><trkpt lat="43.1369797" lon="13.1610152"><ele>309.0</ele><time>2026-05-03T06:55:06.914Z</time></trkpt><trkpt lat="43.1369603" lon="13.1608583"><ele>309.0</ele><time>2026-05-03T06:55:07.916Z</time></trkpt><trkpt lat="43.1369698" lon="13.160719"><ele>309.0</ele><time>2026-05-03T06:55:08.921Z</time></trkpt><trkpt lat="43.1370101" lon="13.1606129"><ele>309.0</ele><time>2026-05-03T06:55:09.915Z</time></trkpt><trkpt lat="43.1370814" lon="13.1605373"><ele>309.0</ele><time>2026-05-03T06:55:10.915Z</time></trkpt><trkpt lat="43.1371868" lon="13.1604857"><ele>308.75</ele><time>2026-05-03T06:55:11.911Z</time></trkpt><trkpt lat="43.1373135" lon="13.1604526"><ele>308.5</ele><time>2026-05-03T06:55:12.911Z</time></trkpt><trkpt lat="43.1374549" lon="13.1604186"><ele>308.25</ele><time>2026-05-03T06:55:13.912Z</time></trkpt><trkpt lat="43.1376055" lon="13.1603697"><ele>308.0</ele><time>2026-05-03T06:55:14.908Z</time></trkpt><trkpt lat="43.1377609" lon="13.1603095"><ele>308.0</ele><time>2026-05-03T06:55:15.925Z</time></trkpt><trkpt lat="43.1379159" lon="13.1602423"><ele>308.0</ele><time>2026-05-03T06:55:16.929Z</time></trkpt><trkpt lat="43.1380657" lon="13.1601759"><ele>308.0</ele><time>2026-05-03T06:55:17.917Z</time></trkpt><trkpt lat="43.1382025" lon="13.160101"><ele>308.5</ele><time>2026-05-03T06:55:18.91Z</time></trkpt><trkpt lat="43.1383176" lon="13.1600362"><ele>309.0</ele><time>2026-05-03T06:55:19.918Z</time></trkpt><trkpt lat="43.1384208" lon="13.1599531"><ele>309.5</ele><time>2026-05-03T06:55:20.91Z</time></trkpt><trkpt lat="43.1385186" lon="13.1598471"><ele>310.0</ele><time>2026-05-03T06:55:21.908Z</time></trkpt><trkpt lat="43.1386039" lon="13.1597101"><ele>310.0</ele><time>2026-05-03T06:55:22.905Z</time></trkpt><trkpt lat="43.138671" lon="13.1595582"><ele>310.0</ele><time>2026-05-03T06:55:23.912Z</time></trkpt><trkpt lat="43.1387214" lon="13.1593984"><ele>310.0</ele><time>2026-05-03T06:55:24.924Z</time></trkpt><trkpt lat="43.1387478" lon="13.1592234"><ele>310.0</ele><time>2026-05-03T06:55:25.912Z</time></trkpt><trkpt lat="43.1387464" lon="13.1590352"><ele>310.75</ele><time>2026-05-03T06:55:26.92Z</time></trkpt><trkpt lat="43.1387236" lon="13.1588353"><ele>311.5</ele><time>2026-05-03T06:55:27.908Z</time></trkpt><trkpt lat="43.1386861" lon="13.1586393"><ele>312.25</ele><time>2026-05-03T06:55:28.904Z</time></trkpt><trkpt lat="43.1386365" lon="13.1584592"><ele>313.0</ele><time>2026-05-03T06:55:29.903Z</time></trkpt><trkpt lat="43.1385614" lon="13.1582892"><ele>313.66666666666663</ele><time>2026-05-03T06:55:30.905Z</time></trkpt><trkpt lat="43.138457" lon="13.1581301"><ele>314.3333333333333</ele><time>2026-05-03T06:55:31.928Z</time></trkpt><trkpt lat="43.1383313" lon="13.1579843"><ele>315.0</ele><time>2026-05-03T06:55:32.913Z</time></trkpt><trkpt lat="43.1381932" lon="13.1578504"><ele>315.0</ele><time>2026-05-03T06:55:33.913Z</time></trkpt><trkpt lat="43.1380552" lon="13.1577284"><ele>315.0</ele><time>2026-05-03T06:55:34.916Z</time></trkpt><trkpt lat="43.1379265" lon="13.1576171"><ele>315.0</ele><time>2026-05-03T06:55:35.905Z</time></trkpt><trkpt lat="43.1378124" lon="13.1575158"><ele>315.0</ele><time>2026-05-03T06:55:36.915Z</time></trkpt><trkpt lat="43.1377173" lon="13.1574042"><ele>315.0</ele><time>2026-05-03T06:55:37.921Z</time></trkpt><trkpt lat="43.1376425" lon="13.1572625"><ele>315.0</ele><time>2026-05-03T06:55:38.915Z</time></trkpt><trkpt lat="43.1375868" lon="13.1570916"><ele>315.0</ele><time>2026-05-03T06:55:39.927Z</time></trkpt><trkpt lat="43.137547" lon="13.1568969"><ele>317.3333333333333</ele><time>2026-05-03T06:55:40.908Z</time></trkpt><trkpt lat="43.1375169" lon="13.1566857"><ele>319.66666666666663</ele><time>2026-05-03T06:55:41.916Z</time></trkpt><trkpt lat="43.1374918" lon="13.1564612"><ele>322.0</ele><time>2026-05-03T06:55:42.915Z</time></trkpt><trkpt lat="43.1374679" lon="13.1562268"><ele>324.0</ele><time>2026-05-03T06:55:43.91Z</time></trkpt><trkpt lat="43.1374417" lon="13.1559971"><ele>326.0</ele><time>2026-05-03T06:55:44.92Z</time></trkpt><trkpt lat="43.1374153" lon="13.1557806"><ele>328.0</ele><time>2026-05-03T06:55:45.914Z</time></trkpt><trkpt lat="43.1373847" lon="13.1555881"><ele>324.75</ele><time>2026-05-03T06:55:46.912Z</time></trkpt><trkpt lat="43.1373605" lon="13.1554121"><ele>321.5</ele><time>2026-05-03T06:55:47.909Z</time></trkpt><trkpt lat="43.137345" lon="13.1552533"><ele>318.25</ele><time>2026-05-03T06:55:48.909Z</time></trkpt><trkpt lat="43.1373146" lon="13.1551177"><ele>315.0</ele><time>2026-05-03T06:55:49.907Z</time></trkpt><trkpt lat="43.1372555" lon="13.1549889"><ele>315.0</ele><time>2026-05-03T06:55:50.903Z</time></trkpt><trkpt lat="43.1371633" lon="13.1548758"><ele>315.0</ele><time>2026-05-03T06:55:51.908Z</time></trkpt><trkpt lat="43.1370532" lon="13.1547827"><ele>315.0</ele><time>2026-05-03T06:55:52.922Z</time></trkpt><trkpt lat="43.1369407" lon="13.1546973"><ele>315.0</ele><time>2026-05-03T06:55:53.902Z</time></trkpt><trkpt lat="43.1368127" lon="13.1546645"><ele>319.25</ele><time>2026-05-03T06:55:54.923Z</time></trkpt><trkpt lat="43.1366851" lon="13.1546608"><ele>323.5</ele><time>2026-05-03T06:55:55.921Z</time></trkpt><trkpt lat="43.1365504" lon="13.15466"><ele>327.75</ele><time>2026-05-03T06:55:56.898Z</time></trkpt><trkpt lat="43.1364077" lon="13.1546666"><ele>332.0</ele><time>2026-05-03T06:55:57.905Z</time></trkpt><trkpt lat="43.1362795" lon="13.1546787"><ele>332.0</ele><time>2026-05-03T06:55:58.92Z</time></trkpt><trkpt lat="43.1361562" lon="13.1546917"><ele>332.0</ele><time>2026-05-03T06:55:59.903Z</time></trkpt><trkpt lat="43.1360336" lon="13.1546894"><ele>332.0</ele><time>2026-05-03T06:56:00.908Z</time></trkpt><trkpt lat="43.1359261" lon="13.1546619"><ele>332.0</ele><time>2026-05-03T06:56:01.922Z</time></trkpt><trkpt lat="43.1358397" lon="13.1545997"><ele>332.0</ele><time>2026-05-03T06:56:02.913Z</time></trkpt><trkpt lat="43.1357805" lon="13.1544914"><ele>332.0</ele><time>2026-05-03T06:56:03.911Z</time></trkpt><trkpt lat="43.1357443" lon="13.1543453"><ele>332.0</ele><time>2026-05-03T06:56:04.91Z</time></trkpt><trkpt lat="43.1357248" lon="13.1541642"><ele>332.0</ele><time>2026-05-03T06:56:05.909Z</time></trkpt><trkpt lat="43.1357169" lon="13.1539586"><ele>326.33333333333337</ele><time>2026-05-03T06:56:06.913Z</time></trkpt><trkpt lat="43.1357111" lon="13.1537409"><ele>320.6666666666667</ele><time>2026-05-03T06:56:07.926Z</time></trkpt><trkpt lat="43.1356994" lon="13.1535311"><ele>315.0</ele><time>2026-05-03T06:56:08.904Z</time></trkpt><trkpt lat="43.1356783" lon="13.1533222"><ele>315.5</ele><time>2026-05-03T06:56:09.924Z</time></trkpt><trkpt lat="43.1356497" lon="13.1531273"><ele>316.0</ele><time>2026-05-03T06:56:10.915Z</time></trkpt><trkpt lat="43.135623" lon="13.1529477"><ele>316.5</ele><time>2026-05-03T06:56:11.914Z</time></trkpt><trkpt lat="43.1356102" lon="13.1527656"><ele>317.0</ele><time>2026-05-03T06:56:12.914Z</time></trkpt><trkpt lat="43.1356194" lon="13.1525763"><ele>317.0</ele><time>2026-05-03T06:56:13.918Z</time></trkpt><trkpt lat="43.1356502" lon="13.1523841"><ele>317.0</ele><time>2026-05-03T06:56:14.922Z</time></trkpt><trkpt lat="43.1356992" lon="13.1521946"><ele>317.0</ele><time>2026-05-03T06:56:15.908Z</time></trkpt><trkpt lat="43.135762" lon="13.1520084"><ele>317.0</ele><time>2026-05-03T06:56:16.926Z</time></trkpt><trkpt lat="43.1358291" lon="13.1518248"><ele>319.5</ele><time>2026-05-03T06:56:17.903Z</time></trkpt><trkpt lat="43.1358971" lon="13.1516426"><ele>322.0</ele><time>2026-05-03T06:56:18.925Z</time></trkpt><trkpt lat="43.1359654" lon="13.1514613"><ele>324.5</ele><time>2026-05-03T06:56:19.915Z</time></trkpt><trkpt lat="43.1360279" lon="13.1512774"><ele>327.0</ele><time>2026-05-03T06:56:20.921Z</time></trkpt><trkpt lat="43.1360819" lon="13.1510887"><ele>327.0</ele><time>2026-05-03T06:56:21.917Z</time></trkpt><trkpt lat="43.1361272" lon="13.1508905"><ele>327.0</ele><time>2026-05-03T06:56:22.92Z</time></trkpt><trkpt lat="43.1361691" lon="13.1506902"><ele>327.0</ele><time>2026-05-03T06:56:23.912Z</time></trkpt><trkpt lat="43.1362104" lon="13.1504899"><ele>326.6666666666667</ele><time>2026-05-03T06:56:24.923Z</time></trkpt><trkpt lat="43.1362475" lon="13.150286"><ele>326.33333333333337</ele><time>2026-05-03T06:56:25.922Z</time></trkpt><trkpt lat="43.1362722" lon="13.1500669"><ele>326.0</ele><time>2026-05-03T06:56:26.903Z</time></trkpt><trkpt lat="43.1362906" lon="13.1498484"><ele>326.0</ele><time>2026-05-03T06:56:27.919Z</time></trkpt><trkpt lat="43.1362972" lon="13.149625"><ele>326.0</ele><time>2026-05-03T06:56:28.921Z</time></trkpt><trkpt lat="43.1362948" lon="13.1494014"><ele>326.0</ele><time>2026-05-03T06:56:29.906Z</time></trkpt><trkpt lat="43.1362819" lon="13.1491755"><ele>328.33333333333337</ele><time>2026-05-03T06:56:30.919Z</time></trkpt><trkpt lat="43.1362481" lon="13.1489382"><ele>330.6666666666667</ele><time>2026-05-03T06:56:31.919Z</time></trkpt><trkpt lat="43.1361978" lon="13.1486984"><ele>333.0</ele><time>2026-05-03T06:56:32.918Z</time></trkpt><trkpt lat="43.1361305" lon="13.1484565"><ele>337.0</ele><time>2026-05-03T06:56:33.919Z</time></trkpt><trkpt lat="43.1360499" lon="13.1482049"><ele>341.0</ele><time>2026-05-03T06:56:34.915Z</time></trkpt><trkpt lat="43.1359593" lon="13.1479542"><ele>345.0</ele><time>2026-05-03T06:56:35.927Z</time></trkpt><trkpt lat="43.1358665" lon="13.1477051"><ele>345.0</ele><time>2026-05-03T06:56:36.907Z</time></trkpt><trkpt lat="43.1357638" lon="13.1474647"><ele>345.0</ele><time>2026-05-03T06:56:37.909Z</time></trkpt><trkpt lat="43.1356647" lon="13.147218"><ele>345.0</ele><time>2026-05-03T06:56:38.914Z</time></trkpt><trkpt lat="43.135565" lon="13.1469664"><ele>342.3333333333333</ele><time>2026-05-03T06:56:39.909Z</time></trkpt><trkpt lat="43.1354643" lon="13.1467125"><ele>339.66666666666663</ele><time>2026-05-03T06:56:40.917Z</time></trkpt><trkpt lat="43.1353618" lon="13.146457"><ele>337.0</ele><time>2026-05-03T06:56:41.916Z</time></trkpt><trkpt lat="43.1352653" lon="13.1461931"><ele>337.0</ele><time>2026-05-03T06:56:42.92Z</time></trkpt><trkpt lat="43.1351846" lon="13.1459325"><ele>337.0</ele><time>2026-05-03T06:56:43.918Z</time></trkpt><trkpt lat="43.1351125" lon="13.1456823"><ele>337.0</ele><time>2026-05-03T06:56:44.925Z</time></trkpt><trkpt lat="43.1350298" lon="13.1454403"><ele>338.66666666666663</ele><time>2026-05-03T06:56:45.912Z</time></trkpt><trkpt lat="43.1349249" lon="13.145199"><ele>340.3333333333333</ele><time>2026-05-03T06:56:46.909Z</time></trkpt><trkpt lat="43.1348016" lon="13.144951"><ele>342.0</ele><time>2026-05-03T06:56:47.918Z</time></trkpt><trkpt lat="43.1346778" lon="13.1447058"><ele>342.0</ele><time>2026-05-03T06:56:48.924Z</time></trkpt><trkpt lat="43.1345596" lon="13.1444799"><ele>342.0</ele><time>2026-05-03T06:56:49.915Z</time></trkpt><trkpt lat="43.1344553" lon="13.1442716"><ele>342.0</ele><time>2026-05-03T06:56:50.908Z</time></trkpt><trkpt lat="43.1343475" lon="13.144093"><ele>342.6666666666667</ele><time>2026-05-03T06:56:51.907Z</time></trkpt><trkpt lat="43.134227" lon="13.1439337"><ele>343.33333333333337</ele><time>2026-05-03T06:56:52.917Z</time></trkpt><trkpt lat="43.1340851" lon="13.1437925"><ele>344.0</ele><time>2026-05-03T06:56:53.92Z</time></trkpt><trkpt lat="43.1339252" lon="13.143676"><ele>344.0</ele><time>2026-05-03T06:56:54.922Z</time></trkpt><trkpt lat="43.1337576" lon="13.1435834"><ele>344.0</ele><time>2026-05-03T06:56:55.904Z</time></trkpt><trkpt lat="43.1335986" lon="13.1435031"><ele>344.0</ele><time>2026-05-03T06:56:56.92Z</time></trkpt><trkpt lat="43.1334527" lon="13.1434043"><ele>344.0</ele><time>2026-05-03T06:56:57.91Z</time></trkpt><trkpt lat="43.1333133" lon="13.1432768"><ele>344.0</ele><time>2026-05-03T06:56:58.916Z</time></trkpt><trkpt lat="43.1331766" lon="13.1431199"><ele>344.0</ele><time>2026-05-03T06:56:59.93Z</time></trkpt><trkpt lat="43.1330382" lon="13.1429429"><ele>342.6666666666667</ele><time>2026-05-03T06:57:00.917Z</time></trkpt><trkpt lat="43.1328996" lon="13.1427575"><ele>341.3333333333333</ele><time>2026-05-03T06:57:01.922Z</time></trkpt><trkpt lat="43.1327706" lon="13.1425848"><ele>340.0</ele><time>2026-05-03T06:57:02.912Z</time></trkpt><trkpt lat="43.1326392" lon="13.1424258"><ele>337.3333333333333</ele><time>2026-05-03T06:57:03.914Z</time></trkpt><trkpt lat="43.1324989" lon="13.1422837"><ele>334.6666666666667</ele><time>2026-05-03T06:57:04.903Z</time></trkpt><trkpt lat="43.1323591" lon="13.1421625"><ele>332.0</ele><time>2026-05-03T06:57:05.914Z</time></trkpt><trkpt lat="43.1322315" lon="13.1420495"><ele>332.0</ele><time>2026-05-03T06:57:06.927Z</time></trkpt><trkpt lat="43.132123" lon="13.1419325"><ele>332.0</ele><time>2026-05-03T06:57:07.92Z</time></trkpt><trkpt lat="43.1320273" lon="13.141789"><ele>332.0</ele><time>2026-05-03T06:57:08.912Z</time></trkpt><trkpt lat="43.1319405" lon="13.1416115"><ele>332.0</ele><time>2026-05-03T06:57:09.918Z</time></trkpt><trkpt lat="43.1318521" lon="13.1414191"><ele>330.6666666666667</ele><time>2026-05-03T06:57:10.912Z</time></trkpt><trkpt lat="43.1317444" lon="13.1412277"><ele>329.3333333333333</ele><time>2026-05-03T06:57:11.917Z</time></trkpt><trkpt lat="43.1316125" lon="13.1410465"><ele>328.0</ele><time>2026-05-03T06:57:12.921Z</time></trkpt><trkpt lat="43.1314679" lon="13.1408829"><ele>328.0</ele><time>2026-05-03T06:57:13.916Z</time></trkpt><trkpt lat="43.1313163" lon="13.1407263"><ele>328.0</ele><time>2026-05-03T06:57:14.905Z</time></trkpt><trkpt lat="43.1311721" lon="13.1405832"><ele>328.0</ele><time>2026-05-03T06:57:15.934Z</time></trkpt><trkpt lat="43.1310389" lon="13.14045"><ele>331.3333333333333</ele><time>2026-05-03T06:57:16.905Z</time></trkpt><trkpt lat="43.1309091" lon="13.1403303"><ele>334.6666666666667</ele><time>2026-05-03T06:57:17.907Z</time></trkpt><trkpt lat="43.1307763" lon="13.1402189"><ele>338.0</ele><time>2026-05-03T06:57:18.912Z</time></trkpt><trkpt lat="43.1306095" lon="13.140147"><ele>338.0</ele><time>2026-05-03T06:57:19.916Z</time></trkpt><trkpt lat="43.1304327" lon="13.1400867"><ele>338.0</ele><time>2026-05-03T06:57:20.912Z</time></trkpt><trkpt lat="43.1302491" lon="13.1400161"><ele>338.0</ele><time>2026-05-03T06:57:21.918Z</time></trkpt><trkpt lat="43.1300694" lon="13.1399335"><ele>337.6666666666667</ele><time>2026-05-03T06:57:22.902Z</time></trkpt><trkpt lat="43.129896" lon="13.1398427"><ele>337.3333333333333</ele><time>2026-05-03T06:57:23.912Z</time></trkpt><trkpt lat="43.1297359" lon="13.1397353"><ele>337.0</ele><time>2026-05-03T06:57:24.906Z</time></trkpt><trkpt lat="43.1296018" lon="13.1396156"><ele>337.0</ele><time>2026-05-03T06:57:25.925Z</time></trkpt><trkpt lat="43.1294907" lon="13.1394865"><ele>337.0</ele><time>2026-05-03T06:57:26.924Z</time></trkpt><trkpt lat="43.129396" lon="13.139338"><ele>337.0</ele><time>2026-05-03T06:57:27.915Z</time></trkpt><trkpt lat="43.1293126" lon="13.1391656"><ele>337.0</ele><time>2026-05-03T06:57:28.915Z</time></trkpt><trkpt lat="43.12923" lon="13.1389779"><ele>333.3333333333333</ele><time>2026-05-03T06:57:29.918Z</time></trkpt><trkpt lat="43.1291444" lon="13.1387733"><ele>329.6666666666667</ele><time>2026-05-03T06:57:30.923Z</time></trkpt><trkpt lat="43.1290566" lon="13.1385579"><ele>326.0</ele><time>2026-05-03T06:57:31.91Z</time></trkpt><trkpt lat="43.1289642" lon="13.1383346"><ele>328.33333333333337</ele><time>2026-05-03T06:57:32.922Z</time></trkpt><trkpt lat="43.1288765" lon="13.1381152"><ele>330.6666666666667</ele><time>2026-05-03T06:57:33.92Z</time></trkpt><trkpt lat="43.1288022" lon="13.1379141"><ele>333.0</ele><time>2026-05-03T06:57:34.92Z</time></trkpt><trkpt lat="43.1287385" lon="13.1377172"><ele>333.0</ele><time>2026-05-03T06:57:35.909Z</time></trkpt><trkpt lat="43.1286763" lon="13.1375226"><ele>333.0</ele><time>2026-05-03T06:57:36.912Z</time></trkpt><trkpt lat="43.1286131" lon="13.1373344"><ele>333.0</ele><time>2026-05-03T06:57:37.909Z</time></trkpt><trkpt lat="43.1285312" lon="13.13716"><ele>330.6666666666667</ele><time>2026-05-03T06:57:38.907Z</time></trkpt><trkpt lat="43.1284235" lon="13.1370042"><ele>328.33333333333337</ele><time>2026-05-03T06:57:39.923Z</time></trkpt><trkpt lat="43.1282936" lon="13.1368773"><ele>326.0</ele><time>2026-05-03T06:57:40.922Z</time></trkpt><trkpt lat="43.1281727" lon="13.1367642"><ele>326.0</ele><time>2026-05-03T06:57:41.908Z</time></trkpt><trkpt lat="43.1280659" lon="13.136648"><ele>326.0</ele><time>2026-05-03T06:57:42.92Z</time></trkpt><trkpt lat="43.1279815" lon="13.136517"><ele>326.0</ele><time>2026-05-03T06:57:43.902Z</time></trkpt><trkpt lat="43.1279157" lon="13.1363598"><ele>326.0</ele><time>2026-05-03T06:57:44.913Z</time></trkpt><trkpt lat="43.1278689" lon="13.1361739"><ele>327.0</ele><time>2026-05-03T06:57:45.905Z</time></trkpt><trkpt lat="43.127838" lon="13.1359676"><ele>328.0</ele><time>2026-05-03T06:57:46.924Z</time></trkpt><trkpt lat="43.1278085" lon="13.1357621"><ele>329.0</ele><time>2026-05-03T06:57:47.918Z</time></trkpt><trkpt lat="43.1277649" lon="13.1355587"><ele>330.0</ele><time>2026-05-03T06:57:48.921Z</time></trkpt><trkpt lat="43.1277051" lon="13.1353714"><ele>331.0</ele><time>2026-05-03T06:57:49.914Z</time></trkpt><trkpt lat="43.1276304" lon="13.1351967"><ele>332.0</ele><time>2026-05-03T06:57:50.912Z</time></trkpt><trkpt lat="43.127534" lon="13.1350284"><ele>331.6666666666667</ele><time>2026-05-03T06:57:51.912Z</time></trkpt><trkpt lat="43.1274124" lon="13.1348621"><ele>331.3333333333333</ele><time>2026-05-03T06:57:52.923Z</time></trkpt><trkpt lat="43.1272695" lon="13.1346901"><ele>331.0</ele><time>2026-05-03T06:57:53.913Z</time></trkpt><trkpt lat="43.1271175" lon="13.1345087"><ele>331.0</ele><time>2026-05-03T06:57:54.907Z</time></trkpt><trkpt lat="43.1269628" lon="13.1343219"><ele>331.0</ele><time>2026-05-03T06:57:55.914Z</time></trkpt><trkpt lat="43.1268101" lon="13.1341389"><ele>331.0</ele><time>2026-05-03T06:57:56.909Z</time></trkpt><trkpt lat="43.1266674" lon="13.1339773"><ele>333.3333333333333</ele><time>2026-05-03T06:57:57.925Z</time></trkpt><trkpt lat="43.1265388" lon="13.1338253"><ele>335.6666666666667</ele><time>2026-05-03T06:57:58.912Z</time></trkpt><trkpt lat="43.1264095" lon="13.1336814"><ele>338.0</ele><time>2026-05-03T06:57:59.912Z</time></trkpt><trkpt lat="43.1262798" lon="13.1335562"><ele>338.0</ele><time>2026-05-03T06:58:00.906Z</time></trkpt><trkpt lat="43.1261274" lon="13.1334407"><ele>338.0</ele><time>2026-05-03T06:58:01.904Z</time></trkpt><trkpt lat="43.1259711" lon="13.1333434"><ele>338.0</ele><time>2026-05-03T06:58:02.9Z</time></trkpt><trkpt lat="43.1258147" lon="13.1332432"><ele>353.0</ele><time>2026-05-03T06:58:03.906Z</time></trkpt><trkpt lat="43.1256661" lon="13.1331384"><ele>368.0</ele><time>2026-05-03T06:58:04.903Z</time></trkpt><trkpt lat="43.125524" lon="13.1330435"><ele>383.0</ele><time>2026-05-03T06:58:05.916Z</time></trkpt><trkpt lat="43.1253916" lon="13.1329701"><ele>383.0</ele><time>2026-05-03T06:58:06.921Z</time></trkpt><trkpt lat="43.1252748" lon="13.1329163"><ele>383.0</ele><time>2026-05-03T06:58:07.91Z</time></trkpt><trkpt lat="43.1251695" lon="13.1328864"><ele>383.0</ele><time>2026-05-03T06:58:08.909Z</time></trkpt><trkpt lat="43.1250637" lon="13.1328955"><ele>383.0</ele><time>2026-05-03T06:58:09.92Z</time></trkpt><trkpt lat="43.1249654" lon="13.1329575"><ele>383.0</ele><time>2026-05-03T06:58:10.915Z</time></trkpt><trkpt lat="43.1248766" lon="13.1330681"><ele>382.25</ele><time>2026-05-03T06:58:11.91Z</time></trkpt><trkpt lat="43.1247976" lon="13.133211"><ele>381.5</ele><time>2026-05-03T06:58:12.912Z</time></trkpt><trkpt lat="43.1247265" lon="13.1333615"><ele>380.75</ele><time>2026-05-03T06:58:13.915Z</time></trkpt><trkpt lat="43.1246729" lon="13.1335191"><ele>380.0</ele><time>2026-05-03T06:58:14.915Z</time></trkpt><trkpt lat="43.1246427" lon="13.1336955"><ele>380.0</ele><time>2026-05-03T06:58:15.919Z</time></trkpt><trkpt lat="43.1246427" lon="13.1338623"><ele>380.0</ele><time>2026-05-03T06:58:16.918Z</time></trkpt><trkpt lat="43.1246606" lon="13.1340194"><ele>380.0</ele><time>2026-05-03T06:58:17.919Z</time></trkpt><trkpt lat="43.1246797" lon="13.1341655"><ele>380.0</ele><time>2026-05-03T06:58:18.911Z</time></trkpt><trkpt lat="43.1246766" lon="13.1342998"><ele>380.0</ele><time>2026-05-03T06:58:19.916Z</time></trkpt><trkpt lat="43.1246356" lon="13.1344175"><ele>372.75</ele><time>2026-05-03T06:58:20.911Z</time></trkpt><trkpt lat="43.1245621" lon="13.1344965"><ele>365.5</ele><time>2026-05-03T06:58:21.915Z</time></trkpt><trkpt lat="43.1244645" lon="13.1345231"><ele>358.25</ele><time>2026-05-03T06:58:22.912Z</time></trkpt><trkpt lat="43.1243473" lon="13.1345004"><ele>351.0</ele><time>2026-05-03T06:58:23.907Z</time></trkpt><trkpt lat="43.1242115" lon="13.1344561"><ele>351.6666666666667</ele><time>2026-05-03T06:58:24.916Z</time></trkpt><trkpt lat="43.1240534" lon="13.1344169"><ele>352.33333333333337</ele><time>2026-05-03T06:58:25.918Z</time></trkpt><trkpt lat="43.1238851" lon="13.1343816"><ele>353.0</ele><time>2026-05-03T06:58:26.898Z</time></trkpt><trkpt lat="43.1237053" lon="13.1343949"><ele>353.0</ele><time>2026-05-03T06:58:27.908Z</time></trkpt><trkpt lat="43.1235223" lon="13.1344098"><ele>353.0</ele><time>2026-05-03T06:58:28.926Z</time></trkpt><trkpt lat="43.1233401" lon="13.1344179"><ele>353.0</ele><time>2026-05-03T06:58:29.91Z</time></trkpt><trkpt lat="43.1231562" lon="13.1344292"><ele>356.33333333333337</ele><time>2026-05-03T06:58:30.924Z</time></trkpt><trkpt lat="43.1229689" lon="13.1344416"><ele>359.6666666666667</ele><time>2026-05-03T06:58:31.913Z</time></trkpt><trkpt lat="43.1227764" lon="13.1344631"><ele>363.0</ele><time>2026-05-03T06:58:32.919Z</time></trkpt><trkpt lat="43.1225783" lon="13.1344987"><ele>364.3333333333333</ele><time>2026-05-03T06:58:33.907Z</time></trkpt><trkpt lat="43.1223796" lon="13.1345432"><ele>365.66666666666663</ele><time>2026-05-03T06:58:34.908Z</time></trkpt><trkpt lat="43.1221813" lon="13.1345949"><ele>367.0</ele><time>2026-05-03T06:58:35.925Z</time></trkpt><trkpt lat="43.1219877" lon="13.1346509"><ele>367.0</ele><time>2026-05-03T06:58:36.916Z</time></trkpt><trkpt lat="43.1218105" lon="13.1347054"><ele>367.0</ele><time>2026-05-03T06:58:37.909Z</time></trkpt><trkpt lat="43.1216473" lon="13.1347544"><ele>367.0</ele><time>2026-05-03T06:58:38.92Z</time></trkpt><trkpt lat="43.1214966" lon="13.1347913"><ele>363.0</ele><time>2026-05-03T06:58:39.923Z</time></trkpt><trkpt lat="43.1213489" lon="13.1348111"><ele>359.0</ele><time>2026-05-03T06:58:40.915Z</time></trkpt><trkpt lat="43.1211967" lon="13.1348019"><ele>355.0</ele><time>2026-05-03T06:58:41.913Z</time></trkpt><trkpt lat="43.1210442" lon="13.1347642"><ele>355.0</ele><time>2026-05-03T06:58:42.925Z</time></trkpt><trkpt lat="43.1208943" lon="13.1347063"><ele>355.0</ele><time>2026-05-03T06:58:43.916Z</time></trkpt><trkpt lat="43.1207436" lon="13.1346376"><ele>355.0</ele><time>2026-05-03T06:58:44.914Z</time></trkpt><trkpt lat="43.1206114" lon="13.1345631"><ele>351.0</ele><time>2026-05-03T06:58:45.906Z</time></trkpt><trkpt lat="43.1205087" lon="13.1344749"><ele>347.0</ele><time>2026-05-03T06:58:46.917Z</time></trkpt><trkpt lat="43.1204279" lon="13.1343609"><ele>343.0</ele><time>2026-05-03T06:58:47.918Z</time></trkpt><trkpt lat="43.1203725" lon="13.134228"><ele>339.0</ele><time>2026-05-03T06:58:48.916Z</time></trkpt><trkpt lat="43.1203479" lon="13.1340852"><ele>339.0</ele><time>2026-05-03T06:58:49.916Z</time></trkpt><trkpt lat="43.1203497" lon="13.1339278"><ele>339.0</ele><time>2026-05-03T06:58:50.92Z</time></trkpt><trkpt lat="43.1203735" lon="13.133751"><ele>339.0</ele><time>2026-05-03T06:58:51.913Z</time></trkpt><trkpt lat="43.1204111" lon="13.1335589"><ele>339.0</ele><time>2026-05-03T06:58:52.928Z</time></trkpt><trkpt lat="43.1204472" lon="13.1333522"><ele>338.3333333333333</ele><time>2026-05-03T06:58:53.923Z</time></trkpt><trkpt lat="43.1204731" lon="13.1331305"><ele>337.66666666666663</ele><time>2026-05-03T06:58:54.899Z</time></trkpt><trkpt lat="43.1204887" lon="13.1329141"><ele>337.0</ele><time>2026-05-03T06:58:55.914Z</time></trkpt><trkpt lat="43.1204926" lon="13.1327184"><ele>337.0</ele><time>2026-05-03T06:58:56.918Z</time></trkpt><trkpt lat="43.120484" lon="13.1325358"><ele>337.0</ele><time>2026-05-03T06:58:57.928Z</time></trkpt><trkpt lat="43.1204533" lon="13.132368"><ele>337.0</ele><time>2026-05-03T06:58:58.915Z</time></trkpt><trkpt lat="43.1203906" lon="13.1322105"><ele>337.0</ele><time>2026-05-03T06:58:59.914Z</time></trkpt><trkpt lat="43.1202933" lon="13.1320674"><ele>337.66666666666663</ele><time>2026-05-03T06:59:00.911Z</time></trkpt><trkpt lat="43.1201663" lon="13.1319358"><ele>338.3333333333333</ele><time>2026-05-03T06:59:01.919Z</time></trkpt><trkpt lat="43.1200191" lon="13.1318024"><ele>339.0</ele><time>2026-05-03T06:59:02.916Z</time></trkpt><trkpt lat="43.1198609" lon="13.1316608"><ele>340.0</ele><time>2026-05-03T06:59:03.925Z</time></trkpt><trkpt lat="43.1196949" lon="13.1315077"><ele>341.0</ele><time>2026-05-03T06:59:04.924Z</time></trkpt><trkpt lat="43.1195232" lon="13.1313583"><ele>342.0</ele><time>2026-05-03T06:59:05.918Z</time></trkpt><trkpt lat="43.1193554" lon="13.1312208"><ele>342.0</ele><time>2026-05-03T06:59:06.909Z</time></trkpt><trkpt lat="43.1192025" lon="13.1310923"><ele>342.0</ele><time>2026-05-03T06:59:07.904Z</time></trkpt><trkpt lat="43.119067" lon="13.1309675"><ele>342.0</ele><time>2026-05-03T06:59:08.923Z</time></trkpt><trkpt lat="43.1189442" lon="13.1308347"><ele>342.0</ele><time>2026-05-03T06:59:09.908Z</time></trkpt><trkpt lat="43.1188272" lon="13.1306882"><ele>342.0</ele><time>2026-05-03T06:59:10.919Z</time></trkpt><trkpt lat="43.1187068" lon="13.1305428"><ele>342.0</ele><time>2026-05-03T06:59:11.91Z</time></trkpt><trkpt lat="43.1185879" lon="13.1303673"><ele>342.0</ele><time>2026-05-03T06:59:12.916Z</time></trkpt><trkpt lat="43.118472" lon="13.1301841"><ele>342.0</ele><time>2026-05-03T06:59:13.918Z</time></trkpt><trkpt lat="43.1183475" lon="13.1299993"><ele>342.0</ele><time>2026-05-03T06:59:14.919Z</time></trkpt><trkpt lat="43.1182218" lon="13.1298177"><ele>342.6666666666667</ele><time>2026-05-03T06:59:15.905Z</time></trkpt><trkpt lat="43.1181012" lon="13.1296508"><ele>343.33333333333337</ele><time>2026-05-03T06:59:16.915Z</time></trkpt><trkpt lat="43.1179904" lon="13.1295007"><ele>344.0</ele><time>2026-05-03T06:59:17.921Z</time></trkpt><trkpt lat="43.1178841" lon="13.1293606"><ele>344.0</ele><time>2026-05-03T06:59:18.912Z</time></trkpt><trkpt lat="43.1177901" lon="13.1292247"><ele>344.0</ele><time>2026-05-03T06:59:19.912Z</time></trkpt><trkpt lat="43.1177028" lon="13.1290845"><ele>344.0</ele><time>2026-05-03T06:59:20.915Z</time></trkpt><trkpt lat="43.1176421" lon="13.128903"><ele>344.0</ele><time>2026-05-03T06:59:21.928Z</time></trkpt><trkpt lat="43.1175904" lon="13.1287135"><ele>344.6666666666667</ele><time>2026-05-03T06:59:22.905Z</time></trkpt><trkpt lat="43.1175603" lon="13.1284994"><ele>345.3333333333333</ele><time>2026-05-03T06:59:23.928Z</time></trkpt><trkpt lat="43.1175155" lon="13.1282661"><ele>346.0</ele><time>2026-05-03T06:59:24.913Z</time></trkpt><trkpt lat="43.1174571" lon="13.1280423"><ele>345.3333333333333</ele><time>2026-05-03T06:59:25.924Z</time></trkpt><trkpt lat="43.1173969" lon="13.1278216"><ele>344.6666666666667</ele><time>2026-05-03T06:59:26.918Z</time></trkpt><trkpt lat="43.1173182" lon="13.1276139"><ele>344.0</ele><time>2026-05-03T06:59:27.922Z</time></trkpt><trkpt lat="43.1172318" lon="13.1274316"><ele>346.5</ele><time>2026-05-03T06:59:28.922Z</time></trkpt><trkpt lat="43.1171397" lon="13.127285"><ele>349.0</ele><time>2026-05-03T06:59:29.912Z</time></trkpt><trkpt lat="43.1170478" lon="13.1271616"><ele>351.5</ele><time>2026-05-03T06:59:30.918Z</time></trkpt><trkpt lat="43.1169538" lon="13.1270626"><ele>354.0</ele><time>2026-05-03T06:59:31.903Z</time></trkpt><trkpt lat="43.1168475" lon="13.1270063"><ele>354.0</ele><time>2026-05-03T06:59:32.909Z</time></trkpt><trkpt lat="43.1167306" lon="13.1269892"><ele>354.0</ele><time>2026-05-03T06:59:33.922Z</time></trkpt><trkpt lat="43.1166022" lon="13.1270204"><ele>354.0</ele><time>2026-05-03T06:59:34.909Z</time></trkpt><trkpt lat="43.1164673" lon="13.1271042"><ele>354.0</ele><time>2026-05-03T06:59:35.911Z</time></trkpt><trkpt lat="43.1163213" lon="13.1272079"><ele>355.6666666666667</ele><time>2026-05-03T06:59:36.909Z</time></trkpt><trkpt lat="43.1161819" lon="13.1273421"><ele>357.33333333333337</ele><time>2026-05-03T06:59:37.908Z</time></trkpt><trkpt lat="43.116056" lon="13.1274791"><ele>359.0</ele><time>2026-05-03T06:59:38.906Z</time></trkpt><trkpt lat="43.1159447" lon="13.1276129"><ele>356.25</ele><time>2026-05-03T06:59:39.914Z</time></trkpt><trkpt lat="43.1158368" lon="13.1277519"><ele>353.5</ele><time>2026-05-03T06:59:40.906Z</time></trkpt><trkpt lat="43.1157246" lon="13.1278733"><ele>350.75</ele><time>2026-05-03T06:59:41.895Z</time></trkpt><trkpt lat="43.115607" lon="13.1279609"><ele>348.0</ele><time>2026-05-03T06:59:42.912Z</time></trkpt><trkpt lat="43.1154726" lon="13.12801"><ele>346.6666666666667</ele><time>2026-05-03T06:59:43.911Z</time></trkpt><trkpt lat="43.1153154" lon="13.1280181"><ele>345.33333333333337</ele><time>2026-05-03T06:59:44.907Z</time></trkpt><trkpt lat="43.1151351" lon="13.1279913"><ele>344.0</ele><time>2026-05-03T06:59:45.913Z</time></trkpt><trkpt lat="43.1149375" lon="13.1279543"><ele>345.0</ele><time>2026-05-03T06:59:46.91Z</time></trkpt><trkpt lat="43.1147324" lon="13.127917"><ele>346.0</ele><time>2026-05-03T06:59:47.909Z</time></trkpt><trkpt lat="43.1145202" lon="13.127878"><ele>347.0</ele><time>2026-05-03T06:59:48.905Z</time></trkpt><trkpt lat="43.1143115" lon="13.1278394"><ele>347.0</ele><time>2026-05-03T06:59:49.909Z</time></trkpt><trkpt lat="43.1141096" lon="13.1277894"><ele>347.0</ele><time>2026-05-03T06:59:50.916Z</time></trkpt><trkpt lat="43.1139021" lon="13.1277205"><ele>347.0</ele><time>2026-05-03T06:59:51.922Z</time></trkpt><trkpt lat="43.1136899" lon="13.1276383"><ele>347.33333333333337</ele><time>2026-05-03T06:59:52.923Z</time></trkpt><trkpt lat="43.1134902" lon="13.1275591"><ele>347.6666666666667</ele><time>2026-05-03T06:59:53.921Z</time></trkpt><trkpt lat="43.1133004" lon="13.1274851"><ele>348.0</ele><time>2026-05-03T06:59:54.905Z</time></trkpt><trkpt lat="43.1131352" lon="13.1274267"><ele>350.25</ele><time>2026-05-03T06:59:55.921Z</time></trkpt><trkpt lat="43.1129804" lon="13.1273675"><ele>352.5</ele><time>2026-05-03T06:59:56.926Z</time></trkpt><trkpt lat="43.1128413" lon="13.1273163"><ele>354.75</ele><time>2026-05-03T06:59:57.921Z</time></trkpt><trkpt lat="43.1127036" lon="13.1272628"><ele>357.0</ele><time>2026-05-03T06:59:58.911Z</time></trkpt><trkpt lat="43.1125523" lon="13.1272043"><ele>360.3333333333333</ele><time>2026-05-03T06:59:59.923Z</time></trkpt><trkpt lat="43.1123862" lon="13.1271439"><ele>363.66666666666663</ele><time>2026-05-03T07:00:00.925Z</time></trkpt><trkpt lat="43.1122084" lon="13.1270892"><ele>367.0</ele><time>2026-05-03T07:00:01.915Z</time></trkpt><trkpt lat="43.1120176" lon="13.1270388"><ele>367.0</ele><time>2026-05-03T07:00:02.906Z</time></trkpt><trkpt lat="43.1118185" lon="13.1269946"><ele>367.0</ele><time>2026-05-03T07:00:03.923Z</time></trkpt><trkpt lat="43.1116167" lon="13.1269505"><ele>367.0</ele><time>2026-05-03T07:00:04.907Z</time></trkpt><trkpt lat="43.111414" lon="13.1269361"><ele>366.3333333333333</ele><time>2026-05-03T07:00:05.919Z</time></trkpt><trkpt lat="43.1112296" lon="13.1269234"><ele>365.6666666666667</ele><time>2026-05-03T07:00:06.922Z</time></trkpt><trkpt lat="43.1110559" lon="13.1269185"><ele>365.0</ele><time>2026-05-03T07:00:07.916Z</time></trkpt><trkpt lat="43.1108922" lon="13.1269109"><ele>365.0</ele><time>2026-05-03T07:00:08.92Z</time></trkpt><trkpt lat="43.1107418" lon="13.1269039"><ele>365.0</ele><time>2026-05-03T07:00:09.905Z</time></trkpt><trkpt lat="43.1106041" lon="13.1268967"><ele>365.0</ele><time>2026-05-03T07:00:10.921Z</time></trkpt><trkpt lat="43.1104967" lon="13.1268862"><ele>365.0</ele><time>2026-05-03T07:00:11.901Z</time></trkpt><trkpt lat="43.1104156" lon="13.1268762"><ele>362.2</ele><time>2026-05-03T07:00:12.916Z</time></trkpt><trkpt lat="43.1103109" lon="13.1268516"><ele>359.4</ele><time>2026-05-03T07:00:14.903Z</time></trkpt><trkpt lat="43.1102269" lon="13.1268405"><ele>356.6</ele><time>2026-05-03T07:00:16.926Z</time></trkpt><trkpt lat="43.1101491" lon="13.1268529"><ele>353.8</ele><time>2026-05-03T07:00:17.92Z</time></trkpt><trkpt lat="43.1100588" lon="13.126882"><ele>351.0</ele><time>2026-05-03T07:00:18.917Z</time></trkpt><trkpt lat="43.109944" lon="13.1269321"><ele>353.0</ele><time>2026-05-03T07:00:19.915Z</time></trkpt><trkpt lat="43.1098078" lon="13.1269981"><ele>355.0</ele><time>2026-05-03T07:00:20.921Z</time></trkpt><trkpt lat="43.109668" lon="13.1270644"><ele>357.0</ele><time>2026-05-03T07:00:21.908Z</time></trkpt><trkpt lat="43.1095273" lon="13.1271382"><ele>359.0</ele><time>2026-05-03T07:00:22.919Z</time></trkpt><trkpt lat="43.1093961" lon="13.1272254"><ele>359.0</ele><time>2026-05-03T07:00:23.921Z</time></trkpt><trkpt lat="43.1092872" lon="13.1273378"><ele>359.0</ele><time>2026-05-03T07:00:24.916Z</time></trkpt><trkpt lat="43.1091961" lon="13.1274889"><ele>359.0</ele><time>2026-05-03T07:00:25.925Z</time></trkpt><trkpt lat="43.1091308" lon="13.1276759"><ele>359.0</ele><time>2026-05-03T07:00:26.926Z</time></trkpt><trkpt lat="43.1090937" lon="13.127855"><ele>362.0</ele><time>2026-05-03T07:00:27.916Z</time></trkpt><trkpt lat="43.1090581" lon="13.1280158"><ele>365.0</ele><time>2026-05-03T07:00:28.916Z</time></trkpt><trkpt lat="43.1090052" lon="13.1281625"><ele>368.0</ele><time>2026-05-03T07:00:29.908Z</time></trkpt><trkpt lat="43.108929" lon="13.1282785"><ele>371.0</ele><time>2026-05-03T07:00:30.919Z</time></trkpt><trkpt lat="43.1088326" lon="13.1283579"><ele>371.0</ele><time>2026-05-03T07:00:31.919Z</time></trkpt><trkpt lat="43.1087208" lon="13.128405"><ele>371.0</ele><time>2026-05-03T07:00:32.914Z</time></trkpt><trkpt lat="43.1085916" lon="13.1284134"><ele>371.0</ele><time>2026-05-03T07:00:33.901Z</time></trkpt><trkpt lat="43.1084477" lon="13.1284073"><ele>371.0</ele><time>2026-05-03T07:00:34.901Z</time></trkpt><trkpt lat="43.1082932" lon="13.1283999"><ele>372.0</ele><time>2026-05-03T07:00:35.919Z</time></trkpt><trkpt lat="43.1081299" lon="13.1283996"><ele>373.0</ele><time>2026-05-03T07:00:36.917Z</time></trkpt><trkpt lat="43.1079795" lon="13.1284019"><ele>374.0</ele><time>2026-05-03T07:00:37.918Z</time></trkpt><trkpt lat="43.1078442" lon="13.1284057"><ele>375.0</ele><time>2026-05-03T07:00:38.9Z</time></trkpt><trkpt lat="43.1077217" lon="13.1284068"><ele>375.0</ele><time>2026-05-03T07:00:39.899Z</time></trkpt><trkpt lat="43.1076142" lon="13.1284084"><ele>375.0</ele><time>2026-05-03T07:00:40.917Z</time></trkpt><trkpt lat="43.1075148" lon="13.1284131"><ele>375.0</ele><time>2026-05-03T07:00:41.917Z</time></trkpt><trkpt lat="43.1074095" lon="13.1284204"><ele>375.0</ele><time>2026-05-03T07:00:42.915Z</time></trkpt><trkpt lat="43.107292" lon="13.1284244"><ele>375.0</ele><time>2026-05-03T07:00:43.923Z</time></trkpt><trkpt lat="43.1071604" lon="13.1284272"><ele>374.6666666666667</ele><time>2026-05-03T07:00:44.911Z</time></trkpt><trkpt lat="43.1070142" lon="13.1284326"><ele>374.33333333333337</ele><time>2026-05-03T07:00:45.912Z</time></trkpt><trkpt lat="43.1068549" lon="13.1284414"><ele>374.0</ele><time>2026-05-03T07:00:46.913Z</time></trkpt><trkpt lat="43.10669" lon="13.1284553"><ele>373.0</ele><time>2026-05-03T07:00:47.903Z</time></trkpt><trkpt lat="43.1065203" lon="13.1284799"><ele>372.0</ele><time>2026-05-03T07:00:48.922Z</time></trkpt><trkpt lat="43.1063429" lon="13.1285233"><ele>371.0</ele><time>2026-05-03T07:00:49.911Z</time></trkpt><trkpt lat="43.1061609" lon="13.1285835"><ele>371.0</ele><time>2026-05-03T07:00:50.909Z</time></trkpt><trkpt lat="43.1059759" lon="13.1286508"><ele>371.0</ele><time>2026-05-03T07:00:51.916Z</time></trkpt><trkpt lat="43.1057869" lon="13.1287238"><ele>371.0</ele><time>2026-05-03T07:00:52.921Z</time></trkpt><trkpt lat="43.1056072" lon="13.1287971"><ele>370.5</ele><time>2026-05-03T07:00:53.922Z</time></trkpt><trkpt lat="43.1054498" lon="13.1288652"><ele>370.0</ele><time>2026-05-03T07:00:54.922Z</time></trkpt><trkpt lat="43.1053139" lon="13.1289253"><ele>369.5</ele><time>2026-05-03T07:00:55.912Z</time></trkpt><trkpt lat="43.1051901" lon="13.1289757"><ele>369.0</ele><time>2026-05-03T07:00:56.912Z</time></trkpt><trkpt lat="43.1050714" lon="13.1290204"><ele>369.0</ele><time>2026-05-03T07:00:57.912Z</time></trkpt><trkpt lat="43.1049405" lon="13.1289998"><ele>369.0</ele><time>2026-05-03T07:00:58.913Z</time></trkpt><trkpt lat="43.1047992" lon="13.1289392"><ele>369.0</ele><time>2026-05-03T07:00:59.909Z</time></trkpt><trkpt lat="43.1046489" lon="13.1288661"><ele>369.0</ele><time>2026-05-03T07:01:00.922Z</time></trkpt><trkpt lat="43.104496" lon="13.1287568"><ele>366.6666666666667</ele><time>2026-05-03T07:01:01.91Z</time></trkpt><trkpt lat="43.1043304" lon="13.128649"><ele>364.33333333333337</ele><time>2026-05-03T07:01:02.927Z</time></trkpt><trkpt lat="43.1041624" lon="13.1285671"><ele>362.0</ele><time>2026-05-03T07:01:03.924Z</time></trkpt><trkpt lat="43.1040083" lon="13.1284983"><ele>361.6666666666667</ele><time>2026-05-03T07:01:04.921Z</time></trkpt><trkpt lat="43.1038522" lon="13.1284456"><ele>361.3333333333333</ele><time>2026-05-03T07:01:05.92Z</time></trkpt><trkpt lat="43.1036875" lon="13.1283995"><ele>361.0</ele><time>2026-05-03T07:01:06.914Z</time></trkpt><trkpt lat="43.1035185" lon="13.1283493"><ele>361.0</ele><time>2026-05-03T07:01:07.912Z</time></trkpt><trkpt lat="43.1033441" lon="13.1282958"><ele>361.0</ele><time>2026-05-03T07:01:08.905Z</time></trkpt><trkpt lat="43.1031626" lon="13.1282512"><ele>361.0</ele><time>2026-05-03T07:01:09.923Z</time></trkpt><trkpt lat="43.1029748" lon="13.1282238"><ele>364.66666666666663</ele><time>2026-05-03T07:01:10.922Z</time></trkpt><trkpt lat="43.1027805" lon="13.1282048"><ele>368.3333333333333</ele><time>2026-05-03T07:01:11.918Z</time></trkpt><trkpt lat="43.102584" lon="13.1281917"><ele>372.0</ele><time>2026-05-03T07:01:12.91Z</time></trkpt><trkpt lat="43.1023985" lon="13.1281896"><ele>372.3333333333333</ele><time>2026-05-03T07:01:13.922Z</time></trkpt><trkpt lat="43.1022258" lon="13.1281897"><ele>372.66666666666663</ele><time>2026-05-03T07:01:14.929Z</time></trkpt><trkpt lat="43.1020584" lon="13.1282115"><ele>373.0</ele><time>2026-05-03T07:01:15.925Z</time></trkpt><trkpt lat="43.1018983" lon="13.1282664"><ele>370.5</ele><time>2026-05-03T07:01:16.916Z</time></trkpt><trkpt lat="43.1017403" lon="13.1283205"><ele>368.0</ele><time>2026-05-03T07:01:17.925Z</time></trkpt><trkpt lat="43.1016055" lon="13.1283723"><ele>365.5</ele><time>2026-05-03T07:01:18.916Z</time></trkpt><trkpt lat="43.1014776" lon="13.128418"><ele>363.0</ele><time>2026-05-03T07:01:19.923Z</time></trkpt><trkpt lat="43.10134" lon="13.1283963"><ele>362.3333333333333</ele><time>2026-05-03T07:01:20.921Z</time></trkpt><trkpt lat="43.1012172" lon="13.1282882"><ele>361.66666666666663</ele><time>2026-05-03T07:01:21.932Z</time></trkpt><trkpt lat="43.1010893" lon="13.1281193"><ele>361.0</ele><time>2026-05-03T07:01:22.915Z</time></trkpt><trkpt lat="43.100955" lon="13.127914"><ele>361.0</ele><time>2026-05-03T07:01:23.916Z</time></trkpt><trkpt lat="43.1008139" lon="13.1277181"><ele>361.0</ele><time>2026-05-03T07:01:24.927Z</time></trkpt><trkpt lat="43.1006799" lon="13.1275381"><ele>361.0</ele><time>2026-05-03T07:01:25.916Z</time></trkpt><trkpt lat="43.100558" lon="13.1273639"><ele>363.0</ele><time>2026-05-03T07:01:26.923Z</time></trkpt><trkpt lat="43.1004433" lon="13.1272114"><ele>365.0</ele><time>2026-05-03T07:01:27.91Z</time></trkpt><trkpt lat="43.1003398" lon="13.1270605"><ele>367.0</ele><time>2026-05-03T07:01:28.913Z</time></trkpt><trkpt lat="43.1002441" lon="13.1269052"><ele>367.0</ele><time>2026-05-03T07:01:29.928Z</time></trkpt><trkpt lat="43.1001528" lon="13.1267456"><ele>367.0</ele><time>2026-05-03T07:01:30.912Z</time></trkpt><trkpt lat="43.1000607" lon="13.1265839"><ele>367.0</ele><time>2026-05-03T07:01:31.923Z</time></trkpt><trkpt lat="43.0999655" lon="13.1264257"><ele>367.0</ele><time>2026-05-03T07:01:32.914Z</time></trkpt><trkpt lat="43.0998659" lon="13.1262685"><ele>367.5</ele><time>2026-05-03T07:01:33.913Z</time></trkpt><trkpt lat="43.099768" lon="13.126113"><ele>368.0</ele><time>2026-05-03T07:01:34.906Z</time></trkpt><trkpt lat="43.099677" lon="13.1259609"><ele>368.5</ele><time>2026-05-03T07:01:35.914Z</time></trkpt><trkpt lat="43.0995944" lon="13.1258093"><ele>369.0</ele><time>2026-05-03T07:01:36.928Z</time></trkpt><trkpt lat="43.0995282" lon="13.125649"><ele>370.75</ele><time>2026-05-03T07:01:37.913Z</time></trkpt><trkpt lat="43.0994656" lon="13.1254854"><ele>372.5</ele><time>2026-05-03T07:01:38.914Z</time></trkpt><trkpt lat="43.0994367" lon="13.1252992"><ele>374.25</ele><time>2026-05-03T07:01:39.929Z</time></trkpt><trkpt lat="43.0994235" lon="13.1251"><ele>376.0</ele><time>2026-05-03T07:01:40.919Z</time></trkpt><trkpt lat="43.0994065" lon="13.1249137"><ele>379.75</ele><time>2026-05-03T07:01:41.927Z</time></trkpt><trkpt lat="43.0993706" lon="13.1247338"><ele>383.5</ele><time>2026-05-03T07:01:42.921Z</time></trkpt><trkpt lat="43.0993143" lon="13.1246054"><ele>387.25</ele><time>2026-05-03T07:01:43.913Z</time></trkpt><trkpt lat="43.099212" lon="13.1244913"><ele>391.0</ele><time>2026-05-03T07:01:44.928Z</time></trkpt><trkpt lat="43.0991147" lon="13.1243997"><ele>391.75</ele><time>2026-05-03T07:01:45.921Z</time></trkpt><trkpt lat="43.0990044" lon="13.1243159"><ele>392.5</ele><time>2026-05-03T07:01:46.924Z</time></trkpt><trkpt lat="43.098897" lon="13.1242248"><ele>393.25</ele><time>2026-05-03T07:01:47.917Z</time></trkpt><trkpt lat="43.0987907" lon="13.1241343"><ele>394.0</ele><time>2026-05-03T07:01:48.923Z</time></trkpt><trkpt lat="43.0986811" lon="13.1240376"><ele>394.0</ele><time>2026-05-03T07:01:49.907Z</time></trkpt><trkpt lat="43.0985713" lon="13.1239316"><ele>394.0</ele><time>2026-05-03T07:01:50.911Z</time></trkpt><trkpt lat="43.098456" lon="13.1238276"><ele>394.0</ele><time>2026-05-03T07:01:51.913Z</time></trkpt><trkpt lat="43.0983367" lon="13.1237203"><ele>394.0</ele><time>2026-05-03T07:01:52.917Z</time></trkpt><trkpt lat="43.0982217" lon="13.1236161"><ele>396.25</ele><time>2026-05-03T07:01:53.913Z</time></trkpt><trkpt lat="43.0981081" lon="13.1235152"><ele>398.5</ele><time>2026-05-03T07:01:54.922Z</time></trkpt><trkpt lat="43.0979983" lon="13.1234193"><ele>400.75</ele><time>2026-05-03T07:01:55.921Z</time></trkpt><trkpt lat="43.0978898" lon="13.1233253"><ele>403.0</ele><time>2026-05-03T07:01:56.918Z</time></trkpt><trkpt lat="43.0977835" lon="13.1232266"><ele>403.0</ele><time>2026-05-03T07:01:57.915Z</time></trkpt><trkpt lat="43.0976721" lon="13.1231265"><ele>403.0</ele><time>2026-05-03T07:01:58.925Z</time></trkpt><trkpt lat="43.0975629" lon="13.1230263"><ele>403.0</ele><time>2026-05-03T07:01:59.92Z</time></trkpt><trkpt lat="43.0974574" lon="13.1229282"><ele>403.0</ele><time>2026-05-03T07:02:00.92Z</time></trkpt><trkpt lat="43.0973439" lon="13.1228294"><ele>399.25</ele><time>2026-05-03T07:02:01.926Z</time></trkpt><trkpt lat="43.0972151" lon="13.1227481"><ele>395.5</ele><time>2026-05-03T07:02:02.914Z</time></trkpt><trkpt lat="43.0970741" lon="13.1226917"><ele>391.75</ele><time>2026-05-03T07:02:03.918Z</time></trkpt><trkpt lat="43.0969231" lon="13.1226642"><ele>388.0</ele><time>2026-05-03T07:02:04.922Z</time></trkpt><trkpt lat="43.0967646" lon="13.1226607"><ele>388.0</ele><time>2026-05-03T07:02:05.927Z</time></trkpt><trkpt lat="43.0966017" lon="13.1226561"><ele>388.0</ele><time>2026-05-03T07:02:06.92Z</time></trkpt><trkpt lat="43.0964389" lon="13.1226662"><ele>388.0</ele><time>2026-05-03T07:02:07.916Z</time></trkpt><trkpt lat="43.0962784" lon="13.1226731"><ele>385.33333333333337</ele><time>2026-05-03T07:02:08.921Z</time></trkpt><trkpt lat="43.0961187" lon="13.122677"><ele>382.6666666666667</ele><time>2026-05-03T07:02:09.911Z</time></trkpt><trkpt lat="43.0959456" lon="13.1226758"><ele>380.0</ele><time>2026-05-03T07:02:10.918Z</time></trkpt><trkpt lat="43.0957673" lon="13.1226714"><ele>378.6666666666667</ele><time>2026-05-03T07:02:11.921Z</time></trkpt><trkpt lat="43.095601" lon="13.1226528"><ele>377.3333333333333</ele><time>2026-05-03T07:02:12.919Z</time></trkpt><trkpt lat="43.0954373" lon="13.1226246"><ele>376.0</ele><time>2026-05-03T07:02:13.921Z</time></trkpt><trkpt lat="43.0952754" lon="13.1225908"><ele>376.0</ele><time>2026-05-03T07:02:14.921Z</time></trkpt><trkpt lat="43.0951161" lon="13.1225474"><ele>376.0</ele><time>2026-05-03T07:02:15.922Z</time></trkpt><trkpt lat="43.0949614" lon="13.1224921"><ele>376.0</ele><time>2026-05-03T07:02:16.926Z</time></trkpt><trkpt lat="43.094804" lon="13.1224272"><ele>380.25</ele><time>2026-05-03T07:02:17.919Z</time></trkpt><trkpt lat="43.0946587" lon="13.1223613"><ele>384.5</ele><time>2026-05-03T07:02:18.921Z</time></trkpt><trkpt lat="43.0945253" lon="13.1222809"><ele>388.75</ele><time>2026-05-03T07:02:19.921Z</time></trkpt><trkpt lat="43.0943964" lon="13.1221969"><ele>393.0</ele><time>2026-05-03T07:02:20.913Z</time></trkpt><trkpt lat="43.0942677" lon="13.1221098"><ele>393.0</ele><time>2026-05-03T07:02:21.923Z</time></trkpt><trkpt lat="43.0941419" lon="13.1220213"><ele>393.0</ele><time>2026-05-03T07:02:22.904Z</time></trkpt><trkpt lat="43.0940282" lon="13.1219379"><ele>393.0</ele><time>2026-05-03T07:02:23.923Z</time></trkpt><trkpt lat="43.0939204" lon="13.1218559"><ele>393.0</ele><time>2026-05-03T07:02:24.922Z</time></trkpt><trkpt lat="43.0938158" lon="13.1217726"><ele>392.75</ele><time>2026-05-03T07:02:25.917Z</time></trkpt><trkpt lat="43.0937065" lon="13.1216881"><ele>392.5</ele><time>2026-05-03T07:02:26.921Z</time></trkpt><trkpt lat="43.0935918" lon="13.1215981"><ele>392.25</ele><time>2026-05-03T07:02:27.913Z</time></trkpt><trkpt lat="43.0934708" lon="13.1215054"><ele>392.0</ele><time>2026-05-03T07:02:28.922Z</time></trkpt><trkpt lat="43.0933452" lon="13.1214067"><ele>388.0</ele><time>2026-05-03T07:02:29.914Z</time></trkpt><trkpt lat="43.0932142" lon="13.1213045"><ele>384.0</ele><time>2026-05-03T07:02:30.917Z</time></trkpt><trkpt lat="43.0930789" lon="13.1212007"><ele>380.0</ele><time>2026-05-03T07:02:31.921Z</time></trkpt><trkpt lat="43.0929488" lon="13.1211015"><ele>380.0</ele><time>2026-05-03T07:02:32.909Z</time></trkpt><trkpt lat="43.0928265" lon="13.1210103"><ele>380.0</ele><time>2026-05-03T07:02:33.913Z</time></trkpt><trkpt lat="43.0927139" lon="13.1209221"><ele>380.0</ele><time>2026-05-03T07:02:34.918Z</time></trkpt><trkpt lat="43.0926012" lon="13.1208435"><ele>380.0</ele><time>2026-05-03T07:02:35.918Z</time></trkpt><trkpt lat="43.0924951" lon="13.1207568"><ele>379.25</ele><time>2026-05-03T07:02:36.928Z</time></trkpt><trkpt lat="43.0923985" lon="13.1206515"><ele>378.5</ele><time>2026-05-03T07:02:37.928Z</time></trkpt><trkpt lat="43.092316" lon="13.1205254"><ele>377.75</ele><time>2026-05-03T07:02:38.918Z</time></trkpt><trkpt lat="43.092248" lon="13.1203826"><ele>377.0</ele><time>2026-05-03T07:02:39.902Z</time></trkpt><trkpt lat="43.0921956" lon="13.1202264"><ele>377.0</ele><time>2026-05-03T07:02:40.924Z</time></trkpt><trkpt lat="43.0921566" lon="13.1200599"><ele>377.0</ele><time>2026-05-03T07:02:41.908Z</time></trkpt><trkpt lat="43.092133" lon="13.119887"><ele>377.0</ele><time>2026-05-03T07:02:42.914Z</time></trkpt><trkpt lat="43.0921195" lon="13.1197117"><ele>377.0</ele><time>2026-05-03T07:02:43.908Z</time></trkpt><trkpt lat="43.0921123" lon="13.1195439"><ele>376.8</ele><time>2026-05-03T07:02:44.913Z</time></trkpt><trkpt lat="43.092102" lon="13.1193845"><ele>376.6</ele><time>2026-05-03T07:02:45.912Z</time></trkpt><trkpt lat="43.0920862" lon="13.1192353"><ele>376.40000000000003</ele><time>2026-05-03T07:02:46.916Z</time></trkpt><trkpt lat="43.0920683" lon="13.1190879"><ele>376.20000000000005</ele><time>2026-05-03T07:02:47.922Z</time></trkpt><trkpt lat="43.0920253" lon="13.1189482"><ele>376.0</ele><time>2026-05-03T07:02:48.897Z</time></trkpt><trkpt lat="43.0919714" lon="13.1188113"><ele>376.6</ele><time>2026-05-03T07:02:49.915Z</time></trkpt><trkpt lat="43.0919042" lon="13.1186724"><ele>377.20000000000005</ele><time>2026-05-03T07:02:50.912Z</time></trkpt><trkpt lat="43.0918456" lon="13.1185403"><ele>377.79999999999995</ele><time>2026-05-03T07:02:51.913Z</time></trkpt><trkpt lat="43.091798" lon="13.118437"><ele>378.4</ele><time>2026-05-03T07:02:52.909Z</time></trkpt><trkpt lat="43.0917565" lon="13.1183457"><ele>379.0</ele><time>2026-05-03T07:02:53.916Z</time></trkpt><trkpt lat="43.0917172" lon="13.118266"><ele>379.0</ele><time>2026-05-03T07:02:54.935Z</time></trkpt><trkpt lat="43.0916492" lon="13.1181459"><ele>379.0</ele><time>2026-05-03T07:02:56.918Z</time></trkpt><trkpt lat="43.0915671" lon="13.1181232"><ele>379.0</ele><time>2026-05-03T07:02:58.921Z</time></trkpt><trkpt lat="43.0914807" lon="13.1182458"><ele>379.0</ele><time>2026-05-03T07:03:00.914Z</time></trkpt><trkpt lat="43.0914197" lon="13.1183324"><ele>379.0</ele><time>2026-05-03T07:03:01.919Z</time></trkpt><trkpt lat="43.091349" lon="13.1184321"><ele>378.6</ele><time>2026-05-03T07:03:02.914Z</time></trkpt><trkpt lat="43.0912618" lon="13.1185272"><ele>378.2</ele><time>2026-05-03T07:03:03.927Z</time></trkpt><trkpt lat="43.0911766" lon="13.118613"><ele>377.8</ele><time>2026-05-03T07:03:04.913Z</time></trkpt><trkpt lat="43.0910913" lon="13.1186974"><ele>377.40000000000003</ele><time>2026-05-03T07:03:05.909Z</time></trkpt><trkpt lat="43.0910022" lon="13.1187812"><ele>377.0</ele><time>2026-05-03T07:03:06.916Z</time></trkpt><trkpt lat="43.0908957" lon="13.1188774"><ele>377.0</ele><time>2026-05-03T07:03:07.915Z</time></trkpt><trkpt lat="43.0907849" lon="13.1189818"><ele>377.0</ele><time>2026-05-03T07:03:08.925Z</time></trkpt><trkpt lat="43.0906702" lon="13.1190942"><ele>377.0</ele><time>2026-05-03T07:03:09.921Z</time></trkpt><trkpt lat="43.0905551" lon="13.1192111"><ele>377.0</ele><time>2026-05-03T07:03:10.916Z</time></trkpt><trkpt lat="43.0904418" lon="13.1193264"><ele>378.75</ele><time>2026-05-03T07:03:11.915Z</time></trkpt><trkpt lat="43.0903306" lon="13.1194545"><ele>380.5</ele><time>2026-05-03T07:03:12.914Z</time></trkpt><trkpt lat="43.0902134" lon="13.1195593"><ele>382.25</ele><time>2026-05-03T07:03:13.927Z</time></trkpt><trkpt lat="43.0900944" lon="13.1196657"><ele>384.0</ele><time>2026-05-03T07:03:14.915Z</time></trkpt><trkpt lat="43.0899818" lon="13.1197718"><ele>384.75</ele><time>2026-05-03T07:03:15.915Z</time></trkpt><trkpt lat="43.0898645" lon="13.1198836"><ele>385.5</ele><time>2026-05-03T07:03:16.915Z</time></trkpt><trkpt lat="43.0897495" lon="13.1199983"><ele>386.25</ele><time>2026-05-03T07:03:17.918Z</time></trkpt><trkpt lat="43.0896383" lon="13.1201084"><ele>387.0</ele><time>2026-05-03T07:03:18.923Z</time></trkpt><trkpt lat="43.0895364" lon="13.1202201"><ele>387.75</ele><time>2026-05-03T07:03:19.906Z</time></trkpt><trkpt lat="43.0894349" lon="13.1203413"><ele>388.5</ele><time>2026-05-03T07:03:20.908Z</time></trkpt><trkpt lat="43.0893411" lon="13.1204851"><ele>389.25</ele><time>2026-05-03T07:03:21.908Z</time></trkpt><trkpt lat="43.0892595" lon="13.120652"><ele>390.0</ele><time>2026-05-03T07:03:22.911Z</time></trkpt><trkpt lat="43.0891835" lon="13.1208301"><ele>390.5</ele><time>2026-05-03T07:03:23.919Z</time></trkpt><trkpt lat="43.0891122" lon="13.1210112"><ele>391.0</ele><time>2026-05-03T07:03:24.926Z</time></trkpt><trkpt lat="43.089039" lon="13.1211863"><ele>391.5</ele><time>2026-05-03T07:03:25.918Z</time></trkpt><trkpt lat="43.0889673" lon="13.1213642"><ele>392.0</ele><time>2026-05-03T07:03:26.916Z</time></trkpt><trkpt lat="43.088895" lon="13.1215409"><ele>394.0</ele><time>2026-05-03T07:03:27.909Z</time></trkpt><trkpt lat="43.0888279" lon="13.1217046"><ele>396.0</ele><time>2026-05-03T07:03:28.9Z</time></trkpt><trkpt lat="43.0887678" lon="13.1218475"><ele>398.0</ele><time>2026-05-03T07:03:29.922Z</time></trkpt><trkpt lat="43.0887129" lon="13.1219833"><ele>400.0</ele><time>2026-05-03T07:03:30.913Z</time></trkpt><trkpt lat="43.0886585" lon="13.1221239"><ele>400.0</ele><time>2026-05-03T07:03:31.917Z</time></trkpt><trkpt lat="43.0885949" lon="13.1222617"><ele>400.0</ele><time>2026-05-03T07:03:32.913Z</time></trkpt><trkpt lat="43.0885106" lon="13.1223701"><ele>400.0</ele><time>2026-05-03T07:03:33.917Z</time></trkpt><trkpt lat="43.0883989" lon="13.1224431"><ele>400.0</ele><time>2026-05-03T07:03:34.91Z</time></trkpt><trkpt lat="43.0882526" lon="13.1224985"><ele>403.6666666666667</ele><time>2026-05-03T07:03:35.917Z</time></trkpt><trkpt lat="43.0880719" lon="13.1225475"><ele>407.33333333333337</ele><time>2026-05-03T07:03:36.918Z</time></trkpt><trkpt lat="43.0878619" lon="13.1225976"><ele>411.0</ele><time>2026-05-03T07:03:37.922Z</time></trkpt><trkpt lat="43.0876335" lon="13.1226501"><ele>412.5</ele><time>2026-05-03T07:03:38.917Z</time></trkpt><trkpt lat="43.0874073" lon="13.1226776"><ele>414.0</ele><time>2026-05-03T07:03:39.916Z</time></trkpt><trkpt lat="43.0871718" lon="13.1227116"><ele>414.0</ele><time>2026-05-03T07:03:40.92Z</time></trkpt><trkpt lat="43.0869503" lon="13.1227521"><ele>414.0</ele><time>2026-05-03T07:03:41.916Z</time></trkpt><trkpt lat="43.0867531" lon="13.1227876"><ele>414.0</ele><time>2026-05-03T07:03:42.929Z</time></trkpt><trkpt lat="43.0865789" lon="13.1228185"><ele>414.0</ele><time>2026-05-03T07:03:43.897Z</time></trkpt><trkpt lat="43.0864266" lon="13.1228449"><ele>414.0</ele><time>2026-05-03T07:03:44.915Z</time></trkpt><trkpt lat="43.0863052" lon="13.1228667"><ele>414.0</ele><time>2026-05-03T07:03:45.913Z</time></trkpt><trkpt lat="43.0862064" lon="13.1228968"><ele>414.0</ele><time>2026-05-03T07:03:46.908Z</time></trkpt><trkpt lat="43.08613" lon="13.1229397"><ele>414.0</ele><time>2026-05-03T07:03:47.913Z</time></trkpt><trkpt lat="43.0860782" lon="13.1230068"><ele>414.0</ele><time>2026-05-03T07:03:48.922Z</time></trkpt><trkpt lat="43.0860672" lon="13.1230989"><ele>414.0</ele><time>2026-05-03T07:03:49.913Z</time></trkpt><trkpt lat="43.0860994" lon="13.1231919"><ele>414.0</ele><time>2026-05-03T07:03:50.92Z</time></trkpt><trkpt lat="43.0861415" lon="13.1232846"><ele>414.0</ele><time>2026-05-03T07:03:51.914Z</time></trkpt><trkpt lat="43.0862501" lon="13.1233207"><ele>414.0</ele><time>2026-05-03T07:03:52.916Z</time></trkpt><trkpt lat="43.086405" lon="13.1233231"><ele>418.33333333333337</ele><time>2026-05-03T07:03:53.907Z</time></trkpt><trkpt lat="43.0865778" lon="13.1233291"><ele>422.6666666666667</ele><time>2026-05-03T07:03:54.917Z</time></trkpt><trkpt lat="43.0867697" lon="13.123339"><ele>427.0</ele><time>2026-05-03T07:03:55.921Z</time></trkpt><trkpt lat="43.0869756" lon="13.1233577"><ele>429.0</ele><time>2026-05-03T07:03:56.923Z</time></trkpt><trkpt lat="43.0871691" lon="13.1233838"><ele>431.0</ele><time>2026-05-03T07:03:57.923Z</time></trkpt><trkpt lat="43.0873522" lon="13.1234109"><ele>433.0</ele><time>2026-05-03T07:03:58.917Z</time></trkpt><trkpt lat="43.0875031" lon="13.1234494"><ele>433.0</ele><time>2026-05-03T07:03:59.911Z</time></trkpt><trkpt lat="43.0876183" lon="13.1234787"><ele>433.0</ele><time>2026-05-03T07:04:00.922Z</time></trkpt><trkpt lat="43.0876978" lon="13.1235028"><ele>433.0</ele><time>2026-05-03T07:04:01.92Z</time></trkpt><trkpt lat="43.0877695" lon="13.1236418"><ele>433.0</ele><time>2026-05-03T07:04:03.922Z</time></trkpt><trkpt lat="43.0877078" lon="13.1238011"><ele>433.0</ele><time>2026-05-03T07:04:05.915Z</time></trkpt><trkpt lat="43.0876058" lon="13.1238148"><ele>433.0</ele><time>2026-05-03T07:04:06.921Z</time></trkpt><trkpt lat="43.0874803" lon="13.1238022"><ele>433.0</ele><time>2026-05-03T07:04:07.913Z</time></trkpt><trkpt lat="43.0873342" lon="13.123789"><ele>433.0</ele><time>2026-05-03T07:04:08.915Z</time></trkpt><trkpt lat="43.0871743" lon="13.1237884"><ele>433.0</ele><time>2026-05-03T07:04:09.92Z</time></trkpt><trkpt lat="43.0869973" lon="13.1237957"><ele>433.0</ele><time>2026-05-03T07:04:10.924Z</time></trkpt><trkpt lat="43.0867917" lon="13.1238341"><ele>433.0</ele><time>2026-05-03T07:04:11.92Z</time></trkpt><trkpt lat="43.0865816" lon="13.1238838"><ele>431.0</ele><time>2026-05-03T07:04:12.918Z</time></trkpt><trkpt lat="43.0863852" lon="13.1239405"><ele>429.0</ele><time>2026-05-03T07:04:13.913Z</time></trkpt><trkpt lat="43.0861951" lon="13.123994"><ele>427.0</ele><time>2026-05-03T07:04:14.927Z</time></trkpt><trkpt lat="43.0860118" lon="13.1240827"><ele>435.33333333333337</ele><time>2026-05-03T07:04:15.909Z</time></trkpt><trkpt lat="43.085828" lon="13.1241734"><ele>443.66666666666663</ele><time>2026-05-03T07:04:16.917Z</time></trkpt><trkpt lat="43.0856478" lon="13.1242644"><ele>452.0</ele><time>2026-05-03T07:04:17.914Z</time></trkpt><trkpt lat="43.0854657" lon="13.1243356"><ele>452.0</ele><time>2026-05-03T07:04:18.919Z</time></trkpt><trkpt lat="43.085276" lon="13.1243795"><ele>452.0</ele><time>2026-05-03T07:04:19.913Z</time></trkpt><trkpt lat="43.0851088" lon="13.1244225"><ele>452.0</ele><time>2026-05-03T07:04:20.923Z</time></trkpt><trkpt lat="43.0849552" lon="13.1244616"><ele>451.8</ele><time>2026-05-03T07:04:21.918Z</time></trkpt><trkpt lat="43.0848309" lon="13.1244899"><ele>451.6</ele><time>2026-05-03T07:04:22.915Z</time></trkpt><trkpt lat="43.0847307" lon="13.124514"><ele>451.40000000000003</ele><time>2026-05-03T07:04:23.921Z</time></trkpt><trkpt lat="43.0846511" lon="13.1245417"><ele>451.20000000000005</ele><time>2026-05-03T07:04:24.915Z</time></trkpt><trkpt lat="43.0845793" lon="13.1245525"><ele>451.0</ele><time>2026-05-03T07:04:25.92Z</time></trkpt><trkpt lat="43.0845324" lon="13.1246406"><ele>451.0</ele><time>2026-05-03T07:04:26.912Z</time></trkpt><trkpt lat="43.0845271" lon="13.1247643"><ele>451.0</ele><time>2026-05-03T07:04:27.915Z</time></trkpt><trkpt lat="43.0845657" lon="13.1248719"><ele>451.0</ele><time>2026-05-03T07:04:28.921Z</time></trkpt><trkpt lat="43.0846404" lon="13.1249393"><ele>451.0</ele><time>2026-05-03T07:04:29.922Z</time></trkpt><trkpt lat="43.0847734" lon="13.124927"><ele>451.0</ele><time>2026-05-03T07:04:30.925Z</time></trkpt><trkpt lat="43.0849008" lon="13.1248927"><ele>451.20000000000005</ele><time>2026-05-03T07:04:31.914Z</time></trkpt><trkpt lat="43.0850175" lon="13.1248559"><ele>451.40000000000003</ele><time>2026-05-03T07:04:32.918Z</time></trkpt><trkpt lat="43.0851139" lon="13.1248179"><ele>451.6</ele><time>2026-05-03T07:04:33.921Z</time></trkpt><trkpt lat="43.0851989" lon="13.1248419"><ele>451.8</ele><time>2026-05-03T07:04:34.911Z</time></trkpt><trkpt lat="43.0852529" lon="13.1249312"><ele>452.0</ele><time>2026-05-03T07:04:35.927Z</time></trkpt><trkpt lat="43.0852604" lon="13.1250451"><ele>455.75</ele><time>2026-05-03T07:04:36.931Z</time></trkpt><trkpt lat="43.0852599" lon="13.1251713"><ele>459.5</ele><time>2026-05-03T07:04:37.913Z</time></trkpt><trkpt lat="43.0851828" lon="13.1252741"><ele>463.25</ele><time>2026-05-03T07:04:38.93Z</time></trkpt><trkpt lat="43.0850777" lon="13.1253733"><ele>467.0</ele><time>2026-05-03T07:04:39.925Z</time></trkpt><trkpt lat="43.0849271" lon="13.1254756"><ele>467.3333333333333</ele><time>2026-05-03T07:04:40.919Z</time></trkpt><trkpt lat="43.0847619" lon="13.1255897"><ele>467.66666666666663</ele><time>2026-05-03T07:04:41.928Z</time></trkpt><trkpt lat="43.0845959" lon="13.1256974"><ele>468.0</ele><time>2026-05-03T07:04:42.924Z</time></trkpt><trkpt lat="43.0844284" lon="13.1258166"><ele>471.33333333333337</ele><time>2026-05-03T07:04:43.911Z</time></trkpt><trkpt lat="43.0842751" lon="13.1259184"><ele>474.6666666666667</ele><time>2026-05-03T07:04:44.909Z</time></trkpt><trkpt lat="43.0841305" lon="13.1260114"><ele>478.0</ele><time>2026-05-03T07:04:45.913Z</time></trkpt><trkpt lat="43.0839771" lon="13.1260337"><ele>480.33333333333337</ele><time>2026-05-03T07:04:46.924Z</time></trkpt><trkpt lat="43.0838035" lon="13.126025"><ele>482.66666666666663</ele><time>2026-05-03T07:04:47.918Z</time></trkpt><trkpt lat="43.083619" lon="13.1260011"><ele>485.0</ele><time>2026-05-03T07:04:48.915Z</time></trkpt><trkpt lat="43.0834215" lon="13.125973"><ele>485.0</ele><time>2026-05-03T07:04:49.922Z</time></trkpt><trkpt lat="43.0832272" lon="13.1259483"><ele>485.0</ele><time>2026-05-03T07:04:50.929Z</time></trkpt><trkpt lat="43.0830533" lon="13.125926"><ele>485.0</ele><time>2026-05-03T07:04:51.923Z</time></trkpt><trkpt lat="43.0828984" lon="13.1259043"><ele>485.0</ele><time>2026-05-03T07:04:52.926Z</time></trkpt><trkpt lat="43.0827645" lon="13.1258971"><ele>485.0</ele><time>2026-05-03T07:04:53.916Z</time></trkpt><trkpt lat="43.0826347" lon="13.1259252"><ele>485.0</ele><time>2026-05-03T07:04:54.93Z</time></trkpt><trkpt lat="43.0825198" lon="13.1260019"><ele>485.0</ele><time>2026-05-03T07:04:55.912Z</time></trkpt><trkpt lat="43.0824112" lon="13.1261369"><ele>488.0</ele><time>2026-05-03T07:04:56.924Z</time></trkpt><trkpt lat="43.0823091" lon="13.126316"><ele>491.0</ele><time>2026-05-03T07:04:57.921Z</time></trkpt><trkpt lat="43.0822117" lon="13.1265101"><ele>494.0</ele><time>2026-05-03T07:04:58.918Z</time></trkpt><trkpt lat="43.0821127" lon="13.1267132"><ele>494.3333333333333</ele><time>2026-05-03T07:04:59.923Z</time></trkpt><trkpt lat="43.0820178" lon="13.1269157"><ele>494.66666666666663</ele><time>2026-05-03T07:05:00.907Z</time></trkpt><trkpt lat="43.081923" lon="13.1271125"><ele>495.0</ele><time>2026-05-03T07:05:01.923Z</time></trkpt><trkpt lat="43.0818219" lon="13.1273062"><ele>498.33333333333337</ele><time>2026-05-03T07:05:02.923Z</time></trkpt><trkpt lat="43.081703" lon="13.1274802"><ele>501.6666666666667</ele><time>2026-05-03T07:05:03.909Z</time></trkpt><trkpt lat="43.0815576" lon="13.1276479"><ele>505.0</ele><time>2026-05-03T07:05:04.923Z</time></trkpt><trkpt lat="43.0814085" lon="13.1278208"><ele>505.33333333333337</ele><time>2026-05-03T07:05:05.909Z</time></trkpt><trkpt lat="43.081243" lon="13.1279523"><ele>505.66666666666663</ele><time>2026-05-03T07:05:06.926Z</time></trkpt><trkpt lat="43.081077" lon="13.1280465"><ele>506.0</ele><time>2026-05-03T07:05:07.91Z</time></trkpt><trkpt lat="43.0809068" lon="13.1281088"><ele>508.66666666666663</ele><time>2026-05-03T07:05:08.917Z</time></trkpt><trkpt lat="43.080732" lon="13.1281655"><ele>511.33333333333337</ele><time>2026-05-03T07:05:09.905Z</time></trkpt><trkpt lat="43.080531" lon="13.1281451"><ele>514.0</ele><time>2026-05-03T07:05:10.905Z</time></trkpt><trkpt lat="43.0803076" lon="13.1281321"><ele>514.0</ele><time>2026-05-03T07:05:11.925Z</time></trkpt><trkpt lat="43.0800618" lon="13.1281211"><ele>514.0</ele><time>2026-05-03T07:05:12.921Z</time></trkpt><trkpt lat="43.0798054" lon="13.1281511"><ele>518.0</ele><time>2026-05-03T07:05:13.922Z</time></trkpt><trkpt lat="43.0795577" lon="13.1281908"><ele>522.0</ele><time>2026-05-03T07:05:14.925Z</time></trkpt><trkpt lat="43.0793374" lon="13.1282311"><ele>525.6666666666666</ele><time>2026-05-03T07:05:15.922Z</time></trkpt><trkpt lat="43.0791507" lon="13.1282549"><ele>529.3333333333333</ele><time>2026-05-03T07:05:16.927Z</time></trkpt><trkpt lat="43.0789856" lon="13.1282416"><ele>533.0</ele><time>2026-05-03T07:05:17.904Z</time></trkpt><trkpt lat="43.0788451" lon="13.128174"><ele>533.0</ele><time>2026-05-03T07:05:18.912Z</time></trkpt><trkpt lat="43.0787147" lon="13.1281117"><ele>533.0</ele><time>2026-05-03T07:05:19.912Z</time></trkpt><trkpt lat="43.0786111" lon="13.1280646"><ele>533.0</ele><time>2026-05-03T07:05:20.919Z</time></trkpt><trkpt lat="43.0785301" lon="13.1280356"><ele>533.0</ele><time>2026-05-03T07:05:21.911Z</time></trkpt><trkpt lat="43.0784588" lon="13.1280116"><ele>533.0</ele><time>2026-05-03T07:05:22.921Z</time></trkpt><trkpt lat="43.0783961" lon="13.1280441"><ele>533.0</ele><time>2026-05-03T07:05:23.91Z</time></trkpt><trkpt lat="43.0783482" lon="13.1281352"><ele>533.0</ele><time>2026-05-03T07:05:24.916Z</time></trkpt><trkpt lat="43.0783443" lon="13.128237"><ele>533.0</ele><time>2026-05-03T07:05:25.908Z</time></trkpt><trkpt lat="43.0784001" lon="13.1283102"><ele>533.0</ele><time>2026-05-03T07:05:26.924Z</time></trkpt><trkpt lat="43.0785357" lon="13.1283486"><ele>533.0</ele><time>2026-05-03T07:05:27.91Z</time></trkpt><trkpt lat="43.0786992" lon="13.1283772"><ele>533.3333333333333</ele><time>2026-05-03T07:05:28.907Z</time></trkpt><trkpt lat="43.078868" lon="13.1284321"><ele>533.6666666666666</ele><time>2026-05-03T07:05:29.906Z</time></trkpt><trkpt lat="43.0790304" lon="13.1284996"><ele>534.0</ele><time>2026-05-03T07:05:30.918Z</time></trkpt><trkpt lat="43.0791702" lon="13.1285845"><ele>534.0</ele><time>2026-05-03T07:05:31.918Z</time></trkpt><trkpt lat="43.0792892" lon="13.1286852"><ele>534.0</ele><time>2026-05-03T07:05:32.909Z</time></trkpt><trkpt lat="43.0793967" lon="13.128798"><ele>534.0</ele><time>2026-05-03T07:05:33.909Z</time></trkpt><trkpt lat="43.0794879" lon="13.1289311"><ele>534.0</ele><time>2026-05-03T07:05:34.905Z</time></trkpt><trkpt lat="43.0795743" lon="13.1290643"><ele>536.6</ele><time>2026-05-03T07:05:35.91Z</time></trkpt><trkpt lat="43.0796443" lon="13.1291791"><ele>539.2</ele><time>2026-05-03T07:05:36.916Z</time></trkpt><trkpt lat="43.0797056" lon="13.1292725"><ele>541.8000000000001</ele><time>2026-05-03T07:05:37.923Z</time></trkpt><trkpt lat="43.0797521" lon="13.1293513"><ele>544.4</ele><time>2026-05-03T07:05:38.921Z</time></trkpt><trkpt lat="43.079792" lon="13.1294981"><ele>547.0</ele><time>2026-05-03T07:05:40.913Z</time></trkpt><trkpt lat="43.0797331" lon="13.129637"><ele>547.0</ele><time>2026-05-03T07:05:42.917Z</time></trkpt><trkpt lat="43.0796709" lon="13.1296572"><ele>547.0</ele><time>2026-05-03T07:05:43.921Z</time></trkpt><trkpt lat="43.0796029" lon="13.1296624"><ele>547.0</ele><time>2026-05-03T07:05:44.925Z</time></trkpt><trkpt lat="43.0795272" lon="13.1295896"><ele>547.0</ele><time>2026-05-03T07:05:45.923Z</time></trkpt><trkpt lat="43.0794517" lon="13.1294863"><ele>547.0</ele><time>2026-05-03T07:05:46.938Z</time></trkpt><trkpt lat="43.0793775" lon="13.129389"><ele>547.0</ele><time>2026-05-03T07:05:47.925Z</time></trkpt><trkpt lat="43.0792999" lon="13.1292847"><ele>547.0</ele><time>2026-05-03T07:05:48.916Z</time></trkpt><trkpt lat="43.079216" lon="13.1291956"><ele>547.0</ele><time>2026-05-03T07:05:49.917Z</time></trkpt><trkpt lat="43.0791186" lon="13.1291296"><ele>547.0</ele><time>2026-05-03T07:05:50.919Z</time></trkpt><trkpt lat="43.0790018" lon="13.1290889"><ele>547.0</ele><time>2026-05-03T07:05:51.925Z</time></trkpt><trkpt lat="43.0788638" lon="13.1290857"><ele>549.6666666666667</ele><time>2026-05-03T07:05:52.92Z</time></trkpt><trkpt lat="43.0786949" lon="13.1291071"><ele>552.3333333333334</ele><time>2026-05-03T07:05:53.922Z</time></trkpt><trkpt lat="43.0785087" lon="13.1291118"><ele>555.0</ele><time>2026-05-03T07:05:54.919Z</time></trkpt><trkpt lat="43.0783075" lon="13.1291092"><ele>558.3333333333334</ele><time>2026-05-03T07:05:55.923Z</time></trkpt><trkpt lat="43.0781174" lon="13.1291144"><ele>561.6666666666667</ele><time>2026-05-03T07:05:56.916Z</time></trkpt><trkpt lat="43.0779479" lon="13.129115"><ele>565.0</ele><time>2026-05-03T07:05:57.919Z</time></trkpt><trkpt lat="43.0777821" lon="13.1290941"><ele>565.0</ele><time>2026-05-03T07:05:58.919Z</time></trkpt><trkpt lat="43.0776158" lon="13.1290707"><ele>565.0</ele><time>2026-05-03T07:05:59.92Z</time></trkpt><trkpt lat="43.0774463" lon="13.1289708"><ele>565.0</ele><time>2026-05-03T07:06:00.916Z</time></trkpt><trkpt lat="43.0772696" lon="13.1288432"><ele>568.0</ele><time>2026-05-03T07:06:01.919Z</time></trkpt><trkpt lat="43.0770772" lon="13.1286991"><ele>571.0</ele><time>2026-05-03T07:06:02.911Z</time></trkpt><trkpt lat="43.076873" lon="13.1285363"><ele>571.0</ele><time>2026-05-03T07:06:03.91Z</time></trkpt><trkpt lat="43.0766808" lon="13.1283865"><ele>571.0</ele><time>2026-05-03T07:06:04.924Z</time></trkpt><trkpt lat="43.0765084" lon="13.1282491"><ele>571.0</ele><time>2026-05-03T07:06:05.917Z</time></trkpt><trkpt lat="43.0763532" lon="13.1281289"><ele>570.5</ele><time>2026-05-03T07:06:06.922Z</time></trkpt><trkpt lat="43.0762169" lon="13.1280179"><ele>570.0</ele><time>2026-05-03T07:06:07.918Z</time></trkpt><trkpt lat="43.076098" lon="13.1279193"><ele>569.5</ele><time>2026-05-03T07:06:08.917Z</time></trkpt><trkpt lat="43.0759909" lon="13.1278392"><ele>569.0</ele><time>2026-05-03T07:06:09.905Z</time></trkpt><trkpt lat="43.0758761" lon="13.1277901"><ele>566.75</ele><time>2026-05-03T07:06:10.914Z</time></trkpt><trkpt lat="43.0757546" lon="13.1277481"><ele>564.5</ele><time>2026-05-03T07:06:11.917Z</time></trkpt><trkpt lat="43.0756297" lon="13.1278252"><ele>562.25</ele><time>2026-05-03T07:06:12.917Z</time></trkpt><trkpt lat="43.0754995" lon="13.1279577"><ele>560.0</ele><time>2026-05-03T07:06:13.924Z</time></trkpt><trkpt lat="43.0753642" lon="13.1281483"><ele>565.6666666666666</ele><time>2026-05-03T07:06:14.92Z</time></trkpt><trkpt lat="43.075231" lon="13.1283828"><ele>571.3333333333334</ele><time>2026-05-03T07:06:15.919Z</time></trkpt><trkpt lat="43.0751034" lon="13.1286149"><ele>577.0</ele><time>2026-05-03T07:06:16.918Z</time></trkpt><trkpt lat="43.0749824" lon="13.1288259"><ele>579.3333333333334</ele><time>2026-05-03T07:06:17.92Z</time></trkpt><trkpt lat="43.0748658" lon="13.1290322"><ele>581.6666666666666</ele><time>2026-05-03T07:06:18.92Z</time></trkpt><trkpt lat="43.0747284" lon="13.1292017"><ele>584.0</ele><time>2026-05-03T07:06:19.916Z</time></trkpt><trkpt lat="43.0745909" lon="13.1293488"><ele>584.0</ele><time>2026-05-03T07:06:20.93Z</time></trkpt><trkpt lat="43.0744643" lon="13.1294685"><ele>584.0</ele><time>2026-05-03T07:06:21.918Z</time></trkpt><trkpt lat="43.0743414" lon="13.1295642"><ele>584.0</ele><time>2026-05-03T07:06:22.919Z</time></trkpt><trkpt lat="43.0742052" lon="13.1296284"><ele>584.0</ele><time>2026-05-03T07:06:23.906Z</time></trkpt><trkpt lat="43.0740695" lon="13.1296611"><ele>584.0</ele><time>2026-05-03T07:06:24.914Z</time></trkpt><trkpt lat="43.073953" lon="13.1296708"><ele>584.0</ele><time>2026-05-03T07:06:25.923Z</time></trkpt><trkpt lat="43.0738511" lon="13.1296835"><ele>584.0</ele><time>2026-05-03T07:06:26.932Z</time></trkpt><trkpt lat="43.0737713" lon="13.1297081"><ele>584.0</ele><time>2026-05-03T07:06:27.923Z</time></trkpt><trkpt lat="43.0737212" lon="13.1297875"><ele>584.0</ele><time>2026-05-03T07:06:28.906Z</time></trkpt><trkpt lat="43.073708" lon="13.1298907"><ele>587.6</ele><time>2026-05-03T07:06:29.912Z</time></trkpt><trkpt lat="43.0736942" lon="13.1300029"><ele>591.2</ele><time>2026-05-03T07:06:30.924Z</time></trkpt><trkpt lat="43.0737626" lon="13.1300869"><ele>594.8000000000001</ele><time>2026-05-03T07:06:31.91Z</time></trkpt><trkpt lat="43.0738823" lon="13.1301379"><ele>598.4</ele><time>2026-05-03T07:06:32.922Z</time></trkpt><trkpt lat="43.0740301" lon="13.1301609"><ele>602.0</ele><time>2026-05-03T07:06:33.92Z</time></trkpt><trkpt lat="43.0742141" lon="13.1301726"><ele>602.0</ele><time>2026-05-03T07:06:34.919Z</time></trkpt><trkpt lat="43.0743793" lon="13.1301629"><ele>602.0</ele><time>2026-05-03T07:06:35.91Z</time></trkpt><trkpt lat="43.0745198" lon="13.1301481"><ele>602.0</ele><time>2026-05-03T07:06:36.918Z</time></trkpt><trkpt lat="43.0746546" lon="13.1301569"><ele>602.0</ele><time>2026-05-03T07:06:37.918Z</time></trkpt><trkpt lat="43.0747852" lon="13.1301871"><ele>602.0</ele><time>2026-05-03T07:06:38.926Z</time></trkpt><trkpt lat="43.0749148" lon="13.1302627"><ele>602.0</ele><time>2026-05-03T07:06:39.919Z</time></trkpt><trkpt lat="43.0750552" lon="13.1303776"><ele>602.0</ele><time>2026-05-03T07:06:40.922Z</time></trkpt><trkpt lat="43.0752069" lon="13.1305165"><ele>602.0</ele><time>2026-05-03T07:06:41.917Z</time></trkpt><trkpt lat="43.0753779" lon="13.1306665"><ele>602.0</ele><time>2026-05-03T07:06:42.92Z</time></trkpt><trkpt lat="43.0755627" lon="13.1308261"><ele>602.0</ele><time>2026-05-03T07:06:43.901Z</time></trkpt><trkpt lat="43.075741" lon="13.1309832"><ele>605.6666666666666</ele><time>2026-05-03T07:06:44.911Z</time></trkpt><trkpt lat="43.0759055" lon="13.1311218"><ele>609.3333333333334</ele><time>2026-05-03T07:06:45.921Z</time></trkpt><trkpt lat="43.076046" lon="13.131242"><ele>613.0</ele><time>2026-05-03T07:06:46.921Z</time></trkpt><trkpt lat="43.0761587" lon="13.1313429"><ele>613.0</ele><time>2026-05-03T07:06:47.927Z</time></trkpt><trkpt lat="43.0762465" lon="13.1314294"><ele>613.0</ele><time>2026-05-03T07:06:48.91Z</time></trkpt><trkpt lat="43.0763176" lon="13.1315175"><ele>613.0</ele><time>2026-05-03T07:06:49.906Z</time></trkpt><trkpt lat="43.0763714" lon="13.13163"><ele>613.0</ele><time>2026-05-03T07:06:50.918Z</time></trkpt><trkpt lat="43.0763907" lon="13.1317576"><ele>613.0</ele><time>2026-05-03T07:06:51.915Z</time></trkpt><trkpt lat="43.0763715" lon="13.1318771"><ele>616.6</ele><time>2026-05-03T07:06:52.919Z</time></trkpt><trkpt lat="43.0763194" lon="13.1319829"><ele>620.1999999999999</ele><time>2026-05-03T07:06:53.92Z</time></trkpt><trkpt lat="43.0762415" lon="13.1320608"><ele>623.8</ele><time>2026-05-03T07:06:54.925Z</time></trkpt><trkpt lat="43.0761462" lon="13.1320903"><ele>627.4</ele><time>2026-05-03T07:06:55.926Z</time></trkpt><trkpt lat="43.076045" lon="13.1320581"><ele>631.0</ele><time>2026-05-03T07:06:56.918Z</time></trkpt><trkpt lat="43.0759454" lon="13.1319713"><ele>631.0</ele><time>2026-05-03T07:06:57.923Z</time></trkpt><trkpt lat="43.075839" lon="13.1318732"><ele>631.0</ele><time>2026-05-03T07:06:58.915Z</time></trkpt><trkpt lat="43.0757232" lon="13.1317998"><ele>631.0</ele><time>2026-05-03T07:06:59.923Z</time></trkpt><trkpt lat="43.0755905" lon="13.1317649"><ele>631.0</ele><time>2026-05-03T07:07:00.913Z</time></trkpt><trkpt lat="43.0754271" lon="13.1317716"><ele>633.0</ele><time>2026-05-03T07:07:01.914Z</time></trkpt><trkpt lat="43.0752385" lon="13.1318135"><ele>635.0</ele><time>2026-05-03T07:07:02.918Z</time></trkpt><trkpt lat="43.0750325" lon="13.1318736"><ele>637.0</ele><time>2026-05-03T07:07:03.917Z</time></trkpt><trkpt lat="43.074818" lon="13.1319364"><ele>637.6666666666667</ele><time>2026-05-03T07:07:04.921Z</time></trkpt><trkpt lat="43.0746093" lon="13.1319939"><ele>638.3333333333334</ele><time>2026-05-03T07:07:05.904Z</time></trkpt><trkpt lat="43.074408" lon="13.1320399"><ele>639.0</ele><time>2026-05-03T07:07:06.923Z</time></trkpt><trkpt lat="43.0742166" lon="13.132071"><ele>639.6666666666666</ele><time>2026-05-03T07:07:07.921Z</time></trkpt><trkpt lat="43.0740325" lon="13.1321003"><ele>640.3333333333333</ele><time>2026-05-03T07:07:08.92Z</time></trkpt><trkpt lat="43.0738503" lon="13.132149"><ele>641.0</ele><time>2026-05-03T07:07:09.923Z</time></trkpt><trkpt lat="43.0736699" lon="13.1322123"><ele>641.0</ele><time>2026-05-03T07:07:10.921Z</time></trkpt><trkpt lat="43.0734889" lon="13.1322732"><ele>641.0</ele><time>2026-05-03T07:07:11.919Z</time></trkpt><trkpt lat="43.0733134" lon="13.1323323"><ele>641.0</ele><time>2026-05-03T07:07:12.932Z</time></trkpt><trkpt lat="43.0731492" lon="13.1323739"><ele>645.5</ele><time>2026-05-03T07:07:13.917Z</time></trkpt><trkpt lat="43.0730164" lon="13.1323721"><ele>650.0</ele><time>2026-05-03T07:07:14.911Z</time></trkpt><trkpt lat="43.0728806" lon="13.1323387"><ele>654.5</ele><time>2026-05-03T07:07:15.91Z</time></trkpt><trkpt lat="43.072763" lon="13.1322814"><ele>659.0</ele><time>2026-05-03T07:07:16.923Z</time></trkpt><trkpt lat="43.0726509" lon="13.1322099"><ele>659.0</ele><time>2026-05-03T07:07:17.927Z</time></trkpt><trkpt lat="43.0725431" lon="13.1321162"><ele>659.0</ele><time>2026-05-03T07:07:18.922Z</time></trkpt><trkpt lat="43.0724613" lon="13.1319622"><ele>659.0</ele><time>2026-05-03T07:07:19.918Z</time></trkpt><trkpt lat="43.0723997" lon="13.1318141"><ele>659.0</ele><time>2026-05-03T07:07:20.915Z</time></trkpt><trkpt lat="43.0723478" lon="13.1316772"><ele>662.75</ele><time>2026-05-03T07:07:21.918Z</time></trkpt><trkpt lat="43.0722905" lon="13.1315597"><ele>666.5</ele><time>2026-05-03T07:07:22.915Z</time></trkpt><trkpt lat="43.0721821" lon="13.1315116"><ele>670.25</ele><time>2026-05-03T07:07:23.917Z</time></trkpt><trkpt lat="43.0720617" lon="13.1314734"><ele>674.0</ele><time>2026-05-03T07:07:24.913Z</time></trkpt><trkpt lat="43.071926" lon="13.1314599"><ele>673.0</ele><time>2026-05-03T07:07:25.92Z</time></trkpt><trkpt lat="43.0717953" lon="13.131454"><ele>672.0</ele><time>2026-05-03T07:07:26.914Z</time></trkpt><trkpt lat="43.0716675" lon="13.1314756"><ele>671.0</ele><time>2026-05-03T07:07:27.922Z</time></trkpt><trkpt lat="43.0715335" lon="13.1315062"><ele>670.0</ele><time>2026-05-03T07:07:28.911Z</time></trkpt><trkpt lat="43.0713949" lon="13.1316113"><ele>670.0</ele><time>2026-05-03T07:07:29.925Z</time></trkpt><trkpt lat="43.0712561" lon="13.1317673"><ele>670.0</ele><time>2026-05-03T07:07:30.918Z</time></trkpt><trkpt lat="43.0711314" lon="13.1318975"><ele>670.0</ele><time>2026-05-03T07:07:31.919Z</time></trkpt><trkpt lat="43.0710063" lon="13.1319869"><ele>670.0</ele><time>2026-05-03T07:07:32.918Z</time></trkpt><trkpt lat="43.0708702" lon="13.1320402"><ele>670.0</ele><time>2026-05-03T07:07:33.909Z</time></trkpt><trkpt lat="43.0707237" lon="13.1320544"><ele>670.0</ele><time>2026-05-03T07:07:34.928Z</time></trkpt><trkpt lat="43.0705768" lon="13.1320355"><ele>670.0</ele><time>2026-05-03T07:07:35.93Z</time></trkpt><trkpt lat="43.0704345" lon="13.1320084"><ele>670.6666666666667</ele><time>2026-05-03T07:07:36.921Z</time></trkpt><trkpt lat="43.070287" lon="13.1320043"><ele>671.3333333333334</ele><time>2026-05-03T07:07:37.912Z</time></trkpt><trkpt lat="43.0701345" lon="13.1320475"><ele>672.0</ele><time>2026-05-03T07:07:38.906Z</time></trkpt><trkpt lat="43.0699822" lon="13.1320952"><ele>674.0</ele><time>2026-05-03T07:07:39.914Z</time></trkpt><trkpt lat="43.0698358" lon="13.1321314"><ele>676.0</ele><time>2026-05-03T07:07:40.916Z</time></trkpt><trkpt lat="43.069684" lon="13.1321286"><ele>678.0</ele><time>2026-05-03T07:07:41.927Z</time></trkpt><trkpt lat="43.0695146" lon="13.1320959"><ele>678.0</ele><time>2026-05-03T07:07:42.917Z</time></trkpt><trkpt lat="43.069331" lon="13.1320544"><ele>678.0</ele><time>2026-05-03T07:07:43.93Z</time></trkpt><trkpt lat="43.0691493" lon="13.1320074"><ele>678.0</ele><time>2026-05-03T07:07:44.915Z</time></trkpt><trkpt lat="43.0689759" lon="13.1319613"><ele>680.3333333333334</ele><time>2026-05-03T07:07:45.923Z</time></trkpt><trkpt lat="43.0687997" lon="13.1319085"><ele>682.6666666666667</ele><time>2026-05-03T07:07:46.921Z</time></trkpt><trkpt lat="43.0686097" lon="13.1318497"><ele>685.0</ele><time>2026-05-03T07:07:47.913Z</time></trkpt><trkpt lat="43.0684079" lon="13.1317873"><ele>688.6666666666667</ele><time>2026-05-03T07:07:48.915Z</time></trkpt><trkpt lat="43.0682207" lon="13.1317301"><ele>692.3333333333334</ele><time>2026-05-03T07:07:49.915Z</time></trkpt><trkpt lat="43.0680518" lon="13.1316765"><ele>696.0</ele><time>2026-05-03T07:07:50.92Z</time></trkpt><trkpt lat="43.0678986" lon="13.1316301"><ele>696.0</ele><time>2026-05-03T07:07:51.919Z</time></trkpt><trkpt lat="43.0677573" lon="13.1315883"><ele>696.0</ele><time>2026-05-03T07:07:52.922Z</time></trkpt><trkpt lat="43.0676293" lon="13.1315518"><ele>696.0</ele><time>2026-05-03T07:07:53.928Z</time></trkpt><trkpt lat="43.0675091" lon="13.131517"><ele>696.0</ele><time>2026-05-03T07:07:54.912Z</time></trkpt><trkpt lat="43.0673764" lon="13.1314799"><ele>695.5</ele><time>2026-05-03T07:07:55.922Z</time></trkpt><trkpt lat="43.0672432" lon="13.1314441"><ele>695.0</ele><time>2026-05-03T07:07:56.928Z</time></trkpt><trkpt lat="43.0671091" lon="13.1314164"><ele>694.5</ele><time>2026-05-03T07:07:57.908Z</time></trkpt><trkpt lat="43.0669794" lon="13.1313952"><ele>694.0</ele><time>2026-05-03T07:07:58.918Z</time></trkpt><trkpt lat="43.0668509" lon="13.131336"><ele>694.0</ele><time>2026-05-03T07:07:59.909Z</time></trkpt><trkpt lat="43.0667398" lon="13.1312284"><ele>694.0</ele><time>2026-05-03T07:08:00.919Z</time></trkpt><trkpt lat="43.066643" lon="13.1310972"><ele>694.0</ele><time>2026-05-03T07:08:01.904Z</time></trkpt><trkpt lat="43.066547" lon="13.1309761"><ele>694.0</ele><time>2026-05-03T07:08:02.917Z</time></trkpt><trkpt lat="43.0664259" lon="13.1308817"><ele>697.0</ele><time>2026-05-03T07:08:03.923Z</time></trkpt><trkpt lat="43.0662792" lon="13.1308202"><ele>700.0</ele><time>2026-05-03T07:08:04.915Z</time></trkpt><trkpt lat="43.0661206" lon="13.1307716"><ele>703.0</ele><time>2026-05-03T07:08:05.914Z</time></trkpt><trkpt lat="43.0659589" lon="13.1307241"><ele>703.0</ele><time>2026-05-03T07:08:06.922Z</time></trkpt><trkpt lat="43.0657944" lon="13.1306807"><ele>703.0</ele><time>2026-05-03T07:08:07.923Z</time></trkpt><trkpt lat="43.0656431" lon="13.1306375"><ele>703.0</ele><time>2026-05-03T07:08:08.916Z</time></trkpt><trkpt lat="43.065507" lon="13.1305983"><ele>707.75</ele><time>2026-05-03T07:08:09.922Z</time></trkpt><trkpt lat="43.0653748" lon="13.1305601"><ele>712.5</ele><time>2026-05-03T07:08:10.917Z</time></trkpt><trkpt lat="43.0652347" lon="13.130535"><ele>717.25</ele><time>2026-05-03T07:08:11.93Z</time></trkpt><trkpt lat="43.0650723" lon="13.1305092"><ele>722.0</ele><time>2026-05-03T07:08:12.918Z</time></trkpt><trkpt lat="43.0649073" lon="13.1305746"><ele>723.6666666666666</ele><time>2026-05-03T07:08:13.906Z</time></trkpt><trkpt lat="43.0647391" lon="13.1306687"><ele>725.3333333333334</ele><time>2026-05-03T07:08:14.914Z</time></trkpt><trkpt lat="43.0645665" lon="13.1307535"><ele>727.0</ele><time>2026-05-03T07:08:15.91Z</time></trkpt><trkpt lat="43.0643846" lon="13.1308472"><ele>727.0</ele><time>2026-05-03T07:08:16.908Z</time></trkpt><trkpt lat="43.0642024" lon="13.1309149"><ele>727.0</ele><time>2026-05-03T07:08:17.908Z</time></trkpt><trkpt lat="43.0640129" lon="13.1309832"><ele>727.0</ele><time>2026-05-03T07:08:18.91Z</time></trkpt><trkpt lat="43.0638211" lon="13.1310306"><ele>730.3333333333334</ele><time>2026-05-03T07:08:19.915Z</time></trkpt><trkpt lat="43.0636247" lon="13.1311068"><ele>733.6666666666666</ele><time>2026-05-03T07:08:20.906Z</time></trkpt><trkpt lat="43.0634272" lon="13.1311888"><ele>737.0</ele><time>2026-05-03T07:08:21.914Z</time></trkpt><trkpt lat="43.0632363" lon="13.1312681"><ele>735.3333333333333</ele><time>2026-05-03T07:08:22.92Z</time></trkpt><trkpt lat="43.0630504" lon="13.1313583"><ele>733.6666666666666</ele><time>2026-05-03T07:08:23.906Z</time></trkpt><trkpt lat="43.062886" lon="13.1314632"><ele>732.0</ele><time>2026-05-03T07:08:24.911Z</time></trkpt><trkpt lat="43.0627372" lon="13.1315671"><ele>732.0</ele><time>2026-05-03T07:08:25.909Z</time></trkpt><trkpt lat="43.0626011" lon="13.1316683"><ele>732.0</ele><time>2026-05-03T07:08:26.911Z</time></trkpt><trkpt lat="43.06248" lon="13.1317468"><ele>732.0</ele><time>2026-05-03T07:08:27.91Z</time></trkpt><trkpt lat="43.0623689" lon="13.1318462"><ele>732.0</ele><time>2026-05-03T07:08:28.913Z</time></trkpt><trkpt lat="43.062275" lon="13.1320143"><ele>731.75</ele><time>2026-05-03T07:08:29.912Z</time></trkpt><trkpt lat="43.0621967" lon="13.1321835"><ele>731.5</ele><time>2026-05-03T07:08:30.915Z</time></trkpt><trkpt lat="43.06212" lon="13.1323276"><ele>731.25</ele><time>2026-05-03T07:08:31.911Z</time></trkpt><trkpt lat="43.0620368" lon="13.1324487"><ele>731.0</ele><time>2026-05-03T07:08:32.903Z</time></trkpt><trkpt lat="43.0619518" lon="13.1325311"><ele>731.0</ele><time>2026-05-03T07:08:33.914Z</time></trkpt><trkpt lat="43.061856" lon="13.1325758"><ele>731.0</ele><time>2026-05-03T07:08:34.913Z</time></trkpt><trkpt lat="43.061745" lon="13.1325804"><ele>731.0</ele><time>2026-05-03T07:08:35.913Z</time></trkpt><trkpt lat="43.0616297" lon="13.1325661"><ele>731.0</ele><time>2026-05-03T07:08:36.906Z</time></trkpt><trkpt lat="43.0615106" lon="13.1325356"><ele>731.0</ele><time>2026-05-03T07:08:37.907Z</time></trkpt><trkpt lat="43.0613834" lon="13.1325319"><ele>732.0</ele><time>2026-05-03T07:08:38.906Z</time></trkpt><trkpt lat="43.0612528" lon="13.132549"><ele>733.0</ele><time>2026-05-03T07:08:39.917Z</time></trkpt><trkpt lat="43.0611236" lon="13.1325729"><ele>734.0</ele><time>2026-05-03T07:08:40.903Z</time></trkpt><trkpt lat="43.0609961" lon="13.1325949"><ele>735.0</ele><time>2026-05-03T07:08:41.907Z</time></trkpt><trkpt lat="43.0608799" lon="13.1326167"><ele>735.25</ele><time>2026-05-03T07:08:42.913Z</time></trkpt><trkpt lat="43.0607685" lon="13.1326385"><ele>735.5</ele><time>2026-05-03T07:08:43.902Z</time></trkpt><trkpt lat="43.0606586" lon="13.1326556"><ele>735.75</ele><time>2026-05-03T07:08:44.903Z</time></trkpt><trkpt lat="43.0605432" lon="13.1326706"><ele>736.0</ele><time>2026-05-03T07:08:45.909Z</time></trkpt><trkpt lat="43.0604263" lon="13.1326884"><ele>736.0</ele><time>2026-05-03T07:08:46.917Z</time></trkpt><trkpt lat="43.060304" lon="13.1326962"><ele>736.0</ele><time>2026-05-03T07:08:47.903Z</time></trkpt><trkpt lat="43.0601831" lon="13.1326958"><ele>736.0</ele><time>2026-05-03T07:08:48.917Z</time></trkpt><trkpt lat="43.0600642" lon="13.1326843"><ele>736.0</ele><time>2026-05-03T07:08:49.911Z</time></trkpt><trkpt lat="43.0599509" lon="13.1326715"><ele>733.5999999999999</ele><time>2026-05-03T07:08:50.906Z</time></trkpt><trkpt lat="43.0598354" lon="13.1326594"><ele>731.2</ele><time>2026-05-03T07:08:51.916Z</time></trkpt><trkpt lat="43.0597223" lon="13.1326386"><ele>728.8</ele><time>2026-05-03T07:08:52.911Z</time></trkpt><trkpt lat="43.0596139" lon="13.1326062"><ele>726.4000000000001</ele><time>2026-05-03T07:08:53.911Z</time></trkpt><trkpt lat="43.0595173" lon="13.132564"><ele>724.0</ele><time>2026-05-03T07:08:54.905Z</time></trkpt><trkpt lat="43.0594305" lon="13.1325146"><ele>724.0</ele><time>2026-05-03T07:08:55.901Z</time></trkpt><trkpt lat="43.0593463" lon="13.1324474"><ele>724.0</ele><time>2026-05-03T07:08:56.905Z</time></trkpt><trkpt lat="43.0592634" lon="13.1323676"><ele>724.0</ele><time>2026-05-03T07:08:57.911Z</time></trkpt><trkpt lat="43.0591762" lon="13.132294"><ele>724.0</ele><time>2026-05-03T07:08:58.917Z</time></trkpt><trkpt lat="43.0590774" lon="13.1322343"><ele>724.0</ele><time>2026-05-03T07:08:59.92Z</time></trkpt><trkpt lat="43.0589681" lon="13.132198"><ele>725.5</ele><time>2026-05-03T07:09:00.922Z</time></trkpt><trkpt lat="43.0588515" lon="13.1321798"><ele>727.0</ele><time>2026-05-03T07:09:01.914Z</time></trkpt><trkpt lat="43.0587317" lon="13.1321716"><ele>728.5</ele><time>2026-05-03T07:09:02.913Z</time></trkpt><trkpt lat="43.0586106" lon="13.1321658"><ele>730.0</ele><time>2026-05-03T07:09:03.914Z</time></trkpt><trkpt lat="43.0584873" lon="13.1321585"><ele>730.0</ele><time>2026-05-03T07:09:04.916Z</time></trkpt><trkpt lat="43.0583697" lon="13.132148"><ele>730.0</ele><time>2026-05-03T07:09:05.923Z</time></trkpt><trkpt lat="43.0582543" lon="13.1321301"><ele>730.0</ele><time>2026-05-03T07:09:06.914Z</time></trkpt><trkpt lat="43.0581435" lon="13.132106"><ele>730.0</ele><time>2026-05-03T07:09:07.915Z</time></trkpt><trkpt lat="43.0580264" lon="13.132084"><ele>728.4</ele><time>2026-05-03T07:09:08.917Z</time></trkpt><trkpt lat="43.0579117" lon="13.1320581"><ele>726.8</ele><time>2026-05-03T07:09:09.91Z</time></trkpt><trkpt lat="43.0578053" lon="13.1320315"><ele>725.2</ele><time>2026-05-03T07:09:10.913Z</time></trkpt><trkpt lat="43.0577056" lon="13.1320076"><ele>723.6</ele><time>2026-05-03T07:09:11.901Z</time></trkpt><trkpt lat="43.0575972" lon="13.1319945"><ele>722.0</ele><time>2026-05-03T07:09:12.904Z</time></trkpt><trkpt lat="43.0574867" lon="13.1319986"><ele>720.5</ele><time>2026-05-03T07:09:13.911Z</time></trkpt><trkpt lat="43.0573757" lon="13.1320325"><ele>719.0</ele><time>2026-05-03T07:09:14.916Z</time></trkpt><trkpt lat="43.0572627" lon="13.1320829"><ele>717.5</ele><time>2026-05-03T07:09:15.907Z</time></trkpt><trkpt lat="43.0571519" lon="13.1321394"><ele>716.0</ele><time>2026-05-03T07:09:16.915Z</time></trkpt><trkpt lat="43.0570396" lon="13.1321989"><ele>716.0</ele><time>2026-05-03T07:09:17.921Z</time></trkpt><trkpt lat="43.0569297" lon="13.1322652"><ele>716.0</ele><time>2026-05-03T07:09:18.908Z</time></trkpt><trkpt lat="43.0568193" lon="13.1323184"><ele>716.0</ele><time>2026-05-03T07:09:19.907Z</time></trkpt><trkpt lat="43.0567077" lon="13.132375"><ele>716.0</ele><time>2026-05-03T07:09:20.917Z</time></trkpt><trkpt lat="43.056593" lon="13.1324237"><ele>717.5</ele><time>2026-05-03T07:09:21.913Z</time></trkpt><trkpt lat="43.0564724" lon="13.1324855"><ele>719.0</ele><time>2026-05-03T07:09:22.919Z</time></trkpt><trkpt lat="43.0563523" lon="13.1325697"><ele>720.5</ele><time>2026-05-03T07:09:23.914Z</time></trkpt><trkpt lat="43.0562345" lon="13.1326623"><ele>722.0</ele><time>2026-05-03T07:09:24.914Z</time></trkpt><trkpt lat="43.0561203" lon="13.132745"><ele>722.0</ele><time>2026-05-03T07:09:25.904Z</time></trkpt><trkpt lat="43.0559991" lon="13.1328139"><ele>722.0</ele><time>2026-05-03T07:09:26.925Z</time></trkpt><trkpt lat="43.0558651" lon="13.1328775"><ele>722.0</ele><time>2026-05-03T07:09:27.912Z</time></trkpt><trkpt lat="43.0557163" lon="13.1329475"><ele>722.0</ele><time>2026-05-03T07:09:28.923Z</time></trkpt><trkpt lat="43.0555486" lon="13.1330268"><ele>722.6666666666666</ele><time>2026-05-03T07:09:29.921Z</time></trkpt><trkpt lat="43.0553751" lon="13.1330981"><ele>723.3333333333334</ele><time>2026-05-03T07:09:30.911Z</time></trkpt><trkpt lat="43.0552158" lon="13.13316"><ele>724.0</ele><time>2026-05-03T07:09:31.913Z</time></trkpt><trkpt lat="43.0550747" lon="13.133217"><ele>728.5</ele><time>2026-05-03T07:09:32.907Z</time></trkpt><trkpt lat="43.0549516" lon="13.1332727"><ele>733.0</ele><time>2026-05-03T07:09:33.913Z</time></trkpt><trkpt lat="43.0548427" lon="13.1333246"><ele>737.5</ele><time>2026-05-03T07:09:34.918Z</time></trkpt><trkpt lat="43.0547381" lon="13.1333741"><ele>742.0</ele><time>2026-05-03T07:09:35.904Z</time></trkpt><trkpt lat="43.0546333" lon="13.1333997"><ele>742.0</ele><time>2026-05-03T07:09:36.923Z</time></trkpt><trkpt lat="43.0545333" lon="13.1333868"><ele>742.0</ele><time>2026-05-03T07:09:37.909Z</time></trkpt><trkpt lat="43.0544441" lon="13.1333268"><ele>742.0</ele><time>2026-05-03T07:09:38.906Z</time></trkpt><trkpt lat="43.0543767" lon="13.1332297"><ele>742.0</ele><time>2026-05-03T07:09:39.918Z</time></trkpt><trkpt lat="43.0543303" lon="13.1331123"><ele>742.0</ele><time>2026-05-03T07:09:40.916Z</time></trkpt><trkpt lat="43.0542904" lon="13.1330046"><ele>741.0</ele><time>2026-05-03T07:09:41.912Z</time></trkpt><trkpt lat="43.0542345" lon="13.1329215"><ele>740.0</ele><time>2026-05-03T07:09:42.925Z</time></trkpt><trkpt lat="43.0541704" lon="13.1328419"><ele>739.0</ele><time>2026-05-03T07:09:43.91Z</time></trkpt><trkpt lat="43.0540812" lon="13.1328336"><ele>738.0</ele><time>2026-05-03T07:09:44.902Z</time></trkpt><trkpt lat="43.0539956" lon="13.13288"><ele>737.0</ele><time>2026-05-03T07:09:45.919Z</time></trkpt><trkpt lat="43.0539156" lon="13.1329642"><ele>737.0</ele><time>2026-05-03T07:09:46.908Z</time></trkpt><trkpt lat="43.0538257" lon="13.1331038"><ele>737.0</ele><time>2026-05-03T07:09:47.907Z</time></trkpt><trkpt lat="43.0537175" lon="13.1332853"><ele>737.0</ele><time>2026-05-03T07:09:48.921Z</time></trkpt><trkpt lat="43.0536007" lon="13.1334561"><ele>740.0</ele><time>2026-05-03T07:09:49.913Z</time></trkpt><trkpt lat="43.0534566" lon="13.1336234"><ele>743.0</ele><time>2026-05-03T07:09:50.921Z</time></trkpt><trkpt lat="43.0532883" lon="13.1337843"><ele>746.0</ele><time>2026-05-03T07:09:51.907Z</time></trkpt><trkpt lat="43.0531225" lon="13.1339217"><ele>748.0</ele><time>2026-05-03T07:09:52.914Z</time></trkpt><trkpt lat="43.0529687" lon="13.1340392"><ele>750.0</ele><time>2026-05-03T07:09:53.908Z</time></trkpt><trkpt lat="43.052812" lon="13.1341387"><ele>752.0</ele><time>2026-05-03T07:09:54.915Z</time></trkpt><trkpt lat="43.0526403" lon="13.134212"><ele>755.3333333333333</ele><time>2026-05-03T07:09:55.912Z</time></trkpt><trkpt lat="43.0524697" lon="13.1342641"><ele>758.6666666666666</ele><time>2026-05-03T07:09:56.912Z</time></trkpt><trkpt lat="43.052318" lon="13.1342974"><ele>762.0</ele><time>2026-05-03T07:09:57.919Z</time></trkpt><trkpt lat="43.0521967" lon="13.1343169"><ele>762.6666666666666</ele><time>2026-05-03T07:09:58.916Z</time></trkpt><trkpt lat="43.0521023" lon="13.1343332"><ele>763.3333333333334</ele><time>2026-05-03T07:09:59.906Z</time></trkpt><trkpt lat="43.0520311" lon="13.1343727"><ele>764.0</ele><time>2026-05-03T07:10:00.921Z</time></trkpt><trkpt lat="43.0519828" lon="13.1344388"><ele>764.6666666666667</ele><time>2026-05-03T07:10:01.908Z</time></trkpt><trkpt lat="43.0520224" lon="13.1345885"><ele>765.3333333333334</ele><time>2026-05-03T07:10:03.903Z</time></trkpt><trkpt lat="43.0520789" lon="13.1346588"><ele>766.0</ele><time>2026-05-03T07:10:04.912Z</time></trkpt><trkpt lat="43.0522071" lon="13.1346665"><ele>766.0</ele><time>2026-05-03T07:10:05.914Z</time></trkpt><trkpt lat="43.0523659" lon="13.1346393"><ele>766.0</ele><time>2026-05-03T07:10:06.913Z</time></trkpt><trkpt lat="43.0525365" lon="13.1345965"><ele>766.0</ele><time>2026-05-03T07:10:07.904Z</time></trkpt><trkpt lat="43.0526741" lon="13.1345735"><ele>765.3333333333334</ele><time>2026-05-03T07:10:08.911Z</time></trkpt><trkpt lat="43.0527787" lon="13.1345438"><ele>764.6666666666667</ele><time>2026-05-03T07:10:09.918Z</time></trkpt><trkpt lat="43.0528695" lon="13.1345159"><ele>764.0</ele><time>2026-05-03T07:10:10.914Z</time></trkpt><trkpt lat="43.0529521" lon="13.1345121"><ele>763.3333333333334</ele><time>2026-05-03T07:10:11.91Z</time></trkpt><trkpt lat="43.0530153" lon="13.1345511"><ele>762.6666666666666</ele><time>2026-05-03T07:10:12.915Z</time></trkpt><trkpt lat="43.0530445" lon="13.1346432"><ele>762.0</ele><time>2026-05-03T07:10:13.912Z</time></trkpt><trkpt lat="43.0530291" lon="13.1347583"><ele>762.0</ele><time>2026-05-03T07:10:14.918Z</time></trkpt><trkpt lat="43.0529761" lon="13.134886"><ele>762.0</ele><time>2026-05-03T07:10:15.913Z</time></trkpt><trkpt lat="43.052918" lon="13.135022"><ele>762.0</ele><time>2026-05-03T07:10:16.909Z</time></trkpt><trkpt lat="43.0528786" lon="13.1351669"><ele>762.0</ele><time>2026-05-03T07:10:17.916Z</time></trkpt><trkpt lat="43.052844" lon="13.1352992"><ele>762.0</ele><time>2026-05-03T07:10:18.902Z</time></trkpt><trkpt lat="43.0528894" lon="13.1354307"><ele>765.25</ele><time>2026-05-03T07:10:19.918Z</time></trkpt><trkpt lat="43.0529767" lon="13.1355527"><ele>768.5</ele><time>2026-05-03T07:10:20.912Z</time></trkpt><trkpt lat="43.0530974" lon="13.1356413"><ele>771.75</ele><time>2026-05-03T07:10:21.923Z</time></trkpt><trkpt lat="43.0532284" lon="13.1356979"><ele>775.0</ele><time>2026-05-03T07:10:22.915Z</time></trkpt><trkpt lat="43.0533478" lon="13.1357426"><ele>775.0</ele><time>2026-05-03T07:10:23.912Z</time></trkpt><trkpt lat="43.0534516" lon="13.1357917"><ele>775.0</ele><time>2026-05-03T07:10:24.914Z</time></trkpt><trkpt lat="43.0535267" lon="13.1358643"><ele>775.0</ele><time>2026-05-03T07:10:25.913Z</time></trkpt><trkpt lat="43.0535949" lon="13.1359382"><ele>775.0</ele><time>2026-05-03T07:10:26.911Z</time></trkpt><trkpt lat="43.053584" lon="13.1360498"><ele>775.0</ele><time>2026-05-03T07:10:27.91Z</time></trkpt><trkpt lat="43.0535267" lon="13.1361664"><ele>775.0</ele><time>2026-05-03T07:10:28.915Z</time></trkpt><trkpt lat="43.0534287" lon="13.1362833"><ele>775.0</ele><time>2026-05-03T07:10:29.921Z</time></trkpt><trkpt lat="43.053302" lon="13.1363913"><ele>775.0</ele><time>2026-05-03T07:10:30.91Z</time></trkpt><trkpt lat="43.0531513" lon="13.1364825"><ele>775.0</ele><time>2026-05-03T07:10:31.915Z</time></trkpt><trkpt lat="43.052977" lon="13.1365504"><ele>778.0</ele><time>2026-05-03T07:10:32.918Z</time></trkpt><trkpt lat="43.0527984" lon="13.1366088"><ele>781.0</ele><time>2026-05-03T07:10:33.921Z</time></trkpt><trkpt lat="43.0526405" lon="13.1366613"><ele>784.0</ele><time>2026-05-03T07:10:34.916Z</time></trkpt><trkpt lat="43.0524934" lon="13.1367129"><ele>788.3333333333333</ele><time>2026-05-03T07:10:35.905Z</time></trkpt><trkpt lat="43.0523565" lon="13.1367911"><ele>792.6666666666667</ele><time>2026-05-03T07:10:36.917Z</time></trkpt><trkpt lat="43.0522287" lon="13.1368948"><ele>797.0</ele><time>2026-05-03T07:10:37.914Z</time></trkpt><trkpt lat="43.0521056" lon="13.1370189"><ele>797.0</ele><time>2026-05-03T07:10:38.918Z</time></trkpt><trkpt lat="43.0519938" lon="13.1371682"><ele>797.0</ele><time>2026-05-03T07:10:39.916Z</time></trkpt><trkpt lat="43.0518949" lon="13.1373585"><ele>797.0</ele><time>2026-05-03T07:10:40.911Z</time></trkpt><trkpt lat="43.0518039" lon="13.1375614"><ele>796.0</ele><time>2026-05-03T07:10:41.907Z</time></trkpt><trkpt lat="43.0517067" lon="13.1377411"><ele>795.0</ele><time>2026-05-03T07:10:42.917Z</time></trkpt><trkpt lat="43.0515878" lon="13.1379013"><ele>794.0</ele><time>2026-05-03T07:10:43.903Z</time></trkpt><trkpt lat="43.0514458" lon="13.1380527"><ele>796.0</ele><time>2026-05-03T07:10:44.918Z</time></trkpt><trkpt lat="43.0512844" lon="13.1381981"><ele>798.0</ele><time>2026-05-03T07:10:45.9Z</time></trkpt><trkpt lat="43.0511172" lon="13.1383434"><ele>800.0</ele><time>2026-05-03T07:10:46.913Z</time></trkpt><trkpt lat="43.0509481" lon="13.1385007"><ele>807.6666666666667</ele><time>2026-05-03T07:10:47.916Z</time></trkpt><trkpt lat="43.0507723" lon="13.1386825"><ele>815.3333333333333</ele><time>2026-05-03T07:10:48.915Z</time></trkpt><trkpt lat="43.0506059" lon="13.1388594"><ele>823.0</ele><time>2026-05-03T07:10:49.914Z</time></trkpt><trkpt lat="43.0504467" lon="13.1390371"><ele>818.3333333333333</ele><time>2026-05-03T07:10:50.913Z</time></trkpt><trkpt lat="43.0503008" lon="13.1391701"><ele>813.6666666666667</ele><time>2026-05-03T07:10:51.906Z</time></trkpt><trkpt lat="43.050154" lon="13.1393046"><ele>809.0</ele><time>2026-05-03T07:10:52.923Z</time></trkpt><trkpt lat="43.0500064" lon="13.1394344"><ele>813.3333333333334</ele><time>2026-05-03T07:10:53.919Z</time></trkpt><trkpt lat="43.0498644" lon="13.1395904"><ele>817.6666666666667</ele><time>2026-05-03T07:10:54.917Z</time></trkpt><trkpt lat="43.0497355" lon="13.1397694"><ele>822.0</ele><time>2026-05-03T07:10:55.918Z</time></trkpt><trkpt lat="43.0496227" lon="13.1399503"><ele>822.0</ele><time>2026-05-03T07:10:56.921Z</time></trkpt><trkpt lat="43.0495061" lon="13.1401194"><ele>822.0</ele><time>2026-05-03T07:10:57.917Z</time></trkpt><trkpt lat="43.0493932" lon="13.1402761"><ele>822.0</ele><time>2026-05-03T07:10:58.903Z</time></trkpt><trkpt lat="43.049271" lon="13.1403993"><ele>822.0</ele><time>2026-05-03T07:10:59.918Z</time></trkpt><trkpt lat="43.0491497" lon="13.1405093"><ele>822.0</ele><time>2026-05-03T07:11:00.914Z</time></trkpt><trkpt lat="43.0490379" lon="13.1406246"><ele>822.0</ele><time>2026-05-03T07:11:01.911Z</time></trkpt><trkpt lat="43.0489427" lon="13.1407635"><ele>822.0</ele><time>2026-05-03T07:11:02.918Z</time></trkpt><trkpt lat="43.0488815" lon="13.140967"><ele>825.0</ele><time>2026-05-03T07:11:03.918Z</time></trkpt><trkpt lat="43.0488405" lon="13.1411899"><ele>828.0</ele><time>2026-05-03T07:11:04.918Z</time></trkpt><trkpt lat="43.0487957" lon="13.1413931"><ele>831.0</ele><time>2026-05-03T07:11:05.913Z</time></trkpt><trkpt lat="43.0487335" lon="13.14158"><ele>825.0</ele><time>2026-05-03T07:11:06.926Z</time></trkpt><trkpt lat="43.04865" lon="13.1417623"><ele>819.0</ele><time>2026-05-03T07:11:07.917Z</time></trkpt><trkpt lat="43.0485521" lon="13.1419292"><ele>813.0</ele><time>2026-05-03T07:11:08.918Z</time></trkpt><trkpt lat="43.0484461" lon="13.1420773"><ele>813.0</ele><time>2026-05-03T07:11:09.912Z</time></trkpt><trkpt lat="43.0483424" lon="13.1422021"><ele>813.0</ele><time>2026-05-03T07:11:10.906Z</time></trkpt><trkpt lat="43.0482479" lon="13.1423131"><ele>813.0</ele><time>2026-05-03T07:11:11.917Z</time></trkpt><trkpt lat="43.0481559" lon="13.1424293"><ele>813.0</ele><time>2026-05-03T07:11:12.911Z</time></trkpt><trkpt lat="43.0480724" lon="13.1425604"><ele>809.5</ele><time>2026-05-03T07:11:13.917Z</time></trkpt><trkpt lat="43.0479953" lon="13.1427026"><ele>806.0</ele><time>2026-05-03T07:11:14.916Z</time></trkpt><trkpt lat="43.0479275" lon="13.1428545"><ele>802.5</ele><time>2026-05-03T07:11:15.917Z</time></trkpt><trkpt lat="43.0478678" lon="13.1430276"><ele>799.0</ele><time>2026-05-03T07:11:16.912Z</time></trkpt><trkpt lat="43.0478253" lon="13.1432416"><ele>796.6666666666666</ele><time>2026-05-03T07:11:17.915Z</time></trkpt><trkpt lat="43.0477947" lon="13.1434645"><ele>794.3333333333333</ele><time>2026-05-03T07:11:18.919Z</time></trkpt><trkpt lat="43.0477839" lon="13.1436761"><ele>792.0</ele><time>2026-05-03T07:11:19.915Z</time></trkpt><trkpt lat="43.0477588" lon="13.143862"><ele>792.0</ele><time>2026-05-03T07:11:20.915Z</time></trkpt><trkpt lat="43.0477176" lon="13.1440363"><ele>792.0</ele><time>2026-05-03T07:11:21.918Z</time></trkpt><trkpt lat="43.0476684" lon="13.1441972"><ele>792.0</ele><time>2026-05-03T07:11:22.92Z</time></trkpt><trkpt lat="43.0476111" lon="13.144341"><ele>792.0</ele><time>2026-05-03T07:11:23.905Z</time></trkpt><trkpt lat="43.0475508" lon="13.1444756"><ele>792.4000000000001</ele><time>2026-05-03T07:11:24.919Z</time></trkpt><trkpt lat="43.0474766" lon="13.1445902"><ele>792.8000000000001</ele><time>2026-05-03T07:11:25.918Z</time></trkpt><trkpt lat="43.0474072" lon="13.1446761"><ele>793.2</ele><time>2026-05-03T07:11:26.916Z</time></trkpt><trkpt lat="43.0473451" lon="13.1447506"><ele>793.6</ele><time>2026-05-03T07:11:27.907Z</time></trkpt><trkpt lat="43.0472868" lon="13.144793"><ele>794.0</ele><time>2026-05-03T07:11:28.903Z</time></trkpt><trkpt lat="43.0471863" lon="13.1447706"><ele>790.8000000000001</ele><time>2026-05-03T07:11:30.92Z</time></trkpt><trkpt lat="43.0471656" lon="13.1446629"><ele>787.6</ele><time>2026-05-03T07:11:31.911Z</time></trkpt><trkpt lat="43.0471819" lon="13.1445215"><ele>784.4</ele><time>2026-05-03T07:11:32.925Z</time></trkpt><trkpt lat="43.0472156" lon="13.1443577"><ele>781.2</ele><time>2026-05-03T07:11:33.913Z</time></trkpt><trkpt lat="43.0472561" lon="13.1441852"><ele>778.0</ele><time>2026-05-03T07:11:34.925Z</time></trkpt><trkpt lat="43.0472877" lon="13.1440191"><ele>778.0</ele><time>2026-05-03T07:11:35.914Z</time></trkpt><trkpt lat="43.0473131" lon="13.143847"><ele>778.0</ele><time>2026-05-03T07:11:36.917Z</time></trkpt><trkpt lat="43.0472799" lon="13.1436685"><ele>778.0</ele><time>2026-05-03T07:11:37.914Z</time></trkpt><trkpt lat="43.0472145" lon="13.1435112"><ele>778.0</ele><time>2026-05-03T07:11:38.919Z</time></trkpt><trkpt lat="43.0471122" lon="13.1433815"><ele>778.0</ele><time>2026-05-03T07:11:39.923Z</time></trkpt><trkpt lat="43.0469763" lon="13.1432782"><ele>778.0</ele><time>2026-05-03T07:11:40.921Z</time></trkpt><trkpt lat="43.0468193" lon="13.1431856"><ele>778.0</ele><time>2026-05-03T07:11:41.917Z</time></trkpt><trkpt lat="43.0466544" lon="13.1430895"><ele>779.0</ele><time>2026-05-03T07:11:42.921Z</time></trkpt><trkpt lat="43.0464944" lon="13.1429944"><ele>780.0</ele><time>2026-05-03T07:11:43.914Z</time></trkpt><trkpt lat="43.0463445" lon="13.1428999"><ele>781.0</ele><time>2026-05-03T07:11:44.927Z</time></trkpt><trkpt lat="43.0462016" lon="13.1428139"><ele>781.0</ele><time>2026-05-03T07:11:45.918Z</time></trkpt><trkpt lat="43.0460591" lon="13.1427458"><ele>781.0</ele><time>2026-05-03T07:11:46.921Z</time></trkpt><trkpt lat="43.0458982" lon="13.1427161"><ele>781.0</ele><time>2026-05-03T07:11:47.91Z</time></trkpt><trkpt lat="43.0457149" lon="13.1427297"><ele>781.6666666666666</ele><time>2026-05-03T07:11:48.919Z</time></trkpt><trkpt lat="43.0455388" lon="13.1427681"><ele>782.3333333333333</ele><time>2026-05-03T07:11:49.915Z</time></trkpt><trkpt lat="43.0453751" lon="13.1428252"><ele>783.0</ele><time>2026-05-03T07:11:50.921Z</time></trkpt><trkpt lat="43.0452169" lon="13.1429142"><ele>783.0</ele><time>2026-05-03T07:11:51.918Z</time></trkpt><trkpt lat="43.0450582" lon="13.1430369"><ele>783.0</ele><time>2026-05-03T07:11:52.912Z</time></trkpt><trkpt lat="43.044915" lon="13.1431715"><ele>783.0</ele><time>2026-05-03T07:11:53.913Z</time></trkpt><trkpt lat="43.0447977" lon="13.1432912"><ele>779.5999999999999</ele><time>2026-05-03T07:11:54.915Z</time></trkpt><trkpt lat="43.0447049" lon="13.1433834"><ele>776.1999999999999</ele><time>2026-05-03T07:11:55.916Z</time></trkpt><trkpt lat="43.0446294" lon="13.1434574"><ele>772.8</ele><time>2026-05-03T07:11:56.916Z</time></trkpt><trkpt lat="43.0445671" lon="13.1435203"><ele>769.4</ele><time>2026-05-03T07:11:57.912Z</time></trkpt><trkpt lat="43.0444726" lon="13.1435893"><ele>766.0</ele><time>2026-05-03T07:11:59.91Z</time></trkpt><trkpt lat="43.0443964" lon="13.14349"><ele>766.0</ele><time>2026-05-03T07:12:01.917Z</time></trkpt><trkpt lat="43.044359" lon="13.1433903"><ele>766.0</ele><time>2026-05-03T07:12:02.915Z</time></trkpt><trkpt lat="43.0443115" lon="13.1432821"><ele>766.0</ele><time>2026-05-03T07:12:03.923Z</time></trkpt><trkpt lat="43.0442519" lon="13.1431863"><ele>766.0</ele><time>2026-05-03T07:12:04.917Z</time></trkpt><trkpt lat="43.0441741" lon="13.143124"><ele>766.0</ele><time>2026-05-03T07:12:05.903Z</time></trkpt><trkpt lat="43.0440732" lon="13.1431009"><ele>767.0</ele><time>2026-05-03T07:12:06.902Z</time></trkpt><trkpt lat="43.0439569" lon="13.1431142"><ele>768.0</ele><time>2026-05-03T07:12:07.92Z</time></trkpt><trkpt lat="43.0438308" lon="13.1431533"><ele>769.0</ele><time>2026-05-03T07:12:08.904Z</time></trkpt><trkpt lat="43.0436986" lon="13.1431957"><ele>770.0</ele><time>2026-05-03T07:12:09.903Z</time></trkpt><trkpt lat="43.0435631" lon="13.1432537"><ele>770.0</ele><time>2026-05-03T07:12:10.916Z</time></trkpt><trkpt lat="43.0434446" lon="13.1433035"><ele>770.0</ele><time>2026-05-03T07:12:11.915Z</time></trkpt><trkpt lat="43.0433214" lon="13.1433573"><ele>770.0</ele><time>2026-05-03T07:12:12.909Z</time></trkpt><trkpt lat="43.0432017" lon="13.1434153"><ele>770.0</ele><time>2026-05-03T07:12:13.911Z</time></trkpt><trkpt lat="43.0430942" lon="13.1434696"><ele>767.4</ele><time>2026-05-03T07:12:14.923Z</time></trkpt><trkpt lat="43.0429932" lon="13.1435042"><ele>764.8</ele><time>2026-05-03T07:12:15.921Z</time></trkpt><trkpt lat="43.0428912" lon="13.1435022"><ele>762.2</ele><time>2026-05-03T07:12:16.919Z</time></trkpt><trkpt lat="43.0428029" lon="13.1434559"><ele>759.6</ele><time>2026-05-03T07:12:17.91Z</time></trkpt><trkpt lat="43.0427242" lon="13.1434002"><ele>757.0</ele><time>2026-05-03T07:12:18.917Z</time></trkpt><trkpt lat="43.0426833" lon="13.1432733"><ele>760.25</ele><time>2026-05-03T07:12:19.918Z</time></trkpt><trkpt lat="43.042666" lon="13.1431066"><ele>763.5</ele><time>2026-05-03T07:12:20.921Z</time></trkpt><trkpt lat="43.0426525" lon="13.1429284"><ele>766.75</ele><time>2026-05-03T07:12:21.93Z</time></trkpt><trkpt lat="43.0426396" lon="13.1427367"><ele>770.0</ele><time>2026-05-03T07:12:22.916Z</time></trkpt><trkpt lat="43.0426262" lon="13.1425337"><ele>772.3333333333334</ele><time>2026-05-03T07:12:23.911Z</time></trkpt><trkpt lat="43.0426106" lon="13.142324"><ele>774.6666666666667</ele><time>2026-05-03T07:12:24.907Z</time></trkpt><trkpt lat="43.0426025" lon="13.1421106"><ele>777.0</ele><time>2026-05-03T07:12:25.923Z</time></trkpt><trkpt lat="43.0426056" lon="13.1419039"><ele>777.0</ele><time>2026-05-03T07:12:26.911Z</time></trkpt><trkpt lat="43.0426137" lon="13.1417119"><ele>777.0</ele><time>2026-05-03T07:12:27.919Z</time></trkpt><trkpt lat="43.0426218" lon="13.1415339"><ele>777.0</ele><time>2026-05-03T07:12:28.92Z</time></trkpt><trkpt lat="43.0426213" lon="13.141377"><ele>777.0</ele><time>2026-05-03T07:12:29.921Z</time></trkpt><trkpt lat="43.0426021" lon="13.141226"><ele>775.75</ele><time>2026-05-03T07:12:30.914Z</time></trkpt><trkpt lat="43.0425519" lon="13.1410812"><ele>774.5</ele><time>2026-05-03T07:12:31.925Z</time></trkpt><trkpt lat="43.042464" lon="13.1409497"><ele>773.25</ele><time>2026-05-03T07:12:32.918Z</time></trkpt><trkpt lat="43.0423555" lon="13.1408345"><ele>772.0</ele><time>2026-05-03T07:12:33.913Z</time></trkpt><trkpt lat="43.042256" lon="13.140737"><ele>774.25</ele><time>2026-05-03T07:12:34.929Z</time></trkpt><trkpt lat="43.0421848" lon="13.1406323"><ele>776.5</ele><time>2026-05-03T07:12:35.918Z</time></trkpt><trkpt lat="43.0421362" lon="13.1404967"><ele>778.75</ele><time>2026-05-03T07:12:36.916Z</time></trkpt><trkpt lat="43.0420914" lon="13.1403246"><ele>781.0</ele><time>2026-05-03T07:12:37.922Z</time></trkpt><trkpt lat="43.0420404" lon="13.1401325"><ele>781.0</ele><time>2026-05-03T07:12:38.921Z</time></trkpt><trkpt lat="43.0419918" lon="13.1399471"><ele>781.0</ele><time>2026-05-03T07:12:39.925Z</time></trkpt><trkpt lat="43.0419508" lon="13.1397658"><ele>781.0</ele><time>2026-05-03T07:12:40.922Z</time></trkpt><trkpt lat="43.0419196" lon="13.1396052"><ele>781.0</ele><time>2026-05-03T07:12:41.921Z</time></trkpt><trkpt lat="43.0418858" lon="13.1394674"><ele>782.0</ele><time>2026-05-03T07:12:42.924Z</time></trkpt><trkpt lat="43.0418328" lon="13.1393446"><ele>783.0</ele><time>2026-05-03T07:12:43.912Z</time></trkpt><trkpt lat="43.0417477" lon="13.1392467"><ele>784.0</ele><time>2026-05-03T07:12:44.931Z</time></trkpt><trkpt lat="43.041639" lon="13.1391796"><ele>785.0</ele><time>2026-05-03T07:12:45.914Z</time></trkpt><trkpt lat="43.041536" lon="13.1391151"><ele>786.0</ele><time>2026-05-03T07:12:46.922Z</time></trkpt><trkpt lat="43.041461" lon="13.1390277"><ele>787.0</ele><time>2026-05-03T07:12:47.925Z</time></trkpt><trkpt lat="43.0414173" lon="13.1389087"><ele>788.0</ele><time>2026-05-03T07:12:48.912Z</time></trkpt><trkpt lat="43.0414008" lon="13.1387505"><ele>789.0</ele><time>2026-05-03T07:12:49.922Z</time></trkpt><trkpt lat="43.0413871" lon="13.138569"><ele>790.0</ele><time>2026-05-03T07:12:50.936Z</time></trkpt><trkpt lat="43.0413851" lon="13.1383639"><ele>791.0</ele><time>2026-05-03T07:12:51.907Z</time></trkpt><trkpt lat="43.0413826" lon="13.1381457"><ele>792.0</ele><time>2026-05-03T07:12:52.93Z</time></trkpt><trkpt lat="43.0413701" lon="13.1379137"><ele>793.0</ele><time>2026-05-03T07:12:53.921Z</time></trkpt><trkpt lat="43.0413502" lon="13.1376755"><ele>793.0</ele><time>2026-05-03T07:12:54.924Z</time></trkpt><trkpt lat="43.0413367" lon="13.1374364"><ele>793.0</ele><time>2026-05-03T07:12:55.926Z</time></trkpt><trkpt lat="43.0413254" lon="13.1371991"><ele>793.0</ele><time>2026-05-03T07:12:56.928Z</time></trkpt><trkpt lat="43.0413189" lon="13.1369595"><ele>794.6666666666666</ele><time>2026-05-03T07:12:57.922Z</time></trkpt><trkpt lat="43.0413145" lon="13.1367305"><ele>796.3333333333333</ele><time>2026-05-03T07:12:58.917Z</time></trkpt><trkpt lat="43.0413101" lon="13.136529"><ele>798.0</ele><time>2026-05-03T07:12:59.923Z</time></trkpt><trkpt lat="43.041308" lon="13.1363444"><ele>798.0</ele><time>2026-05-03T07:13:00.916Z</time></trkpt><trkpt lat="43.0413115" lon="13.1361837"><ele>798.0</ele><time>2026-05-03T07:13:01.93Z</time></trkpt><trkpt lat="43.0413291" lon="13.1360381"><ele>798.0</ele><time>2026-05-03T07:13:02.928Z</time></trkpt><trkpt lat="43.0413733" lon="13.1359026"><ele>798.0</ele><time>2026-05-03T07:13:03.929Z</time></trkpt><trkpt lat="43.0414453" lon="13.1357768"><ele>799.0</ele><time>2026-05-03T07:13:04.926Z</time></trkpt><trkpt lat="43.0415288" lon="13.135656"><ele>800.0</ele><time>2026-05-03T07:13:05.926Z</time></trkpt><trkpt lat="43.0416089" lon="13.1355327"><ele>801.0</ele><time>2026-05-03T07:13:06.926Z</time></trkpt><trkpt lat="43.0416681" lon="13.1353837"><ele>802.0</ele><time>2026-05-03T07:13:07.924Z</time></trkpt><trkpt lat="43.0417037" lon="13.1351981"><ele>804.0</ele><time>2026-05-03T07:13:08.925Z</time></trkpt><trkpt lat="43.0417195" lon="13.1349901"><ele>806.0</ele><time>2026-05-03T07:13:09.916Z</time></trkpt><trkpt lat="43.0417309" lon="13.1347954"><ele>808.0</ele><time>2026-05-03T07:13:10.919Z</time></trkpt><trkpt lat="43.0417449" lon="13.1346127"><ele>810.0</ele><time>2026-05-03T07:13:11.922Z</time></trkpt><trkpt lat="43.0417966" lon="13.1344266"><ele>810.5</ele><time>2026-05-03T07:13:12.924Z</time></trkpt><trkpt lat="43.0418459" lon="13.1342604"><ele>811.0</ele><time>2026-05-03T07:13:13.919Z</time></trkpt><trkpt lat="43.0418918" lon="13.1341138"><ele>811.5</ele><time>2026-05-03T07:13:14.926Z</time></trkpt><trkpt lat="43.0419407" lon="13.1339742"><ele>812.0</ele><time>2026-05-03T07:13:15.923Z</time></trkpt><trkpt lat="43.042018" lon="13.133842"><ele>813.25</ele><time>2026-05-03T07:13:16.921Z</time></trkpt><trkpt lat="43.0421204" lon="13.1337242"><ele>814.5</ele><time>2026-05-03T07:13:17.914Z</time></trkpt><trkpt lat="43.0422252" lon="13.1336055"><ele>815.75</ele><time>2026-05-03T07:13:18.922Z</time></trkpt><trkpt lat="43.0423174" lon="13.1334656"><ele>817.0</ele><time>2026-05-03T07:13:19.938Z</time></trkpt><trkpt lat="43.0423889" lon="13.1333137"><ele>817.75</ele><time>2026-05-03T07:13:20.924Z</time></trkpt><trkpt lat="43.0424405" lon="13.13315"><ele>818.5</ele><time>2026-05-03T07:13:21.927Z</time></trkpt><trkpt lat="43.0424662" lon="13.1329849"><ele>819.25</ele><time>2026-05-03T07:13:22.922Z</time></trkpt><trkpt lat="43.0424685" lon="13.1328216"><ele>820.0</ele><time>2026-05-03T07:13:23.92Z</time></trkpt><trkpt lat="43.0424582" lon="13.132667"><ele>820.0</ele><time>2026-05-03T07:13:24.916Z</time></trkpt><trkpt lat="43.0423884" lon="13.132543"><ele>820.0</ele><time>2026-05-03T07:13:25.912Z</time></trkpt><trkpt lat="43.042292" lon="13.132445"><ele>820.0</ele><time>2026-05-03T07:13:26.921Z</time></trkpt><trkpt lat="43.0422006" lon="13.1323565"><ele>820.0</ele><time>2026-05-03T07:13:27.92Z</time></trkpt><trkpt lat="43.0421245" lon="13.1322699"><ele>820.0</ele><time>2026-05-03T07:13:28.929Z</time></trkpt><trkpt lat="43.0420942" lon="13.132092"><ele>822.6666666666666</ele><time>2026-05-03T07:13:29.918Z</time></trkpt><trkpt lat="43.0420694" lon="13.1319019"><ele>825.3333333333333</ele><time>2026-05-03T07:13:30.923Z</time></trkpt><trkpt lat="43.0420722" lon="13.1316875"><ele>828.0</ele><time>2026-05-03T07:13:31.912Z</time></trkpt><trkpt lat="43.0420972" lon="13.1314661"><ele>830.25</ele><time>2026-05-03T07:13:32.924Z</time></trkpt><trkpt lat="43.0421133" lon="13.1312666"><ele>832.5</ele><time>2026-05-03T07:13:33.929Z</time></trkpt><trkpt lat="43.0421137" lon="13.1310883"><ele>834.75</ele><time>2026-05-03T07:13:34.921Z</time></trkpt><trkpt lat="43.0421099" lon="13.1309271"><ele>837.0</ele><time>2026-05-03T07:13:35.931Z</time></trkpt><trkpt lat="43.042088" lon="13.1307877"><ele>839.0</ele><time>2026-05-03T07:13:36.92Z</time></trkpt><trkpt lat="43.0420425" lon="13.1306703"><ele>841.0</ele><time>2026-05-03T07:13:37.922Z</time></trkpt><trkpt lat="43.0419743" lon="13.1305796"><ele>843.0</ele><time>2026-05-03T07:13:38.909Z</time></trkpt><trkpt lat="43.0418972" lon="13.130529"><ele>845.0</ele><time>2026-05-03T07:13:39.924Z</time></trkpt><trkpt lat="43.0418085" lon="13.130522"><ele>847.0</ele><time>2026-05-03T07:13:40.925Z</time></trkpt><trkpt lat="43.0417186" lon="13.1305367"><ele>848.0</ele><time>2026-05-03T07:13:41.916Z</time></trkpt><trkpt lat="43.0416262" lon="13.1306453"><ele>849.0</ele><time>2026-05-03T07:13:42.92Z</time></trkpt><trkpt lat="43.0415425" lon="13.1307268"><ele>850.0</ele><time>2026-05-03T07:13:43.921Z</time></trkpt><trkpt lat="43.0414342" lon="13.1307774"><ele>851.0</ele><time>2026-05-03T07:13:44.92Z</time></trkpt><trkpt lat="43.0413151" lon="13.1308264"><ele>851.0</ele><time>2026-05-03T07:13:45.917Z</time></trkpt><trkpt lat="43.0411622" lon="13.1308121"><ele>851.0</ele><time>2026-05-03T07:13:46.926Z</time></trkpt><trkpt lat="43.0409998" lon="13.1307702"><ele>851.0</ele><time>2026-05-03T07:13:47.924Z</time></trkpt><trkpt lat="43.0408375" lon="13.1307196"><ele>850.0</ele><time>2026-05-03T07:13:48.924Z</time></trkpt><trkpt lat="43.0406691" lon="13.1306771"><ele>849.0</ele><time>2026-05-03T07:13:49.918Z</time></trkpt><trkpt lat="43.0405" lon="13.1306486"><ele>848.0</ele><time>2026-05-03T07:13:50.912Z</time></trkpt><trkpt lat="43.0403526" lon="13.1306188"><ele>848.0</ele><time>2026-05-03T07:13:51.933Z</time></trkpt><trkpt lat="43.0402239" lon="13.130574"><ele>848.0</ele><time>2026-05-03T07:13:52.924Z</time></trkpt><trkpt lat="43.0401024" lon="13.1305061"><ele>848.0</ele><time>2026-05-03T07:13:53.918Z</time></trkpt><trkpt lat="43.03997" lon="13.1304185"><ele>848.0</ele><time>2026-05-03T07:13:54.913Z</time></trkpt><trkpt lat="43.039849" lon="13.1302664"><ele>848.3333333333334</ele><time>2026-05-03T07:13:55.918Z</time></trkpt><trkpt lat="43.0397163" lon="13.130102"><ele>848.6666666666667</ele><time>2026-05-03T07:13:56.919Z</time></trkpt><trkpt lat="43.0395728" lon="13.1299225"><ele>849.0</ele><time>2026-05-03T07:13:57.924Z</time></trkpt><trkpt lat="43.0394221" lon="13.1297422"><ele>849.0</ele><time>2026-05-03T07:13:58.916Z</time></trkpt><trkpt lat="43.0392658" lon="13.1295559"><ele>849.0</ele><time>2026-05-03T07:13:59.925Z</time></trkpt><trkpt lat="43.0391073" lon="13.1293599"><ele>849.0</ele><time>2026-05-03T07:14:00.928Z</time></trkpt><trkpt lat="43.0389456" lon="13.1291616"><ele>850.3333333333333</ele><time>2026-05-03T07:14:01.907Z</time></trkpt><trkpt lat="43.0387835" lon="13.1289618"><ele>851.6666666666666</ele><time>2026-05-03T07:14:02.916Z</time></trkpt><trkpt lat="43.0386237" lon="13.1287679"><ele>853.0</ele><time>2026-05-03T07:14:03.923Z</time></trkpt><trkpt lat="43.0384788" lon="13.128594"><ele>853.0</ele><time>2026-05-03T07:14:04.927Z</time></trkpt><trkpt lat="43.0383429" lon="13.1284373"><ele>853.0</ele><time>2026-05-03T07:14:05.923Z</time></trkpt><trkpt lat="43.0382185" lon="13.1282832"><ele>853.0</ele><time>2026-05-03T07:14:06.912Z</time></trkpt><trkpt lat="43.0380952" lon="13.1281225"><ele>854.6666666666666</ele><time>2026-05-03T07:14:07.927Z</time></trkpt><trkpt lat="43.0379786" lon="13.1279367"><ele>856.3333333333333</ele><time>2026-05-03T07:14:08.917Z</time></trkpt><trkpt lat="43.0378634" lon="13.1277318"><ele>858.0</ele><time>2026-05-03T07:14:09.918Z</time></trkpt><trkpt lat="43.037747" lon="13.127534"><ele>858.0</ele><time>2026-05-03T07:14:10.925Z</time></trkpt><trkpt lat="43.0376449" lon="13.1273609"><ele>858.0</ele><time>2026-05-03T07:14:11.922Z</time></trkpt><trkpt lat="43.037552" lon="13.1272023"><ele>858.0</ele><time>2026-05-03T07:14:12.925Z</time></trkpt><trkpt lat="43.0374586" lon="13.127046"><ele>858.0</ele><time>2026-05-03T07:14:13.932Z</time></trkpt><trkpt lat="43.0373618" lon="13.1268917"><ele>858.0</ele><time>2026-05-03T07:14:14.92Z</time></trkpt><trkpt lat="43.0372698" lon="13.1267391"><ele>858.0</ele><time>2026-05-03T07:14:15.928Z</time></trkpt><trkpt lat="43.0371848" lon="13.1265783"><ele>858.0</ele><time>2026-05-03T07:14:16.921Z</time></trkpt><trkpt lat="43.0371068" lon="13.126401"><ele>858.0</ele><time>2026-05-03T07:14:17.925Z</time></trkpt><trkpt lat="43.0370339" lon="13.1262072"><ele>858.0</ele><time>2026-05-03T07:14:18.919Z</time></trkpt><trkpt lat="43.036982" lon="13.12598"><ele>858.0</ele><time>2026-05-03T07:14:19.915Z</time></trkpt><trkpt lat="43.0369297" lon="13.1257541"><ele>857.5</ele><time>2026-05-03T07:14:20.916Z</time></trkpt><trkpt lat="43.0368794" lon="13.1255464"><ele>857.0</ele><time>2026-05-03T07:14:21.915Z</time></trkpt><trkpt lat="43.0368335" lon="13.1253532"><ele>856.5</ele><time>2026-05-03T07:14:22.92Z</time></trkpt><trkpt lat="43.0367917" lon="13.1251715"><ele>856.0</ele><time>2026-05-03T07:14:23.935Z</time></trkpt><trkpt lat="43.0367715" lon="13.1249957"><ele>856.0</ele><time>2026-05-03T07:14:24.917Z</time></trkpt><trkpt lat="43.0367772" lon="13.1248062"><ele>856.0</ele><time>2026-05-03T07:14:25.933Z</time></trkpt><trkpt lat="43.0368088" lon="13.1246048"><ele>856.0</ele><time>2026-05-03T07:14:26.925Z</time></trkpt><trkpt lat="43.036852" lon="13.1244004"><ele>856.0</ele><time>2026-05-03T07:14:27.925Z</time></trkpt><trkpt lat="43.0368952" lon="13.1242144"><ele>856.0</ele><time>2026-05-03T07:14:28.917Z</time></trkpt><trkpt lat="43.036933" lon="13.1240586"><ele>855.9999999999999</ele><time>2026-05-03T07:14:29.925Z</time></trkpt><trkpt lat="43.0369615" lon="13.1239356"><ele>855.9999999999999</ele><time>2026-05-03T07:14:30.919Z</time></trkpt><trkpt lat="43.0369776" lon="13.1238413"><ele>856.0</ele><time>2026-05-03T07:14:31.911Z</time></trkpt><trkpt lat="43.0369575" lon="13.1237086"><ele>856.0</ele><time>2026-05-03T07:14:33.915Z</time></trkpt><trkpt lat="43.0369102" lon="13.1236441"><ele>856.0</ele><time>2026-05-03T07:14:34.917Z</time></trkpt><trkpt lat="43.0368398" lon="13.1235793"><ele>855.9999999999999</ele><time>2026-05-03T07:14:35.913Z</time></trkpt><trkpt lat="43.0367514" lon="13.1235061"><ele>855.9999999999999</ele><time>2026-05-03T07:14:36.93Z</time></trkpt><trkpt lat="43.0366514" lon="13.1234153"><ele>856.0</ele><time>2026-05-03T07:14:37.911Z</time></trkpt><trkpt lat="43.0365423" lon="13.123307"><ele>856.0</ele><time>2026-05-03T07:14:38.942Z</time></trkpt><trkpt lat="43.0364251" lon="13.1231826"><ele>858.0</ele><time>2026-05-03T07:14:39.916Z</time></trkpt><trkpt lat="43.036308" lon="13.1230492"><ele>860.0</ele><time>2026-05-03T07:14:40.934Z</time></trkpt><trkpt lat="43.0361885" lon="13.1229091"><ele>862.0</ele><time>2026-05-03T07:14:41.926Z</time></trkpt><trkpt lat="43.0360582" lon="13.1227581"><ele>862.0</ele><time>2026-05-03T07:14:42.934Z</time></trkpt><trkpt lat="43.03592" lon="13.1225943"><ele>862.0</ele><time>2026-05-03T07:14:43.917Z</time></trkpt><trkpt lat="43.0357844" lon="13.1224252"><ele>862.0</ele><time>2026-05-03T07:14:44.911Z</time></trkpt><trkpt lat="43.0356532" lon="13.1222578"><ele>864.0</ele><time>2026-05-03T07:14:45.934Z</time></trkpt><trkpt lat="43.0355257" lon="13.122096"><ele>866.0</ele><time>2026-05-03T07:14:46.919Z</time></trkpt><trkpt lat="43.0354068" lon="13.1219424"><ele>868.0</ele><time>2026-05-03T07:14:47.929Z</time></trkpt><trkpt lat="43.0352932" lon="13.1217946"><ele>868.0</ele><time>2026-05-03T07:14:48.933Z</time></trkpt><trkpt lat="43.0351808" lon="13.1216498"><ele>868.0</ele><time>2026-05-03T07:14:49.924Z</time></trkpt><trkpt lat="43.0350663" lon="13.1215028"><ele>868.0</ele><time>2026-05-03T07:14:50.929Z</time></trkpt><trkpt lat="43.0349473" lon="13.1213478"><ele>870.6666666666666</ele><time>2026-05-03T07:14:51.923Z</time></trkpt><trkpt lat="43.0348224" lon="13.1211853"><ele>873.3333333333333</ele><time>2026-05-03T07:14:52.931Z</time></trkpt><trkpt lat="43.0346905" lon="13.1210166"><ele>876.0</ele><time>2026-05-03T07:14:53.921Z</time></trkpt><trkpt lat="43.0345502" lon="13.1208398"><ele>876.3333333333333</ele><time>2026-05-03T07:14:54.916Z</time></trkpt><trkpt lat="43.0344053" lon="13.1206589"><ele>876.6666666666666</ele><time>2026-05-03T07:14:55.921Z</time></trkpt><trkpt lat="43.0342566" lon="13.1204719"><ele>877.0</ele><time>2026-05-03T07:14:56.921Z</time></trkpt><trkpt lat="43.0340966" lon="13.1202706"><ele>879.3333333333333</ele><time>2026-05-03T07:14:57.927Z</time></trkpt><trkpt lat="43.0339364" lon="13.1200709"><ele>881.6666666666667</ele><time>2026-05-03T07:14:58.929Z</time></trkpt><trkpt lat="43.0337872" lon="13.1198831"><ele>884.0</ele><time>2026-05-03T07:14:59.928Z</time></trkpt><trkpt lat="43.0336441" lon="13.1197021"><ele>885.0</ele><time>2026-05-03T07:15:00.919Z</time></trkpt><trkpt lat="43.0335027" lon="13.1195262"><ele>886.0</ele><time>2026-05-03T07:15:01.925Z</time></trkpt><trkpt lat="43.0333613" lon="13.1193497"><ele>887.0</ele><time>2026-05-03T07:15:02.922Z</time></trkpt><trkpt lat="43.0332199" lon="13.1191702"><ele>889.0</ele><time>2026-05-03T07:15:03.91Z</time></trkpt><trkpt lat="43.0330837" lon="13.1189951"><ele>891.0</ele><time>2026-05-03T07:15:04.927Z</time></trkpt><trkpt lat="43.0329417" lon="13.1188136"><ele>893.0</ele><time>2026-05-03T07:15:05.919Z</time></trkpt><trkpt lat="43.0327922" lon="13.1186239"><ele>893.0</ele><time>2026-05-03T07:15:06.915Z</time></trkpt><trkpt lat="43.0326378" lon="13.1184323"><ele>893.0</ele><time>2026-05-03T07:15:07.927Z</time></trkpt><trkpt lat="43.0324826" lon="13.1182376"><ele>893.0</ele><time>2026-05-03T07:15:08.907Z</time></trkpt><trkpt lat="43.0323344" lon="13.1180539"><ele>896.0</ele><time>2026-05-03T07:15:09.91Z</time></trkpt><trkpt lat="43.0322005" lon="13.1178876"><ele>899.0</ele><time>2026-05-03T07:15:10.911Z</time></trkpt><trkpt lat="43.0320762" lon="13.1177302"><ele>902.0</ele><time>2026-05-03T07:15:11.92Z</time></trkpt><trkpt lat="43.0319498" lon="13.117574"><ele>902.0</ele><time>2026-05-03T07:15:12.931Z</time></trkpt><trkpt lat="43.0318184" lon="13.1174091"><ele>902.0</ele><time>2026-05-03T07:15:13.926Z</time></trkpt><trkpt lat="43.0316806" lon="13.1172376"><ele>902.0</ele><time>2026-05-03T07:15:14.924Z</time></trkpt><trkpt lat="43.031536" lon="13.1170602"><ele>904.0</ele><time>2026-05-03T07:15:15.928Z</time></trkpt><trkpt lat="43.0313911" lon="13.1168812"><ele>906.0</ele><time>2026-05-03T07:15:16.925Z</time></trkpt><trkpt lat="43.031254" lon="13.1167045"><ele>908.0</ele><time>2026-05-03T07:15:17.93Z</time></trkpt><trkpt lat="43.0311294" lon="13.1165465"><ele>904.25</ele><time>2026-05-03T07:15:18.912Z</time></trkpt><trkpt lat="43.0310234" lon="13.1163961"><ele>900.5</ele><time>2026-05-03T07:15:19.922Z</time></trkpt><trkpt lat="43.0309333" lon="13.1162702"><ele>896.75</ele><time>2026-05-03T07:15:20.927Z</time></trkpt><trkpt lat="43.0308572" lon="13.116174"><ele>893.0</ele><time>2026-05-03T07:15:21.933Z</time></trkpt><trkpt lat="43.0307764" lon="13.1160945"><ele>891.25</ele><time>2026-05-03T07:15:22.914Z</time></trkpt><trkpt lat="43.0306774" lon="13.1160367"><ele>889.5</ele><time>2026-05-03T07:15:23.923Z</time></trkpt><trkpt lat="43.0305655" lon="13.1159985"><ele>887.75</ele><time>2026-05-03T07:15:24.917Z</time></trkpt><trkpt lat="43.0304429" lon="13.1159836"><ele>886.0</ele><time>2026-05-03T07:15:25.915Z</time></trkpt><trkpt lat="43.0303042" lon="13.1159981"><ele>886.0</ele><time>2026-05-03T07:15:26.912Z</time></trkpt><trkpt lat="43.030152" lon="13.1160418"><ele>886.0</ele><time>2026-05-03T07:15:27.926Z</time></trkpt><trkpt lat="43.0299921" lon="13.1160998"><ele>886.0</ele><time>2026-05-03T07:15:28.926Z</time></trkpt><trkpt lat="43.0298377" lon="13.116153"><ele>879.6666666666666</ele><time>2026-05-03T07:15:29.902Z</time></trkpt><trkpt lat="43.0296952" lon="13.1162041"><ele>873.3333333333333</ele><time>2026-05-03T07:15:30.927Z</time></trkpt><trkpt lat="43.02955" lon="13.1162687"><ele>867.0</ele><time>2026-05-03T07:15:31.928Z</time></trkpt><trkpt lat="43.0293991" lon="13.1163532"><ele>867.0</ele><time>2026-05-03T07:15:32.929Z</time></trkpt><trkpt lat="43.0292448" lon="13.1164358"><ele>867.0</ele><time>2026-05-03T07:15:33.921Z</time></trkpt><trkpt lat="43.0290773" lon="13.116501"><ele>867.0</ele><time>2026-05-03T07:15:34.92Z</time></trkpt><trkpt lat="43.0289001" lon="13.1165613"><ele>879.0</ele><time>2026-05-03T07:15:35.914Z</time></trkpt><trkpt lat="43.0287254" lon="13.1166196"><ele>891.0</ele><time>2026-05-03T07:15:36.91Z</time></trkpt><trkpt lat="43.0285444" lon="13.1166731"><ele>903.0</ele><time>2026-05-03T07:15:37.926Z</time></trkpt><trkpt lat="43.0283609" lon="13.1167185"><ele>903.3333333333333</ele><time>2026-05-03T07:15:38.922Z</time></trkpt><trkpt lat="43.0281774" lon="13.1167554"><ele>903.6666666666666</ele><time>2026-05-03T07:15:39.918Z</time></trkpt><trkpt lat="43.0279928" lon="13.1167839"><ele>904.0</ele><time>2026-05-03T07:15:40.912Z</time></trkpt><trkpt lat="43.0278073" lon="13.1168097"><ele>904.0</ele><time>2026-05-03T07:15:41.927Z</time></trkpt><trkpt lat="43.0276157" lon="13.116833"><ele>904.0</ele><time>2026-05-03T07:15:42.926Z</time></trkpt><trkpt lat="43.0274086" lon="13.1168546"><ele>904.0</ele><time>2026-05-03T07:15:43.927Z</time></trkpt><trkpt lat="43.0272097" lon="13.1168768"><ele>904.3333333333333</ele><time>2026-05-03T07:15:44.919Z</time></trkpt><trkpt lat="43.0270155" lon="13.1168997"><ele>904.6666666666667</ele><time>2026-05-03T07:15:45.906Z</time></trkpt><trkpt lat="43.0268208" lon="13.1169211"><ele>905.0</ele><time>2026-05-03T07:15:46.913Z</time></trkpt><trkpt lat="43.0266318" lon="13.1169384"><ele>905.0</ele><time>2026-05-03T07:15:47.928Z</time></trkpt><trkpt lat="43.0264482" lon="13.116955"><ele>905.0</ele><time>2026-05-03T07:15:48.922Z</time></trkpt><trkpt lat="43.026264" lon="13.1169691"><ele>905.0</ele><time>2026-05-03T07:15:49.922Z</time></trkpt><trkpt lat="43.0260775" lon="13.1169752"><ele>905.0</ele><time>2026-05-03T07:15:50.926Z</time></trkpt><trkpt lat="43.0258825" lon="13.1169687"><ele>905.0</ele><time>2026-05-03T07:15:51.925Z</time></trkpt><trkpt lat="43.0256718" lon="13.1169511"><ele>905.0</ele><time>2026-05-03T07:15:52.913Z</time></trkpt><trkpt lat="43.02547" lon="13.1169256"><ele>909.0</ele><time>2026-05-03T07:15:53.912Z</time></trkpt><trkpt lat="43.025282" lon="13.1168945"><ele>913.0</ele><time>2026-05-03T07:15:54.922Z</time></trkpt><trkpt lat="43.0251014" lon="13.1168595"><ele>917.0</ele><time>2026-05-03T07:15:55.926Z</time></trkpt><trkpt lat="43.0249229" lon="13.1168228"><ele>919.6666666666667</ele><time>2026-05-03T07:15:56.921Z</time></trkpt><trkpt lat="43.0247467" lon="13.1167849"><ele>922.3333333333333</ele><time>2026-05-03T07:15:57.921Z</time></trkpt><trkpt lat="43.0245855" lon="13.1167509"><ele>925.0</ele><time>2026-05-03T07:15:58.92Z</time></trkpt><trkpt lat="43.0244423" lon="13.1167211"><ele>925.0</ele><time>2026-05-03T07:15:59.927Z</time></trkpt><trkpt lat="43.0243046" lon="13.1167029"><ele>925.0</ele><time>2026-05-03T07:16:00.917Z</time></trkpt><trkpt lat="43.0241621" lon="13.1167046"><ele>925.0</ele><time>2026-05-03T07:16:01.923Z</time></trkpt><trkpt lat="43.0240146" lon="13.1167184"><ele>925.0</ele><time>2026-05-03T07:16:02.913Z</time></trkpt><trkpt lat="43.0238599" lon="13.1167384"><ele>923.6666666666666</ele><time>2026-05-03T07:16:03.924Z</time></trkpt><trkpt lat="43.0236982" lon="13.1167618"><ele>922.3333333333333</ele><time>2026-05-03T07:16:04.911Z</time></trkpt><trkpt lat="43.0235318" lon="13.1167916"><ele>921.0</ele><time>2026-05-03T07:16:05.924Z</time></trkpt><trkpt lat="43.0233608" lon="13.1168271"><ele>920.6666666666667</ele><time>2026-05-03T07:16:06.916Z</time></trkpt><trkpt lat="43.0231852" lon="13.1168623"><ele>920.3333333333334</ele><time>2026-05-03T07:16:07.921Z</time></trkpt><trkpt lat="43.0230035" lon="13.1168982"><ele>920.0</ele><time>2026-05-03T07:16:08.917Z</time></trkpt><trkpt lat="43.0228178" lon="13.1169429"><ele>920.0</ele><time>2026-05-03T07:16:09.904Z</time></trkpt><trkpt lat="43.0226179" lon="13.1170007"><ele>920.0</ele><time>2026-05-03T07:16:10.915Z</time></trkpt><trkpt lat="43.0224201" lon="13.1170659"><ele>920.0</ele><time>2026-05-03T07:16:11.921Z</time></trkpt><trkpt lat="43.0222379" lon="13.1171287"><ele>922.6666666666667</ele><time>2026-05-03T07:16:12.92Z</time></trkpt><trkpt lat="43.0220685" lon="13.1171911"><ele>925.3333333333333</ele><time>2026-05-03T07:16:13.92Z</time></trkpt><trkpt lat="43.021914" lon="13.1172554"><ele>928.0</ele><time>2026-05-03T07:16:14.909Z</time></trkpt><trkpt lat="43.0217652" lon="13.1173265"><ele>932.0</ele><time>2026-05-03T07:16:15.915Z</time></trkpt><trkpt lat="43.0216232" lon="13.1174037"><ele>936.0</ele><time>2026-05-03T07:16:16.924Z</time></trkpt><trkpt lat="43.0214959" lon="13.1174819"><ele>940.0</ele><time>2026-05-03T07:16:17.92Z</time></trkpt><trkpt lat="43.0213816" lon="13.1175524"><ele>944.0</ele><time>2026-05-03T07:16:18.919Z</time></trkpt><trkpt lat="43.0212902" lon="13.1176286"><ele>944.0</ele><time>2026-05-03T07:16:19.911Z</time></trkpt><trkpt lat="43.0212061" lon="13.117714"><ele>944.0</ele><time>2026-05-03T07:16:20.92Z</time></trkpt><trkpt lat="43.0211176" lon="13.117815"><ele>944.0</ele><time>2026-05-03T07:16:21.925Z</time></trkpt><trkpt lat="43.0210198" lon="13.1179228"><ele>944.0</ele><time>2026-05-03T07:16:22.923Z</time></trkpt><trkpt lat="43.0209135" lon="13.1180352"><ele>946.75</ele><time>2026-05-03T07:16:23.926Z</time></trkpt><trkpt lat="43.0208048" lon="13.1181536"><ele>949.5</ele><time>2026-05-03T07:16:24.92Z</time></trkpt><trkpt lat="43.0206946" lon="13.1182676"><ele>952.25</ele><time>2026-05-03T07:16:25.922Z</time></trkpt><trkpt lat="43.0205903" lon="13.1183765"><ele>955.0</ele><time>2026-05-03T07:16:26.914Z</time></trkpt><trkpt lat="43.0204956" lon="13.118477"><ele>955.0</ele><time>2026-05-03T07:16:27.91Z</time></trkpt><trkpt lat="43.0204089" lon="13.1185656"><ele>955.0</ele><time>2026-05-03T07:16:28.913Z</time></trkpt><trkpt lat="43.020325" lon="13.1186277"><ele>955.0</ele><time>2026-05-03T07:16:29.925Z</time></trkpt><trkpt lat="43.0202418" lon="13.1186581"><ele>955.0</ele><time>2026-05-03T07:16:30.916Z</time></trkpt><trkpt lat="43.0201576" lon="13.1186568"><ele>955.0</ele><time>2026-05-03T07:16:31.911Z</time></trkpt><trkpt lat="43.020078" lon="13.1186129"><ele>955.0</ele><time>2026-05-03T07:16:32.928Z</time></trkpt><trkpt lat="43.0200108" lon="13.1185267"><ele>955.0</ele><time>2026-05-03T07:16:33.911Z</time></trkpt><trkpt lat="43.0199629" lon="13.118405"><ele>955.0</ele><time>2026-05-03T07:16:34.918Z</time></trkpt><trkpt lat="43.0199446" lon="13.1182591"><ele>955.0</ele><time>2026-05-03T07:16:35.922Z</time></trkpt><trkpt lat="43.0199603" lon="13.1180937"><ele>955.0</ele><time>2026-05-03T07:16:36.913Z</time></trkpt><trkpt lat="43.0200073" lon="13.1179052"><ele>959.0</ele><time>2026-05-03T07:16:37.921Z</time></trkpt><trkpt lat="43.0200835" lon="13.117707"><ele>963.0</ele><time>2026-05-03T07:16:38.915Z</time></trkpt><trkpt lat="43.0201881" lon="13.1175008"><ele>967.0</ele><time>2026-05-03T07:16:39.904Z</time></trkpt><trkpt lat="43.0203067" lon="13.1173067"><ele>973.3333333333333</ele><time>2026-05-03T07:16:40.918Z</time></trkpt><trkpt lat="43.0204216" lon="13.1171405"><ele>979.6666666666667</ele><time>2026-05-03T07:16:41.916Z</time></trkpt><trkpt lat="43.0205256" lon="13.1169906"><ele>986.0</ele><time>2026-05-03T07:16:42.916Z</time></trkpt><trkpt lat="43.0206191" lon="13.1168408"><ele>986.0</ele><time>2026-05-03T07:16:43.926Z</time></trkpt><trkpt lat="43.0207067" lon="13.1166662"><ele>986.0</ele><time>2026-05-03T07:16:44.926Z</time></trkpt><trkpt lat="43.020795" lon="13.1164808"><ele>986.0</ele><time>2026-05-03T07:16:45.929Z</time></trkpt><trkpt lat="43.0208834" lon="13.1162785"><ele>984.0</ele><time>2026-05-03T07:16:46.919Z</time></trkpt><trkpt lat="43.0209701" lon="13.1160747"><ele>982.0</ele><time>2026-05-03T07:16:47.921Z</time></trkpt><trkpt lat="43.0210427" lon="13.1158873"><ele>980.0</ele><time>2026-05-03T07:16:48.924Z</time></trkpt><trkpt lat="43.0211014" lon="13.1157233"><ele>980.0</ele><time>2026-05-03T07:16:49.916Z</time></trkpt><trkpt lat="43.0211434" lon="13.1155777"><ele>980.0</ele><time>2026-05-03T07:16:50.925Z</time></trkpt><trkpt lat="43.021167" lon="13.1154327"><ele>980.0</ele><time>2026-05-03T07:16:51.912Z</time></trkpt><trkpt lat="43.0211659" lon="13.1152754"><ele>980.0</ele><time>2026-05-03T07:16:52.921Z</time></trkpt><trkpt lat="43.0211472" lon="13.1150981"><ele>980.25</ele><time>2026-05-03T07:16:53.933Z</time></trkpt><trkpt lat="43.0211217" lon="13.1149019"><ele>980.5</ele><time>2026-05-03T07:16:54.921Z</time></trkpt><trkpt lat="43.0210928" lon="13.1147004"><ele>980.75</ele><time>2026-05-03T07:16:55.922Z</time></trkpt><trkpt lat="43.0210622" lon="13.1145053"><ele>981.0</ele><time>2026-05-03T07:16:56.915Z</time></trkpt><trkpt lat="43.0210367" lon="13.1143291"><ele>981.0</ele><time>2026-05-03T07:16:57.922Z</time></trkpt><trkpt lat="43.0210301" lon="13.1141636"><ele>981.0</ele><time>2026-05-03T07:16:58.917Z</time></trkpt><trkpt lat="43.0210522" lon="13.1139933"><ele>981.0</ele><time>2026-05-03T07:16:59.911Z</time></trkpt><trkpt lat="43.0211103" lon="13.1138128"><ele>981.0</ele><time>2026-05-03T07:17:00.915Z</time></trkpt><trkpt lat="43.0211992" lon="13.1136384"><ele>982.25</ele><time>2026-05-03T07:17:01.92Z</time></trkpt><trkpt lat="43.021289" lon="13.1134875"><ele>983.5</ele><time>2026-05-03T07:17:02.927Z</time></trkpt><trkpt lat="43.0213654" lon="13.1133508"><ele>984.75</ele><time>2026-05-03T07:17:03.927Z</time></trkpt><trkpt lat="43.0214212" lon="13.1132249"><ele>986.0</ele><time>2026-05-03T07:17:04.909Z</time></trkpt><trkpt lat="43.0214566" lon="13.1131093"><ele>986.0000000000001</ele><time>2026-05-03T07:17:05.931Z</time></trkpt><trkpt lat="43.0214774" lon="13.1130013"><ele>986.0</ele><time>2026-05-03T07:17:06.934Z</time></trkpt><trkpt lat="43.0214853" lon="13.1129005"><ele>986.0</ele><time>2026-05-03T07:17:07.899Z</time></trkpt><trkpt lat="43.0214865" lon="13.1127985"><ele>986.0</ele><time>2026-05-03T07:17:08.917Z</time></trkpt><trkpt lat="43.0214801" lon="13.1126926"><ele>986.0000000000001</ele><time>2026-05-03T07:17:09.912Z</time></trkpt><trkpt lat="43.0214629" lon="13.1125899"><ele>986.0</ele><time>2026-05-03T07:17:10.906Z</time></trkpt><trkpt lat="43.0214299" lon="13.112483"><ele>983.75</ele><time>2026-05-03T07:17:11.915Z</time></trkpt><trkpt lat="43.0213821" lon="13.1123689"><ele>981.5</ele><time>2026-05-03T07:17:12.916Z</time></trkpt><trkpt lat="43.0213228" lon="13.1122448"><ele>979.25</ele><time>2026-05-03T07:17:13.934Z</time></trkpt><trkpt lat="43.0212536" lon="13.1121119"><ele>977.0</ele><time>2026-05-03T07:17:14.908Z</time></trkpt><trkpt lat="43.021175" lon="13.1119692"><ele>977.0</ele><time>2026-05-03T07:17:15.928Z</time></trkpt><trkpt lat="43.021086" lon="13.1118149"><ele>977.0</ele><time>2026-05-03T07:17:16.928Z</time></trkpt><trkpt lat="43.0209883" lon="13.1116498"><ele>977.0</ele><time>2026-05-03T07:17:17.918Z</time></trkpt><trkpt lat="43.0208897" lon="13.1114817"><ele>977.25</ele><time>2026-05-03T07:17:18.918Z</time></trkpt><trkpt lat="43.0207886" lon="13.1113258"><ele>977.5</ele><time>2026-05-03T07:17:19.918Z</time></trkpt><trkpt lat="43.0206927" lon="13.1111866"><ele>977.75</ele><time>2026-05-03T07:17:20.923Z</time></trkpt><trkpt lat="43.0206027" lon="13.1110543"><ele>978.0</ele><time>2026-05-03T07:17:21.926Z</time></trkpt><trkpt lat="43.0205186" lon="13.1109352"><ele>978.0</ele><time>2026-05-03T07:17:22.933Z</time></trkpt><trkpt lat="43.0204378" lon="13.1108253"><ele>978.0</ele><time>2026-05-03T07:17:23.917Z</time></trkpt><trkpt lat="43.0203438" lon="13.1107171"><ele>978.0</ele><time>2026-05-03T07:17:24.923Z</time></trkpt><trkpt lat="43.0202514" lon="13.1106152"><ele>978.0</ele><time>2026-05-03T07:17:25.914Z</time></trkpt><trkpt lat="43.0201586" lon="13.110527"><ele>976.25</ele><time>2026-05-03T07:17:26.918Z</time></trkpt><trkpt lat="43.0200569" lon="13.1104506"><ele>974.5</ele><time>2026-05-03T07:17:27.91Z</time></trkpt><trkpt lat="43.0199395" lon="13.1103886"><ele>972.75</ele><time>2026-05-03T07:17:28.929Z</time></trkpt><trkpt lat="43.0198084" lon="13.1103349"><ele>971.0</ele><time>2026-05-03T07:17:29.933Z</time></trkpt><trkpt lat="43.0196671" lon="13.1102789"><ele>971.0</ele><time>2026-05-03T07:17:30.919Z</time></trkpt><trkpt lat="43.0195165" lon="13.1102189"><ele>971.0</ele><time>2026-05-03T07:17:31.914Z</time></trkpt><trkpt lat="43.0193565" lon="13.1101581"><ele>971.0</ele><time>2026-05-03T07:17:32.922Z</time></trkpt><trkpt lat="43.0191883" lon="13.1100943"><ele>972.6666666666667</ele><time>2026-05-03T07:17:33.936Z</time></trkpt><trkpt lat="43.0190237" lon="13.1100314"><ele>974.3333333333333</ele><time>2026-05-03T07:17:34.909Z</time></trkpt><trkpt lat="43.0188697" lon="13.1099754"><ele>976.0</ele><time>2026-05-03T07:17:35.924Z</time></trkpt><trkpt lat="43.0187285" lon="13.109924"><ele>970.25</ele><time>2026-05-03T07:17:36.93Z</time></trkpt><trkpt lat="43.0186015" lon="13.1098703"><ele>964.5</ele><time>2026-05-03T07:17:37.909Z</time></trkpt><trkpt lat="43.0184861" lon="13.1098157"><ele>958.75</ele><time>2026-05-03T07:17:38.928Z</time></trkpt><trkpt lat="43.0183815" lon="13.1097636"><ele>953.0</ele><time>2026-05-03T07:17:39.921Z</time></trkpt><trkpt lat="43.0182787" lon="13.1097159"><ele>950.2</ele><time>2026-05-03T07:17:40.926Z</time></trkpt><trkpt lat="43.0181793" lon="13.1096792"><ele>947.4</ele><time>2026-05-03T07:17:41.919Z</time></trkpt><trkpt lat="43.0180762" lon="13.1096545"><ele>944.6000000000001</ele><time>2026-05-03T07:17:42.925Z</time></trkpt><trkpt lat="43.0179622" lon="13.109648"><ele>941.8000000000001</ele><time>2026-05-03T07:17:43.912Z</time></trkpt><trkpt lat="43.0178392" lon="13.1096647"><ele>939.0</ele><time>2026-05-03T07:17:44.921Z</time></trkpt><trkpt lat="43.0177119" lon="13.1097092"><ele>939.0</ele><time>2026-05-03T07:17:45.913Z</time></trkpt><trkpt lat="43.0175828" lon="13.1097792"><ele>939.0</ele><time>2026-05-03T07:17:46.926Z</time></trkpt><trkpt lat="43.0174558" lon="13.1098589"><ele>939.0</ele><time>2026-05-03T07:17:47.919Z</time></trkpt><trkpt lat="43.0173404" lon="13.1099377"><ele>939.0</ele><time>2026-05-03T07:17:48.909Z</time></trkpt><trkpt lat="43.0172348" lon="13.1100166"><ele>945.2</ele><time>2026-05-03T07:17:49.916Z</time></trkpt><trkpt lat="43.0171362" lon="13.1100932"><ele>951.4000000000001</ele><time>2026-05-03T07:17:50.921Z</time></trkpt><trkpt lat="43.0170458" lon="13.1101635"><ele>957.6</ele><time>2026-05-03T07:17:51.907Z</time></trkpt><trkpt lat="43.0169602" lon="13.1102168"><ele>963.8</ele><time>2026-05-03T07:17:52.926Z</time></trkpt><trkpt lat="43.0168765" lon="13.1102429"><ele>970.0</ele><time>2026-05-03T07:17:53.931Z</time></trkpt><trkpt lat="43.0167929" lon="13.1102357"><ele>970.0</ele><time>2026-05-03T07:17:54.918Z</time></trkpt><trkpt lat="43.016718" lon="13.1101786"><ele>970.0</ele><time>2026-05-03T07:17:55.923Z</time></trkpt><trkpt lat="43.0166431" lon="13.1101043"><ele>970.0</ele><time>2026-05-03T07:17:56.911Z</time></trkpt><trkpt lat="43.0165969" lon="13.1099632"><ele>970.0</ele><time>2026-05-03T07:17:57.921Z</time></trkpt><trkpt lat="43.0165445" lon="13.1098163"><ele>970.0</ele><time>2026-05-03T07:17:58.913Z</time></trkpt><trkpt lat="43.0164783" lon="13.1096788"><ele>969.0</ele><time>2026-05-03T07:17:59.922Z</time></trkpt><trkpt lat="43.0163974" lon="13.1095621"><ele>968.0</ele><time>2026-05-03T07:18:00.927Z</time></trkpt><trkpt lat="43.0163088" lon="13.1094522"><ele>967.0</ele><time>2026-05-03T07:18:01.92Z</time></trkpt><trkpt lat="43.0162103" lon="13.109357"><ele>966.0</ele><time>2026-05-03T07:18:02.924Z</time></trkpt><trkpt lat="43.0161061" lon="13.1092863"><ele>966.0</ele><time>2026-05-03T07:18:03.922Z</time></trkpt><trkpt lat="43.0159973" lon="13.1092384"><ele>966.0</ele><time>2026-05-03T07:18:04.916Z</time></trkpt><trkpt lat="43.0158825" lon="13.1092063"><ele>966.0</ele><time>2026-05-03T07:18:05.915Z</time></trkpt><trkpt lat="43.015769" lon="13.109182"><ele>966.0</ele><time>2026-05-03T07:18:06.917Z</time></trkpt><trkpt lat="43.0156457" lon="13.1091787"><ele>964.75</ele><time>2026-05-03T07:18:07.914Z</time></trkpt><trkpt lat="43.0155072" lon="13.1091839"><ele>963.5</ele><time>2026-05-03T07:18:08.925Z</time></trkpt><trkpt lat="43.0153622" lon="13.1092039"><ele>962.25</ele><time>2026-05-03T07:18:09.926Z</time></trkpt><trkpt lat="43.0152083" lon="13.1092407"><ele>961.0</ele><time>2026-05-03T07:18:10.928Z</time></trkpt><trkpt lat="43.0150441" lon="13.1092871"><ele>958.6666666666666</ele><time>2026-05-03T07:18:11.92Z</time></trkpt><trkpt lat="43.0148775" lon="13.1093361"><ele>956.3333333333333</ele><time>2026-05-03T07:18:12.91Z</time></trkpt><trkpt lat="43.014718" lon="13.1093842"><ele>954.0</ele><time>2026-05-03T07:18:13.918Z</time></trkpt><trkpt lat="43.0145639" lon="13.1094194"><ele>954.0</ele><time>2026-05-03T07:18:14.919Z</time></trkpt><trkpt lat="43.0144084" lon="13.1094481"><ele>954.0</ele><time>2026-05-03T07:18:15.928Z</time></trkpt><trkpt lat="43.0142472" lon="13.1094919"><ele>954.0</ele><time>2026-05-03T07:18:16.906Z</time></trkpt><trkpt lat="43.0140832" lon="13.109556"><ele>951.3333333333333</ele><time>2026-05-03T07:18:17.916Z</time></trkpt><trkpt lat="43.0139279" lon="13.1096292"><ele>948.6666666666666</ele><time>2026-05-03T07:18:18.913Z</time></trkpt><trkpt lat="43.0137814" lon="13.1096993"><ele>946.0</ele><time>2026-05-03T07:18:19.915Z</time></trkpt><trkpt lat="43.0136203" lon="13.1097615"><ele>946.0</ele><time>2026-05-03T07:18:20.909Z</time></trkpt><trkpt lat="43.0134439" lon="13.1097814"><ele>946.0</ele><time>2026-05-03T07:18:21.913Z</time></trkpt><trkpt lat="43.0132713" lon="13.1098012"><ele>946.0</ele><time>2026-05-03T07:18:22.922Z</time></trkpt><trkpt lat="43.0131094" lon="13.1098209"><ele>950.0</ele><time>2026-05-03T07:18:23.907Z</time></trkpt><trkpt lat="43.0129565" lon="13.1098469"><ele>954.0</ele><time>2026-05-03T07:18:24.924Z</time></trkpt><trkpt lat="43.0128133" lon="13.1098725"><ele>958.0</ele><time>2026-05-03T07:18:25.923Z</time></trkpt><trkpt lat="43.0126781" lon="13.1099053"><ele>962.0</ele><time>2026-05-03T07:18:26.916Z</time></trkpt><trkpt lat="43.0125378" lon="13.1099624"><ele>951.6666666666667</ele><time>2026-05-03T07:18:27.909Z</time></trkpt><trkpt lat="43.0123835" lon="13.1100516"><ele>941.3333333333333</ele><time>2026-05-03T07:18:28.912Z</time></trkpt><trkpt lat="43.0122281" lon="13.1101538"><ele>931.0</ele><time>2026-05-03T07:18:29.911Z</time></trkpt><trkpt lat="43.0120817" lon="13.1102557"><ele>931.0</ele><time>2026-05-03T07:18:30.919Z</time></trkpt><trkpt lat="43.0119454" lon="13.1103432"><ele>931.0</ele><time>2026-05-03T07:18:31.914Z</time></trkpt><trkpt lat="43.0118189" lon="13.110418"><ele>931.0</ele><time>2026-05-03T07:18:32.914Z</time></trkpt><trkpt lat="43.0116968" lon="13.1104955"><ele>931.0</ele><time>2026-05-03T07:18:33.913Z</time></trkpt><trkpt lat="43.0115781" lon="13.1105935"><ele>928.6666666666666</ele><time>2026-05-03T07:18:34.917Z</time></trkpt><trkpt lat="43.011463" lon="13.1107054"><ele>926.3333333333333</ele><time>2026-05-03T07:18:35.928Z</time></trkpt><trkpt lat="43.011347" lon="13.1108372"><ele>924.0</ele><time>2026-05-03T07:18:36.919Z</time></trkpt><trkpt lat="43.0112216" lon="13.1110021"><ele>924.0</ele><time>2026-05-03T07:18:37.906Z</time></trkpt><trkpt lat="43.0110894" lon="13.1111994"><ele>924.0</ele><time>2026-05-03T07:18:38.929Z</time></trkpt><trkpt lat="43.0109673" lon="13.1114038"><ele>924.0</ele><time>2026-05-03T07:18:39.928Z</time></trkpt><trkpt lat="43.0108542" lon="13.1115992"><ele>927.0</ele><time>2026-05-03T07:18:40.921Z</time></trkpt><trkpt lat="43.0107472" lon="13.1117816"><ele>930.0</ele><time>2026-05-03T07:18:41.931Z</time></trkpt><trkpt lat="43.0106484" lon="13.1119493"><ele>933.0</ele><time>2026-05-03T07:18:42.93Z</time></trkpt><trkpt lat="43.0105606" lon="13.1120969"><ele>933.0</ele><time>2026-05-03T07:18:43.925Z</time></trkpt><trkpt lat="43.0104903" lon="13.112224"><ele>933.0</ele><time>2026-05-03T07:18:44.919Z</time></trkpt><trkpt lat="43.0104312" lon="13.1123279"><ele>933.0</ele><time>2026-05-03T07:18:45.92Z</time></trkpt><trkpt lat="43.0103692" lon="13.1123989"><ele>933.0</ele><time>2026-05-03T07:18:46.921Z</time></trkpt><trkpt lat="43.0102927" lon="13.1124204"><ele>933.0</ele><time>2026-05-03T07:18:47.925Z</time></trkpt><trkpt lat="43.0102071" lon="13.1124173"><ele>933.0</ele><time>2026-05-03T07:18:48.936Z</time></trkpt><trkpt lat="43.0101049" lon="13.1123293"><ele>933.0</ele><time>2026-05-03T07:18:49.923Z</time></trkpt><trkpt lat="43.0099668" lon="13.1122407"><ele>933.0</ele><time>2026-05-03T07:18:50.928Z</time></trkpt><trkpt lat="43.0098065" lon="13.1121615"><ele>933.0</ele><time>2026-05-03T07:18:51.928Z</time></trkpt><trkpt lat="43.0096482" lon="13.1120719"><ele>938.5</ele><time>2026-05-03T07:18:52.918Z</time></trkpt><trkpt lat="43.0095099" lon="13.1119493"><ele>944.0</ele><time>2026-05-03T07:18:53.926Z</time></trkpt><trkpt lat="43.0093941" lon="13.1118149"><ele>949.5</ele><time>2026-05-03T07:18:54.912Z</time></trkpt><trkpt lat="43.0092995" lon="13.1117013"><ele>955.0</ele><time>2026-05-03T07:18:55.918Z</time></trkpt><trkpt lat="43.0092199" lon="13.1116122"><ele>948.6</ele><time>2026-05-03T07:18:56.932Z</time></trkpt><trkpt lat="43.0091434" lon="13.1115447"><ele>942.2</ele><time>2026-05-03T07:18:57.913Z</time></trkpt><trkpt lat="43.0090514" lon="13.1115031"><ele>935.8</ele><time>2026-05-03T07:18:58.923Z</time></trkpt><trkpt lat="43.0089379" lon="13.1114965"><ele>929.4</ele><time>2026-05-03T07:18:59.917Z</time></trkpt><trkpt lat="43.0088085" lon="13.1115152"><ele>923.0</ele><time>2026-05-03T07:19:00.92Z</time></trkpt><trkpt lat="43.0086591" lon="13.111537"><ele>923.0</ele><time>2026-05-03T07:19:01.919Z</time></trkpt><trkpt lat="43.0084936" lon="13.111561"><ele>923.0</ele><time>2026-05-03T07:19:02.921Z</time></trkpt><trkpt lat="43.008321" lon="13.1115888"><ele>923.0</ele><time>2026-05-03T07:19:03.924Z</time></trkpt><trkpt lat="43.0081472" lon="13.111625"><ele>930.6666666666667</ele><time>2026-05-03T07:19:04.925Z</time></trkpt><trkpt lat="43.0079748" lon="13.1116709"><ele>938.3333333333333</ele><time>2026-05-03T07:19:05.93Z</time></trkpt><trkpt lat="43.0078079" lon="13.111733"><ele>946.0</ele><time>2026-05-03T07:19:06.925Z</time></trkpt><trkpt lat="43.007637" lon="13.1118058"><ele>943.3333333333333</ele><time>2026-05-03T07:19:07.932Z</time></trkpt><trkpt lat="43.0074746" lon="13.1118779"><ele>940.6666666666667</ele><time>2026-05-03T07:19:08.929Z</time></trkpt><trkpt lat="43.0073224" lon="13.1119497"><ele>938.0</ele><time>2026-05-03T07:19:09.928Z</time></trkpt><trkpt lat="43.0071798" lon="13.112019"><ele>938.0</ele><time>2026-05-03T07:19:10.92Z</time></trkpt><trkpt lat="43.007045" lon="13.1120833"><ele>938.0</ele><time>2026-05-03T07:19:11.913Z</time></trkpt><trkpt lat="43.006915" lon="13.1121396"><ele>938.0</ele><time>2026-05-03T07:19:12.921Z</time></trkpt><trkpt lat="43.0067793" lon="13.1121916"><ele>938.0</ele><time>2026-05-03T07:19:13.919Z</time></trkpt><trkpt lat="43.0066345" lon="13.1122389"><ele>939.3333333333334</ele><time>2026-05-03T07:19:14.92Z</time></trkpt><trkpt lat="43.0064866" lon="13.1122796"><ele>940.6666666666667</ele><time>2026-05-03T07:19:15.934Z</time></trkpt><trkpt lat="43.0063377" lon="13.11232"><ele>942.0</ele><time>2026-05-03T07:19:16.929Z</time></trkpt><trkpt lat="43.006182" lon="13.112364"><ele>942.0</ele><time>2026-05-03T07:19:17.922Z</time></trkpt><trkpt lat="43.0060213" lon="13.1124045"><ele>942.0</ele><time>2026-05-03T07:19:18.924Z</time></trkpt><trkpt lat="43.005852" lon="13.1124391"><ele>942.0</ele><time>2026-05-03T07:19:19.919Z</time></trkpt><trkpt lat="43.00567" lon="13.1124669"><ele>943.3333333333333</ele><time>2026-05-03T07:19:20.932Z</time></trkpt><trkpt lat="43.0054776" lon="13.1124979"><ele>944.6666666666666</ele><time>2026-05-03T07:19:21.914Z</time></trkpt><trkpt lat="43.0052827" lon="13.1125421"><ele>946.0</ele><time>2026-05-03T07:19:22.922Z</time></trkpt><trkpt lat="43.0050878" lon="13.1125902"><ele>945.3333333333333</ele><time>2026-05-03T07:19:23.92Z</time></trkpt><trkpt lat="43.0048984" lon="13.1126418"><ele>944.6666666666667</ele><time>2026-05-03T07:19:24.916Z</time></trkpt><trkpt lat="43.0047113" lon="13.1126925"><ele>944.0</ele><time>2026-05-03T07:19:25.921Z</time></trkpt><trkpt lat="43.0045197" lon="13.1127336"><ele>944.0</ele><time>2026-05-03T07:19:26.921Z</time></trkpt><trkpt lat="43.0043221" lon="13.1127716"><ele>944.0</ele><time>2026-05-03T07:19:27.919Z</time></trkpt><trkpt lat="43.0041163" lon="13.112777"><ele>944.0</ele><time>2026-05-03T07:19:28.932Z</time></trkpt><trkpt lat="43.0039143" lon="13.1127796"><ele>944.6666666666667</ele><time>2026-05-03T07:19:29.921Z</time></trkpt><trkpt lat="43.0037194" lon="13.1127978"><ele>945.3333333333333</ele><time>2026-05-03T07:19:30.933Z</time></trkpt><trkpt lat="43.0035438" lon="13.1128254"><ele>946.0</ele><time>2026-05-03T07:19:31.906Z</time></trkpt><trkpt lat="43.0033827" lon="13.1128512"><ele>948.5</ele><time>2026-05-03T07:19:32.931Z</time></trkpt><trkpt lat="43.003235" lon="13.1128862"><ele>951.0</ele><time>2026-05-03T07:19:33.922Z</time></trkpt><trkpt lat="43.0030984" lon="13.1129053"><ele>953.5</ele><time>2026-05-03T07:19:34.928Z</time></trkpt><trkpt lat="43.0029594" lon="13.1129016"><ele>956.0</ele><time>2026-05-03T07:19:35.925Z</time></trkpt><trkpt lat="43.0028116" lon="13.1128566"><ele>956.0</ele><time>2026-05-03T07:19:36.919Z</time></trkpt><trkpt lat="43.0026638" lon="13.1127831"><ele>956.0</ele><time>2026-05-03T07:19:37.924Z</time></trkpt><trkpt lat="43.0025196" lon="13.1127015"><ele>956.0</ele><time>2026-05-03T07:19:38.911Z</time></trkpt><trkpt lat="43.002385" lon="13.1126282"><ele>956.25</ele><time>2026-05-03T07:19:39.916Z</time></trkpt><trkpt lat="43.0022656" lon="13.1125612"><ele>956.5</ele><time>2026-05-03T07:19:40.923Z</time></trkpt><trkpt lat="43.0021583" lon="13.1125084"><ele>956.75</ele><time>2026-05-03T07:19:41.917Z</time></trkpt><trkpt lat="43.0020484" lon="13.112478"><ele>957.0</ele><time>2026-05-03T07:19:42.901Z</time></trkpt><trkpt lat="43.0019273" lon="13.1124817"><ele>957.0</ele><time>2026-05-03T07:19:43.917Z</time></trkpt><trkpt lat="43.0018038" lon="13.1125184"><ele>957.0</ele><time>2026-05-03T07:19:44.916Z</time></trkpt><trkpt lat="43.0016865" lon="13.1125834"><ele>957.0</ele><time>2026-05-03T07:19:45.915Z</time></trkpt><trkpt lat="43.0015707" lon="13.1126828"><ele>957.0</ele><time>2026-05-03T07:19:46.91Z</time></trkpt><trkpt lat="43.0014516" lon="13.1128111"><ele>959.3333333333333</ele><time>2026-05-03T07:19:47.917Z</time></trkpt><trkpt lat="43.0013245" lon="13.112958"><ele>961.6666666666666</ele><time>2026-05-03T07:19:48.921Z</time></trkpt><trkpt lat="43.0011892" lon="13.1131066"><ele>964.0</ele><time>2026-05-03T07:19:49.91Z</time></trkpt><trkpt lat="43.0010543" lon="13.1132484"><ele>964.0</ele><time>2026-05-03T07:19:50.919Z</time></trkpt><trkpt lat="43.0009228" lon="13.1133812"><ele>964.0</ele><time>2026-05-03T07:19:51.923Z</time></trkpt><trkpt lat="43.000791" lon="13.1135137"><ele>964.0</ele><time>2026-05-03T07:19:52.916Z</time></trkpt><trkpt lat="43.0006513" lon="13.1136361"><ele>963.25</ele><time>2026-05-03T07:19:53.918Z</time></trkpt><trkpt lat="43.0005208" lon="13.1137462"><ele>962.5</ele><time>2026-05-03T07:19:54.906Z</time></trkpt><trkpt lat="43.0003912" lon="13.113812"><ele>961.75</ele><time>2026-05-03T07:19:55.921Z</time></trkpt><trkpt lat="43.0002715" lon="13.1138833"><ele>961.0</ele><time>2026-05-03T07:19:56.915Z</time></trkpt><trkpt lat="43.0001614" lon="13.1139778"><ele>963.75</ele><time>2026-05-03T07:19:57.909Z</time></trkpt><trkpt lat="43.0000603" lon="13.1141043"><ele>966.5</ele><time>2026-05-03T07:19:58.922Z</time></trkpt><trkpt lat="42.9999678" lon="13.1142565"><ele>969.25</ele><time>2026-05-03T07:19:59.915Z</time></trkpt><trkpt lat="42.9998794" lon="13.1144078"><ele>972.0</ele><time>2026-05-03T07:20:00.925Z</time></trkpt><trkpt lat="42.9997983" lon="13.1145394"><ele>972.0</ele><time>2026-05-03T07:20:01.922Z</time></trkpt><trkpt lat="42.9997208" lon="13.114654"><ele>972.0</ele><time>2026-05-03T07:20:02.921Z</time></trkpt><trkpt lat="42.9996333" lon="13.114755"><ele>972.0</ele><time>2026-05-03T07:20:03.922Z</time></trkpt><trkpt lat="42.9995369" lon="13.114824"><ele>972.0</ele><time>2026-05-03T07:20:04.918Z</time></trkpt><trkpt lat="42.9994338" lon="13.1148519"><ele>972.0</ele><time>2026-05-03T07:20:05.917Z</time></trkpt><trkpt lat="42.9993325" lon="13.1148481"><ele>972.0</ele><time>2026-05-03T07:20:06.926Z</time></trkpt><trkpt lat="42.9992314" lon="13.1148281"><ele>972.0</ele><time>2026-05-03T07:20:07.919Z</time></trkpt><trkpt lat="42.9991367" lon="13.1147999"><ele>972.0</ele><time>2026-05-03T07:20:08.921Z</time></trkpt><trkpt lat="42.9990549" lon="13.1147677"><ele>972.0</ele><time>2026-05-03T07:20:09.911Z</time></trkpt><trkpt lat="42.9989761" lon="13.1147324"><ele>972.0</ele><time>2026-05-03T07:20:10.914Z</time></trkpt><trkpt lat="42.9989003" lon="13.1146898"><ele>972.0</ele><time>2026-05-03T07:20:11.914Z</time></trkpt><trkpt lat="42.9988284" lon="13.1146393"><ele>971.6</ele><time>2026-05-03T07:20:12.925Z</time></trkpt><trkpt lat="42.9987579" lon="13.1145722"><ele>971.2</ele><time>2026-05-03T07:20:13.925Z</time></trkpt><trkpt lat="42.9986891" lon="13.1144871"><ele>970.8</ele><time>2026-05-03T07:20:14.926Z</time></trkpt><trkpt lat="42.9986186" lon="13.1143907"><ele>970.4</ele><time>2026-05-03T07:20:15.921Z</time></trkpt><trkpt lat="42.9985448" lon="13.1142864"><ele>970.0</ele><time>2026-05-03T07:20:16.939Z</time></trkpt><trkpt lat="42.99847" lon="13.1141753"><ele>970.2</ele><time>2026-05-03T07:20:17.928Z</time></trkpt><trkpt lat="42.9983916" lon="13.1140581"><ele>970.4</ele><time>2026-05-03T07:20:18.917Z</time></trkpt><trkpt lat="42.9983168" lon="13.1139325"><ele>970.5999999999999</ele><time>2026-05-03T07:20:19.909Z</time></trkpt><trkpt lat="42.9982534" lon="13.1138126"><ele>970.8</ele><time>2026-05-03T07:20:20.924Z</time></trkpt><trkpt lat="42.9981928" lon="13.1137105"><ele>971.0</ele><time>2026-05-03T07:20:21.922Z</time></trkpt><trkpt lat="42.9981376" lon="13.1136229"><ele>972.2857142857143</ele><time>2026-05-03T07:20:22.922Z</time></trkpt><trkpt lat="42.9980892" lon="13.1135514"><ele>973.5714285714287</ele><time>2026-05-03T07:20:23.916Z</time></trkpt><trkpt lat="42.9980397" lon="13.1134893"><ele>974.8571428571429</ele><time>2026-05-03T07:20:24.921Z</time></trkpt><trkpt lat="42.9979888" lon="13.1134262"><ele>976.1428571428571</ele><time>2026-05-03T07:20:25.907Z</time></trkpt><trkpt lat="42.9979398" lon="13.1133594"><ele>977.4285714285714</ele><time>2026-05-03T07:20:26.926Z</time></trkpt><trkpt lat="42.9978605" lon="13.1132563"><ele>978.7142857142858</ele><time>2026-05-03T07:20:28.917Z</time></trkpt><trkpt lat="42.9978089" lon="13.1132067"><ele>980.0</ele><time>2026-05-03T07:20:30.904Z</time></trkpt><trkpt lat="42.9977402" lon="13.1131451"><ele>980.1666666666667</ele><time>2026-05-03T07:20:33.917Z</time></trkpt><trkpt lat="42.9976586" lon="13.1130775"><ele>980.3333333333334</ele><time>2026-05-03T07:20:35.921Z</time></trkpt><trkpt lat="42.9975716" lon="13.1129608"><ele>980.5</ele><time>2026-05-03T07:20:37.918Z</time></trkpt><trkpt lat="42.9975297" lon="13.1128965"><ele>980.6666666666667</ele><time>2026-05-03T07:20:38.916Z</time></trkpt><trkpt lat="42.9974876" lon="13.1128317"><ele>980.8333333333334</ele><time>2026-05-03T07:20:39.921Z</time></trkpt><trkpt lat="42.9974463" lon="13.1127636"><ele>981.0</ele><time>2026-05-03T07:20:40.92Z</time></trkpt><trkpt lat="42.9973822" lon="13.1126562"><ele>980.2857142857143</ele><time>2026-05-03T07:20:42.917Z</time></trkpt><trkpt lat="42.9973626" lon="13.1125483"><ele>979.5714285714284</ele><time>2026-05-03T07:20:46.924Z</time></trkpt><trkpt lat="42.9974237" lon="13.1124822"><ele>978.8571428571428</ele><time>2026-05-03T07:20:50.914Z</time></trkpt><trkpt lat="42.9973576" lon="13.11253"><ele>978.1428571428571</ele><time>2026-05-03T07:30:10.92Z</time></trkpt><trkpt lat="42.9973314" lon="13.1126083"><ele>977.4285714285713</ele><time>2026-05-03T07:30:14.924Z</time></trkpt><trkpt lat="42.9973635" lon="13.1127065"><ele>976.7142857142856</ele><time>2026-05-03T07:30:16.918Z</time></trkpt><trkpt lat="42.9974101" lon="13.1127734"><ele>975.9999999999999</ele><time>2026-05-03T07:30:17.92Z</time></trkpt><trkpt lat="42.9974572" lon="13.1128344"><ele>976.8</ele><time>2026-05-03T07:30:18.908Z</time></trkpt><trkpt lat="42.9975514" lon="13.1129545"><ele>977.5999999999999</ele><time>2026-05-03T07:30:20.919Z</time></trkpt><trkpt lat="42.9976048" lon="13.1130289"><ele>978.4</ele><time>2026-05-03T07:30:21.925Z</time></trkpt><trkpt lat="42.9976541" lon="13.1131003"><ele>979.2</ele><time>2026-05-03T07:30:22.915Z</time></trkpt><trkpt lat="42.9977042" lon="13.11316"><ele>980.0</ele><time>2026-05-03T07:30:23.917Z</time></trkpt><trkpt lat="42.9977936" lon="13.1132453"><ele>980.0</ele><time>2026-05-03T07:30:25.92Z</time></trkpt><trkpt lat="42.9978107" lon="13.1133392"><ele>980.0</ele><time>2026-05-03T07:30:28.924Z</time></trkpt><trkpt lat="42.9977519" lon="13.1134236"><ele>980.0</ele><time>2026-05-03T07:30:30.926Z</time></trkpt><trkpt lat="42.9976485" lon="13.1135323"><ele>980.0</ele><time>2026-05-03T07:30:32.917Z</time></trkpt><trkpt lat="42.9975912" lon="13.113588"><ele>980.0</ele><time>2026-05-03T07:30:33.916Z</time></trkpt><trkpt lat="42.997498" lon="13.1136724"><ele>980.3333333333334</ele><time>2026-05-03T07:30:35.922Z</time></trkpt><trkpt lat="42.9974467" lon="13.1137298"><ele>980.6666666666667</ele><time>2026-05-03T07:30:37.93Z</time></trkpt><trkpt lat="42.9973928" lon="13.1137813"><ele>981.0</ele><time>2026-05-03T07:30:39.922Z</time></trkpt><trkpt lat="42.9973239" lon="13.1138033"><ele>981.3333333333333</ele><time>2026-05-03T07:30:41.927Z</time></trkpt><trkpt lat="42.9972395" lon="13.1137891"><ele>981.6666666666666</ele><time>2026-05-03T07:30:43.908Z</time></trkpt><trkpt lat="42.9971456" lon="13.1137695"><ele>982.0</ele><time>2026-05-03T07:30:45.928Z</time></trkpt><trkpt lat="42.9970362" lon="13.113772"><ele>982.0</ele><time>2026-05-03T07:30:47.913Z</time></trkpt><trkpt lat="42.9969212" lon="13.1137872"><ele>982.0</ele><time>2026-05-03T07:30:49.912Z</time></trkpt><trkpt lat="42.9968233" lon="13.1138089"><ele>982.0</ele><time>2026-05-03T07:30:51.921Z</time></trkpt><trkpt lat="42.9967129" lon="13.1138411"><ele>982.0</ele><time>2026-05-03T07:30:53.918Z</time></trkpt><trkpt lat="42.996612" lon="13.1138602"><ele>982.0</ele><time>2026-05-03T07:30:55.922Z</time></trkpt><trkpt lat="42.9965239" lon="13.1138213"><ele>983.8</ele><time>2026-05-03T07:30:57.919Z</time></trkpt><trkpt lat="42.9964217" lon="13.113783"><ele>985.6</ele><time>2026-05-03T07:30:59.92Z</time></trkpt><trkpt lat="42.9963168" lon="13.1137542"><ele>987.3999999999999</ele><time>2026-05-03T07:31:01.925Z</time></trkpt><trkpt lat="42.9962072" lon="13.1137443"><ele>989.1999999999999</ele><time>2026-05-03T07:31:03.919Z</time></trkpt><trkpt lat="42.9961086" lon="13.1137575"><ele>991.0</ele><time>2026-05-03T07:31:05.913Z</time></trkpt><trkpt lat="42.996018" lon="13.113782"><ele>991.0</ele><time>2026-05-03T07:31:07.919Z</time></trkpt><trkpt lat="42.995917" lon="13.1138192"><ele>990.9999999999999</ele><time>2026-05-03T07:31:09.92Z</time></trkpt><trkpt lat="42.9958165" lon="13.1138208"><ele>990.9999999999999</ele><time>2026-05-03T07:31:11.902Z</time></trkpt><trkpt lat="42.9957096" lon="13.1138021"><ele>991.0</ele><time>2026-05-03T07:31:13.915Z</time></trkpt><trkpt lat="42.9956092" lon="13.1138033"><ele>991.0</ele><time>2026-05-03T07:31:15.923Z</time></trkpt><trkpt lat="42.9954954" lon="13.1138339"><ele>992.1666666666666</ele><time>2026-05-03T07:31:17.915Z</time></trkpt><trkpt lat="42.9954281" lon="13.1138571"><ele>993.3333333333333</ele><time>2026-05-03T07:31:18.926Z</time></trkpt><trkpt lat="42.9953497" lon="13.1138863"><ele>994.5</ele><time>2026-05-03T07:31:19.908Z</time></trkpt><trkpt lat="42.9952753" lon="13.113902"><ele>995.6666666666667</ele><time>2026-05-03T07:31:20.918Z</time></trkpt><trkpt lat="42.9952038" lon="13.1139216"><ele>996.8333333333334</ele><time>2026-05-03T07:31:21.91Z</time></trkpt><trkpt lat="42.9951272" lon="13.1139257"><ele>998.0</ele><time>2026-05-03T07:31:22.917Z</time></trkpt><trkpt lat="42.995053" lon="13.1139278"><ele>998.5714285714287</ele><time>2026-05-03T07:31:23.917Z</time></trkpt><trkpt lat="42.9949841" lon="13.1139413"><ele>999.1428571428571</ele><time>2026-05-03T07:31:24.923Z</time></trkpt><trkpt lat="42.9949167" lon="13.1139599"><ele>999.7142857142858</ele><time>2026-05-03T07:31:25.928Z</time></trkpt><trkpt lat="42.9948517" lon="13.1139771"><ele>1000.2857142857143</ele><time>2026-05-03T07:31:26.928Z</time></trkpt><trkpt lat="42.9947849" lon="13.1139856"><ele>1000.8571428571429</ele><time>2026-05-03T07:31:27.923Z</time></trkpt><trkpt lat="42.9947219" lon="13.1139814"><ele>1001.4285714285714</ele><time>2026-05-03T07:31:28.92Z</time></trkpt><trkpt lat="42.9946365" lon="13.1139605"><ele>1002.0</ele><time>2026-05-03T07:31:30.922Z</time></trkpt><trkpt lat="42.9945615" lon="13.1139428"><ele>1002.0</ele><time>2026-05-03T07:31:32.921Z</time></trkpt><trkpt lat="42.9944709" lon="13.1139367"><ele>1002.0</ele><time>2026-05-03T07:31:34.913Z</time></trkpt><trkpt lat="42.9943894" lon="13.1139722"><ele>1002.0</ele><time>2026-05-03T07:31:36.922Z</time></trkpt><trkpt lat="42.9943235" lon="13.1140083"><ele>1002.0</ele><time>2026-05-03T07:31:38.931Z</time></trkpt><trkpt lat="42.9942679" lon="13.1140706"><ele>1002.0</ele><time>2026-05-03T07:31:40.919Z</time></trkpt><trkpt lat="42.9942063" lon="13.1141338"><ele>1002.0</ele><time>2026-05-03T07:31:42.926Z</time></trkpt><trkpt lat="42.9941553" lon="13.1141906"><ele>1005.0</ele><time>2026-05-03T07:31:44.904Z</time></trkpt><trkpt lat="42.9940869" lon="13.1142774"><ele>1008.0</ele><time>2026-05-03T07:31:46.915Z</time></trkpt><trkpt lat="42.9940402" lon="13.1143352"><ele>1011.0</ele><time>2026-05-03T07:31:47.915Z</time></trkpt><trkpt lat="42.9939938" lon="13.1143968"><ele>1014.0</ele><time>2026-05-03T07:31:48.926Z</time></trkpt><trkpt lat="42.9938962" lon="13.1144959"><ele>1017.0</ele><time>2026-05-03T07:31:50.921Z</time></trkpt><trkpt lat="42.9938392" lon="13.1145484"><ele>1020.0</ele><time>2026-05-03T07:31:51.933Z</time></trkpt><trkpt lat="42.9937783" lon="13.1146018"><ele>1020.0</ele><time>2026-05-03T07:31:52.928Z</time></trkpt><trkpt lat="42.9936932" lon="13.1146951"><ele>1020.0</ele><time>2026-05-03T07:31:54.911Z</time></trkpt><trkpt lat="42.9936831" lon="13.1148097"><ele>1020.0</ele><time>2026-05-03T07:31:56.916Z</time></trkpt><trkpt lat="42.9937633" lon="13.114896"><ele>1020.0</ele><time>2026-05-03T07:31:58.918Z</time></trkpt><trkpt lat="42.9938819" lon="13.1149503"><ele>1020.0</ele><time>2026-05-03T07:32:00.908Z</time></trkpt><trkpt lat="42.9939859" lon="13.1150102"><ele>1023.75</ele><time>2026-05-03T07:32:02.912Z</time></trkpt><trkpt lat="42.9940903" lon="13.1150751"><ele>1027.5</ele><time>2026-05-03T07:32:04.912Z</time></trkpt><trkpt lat="42.9941879" lon="13.1151444"><ele>1031.25</ele><time>2026-05-03T07:32:06.927Z</time></trkpt><trkpt lat="42.9942977" lon="13.115225"><ele>1035.0</ele><time>2026-05-03T07:32:08.925Z</time></trkpt><trkpt lat="42.9943948" lon="13.1152979"><ele>1035.0</ele><time>2026-05-03T07:32:10.923Z</time></trkpt><trkpt lat="42.9944894" lon="13.1153789"><ele>1035.0</ele><time>2026-05-03T07:32:12.919Z</time></trkpt><trkpt lat="42.9945806" lon="13.1154451"><ele>1035.0</ele><time>2026-05-03T07:32:14.92Z</time></trkpt><trkpt lat="42.9946236" lon="13.1155283"><ele>1035.0</ele><time>2026-05-03T07:32:16.934Z</time></trkpt><trkpt lat="42.9946044" lon="13.1156343"><ele>1035.0</ele><time>2026-05-03T07:32:18.909Z</time></trkpt><trkpt lat="42.9945227" lon="13.1156712"><ele>1035.0</ele><time>2026-05-03T07:32:20.923Z</time></trkpt><trkpt lat="42.9944614" lon="13.1156959"><ele>1035.0</ele><time>2026-05-03T07:32:21.927Z</time></trkpt><trkpt lat="42.9943904" lon="13.1157285"><ele>1035.0</ele><time>2026-05-03T07:32:22.912Z</time></trkpt><trkpt lat="42.9943147" lon="13.1157687"><ele>1035.0</ele><time>2026-05-03T07:32:23.925Z</time></trkpt><trkpt lat="42.9942338" lon="13.1158159"><ele>1035.0</ele><time>2026-05-03T07:32:24.921Z</time></trkpt><trkpt lat="42.9941619" lon="13.1158588"><ele>1035.0</ele><time>2026-05-03T07:32:25.912Z</time></trkpt><trkpt lat="42.9941027" lon="13.1158961"><ele>1038.0</ele><time>2026-05-03T07:32:26.922Z</time></trkpt><trkpt lat="42.9940262" lon="13.1159924"><ele>1041.0</ele><time>2026-05-03T07:32:28.924Z</time></trkpt><trkpt lat="42.9940502" lon="13.1160992"><ele>1044.0</ele><time>2026-05-03T07:32:30.923Z</time></trkpt><trkpt lat="42.9941446" lon="13.1161749"><ele>1047.0</ele><time>2026-05-03T07:32:32.909Z</time></trkpt><trkpt lat="42.9942084" lon="13.1162015"><ele>1050.0</ele><time>2026-05-03T07:32:33.927Z</time></trkpt><trkpt lat="42.9943184" lon="13.1162739"><ele>1050.0</ele><time>2026-05-03T07:32:35.927Z</time></trkpt><trkpt lat="42.9943728" lon="13.1163194"><ele>1050.0</ele><time>2026-05-03T07:32:36.923Z</time></trkpt><trkpt lat="42.9944288" lon="13.1163672"><ele>1050.0</ele><time>2026-05-03T07:32:37.915Z</time></trkpt><trkpt lat="42.9944823" lon="13.1164132"><ele>1050.0</ele><time>2026-05-03T07:32:38.911Z</time></trkpt><trkpt lat="42.9945434" lon="13.1164547"><ele>1050.0</ele><time>2026-05-03T07:32:39.912Z</time></trkpt><trkpt lat="42.9946072" lon="13.1164884"><ele>1050.0</ele><time>2026-05-03T07:32:40.921Z</time></trkpt><trkpt lat="42.9946712" lon="13.1165202"><ele>1050.0</ele><time>2026-05-03T07:32:41.926Z</time></trkpt><trkpt lat="42.9947356" lon="13.1165567"><ele>1050.8333333333333</ele><time>2026-05-03T07:32:42.917Z</time></trkpt><trkpt lat="42.9948065" lon="13.1165943"><ele>1051.6666666666667</ele><time>2026-05-03T07:32:43.921Z</time></trkpt><trkpt lat="42.9948793" lon="13.1166323"><ele>1052.5</ele><time>2026-05-03T07:32:44.934Z</time></trkpt><trkpt lat="42.9949494" lon="13.116666"><ele>1053.3333333333335</ele><time>2026-05-03T07:32:45.915Z</time></trkpt><trkpt lat="42.9950117" lon="13.1166953"><ele>1054.1666666666667</ele><time>2026-05-03T07:32:46.926Z</time></trkpt><trkpt lat="42.9950895" lon="13.1167481"><ele>1055.0</ele><time>2026-05-03T07:32:48.923Z</time></trkpt><trkpt lat="42.9951087" lon="13.1168523"><ele>1055.0</ele><time>2026-05-03T07:32:51.914Z</time></trkpt><trkpt lat="42.9950304" lon="13.1168882"><ele>1055.0</ele><time>2026-05-03T07:32:54.91Z</time></trkpt><trkpt lat="42.9949382" lon="13.1168786"><ele>1055.0</ele><time>2026-05-03T07:32:56.911Z</time></trkpt><trkpt lat="42.9948193" lon="13.1169183"><ele>1055.0</ele><time>2026-05-03T07:32:58.927Z</time></trkpt><trkpt lat="42.9947488" lon="13.1169407"><ele>1055.0</ele><time>2026-05-03T07:32:59.919Z</time></trkpt><trkpt lat="42.9946689" lon="13.116972"><ele>1056.5</ele><time>2026-05-03T07:33:00.924Z</time></trkpt><trkpt lat="42.9945907" lon="13.1170136"><ele>1058.0</ele><time>2026-05-03T07:33:01.911Z</time></trkpt><trkpt lat="42.9945161" lon="13.1170685"><ele>1059.5</ele><time>2026-05-03T07:33:02.926Z</time></trkpt><trkpt lat="42.9944439" lon="13.1171381"><ele>1061.0</ele><time>2026-05-03T07:33:03.924Z</time></trkpt><trkpt lat="42.9943774" lon="13.1172117"><ele>1062.5</ele><time>2026-05-03T07:33:04.928Z</time></trkpt><trkpt lat="42.9943138" lon="13.1172903"><ele>1064.0</ele><time>2026-05-03T07:33:05.911Z</time></trkpt><trkpt lat="42.9942545" lon="13.1173723"><ele>1066.5</ele><time>2026-05-03T07:33:06.906Z</time></trkpt><trkpt lat="42.9941964" lon="13.1174515"><ele>1069.0</ele><time>2026-05-03T07:33:07.923Z</time></trkpt><trkpt lat="42.9941448" lon="13.1175196"><ele>1071.5</ele><time>2026-05-03T07:33:08.907Z</time></trkpt><trkpt lat="42.9940959" lon="13.1175747"><ele>1074.0</ele><time>2026-05-03T07:33:09.917Z</time></trkpt><trkpt lat="42.9939797" lon="13.1176326"><ele>1076.5</ele><time>2026-05-03T07:33:11.918Z</time></trkpt><trkpt lat="42.9939148" lon="13.1176473"><ele>1079.0</ele><time>2026-05-03T07:33:12.915Z</time></trkpt><trkpt lat="42.9938483" lon="13.1176736"><ele>1079.6666666666667</ele><time>2026-05-03T07:33:13.917Z</time></trkpt><trkpt lat="42.9937847" lon="13.1177216"><ele>1080.3333333333335</ele><time>2026-05-03T07:33:14.914Z</time></trkpt><trkpt lat="42.9937229" lon="13.1177903"><ele>1081.0</ele><time>2026-05-03T07:33:15.918Z</time></trkpt><trkpt lat="42.9936583" lon="13.1178642"><ele>1081.6666666666667</ele><time>2026-05-03T07:33:16.917Z</time></trkpt><trkpt lat="42.9935869" lon="13.1179392"><ele>1082.3333333333333</ele><time>2026-05-03T07:33:17.926Z</time></trkpt><trkpt lat="42.9935113" lon="13.1180154"><ele>1083.0</ele><time>2026-05-03T07:33:18.925Z</time></trkpt><trkpt lat="42.9934354" lon="13.1180934"><ele>1083.0</ele><time>2026-05-03T07:33:19.924Z</time></trkpt><trkpt lat="42.993361" lon="13.1181686"><ele>1083.0</ele><time>2026-05-03T07:33:20.925Z</time></trkpt><trkpt lat="42.993295" lon="13.1182328"><ele>1083.0</ele><time>2026-05-03T07:33:21.923Z</time></trkpt><trkpt lat="42.9932295" lon="13.1182962"><ele>1083.0</ele><time>2026-05-03T07:33:22.915Z</time></trkpt><trkpt lat="42.993158" lon="13.1183578"><ele>1083.0</ele><time>2026-05-03T07:33:23.923Z</time></trkpt><trkpt lat="42.9930838" lon="13.1184112"><ele>1083.0</ele><time>2026-05-03T07:33:24.918Z</time></trkpt><trkpt lat="42.9930048" lon="13.1184578"><ele>1086.0</ele><time>2026-05-03T07:33:25.916Z</time></trkpt><trkpt lat="42.9929362" lon="13.1185071"><ele>1089.0</ele><time>2026-05-03T07:33:26.902Z</time></trkpt><trkpt lat="42.992878" lon="13.1185641"><ele>1092.0</ele><time>2026-05-03T07:33:27.923Z</time></trkpt><trkpt lat="42.9928302" lon="13.1186389"><ele>1095.0</ele><time>2026-05-03T07:33:28.917Z</time></trkpt><trkpt lat="42.9927899" lon="13.1187288"><ele>1098.0</ele><time>2026-05-03T07:33:29.91Z</time></trkpt><trkpt lat="42.9927523" lon="13.1188238"><ele>1101.0</ele><time>2026-05-03T07:33:30.921Z</time></trkpt><trkpt lat="42.9927135" lon="13.1189203"><ele>1101.0</ele><time>2026-05-03T07:33:31.923Z</time></trkpt><trkpt lat="42.9926701" lon="13.1190237"><ele>1101.0</ele><time>2026-05-03T07:33:32.914Z</time></trkpt><trkpt lat="42.9926211" lon="13.1191368"><ele>1101.0</ele><time>2026-05-03T07:33:33.913Z</time></trkpt><trkpt lat="42.9925669" lon="13.1192517"><ele>1101.0</ele><time>2026-05-03T07:33:34.917Z</time></trkpt><trkpt lat="42.9925089" lon="13.1193617"><ele>1101.0</ele><time>2026-05-03T07:33:35.927Z</time></trkpt><trkpt lat="42.9924506" lon="13.1194664"><ele>1101.8333333333333</ele><time>2026-05-03T07:33:36.916Z</time></trkpt><trkpt lat="42.9923877" lon="13.1195598"><ele>1102.6666666666667</ele><time>2026-05-03T07:33:37.926Z</time></trkpt><trkpt lat="42.9923221" lon="13.1196428"><ele>1103.5</ele><time>2026-05-03T07:33:38.922Z</time></trkpt><trkpt lat="42.9922551" lon="13.119717"><ele>1104.3333333333335</ele><time>2026-05-03T07:33:39.917Z</time></trkpt><trkpt lat="42.9921853" lon="13.1197843"><ele>1105.1666666666667</ele><time>2026-05-03T07:33:40.922Z</time></trkpt><trkpt lat="42.9921124" lon="13.1198526"><ele>1106.0</ele><time>2026-05-03T07:33:41.915Z</time></trkpt><trkpt lat="42.9920371" lon="13.1199257"><ele>1107.8</ele><time>2026-05-03T07:33:42.928Z</time></trkpt><trkpt lat="42.9919575" lon="13.1200019"><ele>1109.6</ele><time>2026-05-03T07:33:43.919Z</time></trkpt><trkpt lat="42.9918749" lon="13.1200809"><ele>1111.4</ele><time>2026-05-03T07:33:44.937Z</time></trkpt><trkpt lat="42.9918011" lon="13.1201531"><ele>1113.2</ele><time>2026-05-03T07:33:45.921Z</time></trkpt><trkpt lat="42.9917345" lon="13.1202232"><ele>1115.0</ele><time>2026-05-03T07:33:46.922Z</time></trkpt><trkpt lat="42.9916696" lon="13.1202979"><ele>1115.0</ele><time>2026-05-03T07:33:47.921Z</time></trkpt><trkpt lat="42.9916093" lon="13.1203724"><ele>1115.0</ele><time>2026-05-03T07:33:48.92Z</time></trkpt><trkpt lat="42.9915553" lon="13.1204421"><ele>1115.0</ele><time>2026-05-03T07:33:49.916Z</time></trkpt><trkpt lat="42.9915076" lon="13.1205091"><ele>1115.0</ele><time>2026-05-03T07:33:50.92Z</time></trkpt><trkpt lat="42.9914327" lon="13.120628"><ele>1115.0</ele><time>2026-05-03T07:33:52.9Z</time></trkpt><trkpt lat="42.9913783" lon="13.1207394"><ele>1115.0</ele><time>2026-05-03T07:33:54.918Z</time></trkpt><trkpt lat="42.991325" lon="13.1208846"><ele>1116.1666666666667</ele><time>2026-05-03T07:33:56.918Z</time></trkpt><trkpt lat="42.9912978" lon="13.1209837"><ele>1117.3333333333335</ele><time>2026-05-03T07:33:57.93Z</time></trkpt><trkpt lat="42.9912756" lon="13.1210869"><ele>1118.5</ele><time>2026-05-03T07:33:58.918Z</time></trkpt><trkpt lat="42.9912552" lon="13.1211813"><ele>1119.6666666666667</ele><time>2026-05-03T07:33:59.92Z</time></trkpt><trkpt lat="42.991237" lon="13.1212668"><ele>1120.8333333333333</ele><time>2026-05-03T07:34:00.932Z</time></trkpt><trkpt lat="42.9911983" lon="13.1214142"><ele>1122.0</ele><time>2026-05-03T07:34:02.925Z</time></trkpt><trkpt lat="42.9911533" lon="13.1215172"><ele>1123.2</ele><time>2026-05-03T07:34:04.933Z</time></trkpt><trkpt lat="42.9910734" lon="13.1216346"><ele>1124.4</ele><time>2026-05-03T07:34:06.928Z</time></trkpt><trkpt lat="42.9910129" lon="13.1217127"><ele>1125.6</ele><time>2026-05-03T07:34:07.924Z</time></trkpt><trkpt lat="42.9909417" lon="13.1218019"><ele>1126.8</ele><time>2026-05-03T07:34:08.929Z</time></trkpt><trkpt lat="42.9908652" lon="13.1218956"><ele>1128.0</ele><time>2026-05-03T07:34:09.927Z</time></trkpt><trkpt lat="42.9907948" lon="13.1219797"><ele>1128.0</ele><time>2026-05-03T07:34:10.909Z</time></trkpt><trkpt lat="42.9907324" lon="13.1220501"><ele>1128.0</ele><time>2026-05-03T07:34:11.926Z</time></trkpt><trkpt lat="42.990674" lon="13.1221134"><ele>1128.0</ele><time>2026-05-03T07:34:12.924Z</time></trkpt><trkpt lat="42.9906191" lon="13.1221732"><ele>1128.0</ele><time>2026-05-03T07:34:13.926Z</time></trkpt><trkpt lat="42.9905204" lon="13.1222925"><ele>1128.0</ele><time>2026-05-03T07:34:15.917Z</time></trkpt><trkpt lat="42.9904669" lon="13.1223593"><ele>1128.0</ele><time>2026-05-03T07:34:16.915Z</time></trkpt><trkpt lat="42.990423" lon="13.1224376"><ele>1128.0</ele><time>2026-05-03T07:34:17.924Z</time></trkpt><trkpt lat="42.9903784" lon="13.1225189"><ele>1128.0</ele><time>2026-05-03T07:34:18.924Z</time></trkpt><trkpt lat="42.9903304" lon="13.1225919"><ele>1128.0</ele><time>2026-05-03T07:34:19.913Z</time></trkpt><trkpt lat="42.9902776" lon="13.1226411"><ele>1128.0</ele><time>2026-05-03T07:34:20.914Z</time></trkpt><trkpt lat="42.9902204" lon="13.1226785"><ele>1128.0</ele><time>2026-05-03T07:34:21.916Z</time></trkpt><trkpt lat="42.9901592" lon="13.1227171"><ele>1128.0</ele><time>2026-05-03T07:34:22.905Z</time></trkpt><trkpt lat="42.9900926" lon="13.1227629"><ele>1128.0</ele><time>2026-05-03T07:34:23.91Z</time></trkpt><trkpt lat="42.9900323" lon="13.1228084"><ele>1125.4</ele><time>2026-05-03T07:34:24.917Z</time></trkpt><trkpt lat="42.9899308" lon="13.1228979"><ele>1122.8</ele><time>2026-05-03T07:34:26.915Z</time></trkpt><trkpt lat="42.9898197" lon="13.1230041"><ele>1120.2</ele><time>2026-05-03T07:34:28.928Z</time></trkpt><trkpt lat="42.9897642" lon="13.1230663"><ele>1117.6</ele><time>2026-05-03T07:34:29.919Z</time></trkpt><trkpt lat="42.9897094" lon="13.1231361"><ele>1115.0</ele><time>2026-05-03T07:34:30.926Z</time></trkpt><trkpt lat="42.9896653" lon="13.1231984"><ele>1118.3333333333335</ele><time>2026-05-03T07:34:31.923Z</time></trkpt><trkpt lat="42.9895735" lon="13.1233279"><ele>1121.6666666666667</ele><time>2026-05-03T07:34:33.912Z</time></trkpt><trkpt lat="42.9895226" lon="13.1234042"><ele>1125.0</ele><time>2026-05-03T07:34:34.908Z</time></trkpt><trkpt lat="42.9894728" lon="13.1234824"><ele>1128.3333333333333</ele><time>2026-05-03T07:34:35.914Z</time></trkpt><trkpt lat="42.9894287" lon="13.1235653"><ele>1131.6666666666665</ele><time>2026-05-03T07:34:36.914Z</time></trkpt><trkpt lat="42.9893892" lon="13.1236424"><ele>1135.0</ele><time>2026-05-03T07:34:37.917Z</time></trkpt><trkpt lat="42.9893526" lon="13.1237177"><ele>1135.0</ele><time>2026-05-03T07:34:38.918Z</time></trkpt><trkpt lat="42.9892848" lon="13.1238551"><ele>1135.0</ele><time>2026-05-03T07:34:40.923Z</time></trkpt><trkpt lat="42.9892441" lon="13.1239289"><ele>1135.0</ele><time>2026-05-03T07:34:41.925Z</time></trkpt><trkpt lat="42.9892038" lon="13.1239967"><ele>1135.0</ele><time>2026-05-03T07:34:42.921Z</time></trkpt><trkpt lat="42.9891628" lon="13.1240663"><ele>1135.0</ele><time>2026-05-03T07:34:43.926Z</time></trkpt><trkpt lat="42.9891174" lon="13.1241385"><ele>1135.0</ele><time>2026-05-03T07:34:44.916Z</time></trkpt><trkpt lat="42.9890636" lon="13.1242242"><ele>1136.1666666666665</ele><time>2026-05-03T07:34:45.93Z</time></trkpt><trkpt lat="42.9890019" lon="13.1243229"><ele>1137.3333333333333</ele><time>2026-05-03T07:34:46.924Z</time></trkpt><trkpt lat="42.9889439" lon="13.124414"><ele>1138.5</ele><time>2026-05-03T07:34:47.926Z</time></trkpt><trkpt lat="42.9888925" lon="13.1245028"><ele>1139.6666666666667</ele><time>2026-05-03T07:34:48.923Z</time></trkpt><trkpt lat="42.9888435" lon="13.1245866"><ele>1140.8333333333335</ele><time>2026-05-03T07:34:49.922Z</time></trkpt><trkpt lat="42.9887973" lon="13.1246578"><ele>1142.0</ele><time>2026-05-03T07:34:50.926Z</time></trkpt><trkpt lat="42.9887468" lon="13.1247342"><ele>1142.0</ele><time>2026-05-03T07:34:51.918Z</time></trkpt><trkpt lat="42.9886918" lon="13.1248155"><ele>1142.0</ele><time>2026-05-03T07:34:52.924Z</time></trkpt><trkpt lat="42.9886287" lon="13.1248999"><ele>1142.0</ele><time>2026-05-03T07:34:53.924Z</time></trkpt><trkpt lat="42.9885589" lon="13.124987"><ele>1142.0</ele><time>2026-05-03T07:34:54.922Z</time></trkpt><trkpt lat="42.9884882" lon="13.1250765"><ele>1142.0</ele><time>2026-05-03T07:34:55.923Z</time></trkpt><trkpt lat="42.9884217" lon="13.1251631"><ele>1143.8</ele><time>2026-05-03T07:34:56.924Z</time></trkpt><trkpt lat="42.9883616" lon="13.1252451"><ele>1145.6</ele><time>2026-05-03T07:34:57.907Z</time></trkpt><trkpt lat="42.9883124" lon="13.125317"><ele>1147.3999999999999</ele><time>2026-05-03T07:34:58.922Z</time></trkpt><trkpt lat="42.9882354" lon="13.1254436"><ele>1149.2</ele><time>2026-05-03T07:35:00.919Z</time></trkpt><trkpt lat="42.9881777" lon="13.1255647"><ele>1151.0</ele><time>2026-05-03T07:35:02.927Z</time></trkpt><trkpt lat="42.9881494" lon="13.1256626"><ele>1152.3333333333335</ele><time>2026-05-03T07:35:04.92Z</time></trkpt><trkpt lat="42.9881258" lon="13.1257785"><ele>1153.6666666666667</ele><time>2026-05-03T07:35:12.92Z</time></trkpt><trkpt lat="42.9881138" lon="13.1258722"><ele>1155.0</ele><time>2026-05-03T07:35:14.923Z</time></trkpt><trkpt lat="42.9880969" lon="13.1259682"><ele>1156.3333333333333</ele><time>2026-05-03T07:35:16.922Z</time></trkpt><trkpt lat="42.9881025" lon="13.1260773"><ele>1157.6666666666665</ele><time>2026-05-03T07:35:18.922Z</time></trkpt><trkpt lat="42.9881412" lon="13.1261747"><ele>1159.0</ele><time>2026-05-03T07:35:21.908Z</time></trkpt><trkpt lat="42.9881865" lon="13.1262543"><ele>1159.0</ele><time>2026-05-03T07:35:24.937Z</time></trkpt><trkpt lat="42.9882439" lon="13.1263134"><ele>1159.0</ele><time>2026-05-03T07:35:26.917Z</time></trkpt><trkpt lat="42.9883233" lon="13.1263524"><ele>1159.0</ele><time>2026-05-03T07:35:28.917Z</time></trkpt><trkpt lat="42.9883994" lon="13.126346"><ele>1159.0</ele><time>2026-05-03T07:35:30.925Z</time></trkpt><trkpt lat="42.9884961" lon="13.1263301"><ele>1159.0</ele><time>2026-05-03T07:35:32.923Z</time></trkpt><trkpt lat="42.9886038" lon="13.1263161"><ele>1159.0</ele><time>2026-05-03T07:35:34.911Z</time></trkpt><trkpt lat="42.9887135" lon="13.126297"><ele>1159.5</ele><time>2026-05-03T07:35:36.925Z</time></trkpt><trkpt lat="42.9888284" lon="13.1262803"><ele>1160.0</ele><time>2026-05-03T07:35:38.922Z</time></trkpt><trkpt lat="42.9888928" lon="13.1262704"><ele>1160.5</ele><time>2026-05-03T07:35:39.914Z</time></trkpt><trkpt lat="42.9889601" lon="13.1262608"><ele>1161.0</ele><time>2026-05-03T07:35:40.927Z</time></trkpt><trkpt lat="42.9890366" lon="13.1262477"><ele>1161.5</ele><time>2026-05-03T07:35:41.915Z</time></trkpt><trkpt lat="42.9891164" lon="13.1262344"><ele>1162.0</ele><time>2026-05-03T07:35:42.921Z</time></trkpt><trkpt lat="42.9891822" lon="13.1262221"><ele>1163.8</ele><time>2026-05-03T07:35:43.926Z</time></trkpt><trkpt lat="42.9892887" lon="13.126201"><ele>1165.6</ele><time>2026-05-03T07:35:45.918Z</time></trkpt><trkpt lat="42.9893877" lon="13.1261817"><ele>1167.3999999999999</ele><time>2026-05-03T07:35:47.917Z</time></trkpt><trkpt lat="42.9894926" lon="13.1261605"><ele>1169.2</ele><time>2026-05-03T07:35:49.924Z</time></trkpt><trkpt lat="42.9895936" lon="13.1261436"><ele>1171.0</ele><time>2026-05-03T07:35:51.92Z</time></trkpt><trkpt lat="42.9897081" lon="13.1261231"><ele>1171.0</ele><time>2026-05-03T07:35:53.928Z</time></trkpt><trkpt lat="42.9897816" lon="13.1261107"><ele>1171.0</ele><time>2026-05-03T07:35:55.911Z</time></trkpt><trkpt lat="42.9898877" lon="13.1261013"><ele>1171.0</ele><time>2026-05-03T07:35:57.925Z</time></trkpt><trkpt lat="42.9900056" lon="13.1260881"><ele>1171.0</ele><time>2026-05-03T07:35:59.918Z</time></trkpt><trkpt lat="42.9901217" lon="13.1260735"><ele>1171.0</ele><time>2026-05-03T07:36:01.918Z</time></trkpt><trkpt lat="42.9902274" lon="13.1260601"><ele>1173.3999999999999</ele><time>2026-05-03T07:36:03.922Z</time></trkpt><trkpt lat="42.9903367" lon="13.1260464"><ele>1175.8</ele><time>2026-05-03T07:36:05.919Z</time></trkpt><trkpt lat="42.9904539" lon="13.1260248"><ele>1178.1999999999998</ele><time>2026-05-03T07:36:07.926Z</time></trkpt><trkpt lat="42.990567" lon="13.1260061"><ele>1180.6</ele><time>2026-05-03T07:36:09.92Z</time></trkpt><trkpt lat="42.990674" lon="13.1259924"><ele>1183.0</ele><time>2026-05-03T07:36:11.922Z</time></trkpt><trkpt lat="42.990787" lon="13.1259748"><ele>1185.4</ele><time>2026-05-03T07:36:13.917Z</time></trkpt><trkpt lat="42.9908909" lon="13.125949"><ele>1187.8</ele><time>2026-05-03T07:36:15.925Z</time></trkpt><trkpt lat="42.9910012" lon="13.1259259"><ele>1190.2</ele><time>2026-05-03T07:36:17.927Z</time></trkpt><trkpt lat="42.9911143" lon="13.1259059"><ele>1192.6</ele><time>2026-05-03T07:36:19.93Z</time></trkpt><trkpt lat="42.991228" lon="13.1258852"><ele>1195.0</ele><time>2026-05-03T07:36:21.921Z</time></trkpt><trkpt lat="42.9913451" lon="13.1258659"><ele>1195.0</ele><time>2026-05-03T07:36:23.921Z</time></trkpt><trkpt lat="42.9914614" lon="13.1258576"><ele>1195.0</ele><time>2026-05-03T07:36:25.925Z</time></trkpt><trkpt lat="42.9915898" lon="13.1258563"><ele>1195.0</ele><time>2026-05-03T07:36:27.934Z</time></trkpt><trkpt lat="42.9916542" lon="13.1258564"><ele>1195.0</ele><time>2026-05-03T07:36:28.923Z</time></trkpt><trkpt lat="42.9917769" lon="13.1258548"><ele>1195.0</ele><time>2026-05-03T07:36:30.919Z</time></trkpt><trkpt lat="42.9918984" lon="13.1258496"><ele>1196.2857142857142</ele><time>2026-05-03T07:36:32.925Z</time></trkpt><trkpt lat="42.9919633" lon="13.1258506"><ele>1197.5714285714287</ele><time>2026-05-03T07:36:33.921Z</time></trkpt><trkpt lat="42.9920344" lon="13.1258509"><ele>1198.857142857143</ele><time>2026-05-03T07:36:34.911Z</time></trkpt><trkpt lat="42.9921074" lon="13.1258499"><ele>1200.142857142857</ele><time>2026-05-03T07:36:35.919Z</time></trkpt><trkpt lat="42.9921811" lon="13.1258487"><ele>1201.4285714285716</ele><time>2026-05-03T07:36:36.927Z</time></trkpt><trkpt lat="42.9922541" lon="13.1258486"><ele>1202.7142857142858</ele><time>2026-05-03T07:36:37.925Z</time></trkpt><trkpt lat="42.9923266" lon="13.1258483"><ele>1204.0</ele><time>2026-05-03T07:36:38.937Z</time></trkpt><trkpt lat="42.9924001" lon="13.1258472"><ele>1204.0</ele><time>2026-05-03T07:36:39.923Z</time></trkpt><trkpt lat="42.9924737" lon="13.1258464"><ele>1204.0</ele><time>2026-05-03T07:36:40.923Z</time></trkpt><trkpt lat="42.9925479" lon="13.1258445"><ele>1204.0</ele><time>2026-05-03T07:36:41.919Z</time></trkpt><trkpt lat="42.992616" lon="13.125844"><ele>1204.0</ele><time>2026-05-03T07:36:42.915Z</time></trkpt><trkpt lat="42.9926872" lon="13.1258439"><ele>1204.0</ele><time>2026-05-03T07:36:43.92Z</time></trkpt><trkpt lat="42.9927602" lon="13.125843"><ele>1204.0</ele><time>2026-05-03T07:36:44.925Z</time></trkpt><trkpt lat="42.9928395" lon="13.125844"><ele>1204.0</ele><time>2026-05-03T07:36:45.921Z</time></trkpt><trkpt lat="42.9929259" lon="13.1258448"><ele>1205.0</ele><time>2026-05-03T07:36:46.929Z</time></trkpt><trkpt lat="42.9930015" lon="13.1258453"><ele>1206.0</ele><time>2026-05-03T07:36:47.926Z</time></trkpt><trkpt lat="42.9930704" lon="13.1258418"><ele>1207.0</ele><time>2026-05-03T07:36:48.923Z</time></trkpt><trkpt lat="42.99318" lon="13.1258626"><ele>1208.0</ele><time>2026-05-03T07:36:50.918Z</time></trkpt><trkpt lat="42.9932816" lon="13.1259677"><ele>1209.0</ele><time>2026-05-03T07:36:52.921Z</time></trkpt><trkpt lat="42.9933738" lon="13.126055"><ele>1209.0</ele><time>2026-05-03T07:36:54.927Z</time></trkpt><trkpt lat="42.9934317" lon="13.1260993"><ele>1209.0</ele><time>2026-05-03T07:36:56.915Z</time></trkpt><trkpt lat="42.993479" lon="13.1261757"><ele>1209.0</ele><time>2026-05-03T07:37:00.923Z</time></trkpt><trkpt lat="42.9934246" lon="13.1262433"><ele>1209.0</ele><time>2026-05-03T07:37:04.928Z</time></trkpt><trkpt lat="42.993352" lon="13.1262408"><ele>1209.0</ele><time>2026-05-03T07:37:06.923Z</time></trkpt><trkpt lat="42.9932605" lon="13.1262124"><ele>1209.0</ele><time>2026-05-03T07:37:08.926Z</time></trkpt><trkpt lat="42.9931596" lon="13.1262354"><ele>1209.0</ele><time>2026-05-03T07:37:10.932Z</time></trkpt><trkpt lat="42.9930636" lon="13.1263059"><ele>1209.0</ele><time>2026-05-03T07:37:12.919Z</time></trkpt><trkpt lat="42.9929728" lon="13.1263859"><ele>1209.0</ele><time>2026-05-03T07:37:14.917Z</time></trkpt><trkpt lat="42.9928779" lon="13.126468"><ele>1209.0</ele><time>2026-05-03T07:37:16.912Z</time></trkpt><trkpt lat="42.9927875" lon="13.126549"><ele>1209.0</ele><time>2026-05-03T07:37:18.918Z</time></trkpt><trkpt lat="42.9926917" lon="13.1266299"><ele>1212.0</ele><time>2026-05-03T07:37:20.922Z</time></trkpt><trkpt lat="42.9925883" lon="13.1267255"><ele>1215.0</ele><time>2026-05-03T07:37:22.93Z</time></trkpt><trkpt lat="42.9924991" lon="13.1268081"><ele>1218.0</ele><time>2026-05-03T07:37:24.925Z</time></trkpt><trkpt lat="42.9924118" lon="13.1268895"><ele>1221.0</ele><time>2026-05-03T07:37:26.918Z</time></trkpt><trkpt lat="42.9923184" lon="13.1269794"><ele>1221.0</ele><time>2026-05-03T07:37:28.927Z</time></trkpt><trkpt lat="42.9922245" lon="13.1270729"><ele>1221.0</ele><time>2026-05-03T07:37:30.932Z</time></trkpt><trkpt lat="42.9921244" lon="13.1271636"><ele>1221.0</ele><time>2026-05-03T07:37:32.917Z</time></trkpt><trkpt lat="42.992069" lon="13.1272145"><ele>1221.0</ele><time>2026-05-03T07:37:33.918Z</time></trkpt><trkpt lat="42.9920118" lon="13.1272671"><ele>1221.0</ele><time>2026-05-03T07:37:34.931Z</time></trkpt><trkpt lat="42.9919576" lon="13.1273166"><ele>1221.0</ele><time>2026-05-03T07:37:35.916Z</time></trkpt><trkpt lat="42.9919032" lon="13.1273703"><ele>1223.1666666666667</ele><time>2026-05-03T07:37:36.921Z</time></trkpt><trkpt lat="42.9918539" lon="13.1274242"><ele>1225.3333333333333</ele><time>2026-05-03T07:37:37.923Z</time></trkpt><trkpt lat="42.9917647" lon="13.1275379"><ele>1227.5</ele><time>2026-05-03T07:37:39.922Z</time></trkpt><trkpt lat="42.991683" lon="13.1276552"><ele>1229.6666666666665</ele><time>2026-05-03T07:37:41.931Z</time></trkpt><trkpt lat="42.9916382" lon="13.1277185"><ele>1231.8333333333333</ele><time>2026-05-03T07:37:42.916Z</time></trkpt><trkpt lat="42.9915896" lon="13.1277838"><ele>1234.0</ele><time>2026-05-03T07:37:43.921Z</time></trkpt><trkpt lat="42.9915385" lon="13.1278521"><ele>1234.0</ele><time>2026-05-03T07:37:44.915Z</time></trkpt><trkpt lat="42.9914531" lon="13.1279444"><ele>1234.0</ele><time>2026-05-03T07:37:46.923Z</time></trkpt><trkpt lat="42.9913591" lon="13.1280474"><ele>1234.0</ele><time>2026-05-03T07:37:48.921Z</time></trkpt><trkpt lat="42.9913075" lon="13.1281035"><ele>1234.0</ele><time>2026-05-03T07:37:49.916Z</time></trkpt><trkpt lat="42.9912566" lon="13.1281596"><ele>1234.0</ele><time>2026-05-03T07:37:50.918Z</time></trkpt><trkpt lat="42.991175" lon="13.1282512"><ele>1237.3333333333333</ele><time>2026-05-03T07:37:52.917Z</time></trkpt><trkpt lat="42.9910918" lon="13.1283426"><ele>1240.6666666666665</ele><time>2026-05-03T07:37:54.918Z</time></trkpt><trkpt lat="42.9910087" lon="13.1284035"><ele>1244.0</ele><time>2026-05-03T07:37:56.924Z</time></trkpt><trkpt lat="42.9909847" lon="13.1285134"><ele>1247.3333333333333</ele><time>2026-05-03T07:37:59.914Z</time></trkpt><trkpt lat="42.9910464" lon="13.1285522"><ele>1250.6666666666667</ele><time>2026-05-03T07:38:01.921Z</time></trkpt><trkpt lat="42.9911354" lon="13.1285088"><ele>1254.0</ele><time>2026-05-03T07:38:03.922Z</time></trkpt><trkpt lat="42.9912389" lon="13.1284798"><ele>1254.0</ele><time>2026-05-03T07:38:05.916Z</time></trkpt><trkpt lat="42.9913494" lon="13.1284805"><ele>1254.0</ele><time>2026-05-03T07:38:07.92Z</time></trkpt><trkpt lat="42.9914615" lon="13.1285056"><ele>1254.0</ele><time>2026-05-03T07:38:09.929Z</time></trkpt><trkpt lat="42.9915247" lon="13.1285208"><ele>1254.0</ele><time>2026-05-03T07:38:10.93Z</time></trkpt><trkpt lat="42.9915888" lon="13.1285359"><ele>1254.0</ele><time>2026-05-03T07:38:11.929Z</time></trkpt><trkpt lat="42.9916551" lon="13.1285511"><ele>1254.0</ele><time>2026-05-03T07:38:12.924Z</time></trkpt><trkpt lat="42.9917273" lon="13.1285614"><ele>1255.2857142857142</ele><time>2026-05-03T07:38:13.922Z</time></trkpt><trkpt lat="42.991796" lon="13.1285642"><ele>1256.5714285714284</ele><time>2026-05-03T07:38:14.914Z</time></trkpt><trkpt lat="42.9918598" lon="13.1285622"><ele>1257.8571428571427</ele><time>2026-05-03T07:38:15.919Z</time></trkpt><trkpt lat="42.9919268" lon="13.1285568"><ele>1259.142857142857</ele><time>2026-05-03T07:38:16.925Z</time></trkpt><trkpt lat="42.9919969" lon="13.1285469"><ele>1260.4285714285713</ele><time>2026-05-03T07:38:17.921Z</time></trkpt><trkpt lat="42.9920684" lon="13.1285364"><ele>1261.7142857142856</ele><time>2026-05-03T07:38:18.929Z</time></trkpt><trkpt lat="42.9921373" lon="13.1285285"><ele>1263.0</ele><time>2026-05-03T07:38:19.915Z</time></trkpt><trkpt lat="42.9922052" lon="13.1285225"><ele>1263.0</ele><time>2026-05-03T07:38:20.913Z</time></trkpt><trkpt lat="42.9922701" lon="13.1285181"><ele>1263.0</ele><time>2026-05-03T07:38:21.921Z</time></trkpt><trkpt lat="42.9923976" lon="13.1285078"><ele>1263.0</ele><time>2026-05-03T07:38:23.92Z</time></trkpt><trkpt lat="42.992462" lon="13.128506"><ele>1263.0</ele><time>2026-05-03T07:38:24.918Z</time></trkpt><trkpt lat="42.9925262" lon="13.1285075"><ele>1263.0</ele><time>2026-05-03T07:38:25.918Z</time></trkpt><trkpt lat="42.9925916" lon="13.1285073"><ele>1263.0</ele><time>2026-05-03T07:38:26.919Z</time></trkpt><trkpt lat="42.9926581" lon="13.1285085"><ele>1264.0</ele><time>2026-05-03T07:38:27.912Z</time></trkpt><trkpt lat="42.9927231" lon="13.1285141"><ele>1265.0</ele><time>2026-05-03T07:38:28.918Z</time></trkpt><trkpt lat="42.9927895" lon="13.1285248"><ele>1266.0</ele><time>2026-05-03T07:38:29.913Z</time></trkpt><trkpt lat="42.9928589" lon="13.1285351"><ele>1267.0</ele><time>2026-05-03T07:38:30.916Z</time></trkpt><trkpt lat="42.9929277" lon="13.1285543"><ele>1268.0</ele><time>2026-05-03T07:38:31.922Z</time></trkpt><trkpt lat="42.9929927" lon="13.1285758"><ele>1269.0</ele><time>2026-05-03T07:38:32.922Z</time></trkpt><trkpt lat="42.9931042" lon="13.1286322"><ele>1269.0</ele><time>2026-05-03T07:38:34.91Z</time></trkpt><trkpt lat="42.9931736" lon="13.1286999"><ele>1269.0</ele><time>2026-05-03T07:38:36.918Z</time></trkpt><trkpt lat="42.9932201" lon="13.1287789"><ele>1269.0</ele><time>2026-05-03T07:38:38.917Z</time></trkpt><trkpt lat="42.9932643" lon="13.1288692"><ele>1269.0</ele><time>2026-05-03T07:38:40.928Z</time></trkpt><trkpt lat="42.9933126" lon="13.1289704"><ele>1269.0</ele><time>2026-05-03T07:38:42.921Z</time></trkpt><trkpt lat="42.9933273" lon="13.1290796"><ele>1269.0</ele><time>2026-05-03T07:38:44.926Z</time></trkpt><trkpt lat="42.9933047" lon="13.1291846"><ele>1270.4</ele><time>2026-05-03T07:38:46.926Z</time></trkpt><trkpt lat="42.9932578" lon="13.1292717"><ele>1271.8000000000002</ele><time>2026-05-03T07:38:48.919Z</time></trkpt><trkpt lat="42.9931799" lon="13.1293598"><ele>1273.1999999999998</ele><time>2026-05-03T07:38:50.921Z</time></trkpt><trkpt lat="42.9930774" lon="13.1294537"><ele>1274.6</ele><time>2026-05-03T07:38:52.908Z</time></trkpt><trkpt lat="42.9929705" lon="13.1295211"><ele>1276.0</ele><time>2026-05-03T07:38:54.919Z</time></trkpt><trkpt lat="42.9928649" lon="13.1295597"><ele>1276.0</ele><time>2026-05-03T07:38:56.924Z</time></trkpt><trkpt lat="42.9927478" lon="13.1296076"><ele>1276.0</ele><time>2026-05-03T07:38:58.916Z</time></trkpt><trkpt lat="42.9926841" lon="13.1296415"><ele>1276.0</ele><time>2026-05-03T07:38:59.921Z</time></trkpt><trkpt lat="42.9926206" lon="13.129678"><ele>1276.0</ele><time>2026-05-03T07:39:00.925Z</time></trkpt><trkpt lat="42.9925572" lon="13.1297162"><ele>1276.0</ele><time>2026-05-03T07:39:01.911Z</time></trkpt><trkpt lat="42.9924935" lon="13.1297544"><ele>1276.0</ele><time>2026-05-03T07:39:02.928Z</time></trkpt><trkpt lat="42.9923858" lon="13.1298233"><ele>1280.6</ele><time>2026-05-03T07:39:04.911Z</time></trkpt><trkpt lat="42.9922821" lon="13.1298986"><ele>1285.1999999999998</ele><time>2026-05-03T07:39:06.915Z</time></trkpt><trkpt lat="42.9921838" lon="13.1299714"><ele>1289.8000000000002</ele><time>2026-05-03T07:39:08.908Z</time></trkpt><trkpt lat="42.992082" lon="13.1300458"><ele>1294.4</ele><time>2026-05-03T07:39:10.923Z</time></trkpt><trkpt lat="42.9920249" lon="13.1300927"><ele>1299.0</ele><time>2026-05-03T07:39:11.917Z</time></trkpt><trkpt lat="42.9919644" lon="13.1301472"><ele>1299.0</ele><time>2026-05-03T07:39:12.909Z</time></trkpt><trkpt lat="42.9919004" lon="13.1302123"><ele>1299.0</ele><time>2026-05-03T07:39:13.917Z</time></trkpt><trkpt lat="42.9918284" lon="13.1302908"><ele>1299.0</ele><time>2026-05-03T07:39:14.912Z</time></trkpt><trkpt lat="42.9917566" lon="13.1303721"><ele>1299.0</ele><time>2026-05-03T07:39:15.922Z</time></trkpt><trkpt lat="42.9916934" lon="13.1304422"><ele>1299.0</ele><time>2026-05-03T07:39:16.919Z</time></trkpt><trkpt lat="42.9916367" lon="13.1305028"><ele>1299.0</ele><time>2026-05-03T07:39:17.914Z</time></trkpt><trkpt lat="42.9915856" lon="13.1305587"><ele>1298.0</ele><time>2026-05-03T07:39:18.912Z</time></trkpt><trkpt lat="42.9915048" lon="13.1306801"><ele>1297.0</ele><time>2026-05-03T07:39:20.935Z</time></trkpt><trkpt lat="42.9914629" lon="13.1307458"><ele>1296.0</ele><time>2026-05-03T07:39:21.918Z</time></trkpt><trkpt lat="42.9914199" lon="13.1308166"><ele>1295.0</ele><time>2026-05-03T07:39:22.911Z</time></trkpt><trkpt lat="42.9913529" lon="13.1309429"><ele>1294.0</ele><time>2026-05-03T07:39:24.922Z</time></trkpt><trkpt lat="42.9912918" lon="13.1310571"><ele>1298.0</ele><time>2026-05-03T07:39:26.916Z</time></trkpt><trkpt lat="42.9912095" lon="13.1311941"><ele>1302.0</ele><time>2026-05-03T07:39:28.915Z</time></trkpt><trkpt lat="42.9911631" lon="13.1312835"><ele>1306.0</ele><time>2026-05-03T07:39:29.913Z</time></trkpt><trkpt lat="42.9911257" lon="13.1313707"><ele>1310.0</ele><time>2026-05-03T07:39:30.919Z</time></trkpt><trkpt lat="42.9910928" lon="13.1314543"><ele>1314.0</ele><time>2026-05-03T07:39:31.925Z</time></trkpt><trkpt lat="42.9910608" lon="13.1315373"><ele>1318.0</ele><time>2026-05-03T07:39:32.924Z</time></trkpt><trkpt lat="42.9910201" lon="13.1316408"><ele>1319.6000000000001</ele><time>2026-05-03T07:39:44.922Z</time></trkpt><trkpt lat="42.9909738" lon="13.1317148"><ele>1321.2</ele><time>2026-05-03T07:39:46.936Z</time></trkpt><trkpt lat="42.9909167" lon="13.1317631"><ele>1322.8</ele><time>2026-05-03T07:39:48.924Z</time></trkpt><trkpt lat="42.9908242" lon="13.1318343"><ele>1324.4</ele><time>2026-05-03T07:39:50.913Z</time></trkpt><trkpt lat="42.9907287" lon="13.131894"><ele>1326.0</ele><time>2026-05-03T07:39:52.915Z</time></trkpt><trkpt lat="42.9906071" lon="13.1319618"><ele>1326.0</ele><time>2026-05-03T07:39:54.918Z</time></trkpt><trkpt lat="42.9905454" lon="13.131997"><ele>1326.0</ele><time>2026-05-03T07:39:55.92Z</time></trkpt><trkpt lat="42.9904338" lon="13.1320706"><ele>1326.0</ele><time>2026-05-03T07:39:57.932Z</time></trkpt><trkpt lat="42.9903279" lon="13.132155"><ele>1326.0</ele><time>2026-05-03T07:39:59.92Z</time></trkpt><trkpt lat="42.990275" lon="13.1322063"><ele>1326.0</ele><time>2026-05-03T07:40:00.908Z</time></trkpt><trkpt lat="42.990224" lon="13.1322627"><ele>1326.0</ele><time>2026-05-03T07:40:01.912Z</time></trkpt><trkpt lat="42.9901756" lon="13.1323219"><ele>1326.0</ele><time>2026-05-03T07:40:02.927Z</time></trkpt><trkpt lat="42.990121" lon="13.1323885"><ele>1326.0</ele><time>2026-05-03T07:40:03.924Z</time></trkpt><trkpt lat="42.9900561" lon="13.1324661"><ele>1326.0</ele><time>2026-05-03T07:40:04.924Z</time></trkpt><trkpt lat="42.9899844" lon="13.1325531"><ele>1326.0</ele><time>2026-05-03T07:40:05.926Z</time></trkpt><trkpt lat="42.9899169" lon="13.1326376"><ele>1326.0</ele><time>2026-05-03T07:40:06.925Z</time></trkpt><trkpt lat="42.9898555" lon="13.132716"><ele>1326.0</ele><time>2026-05-03T07:40:07.91Z</time></trkpt><trkpt lat="42.9897981" lon="13.1327911"><ele>1326.8333333333333</ele><time>2026-05-03T07:40:08.919Z</time></trkpt><trkpt lat="42.9897473" lon="13.1328563"><ele>1327.6666666666667</ele><time>2026-05-03T07:40:09.906Z</time></trkpt><trkpt lat="42.9896625" lon="13.1329504"><ele>1328.5</ele><time>2026-05-03T07:40:11.92Z</time></trkpt><trkpt lat="42.9896064" lon="13.1330226"><ele>1329.3333333333335</ele><time>2026-05-03T07:40:13.922Z</time></trkpt><trkpt lat="42.9896475" lon="13.1331319"><ele>1330.1666666666667</ele><time>2026-05-03T07:40:16.911Z</time></trkpt><trkpt lat="42.9897164" lon="13.1331052"><ele>1331.0</ele><time>2026-05-03T07:40:18.931Z</time></trkpt><trkpt lat="42.989786" lon="13.1330374"><ele>1331.0</ele><time>2026-05-03T07:40:20.913Z</time></trkpt><trkpt lat="42.9898697" lon="13.1329915"><ele>1331.0</ele><time>2026-05-03T07:40:22.92Z</time></trkpt><trkpt lat="42.989956" lon="13.1329584"><ele>1331.0</ele><time>2026-05-03T07:40:24.918Z</time></trkpt><trkpt lat="42.9900519" lon="13.1329198"><ele>1331.0</ele><time>2026-05-03T07:40:26.912Z</time></trkpt><trkpt lat="42.9901633" lon="13.1328843"><ele>1331.0</ele><time>2026-05-03T07:40:28.915Z</time></trkpt><trkpt lat="42.9902291" lon="13.1328736"><ele>1333.0</ele><time>2026-05-03T07:40:29.926Z</time></trkpt><trkpt lat="42.9902984" lon="13.13287"><ele>1335.0</ele><time>2026-05-03T07:40:30.921Z</time></trkpt><trkpt lat="42.990371" lon="13.1328774"><ele>1337.0</ele><time>2026-05-03T07:40:31.908Z</time></trkpt><trkpt lat="42.9904401" lon="13.1328939"><ele>1339.0</ele><time>2026-05-03T07:40:32.921Z</time></trkpt><trkpt lat="42.9905042" lon="13.1329197"><ele>1341.0</ele><time>2026-05-03T07:40:33.918Z</time></trkpt><trkpt lat="42.9905771" lon="13.1329522"><ele>1343.0</ele><time>2026-05-03T07:40:34.923Z</time></trkpt><trkpt lat="42.9906531" lon="13.1329859"><ele>1345.0</ele><time>2026-05-03T07:40:35.922Z</time></trkpt><trkpt lat="42.9907308" lon="13.1330212"><ele>1345.0</ele><time>2026-05-03T07:40:36.92Z</time></trkpt><trkpt lat="42.9908095" lon="13.1330547"><ele>1345.0</ele><time>2026-05-03T07:40:37.912Z</time></trkpt><trkpt lat="42.9908877" lon="13.1330877"><ele>1345.0</ele><time>2026-05-03T07:40:38.92Z</time></trkpt><trkpt lat="42.9909643" lon="13.1331176"><ele>1345.0</ele><time>2026-05-03T07:40:39.925Z</time></trkpt><trkpt lat="42.9910326" lon="13.1331402"><ele>1345.0</ele><time>2026-05-03T07:40:40.922Z</time></trkpt><trkpt lat="42.9910942" lon="13.13316"><ele>1345.0</ele><time>2026-05-03T07:40:41.92Z</time></trkpt><trkpt lat="42.991161" lon="13.1331818"><ele>1345.0</ele><time>2026-05-03T07:40:42.911Z</time></trkpt><trkpt lat="42.9912357" lon="13.1332074"><ele>1347.6666666666665</ele><time>2026-05-03T07:40:43.913Z</time></trkpt><trkpt lat="42.9913159" lon="13.1332326"><ele>1350.3333333333333</ele><time>2026-05-03T07:40:44.917Z</time></trkpt><trkpt lat="42.9913938" lon="13.1332548"><ele>1353.0</ele><time>2026-05-03T07:40:45.924Z</time></trkpt><trkpt lat="42.9914657" lon="13.1332783"><ele>1355.6666666666667</ele><time>2026-05-03T07:40:46.914Z</time></trkpt><trkpt lat="42.9915311" lon="13.1333023"><ele>1358.3333333333335</ele><time>2026-05-03T07:40:47.923Z</time></trkpt><trkpt lat="42.9916214" lon="13.1333401"><ele>1361.0</ele><time>2026-05-03T07:40:49.91Z</time></trkpt><trkpt lat="42.9916911" lon="13.1333726"><ele>1361.0</ele><time>2026-05-03T07:40:51.923Z</time></trkpt><trkpt lat="42.9917975" lon="13.1334269"><ele>1361.0</ele><time>2026-05-03T07:40:53.915Z</time></trkpt><trkpt lat="42.9918871" lon="13.1334657"><ele>1361.0</ele><time>2026-05-03T07:40:55.919Z</time></trkpt><trkpt lat="42.9919495" lon="13.1334883"><ele>1361.0</ele><time>2026-05-03T07:40:57.925Z</time></trkpt><trkpt lat="42.9920127" lon="13.1335464"><ele>1361.0</ele><time>2026-05-03T07:40:59.921Z</time></trkpt><trkpt lat="42.9920624" lon="13.1336117"><ele>1361.0</ele><time>2026-05-03T07:41:01.923Z</time></trkpt><trkpt lat="42.9921527" lon="13.133701"><ele>1361.0</ele><time>2026-05-03T07:41:10.916Z</time></trkpt><trkpt lat="42.9920983" lon="13.133653"><ele>1361.0</ele><time>2026-05-03T07:41:26.918Z</time></trkpt><trkpt lat="42.9921345" lon="13.133814"><ele>1361.0</ele><time>2026-05-03T07:45:36.927Z</time></trkpt><trkpt lat="42.9921233" lon="13.1339218"><ele>1361.0</ele><time>2026-05-03T07:45:40.916Z</time></trkpt><trkpt lat="42.9921332" lon="13.1340297"><ele>1361.0</ele><time>2026-05-03T07:45:42.918Z</time></trkpt><trkpt lat="42.992141" lon="13.1341551"><ele>1361.0</ele><time>2026-05-03T07:45:43.919Z</time></trkpt><trkpt lat="42.9920905" lon="13.1342431"><ele>1364.0</ele><time>2026-05-03T07:45:45.922Z</time></trkpt><trkpt lat="42.9920235" lon="13.1343256"><ele>1367.0</ele><time>2026-05-03T07:45:47.917Z</time></trkpt><trkpt lat="42.9919375" lon="13.1344108"><ele>1370.0</ele><time>2026-05-03T07:45:49.927Z</time></trkpt><trkpt lat="42.9918342" lon="13.1345113"><ele>1373.0</ele><time>2026-05-03T07:45:51.926Z</time></trkpt><trkpt lat="42.9917839" lon="13.1345634"><ele>1376.0</ele><time>2026-05-03T07:45:52.924Z</time></trkpt><trkpt lat="42.9917147" lon="13.1346605"><ele>1377.0</ele><time>2026-05-03T07:45:54.926Z</time></trkpt><trkpt lat="42.9916565" lon="13.1347175"><ele>1378.0</ele><time>2026-05-03T07:45:55.925Z</time></trkpt><trkpt lat="42.9915626" lon="13.1348222"><ele>1379.0</ele><time>2026-05-03T07:45:57.915Z</time></trkpt><trkpt lat="42.991515" lon="13.1348808"><ele>1380.0</ele><time>2026-05-03T07:45:58.919Z</time></trkpt><trkpt lat="42.9914683" lon="13.1349455"><ele>1381.0</ele><time>2026-05-03T07:45:59.92Z</time></trkpt><trkpt lat="42.9913913" lon="13.1350498"><ele>1382.0</ele><time>2026-05-03T07:46:01.911Z</time></trkpt><trkpt lat="42.9913028" lon="13.1351334"><ele>1385.1666666666667</ele><time>2026-05-03T07:46:03.931Z</time></trkpt><trkpt lat="42.9912077" lon="13.1352356"><ele>1388.3333333333335</ele><time>2026-05-03T07:46:05.915Z</time></trkpt><trkpt lat="42.9911567" lon="13.1352906"><ele>1391.5</ele><time>2026-05-03T07:46:06.908Z</time></trkpt><trkpt lat="42.9911052" lon="13.1353443"><ele>1394.6666666666667</ele><time>2026-05-03T07:46:07.926Z</time></trkpt><trkpt lat="42.9910291" lon="13.1354382"><ele>1397.8333333333333</ele><time>2026-05-03T07:46:09.924Z</time></trkpt><trkpt lat="42.9909866" lon="13.1355055"><ele>1401.0</ele><time>2026-05-03T07:46:11.911Z</time></trkpt><trkpt lat="42.9909495" lon="13.13559"><ele>1401.0</ele><time>2026-05-03T07:46:13.925Z</time></trkpt><trkpt lat="42.9909182" lon="13.1357084"><ele>1401.0</ele><time>2026-05-03T07:46:15.922Z</time></trkpt><trkpt lat="42.9908811" lon="13.1358289"><ele>1401.0</ele><time>2026-05-03T07:46:17.916Z</time></trkpt><trkpt lat="42.9908505" lon="13.1359428"><ele>1401.0</ele><time>2026-05-03T07:46:19.921Z</time></trkpt><trkpt lat="42.9908242" lon="13.1360692"><ele>1401.0</ele><time>2026-05-03T07:46:21.912Z</time></trkpt><trkpt lat="42.9908131" lon="13.1361744"><ele>1401.6666666666667</ele><time>2026-05-03T07:46:23.929Z</time></trkpt><trkpt lat="42.9908117" lon="13.1362695"><ele>1402.3333333333333</ele><time>2026-05-03T07:46:25.92Z</time></trkpt><trkpt lat="42.9907942" lon="13.1363817"><ele>1403.0</ele><time>2026-05-03T07:46:27.907Z</time></trkpt><trkpt lat="42.9907871" lon="13.1365127"><ele>1403.6666666666665</ele><time>2026-05-03T07:46:29.919Z</time></trkpt><trkpt lat="42.990793" lon="13.1366299"><ele>1404.3333333333333</ele><time>2026-05-03T07:46:31.912Z</time></trkpt><trkpt lat="42.9907944" lon="13.1367394"><ele>1405.0</ele><time>2026-05-03T07:46:34.917Z</time></trkpt><trkpt lat="42.9908087" lon="13.13686"><ele>1409.0</ele><time>2026-05-03T07:46:36.911Z</time></trkpt><trkpt lat="42.9907949" lon="13.1369782"><ele>1413.0</ele><time>2026-05-03T07:46:38.907Z</time></trkpt><trkpt lat="42.9907429" lon="13.1370673"><ele>1417.0</ele><time>2026-05-03T07:46:40.919Z</time></trkpt><trkpt lat="42.9906673" lon="13.1371167"><ele>1421.0</ele><time>2026-05-03T07:46:42.912Z</time></trkpt><trkpt lat="42.9905707" lon="13.1371885"><ele>1425.0</ele><time>2026-05-03T07:46:44.922Z</time></trkpt><trkpt lat="42.9904876" lon="13.1372728"><ele>1425.0</ele><time>2026-05-03T07:46:46.918Z</time></trkpt><trkpt lat="42.9904064" lon="13.1373641"><ele>1425.0</ele><time>2026-05-03T07:46:48.913Z</time></trkpt><trkpt lat="42.9903349" lon="13.1374453"><ele>1425.0</ele><time>2026-05-03T07:46:50.912Z</time></trkpt><trkpt lat="42.9902747" lon="13.1375223"><ele>1425.0</ele><time>2026-05-03T07:46:52.911Z</time></trkpt><trkpt lat="42.9902906" lon="13.1376242"><ele>1425.0</ele><time>2026-05-03T07:46:55.92Z</time></trkpt><trkpt lat="42.990354" lon="13.1376106"><ele>1425.0</ele><time>2026-05-03T07:46:57.922Z</time></trkpt><trkpt lat="42.9904134" lon="13.1375732"><ele>1428.1666666666667</ele><time>2026-05-03T07:47:00.915Z</time></trkpt><trkpt lat="42.9904845" lon="13.1375493"><ele>1431.3333333333333</ele><time>2026-05-03T07:47:03.915Z</time></trkpt><trkpt lat="42.9905647" lon="13.1375207"><ele>1434.5</ele><time>2026-05-03T07:47:09.919Z</time></trkpt><trkpt lat="42.9906464" lon="13.1375436"><ele>1437.6666666666665</ele><time>2026-05-03T07:48:33.907Z</time></trkpt><trkpt lat="42.9905781" lon="13.1375301"><ele>1440.8333333333333</ele><time>2026-05-03T07:48:55.938Z</time></trkpt><trkpt lat="42.9904892" lon="13.1375394"><ele>1444.0</ele><time>2026-05-03T07:48:57.913Z</time></trkpt><trkpt lat="42.990409" lon="13.1375581"><ele>1444.0</ele><time>2026-05-03T07:48:59.925Z</time></trkpt><trkpt lat="42.990325" lon="13.1376046"><ele>1444.0</ele><time>2026-05-03T07:49:02.924Z</time></trkpt><trkpt lat="42.9902525" lon="13.1376237"><ele>1444.0</ele><time>2026-05-03T07:49:05.927Z</time></trkpt><trkpt lat="42.9902611" lon="13.1375288"><ele>1444.0</ele><time>2026-05-03T07:49:10.922Z</time></trkpt><trkpt lat="42.9903054" lon="13.1374601"><ele>1444.0</ele><time>2026-05-03T07:49:13.926Z</time></trkpt><trkpt lat="42.9903692" lon="13.1373863"><ele>1444.0</ele><time>2026-05-03T07:49:16.914Z</time></trkpt><trkpt lat="42.9904273" lon="13.1373145"><ele>1440.8333333333333</ele><time>2026-05-03T07:49:19.92Z</time></trkpt><trkpt lat="42.9904777" lon="13.1372607"><ele>1437.6666666666665</ele><time>2026-05-03T07:49:22.917Z</time></trkpt><trkpt lat="42.9905398" lon="13.1371958"><ele>1434.5</ele><time>2026-05-03T07:49:25.916Z</time></trkpt><trkpt lat="42.9906068" lon="13.1371431"><ele>1431.3333333333333</ele><time>2026-05-03T07:49:28.921Z</time></trkpt><trkpt lat="42.9906766" lon="13.1370869"><ele>1428.1666666666667</ele><time>2026-05-03T07:49:31.92Z</time></trkpt><trkpt lat="42.9907435" lon="13.1369999"><ele>1425.0</ele><time>2026-05-03T07:49:35.911Z</time></trkpt><trkpt lat="42.9907796" lon="13.1369205"><ele>1425.0</ele><time>2026-05-03T07:49:37.926Z</time></trkpt><trkpt lat="42.9907892" lon="13.1368284"><ele>1425.0</ele><time>2026-05-03T07:49:39.926Z</time></trkpt><trkpt lat="42.9907817" lon="13.1367391"><ele>1425.0</ele><time>2026-05-03T07:49:41.914Z</time></trkpt><trkpt lat="42.9907748" lon="13.1366193"><ele>1425.0</ele><time>2026-05-03T07:49:44.923Z</time></trkpt><trkpt lat="42.9907765" lon="13.1364769"><ele>1425.0</ele><time>2026-05-03T07:49:47.929Z</time></trkpt><trkpt lat="42.9907828" lon="13.1363862"><ele>1425.0</ele><time>2026-05-03T07:49:50.916Z</time></trkpt><trkpt lat="42.9907942" lon="13.1362807"><ele>1424.8333333333333</ele><time>2026-05-03T07:49:53.918Z</time></trkpt><trkpt lat="42.9908041" lon="13.1361918"><ele>1424.6666666666667</ele><time>2026-05-03T07:49:57.918Z</time></trkpt><trkpt lat="42.9908226" lon="13.1360901"><ele>1424.5</ele><time>2026-05-03T07:50:02.913Z</time></trkpt><trkpt lat="42.9908475" lon="13.1359881"><ele>1424.3333333333335</ele><time>2026-05-03T07:50:06.921Z</time></trkpt><trkpt lat="42.9908791" lon="13.1358804"><ele>1424.1666666666667</ele><time>2026-05-03T07:50:09.919Z</time></trkpt><trkpt lat="42.9909073" lon="13.1357732"><ele>1424.0</ele><time>2026-05-03T07:50:12.921Z</time></trkpt><trkpt lat="42.9909453" lon="13.135669"><ele>1420.7142857142856</ele><time>2026-05-03T07:50:15.904Z</time></trkpt><trkpt lat="42.9909822" lon="13.1355674"><ele>1417.4285714285713</ele><time>2026-05-03T07:50:18.913Z</time></trkpt><trkpt lat="42.9910261" lon="13.135482"><ele>1414.142857142857</ele><time>2026-05-03T07:50:21.931Z</time></trkpt><trkpt lat="42.9910652" lon="13.1354145"><ele>1410.8571428571427</ele><time>2026-05-03T07:50:24.918Z</time></trkpt><trkpt lat="42.9911167" lon="13.1353493"><ele>1407.5714285714284</ele><time>2026-05-03T07:50:37.93Z</time></trkpt><trkpt lat="42.9911679" lon="13.1352941"><ele>1404.2857142857142</ele><time>2026-05-03T07:50:41.908Z</time></trkpt><trkpt lat="42.9912277" lon="13.1352369"><ele>1401.0</ele><time>2026-05-03T07:50:45.925Z</time></trkpt><trkpt lat="42.9912944" lon="13.1351804"><ele>1401.0</ele><time>2026-05-03T07:50:49.92Z</time></trkpt><trkpt lat="42.9913614" lon="13.1351193"><ele>1401.0</ele><time>2026-05-03T07:50:53.919Z</time></trkpt><trkpt lat="42.9914178" lon="13.1350651"><ele>1401.0</ele><time>2026-05-03T07:50:57.92Z</time></trkpt><trkpt lat="42.9914731" lon="13.1350041"><ele>1401.0</ele><time>2026-05-03T07:51:01.933Z</time></trkpt><trkpt lat="42.9915224" lon="13.1349408"><ele>1401.0</ele><time>2026-05-03T07:51:04.916Z</time></trkpt><trkpt lat="42.9915797" lon="13.1348618"><ele>1401.0</ele><time>2026-05-03T07:51:07.925Z</time></trkpt><trkpt lat="42.9916434" lon="13.1347827"><ele>1396.8333333333333</ele><time>2026-05-03T07:51:10.913Z</time></trkpt><trkpt lat="42.9917144" lon="13.1347"><ele>1392.6666666666667</ele><time>2026-05-03T07:51:13.913Z</time></trkpt><trkpt lat="42.9917626" lon="13.1346445"><ele>1388.5</ele><time>2026-05-03T07:51:15.923Z</time></trkpt><trkpt lat="42.9918256" lon="13.1345801"><ele>1384.3333333333335</ele><time>2026-05-03T07:51:18.926Z</time></trkpt><trkpt lat="42.991895" lon="13.1345075"><ele>1380.1666666666667</ele><time>2026-05-03T07:51:21.915Z</time></trkpt><trkpt lat="42.9919759" lon="13.1344403"><ele>1376.0</ele><time>2026-05-03T07:51:24.926Z</time></trkpt><trkpt lat="42.9920492" lon="13.1343747"><ele>1376.0000000000002</ele><time>2026-05-03T07:51:27.917Z</time></trkpt><trkpt lat="42.9921105" lon="13.1343137"><ele>1376.0</ele><time>2026-05-03T07:51:30.923Z</time></trkpt><trkpt lat="42.9921695" lon="13.1342405"><ele>1376.0</ele><time>2026-05-03T07:51:33.918Z</time></trkpt><trkpt lat="42.9922" lon="13.1341611"><ele>1376.0</ele><time>2026-05-03T07:51:36.932Z</time></trkpt><trkpt lat="42.9922196" lon="13.1340788"><ele>1376.0</ele><time>2026-05-03T07:51:39.923Z</time></trkpt><trkpt lat="42.9922201" lon="13.1339825"><ele>1376.0000000000002</ele><time>2026-05-03T07:51:42.922Z</time></trkpt><trkpt lat="42.9922003" lon="13.1338952"><ele>1376.0</ele><time>2026-05-03T07:51:54.928Z</time></trkpt><trkpt lat="42.9921637" lon="13.1337936"><ele>1373.5</ele><time>2026-05-03T07:51:58.93Z</time></trkpt><trkpt lat="42.9921303" lon="13.1337007"><ele>1371.0</ele><time>2026-05-03T07:52:01.919Z</time></trkpt><trkpt lat="42.9920798" lon="13.1335978"><ele>1368.5</ele><time>2026-05-03T07:52:04.919Z</time></trkpt><trkpt lat="42.9920269" lon="13.1335341"><ele>1366.0</ele><time>2026-05-03T07:52:06.913Z</time></trkpt><trkpt lat="42.9919676" lon="13.1334905"><ele>1363.5</ele><time>2026-05-03T07:52:08.918Z</time></trkpt><trkpt lat="42.9918876" lon="13.133443"><ele>1361.0</ele><time>2026-05-03T07:52:11.92Z</time></trkpt><trkpt lat="42.9918069" lon="13.1334156"><ele>1360.9999999999998</ele><time>2026-05-03T07:52:14.91Z</time></trkpt><trkpt lat="42.9917457" lon="13.1333931"><ele>1361.0</ele><time>2026-05-03T07:52:16.914Z</time></trkpt><trkpt lat="42.9916823" lon="13.1333683"><ele>1361.0</ele><time>2026-05-03T07:52:18.913Z</time></trkpt><trkpt lat="42.9916141" lon="13.1333402"><ele>1361.0</ele><time>2026-05-03T07:52:20.91Z</time></trkpt><trkpt lat="42.9915524" lon="13.1333146"><ele>1361.0</ele><time>2026-05-03T07:52:22.924Z</time></trkpt><trkpt lat="42.9914863" lon="13.1332873"><ele>1360.9999999999998</ele><time>2026-05-03T07:52:24.908Z</time></trkpt><trkpt lat="42.9914106" lon="13.1332606"><ele>1361.0</ele><time>2026-05-03T07:52:26.924Z</time></trkpt><trkpt lat="42.9913354" lon="13.1332351"><ele>1360.0</ele><time>2026-05-03T07:52:28.924Z</time></trkpt><trkpt lat="42.9912566" lon="13.1332078"><ele>1359.0</ele><time>2026-05-03T07:52:30.929Z</time></trkpt><trkpt lat="42.9911812" lon="13.1331815"><ele>1358.0</ele><time>2026-05-03T07:52:32.912Z</time></trkpt><trkpt lat="42.9911088" lon="13.13316"><ele>1357.0</ele><time>2026-05-03T07:52:34.919Z</time></trkpt><trkpt lat="42.9910335" lon="13.1331373"><ele>1356.0</ele><time>2026-05-03T07:52:36.926Z</time></trkpt><trkpt lat="42.9909466" lon="13.1331091"><ele>1355.0</ele><time>2026-05-03T07:52:38.92Z</time></trkpt><trkpt lat="42.9908606" lon="13.1330821"><ele>1353.5714285714287</ele><time>2026-05-03T07:52:40.917Z</time></trkpt><trkpt lat="42.9907827" lon="13.1330562"><ele>1352.142857142857</ele><time>2026-05-03T07:52:42.913Z</time></trkpt><trkpt lat="42.990715" lon="13.1330255"><ele>1350.7142857142858</ele><time>2026-05-03T07:52:44.917Z</time></trkpt><trkpt lat="42.9906378" lon="13.1329886"><ele>1349.2857142857142</ele><time>2026-05-03T07:52:46.915Z</time></trkpt><trkpt lat="42.9905709" lon="13.132959"><ele>1347.857142857143</ele><time>2026-05-03T07:52:48.927Z</time></trkpt><trkpt lat="42.990504" lon="13.1329273"><ele>1346.4285714285716</ele><time>2026-05-03T07:52:50.916Z</time></trkpt><trkpt lat="42.9904337" lon="13.1328989"><ele>1345.0</ele><time>2026-05-03T07:52:52.924Z</time></trkpt><trkpt lat="42.990362" lon="13.1328823"><ele>1345.0</ele><time>2026-05-03T07:52:54.915Z</time></trkpt><trkpt lat="42.9902859" lon="13.1328768"><ele>1345.0</ele><time>2026-05-03T07:52:56.924Z</time></trkpt><trkpt lat="42.9902092" lon="13.1328835"><ele>1345.0</ele><time>2026-05-03T07:52:58.923Z</time></trkpt><trkpt lat="42.9901361" lon="13.1329001"><ele>1345.0</ele><time>2026-05-03T07:53:00.908Z</time></trkpt><trkpt lat="42.9900626" lon="13.1329202"><ele>1345.0</ele><time>2026-05-03T07:53:02.941Z</time></trkpt><trkpt lat="42.9899887" lon="13.132945"><ele>1345.0</ele><time>2026-05-03T07:53:04.931Z</time></trkpt><trkpt lat="42.9899196" lon="13.1329687"><ele>1345.0</ele><time>2026-05-03T07:53:06.922Z</time></trkpt><trkpt lat="42.9898482" lon="13.1329951"><ele>1342.6666666666665</ele><time>2026-05-03T07:53:08.908Z</time></trkpt><trkpt lat="42.9897825" lon="13.1330338"><ele>1340.3333333333333</ele><time>2026-05-03T07:53:10.914Z</time></trkpt><trkpt lat="42.9897268" lon="13.133095"><ele>1338.0</ele><time>2026-05-03T07:53:12.92Z</time></trkpt><trkpt lat="42.9896585" lon="13.1331676"><ele>1335.6666666666667</ele><time>2026-05-03T07:53:15.908Z</time></trkpt><trkpt lat="42.9895951" lon="13.1331244"><ele>1333.3333333333335</ele><time>2026-05-03T07:53:18.93Z</time></trkpt><trkpt lat="42.9896147" lon="13.1330385"><ele>1331.0</ele><time>2026-05-03T07:53:21.927Z</time></trkpt><trkpt lat="42.9896839" lon="13.1329687"><ele>1331.0</ele><time>2026-05-03T07:53:24.826Z</time></trkpt><trkpt lat="42.9897521" lon="13.132889"><ele>1331.0</ele><time>2026-05-03T07:53:26.909Z</time></trkpt><trkpt lat="42.9898076" lon="13.1328189"><ele>1331.0</ele><time>2026-05-03T07:53:28.917Z</time></trkpt><trkpt lat="42.9898562" lon="13.1327476"><ele>1331.0</ele><time>2026-05-03T07:53:30.919Z</time></trkpt><trkpt lat="42.989903" lon="13.1326738"><ele>1331.0</ele><time>2026-05-03T07:53:32.916Z</time></trkpt><trkpt lat="42.9899572" lon="13.1326015"><ele>1331.0</ele><time>2026-05-03T07:53:34.923Z</time></trkpt><trkpt lat="42.9900133" lon="13.1325289"><ele>1330.1666666666667</ele><time>2026-05-03T07:53:36.92Z</time></trkpt><trkpt lat="42.990068" lon="13.1324596"><ele>1329.3333333333335</ele><time>2026-05-03T07:53:38.847Z</time></trkpt><trkpt lat="42.990127" lon="13.1323772"><ele>1328.5</ele><time>2026-05-03T07:53:40.918Z</time></trkpt><trkpt lat="42.9901778" lon="13.1323111"><ele>1327.6666666666667</ele><time>2026-05-03T07:53:42.867Z</time></trkpt><trkpt lat="42.9902462" lon="13.1322447"><ele>1326.8333333333333</ele><time>2026-05-03T07:53:44.914Z</time></trkpt><trkpt lat="42.9903043" lon="13.1321846"><ele>1326.0</ele><time>2026-05-03T07:53:46.916Z</time></trkpt><trkpt lat="42.9903607" lon="13.1321297"><ele>1326.0</ele><time>2026-05-03T07:53:48.926Z</time></trkpt><trkpt lat="42.990408" lon="13.132069"><ele>1326.0</ele><time>2026-05-03T07:53:50.92Z</time></trkpt><trkpt lat="42.9904839" lon="13.1320042"><ele>1326.0</ele><time>2026-05-03T07:53:53.917Z</time></trkpt><trkpt lat="42.9905671" lon="13.1319739"><ele>1326.0</ele><time>2026-05-03T07:53:56.921Z</time></trkpt><trkpt lat="42.9906303" lon="13.1319411"><ele>1326.0</ele><time>2026-05-03T07:53:58.913Z</time></trkpt><trkpt lat="42.9907054" lon="13.1319005"><ele>1326.0</ele><time>2026-05-03T07:54:00.923Z</time></trkpt><trkpt lat="42.990777" lon="13.1318527"><ele>1324.6666666666667</ele><time>2026-05-03T07:54:02.927Z</time></trkpt><trkpt lat="42.9908516" lon="13.1318015"><ele>1323.3333333333333</ele><time>2026-05-03T07:54:04.937Z</time></trkpt><trkpt lat="42.990921" lon="13.1317466"><ele>1322.0</ele><time>2026-05-03T07:54:06.913Z</time></trkpt><trkpt lat="42.9909831" lon="13.1316839"><ele>1320.6666666666665</ele><time>2026-05-03T07:54:08.912Z</time></trkpt><trkpt lat="42.991033" lon="13.1315971"><ele>1319.3333333333333</ele><time>2026-05-03T07:54:10.907Z</time></trkpt><trkpt lat="42.9910782" lon="13.1314984"><ele>1318.0</ele><time>2026-05-03T07:54:12.913Z</time></trkpt><trkpt lat="42.9911216" lon="13.1314022"><ele>1318.0</ele><time>2026-05-03T07:54:14.917Z</time></trkpt><trkpt lat="42.9911639" lon="13.1313118"><ele>1318.0</ele><time>2026-05-03T07:54:16.924Z</time></trkpt><trkpt lat="42.9912107" lon="13.1312208"><ele>1318.0</ele><time>2026-05-03T07:54:18.909Z</time></trkpt><trkpt lat="42.9912657" lon="13.1311276"><ele>1318.0</ele><time>2026-05-03T07:54:20.922Z</time></trkpt><trkpt lat="42.9913134" lon="13.1310482"><ele>1318.0</ele><time>2026-05-03T07:54:22.93Z</time></trkpt><trkpt lat="42.9913509" lon="13.1309787"><ele>1318.0</ele><time>2026-05-03T07:54:24.919Z</time></trkpt><trkpt lat="42.9913898" lon="13.1309096"><ele>1318.0</ele><time>2026-05-03T07:54:26.922Z</time></trkpt><trkpt lat="42.9914387" lon="13.1308334"><ele>1318.0</ele><time>2026-05-03T07:54:28.919Z</time></trkpt><trkpt lat="42.9914936" lon="13.1307475"><ele>1318.0</ele><time>2026-05-03T07:54:30.927Z</time></trkpt><trkpt lat="42.9915498" lon="13.130661"><ele>1318.0</ele><time>2026-05-03T07:54:32.905Z</time></trkpt><trkpt lat="42.9916151" lon="13.1305788"><ele>1318.0</ele><time>2026-05-03T07:54:34.918Z</time></trkpt><trkpt lat="42.9916804" lon="13.1305048"><ele>1318.0</ele><time>2026-05-03T07:54:36.913Z</time></trkpt><trkpt lat="42.991752" lon="13.1304317"><ele>1314.2</ele><time>2026-05-03T07:54:38.911Z</time></trkpt><trkpt lat="42.9918255" lon="13.1303463"><ele>1310.4</ele><time>2026-05-03T07:54:40.922Z</time></trkpt><trkpt lat="42.9918953" lon="13.1302715"><ele>1306.6000000000001</ele><time>2026-05-03T07:54:42.917Z</time></trkpt><trkpt lat="42.9919691" lon="13.1301975"><ele>1302.8000000000002</ele><time>2026-05-03T07:54:44.921Z</time></trkpt><trkpt lat="42.9920423" lon="13.1301294"><ele>1299.0</ele><time>2026-05-03T07:54:46.915Z</time></trkpt><trkpt lat="42.9921238" lon="13.1300635"><ele>1299.0</ele><time>2026-05-03T07:54:48.922Z</time></trkpt><trkpt lat="42.9922006" lon="13.13"><ele>1299.0</ele><time>2026-05-03T07:54:50.92Z</time></trkpt><trkpt lat="42.9922725" lon="13.1299425"><ele>1299.0</ele><time>2026-05-03T07:54:52.916Z</time></trkpt><trkpt lat="42.9923437" lon="13.1298873"><ele>1299.0</ele><time>2026-05-03T07:54:54.912Z</time></trkpt><trkpt lat="42.992415" lon="13.1298366"><ele>1299.0</ele><time>2026-05-03T07:54:56.91Z</time></trkpt><trkpt lat="42.9924867" lon="13.1297882"><ele>1299.0</ele><time>2026-05-03T07:54:58.928Z</time></trkpt><trkpt lat="42.9925568" lon="13.1297451"><ele>1295.1666666666667</ele><time>2026-05-03T07:55:00.922Z</time></trkpt><trkpt lat="42.9926286" lon="13.1296995"><ele>1291.3333333333333</ele><time>2026-05-03T07:55:02.924Z</time></trkpt><trkpt lat="42.992701" lon="13.1296633"><ele>1287.5</ele><time>2026-05-03T07:55:04.917Z</time></trkpt><trkpt lat="42.9927739" lon="13.1296268"><ele>1283.6666666666665</ele><time>2026-05-03T07:55:06.924Z</time></trkpt><trkpt lat="42.9928497" lon="13.1295913"><ele>1279.8333333333333</ele><time>2026-05-03T07:55:08.916Z</time></trkpt><trkpt lat="42.9929319" lon="13.1295554"><ele>1276.0</ele><time>2026-05-03T07:55:10.923Z</time></trkpt><trkpt lat="42.9930156" lon="13.1295139"><ele>1276.0</ele><time>2026-05-03T07:55:12.918Z</time></trkpt><trkpt lat="42.9930964" lon="13.1294609"><ele>1276.0</ele><time>2026-05-03T07:55:14.913Z</time></trkpt><trkpt lat="42.9931748" lon="13.1293959"><ele>1276.0</ele><time>2026-05-03T07:55:16.926Z</time></trkpt><trkpt lat="42.9932518" lon="13.1293259"><ele>1276.0</ele><time>2026-05-03T07:55:18.925Z</time></trkpt><trkpt lat="42.9933073" lon="13.1292334"><ele>1276.0</ele><time>2026-05-03T07:55:20.927Z</time></trkpt><trkpt lat="42.9933306" lon="13.1291206"><ele>1276.0</ele><time>2026-05-03T07:55:22.928Z</time></trkpt><trkpt lat="42.9933146" lon="13.1290229"><ele>1275.0</ele><time>2026-05-03T07:55:24.908Z</time></trkpt><trkpt lat="42.9932818" lon="13.1289417"><ele>1274.0</ele><time>2026-05-03T07:55:26.93Z</time></trkpt><trkpt lat="42.9932426" lon="13.1288669"><ele>1273.0</ele><time>2026-05-03T07:55:28.914Z</time></trkpt><trkpt lat="42.9932002" lon="13.1287913"><ele>1272.0</ele><time>2026-05-03T07:55:30.921Z</time></trkpt><trkpt lat="42.9931475" lon="13.1287186"><ele>1271.0</ele><time>2026-05-03T07:55:32.927Z</time></trkpt><trkpt lat="42.9930931" lon="13.1286689"><ele>1270.0</ele><time>2026-05-03T07:55:34.911Z</time></trkpt><trkpt lat="42.9930284" lon="13.1286297"><ele>1269.0</ele><time>2026-05-03T07:55:36.92Z</time></trkpt><trkpt lat="42.9929591" lon="13.1285958"><ele>1269.0</ele><time>2026-05-03T07:55:38.916Z</time></trkpt><trkpt lat="42.9928844" lon="13.1285707"><ele>1269.0</ele><time>2026-05-03T07:55:40.928Z</time></trkpt><trkpt lat="42.9928087" lon="13.1285468"><ele>1269.0</ele><time>2026-05-03T07:55:42.915Z</time></trkpt><trkpt lat="42.9927319" lon="13.1285277"><ele>1269.0</ele><time>2026-05-03T07:55:44.926Z</time></trkpt><trkpt lat="42.9926535" lon="13.1285172"><ele>1269.0</ele><time>2026-05-03T07:55:46.91Z</time></trkpt><trkpt lat="42.9925737" lon="13.1285121"><ele>1269.0</ele><time>2026-05-03T07:55:48.906Z</time></trkpt><trkpt lat="42.9924902" lon="13.128508"><ele>1268.0</ele><time>2026-05-03T07:55:50.924Z</time></trkpt><trkpt lat="42.9924071" lon="13.1285069"><ele>1267.0</ele><time>2026-05-03T07:55:52.928Z</time></trkpt><trkpt lat="42.9923186" lon="13.1285024"><ele>1266.0</ele><time>2026-05-03T07:55:54.923Z</time></trkpt><trkpt lat="42.9922374" lon="13.128502"><ele>1265.0</ele><time>2026-05-03T07:55:56.921Z</time></trkpt><trkpt lat="42.9921515" lon="13.1285057"><ele>1264.0</ele><time>2026-05-03T07:55:58.915Z</time></trkpt><trkpt lat="42.9920577" lon="13.128513"><ele>1263.0</ele><time>2026-05-03T07:56:00.924Z</time></trkpt><trkpt lat="42.9919576" lon="13.1285187"><ele>1263.0</ele><time>2026-05-03T07:56:02.917Z</time></trkpt><trkpt lat="42.9918641" lon="13.1285296"><ele>1263.0</ele><time>2026-05-03T07:56:04.917Z</time></trkpt><trkpt lat="42.9917671" lon="13.1285326"><ele>1263.0</ele><time>2026-05-03T07:56:06.916Z</time></trkpt><trkpt lat="42.991688" lon="13.1285305"><ele>1263.0</ele><time>2026-05-03T07:56:08.921Z</time></trkpt><trkpt lat="42.9916183" lon="13.1285188"><ele>1263.0</ele><time>2026-05-03T07:56:10.921Z</time></trkpt><trkpt lat="42.9915464" lon="13.1285029"><ele>1263.0</ele><time>2026-05-03T07:56:12.905Z</time></trkpt><trkpt lat="42.9914728" lon="13.1284872"><ele>1261.5</ele><time>2026-05-03T07:56:14.919Z</time></trkpt><trkpt lat="42.9913961" lon="13.1284694"><ele>1260.0</ele><time>2026-05-03T07:56:16.92Z</time></trkpt><trkpt lat="42.9913221" lon="13.1284576"><ele>1258.5</ele><time>2026-05-03T07:56:18.916Z</time></trkpt><trkpt lat="42.9912477" lon="13.1284527"><ele>1257.0</ele><time>2026-05-03T07:56:20.906Z</time></trkpt><trkpt lat="42.9911711" lon="13.1284672"><ele>1255.5</ele><time>2026-05-03T07:56:22.922Z</time></trkpt><trkpt lat="42.9911008" lon="13.1285117"><ele>1254.0</ele><time>2026-05-03T07:56:24.914Z</time></trkpt><trkpt lat="42.9910176" lon="13.128527"><ele>1254.0</ele><time>2026-05-03T07:56:27.919Z</time></trkpt><trkpt lat="42.9910277" lon="13.128422"><ele>1254.0</ele><time>2026-05-03T07:56:31.917Z</time></trkpt><trkpt lat="42.9910871" lon="13.1283702"><ele>1254.0</ele><time>2026-05-03T07:56:33.916Z</time></trkpt><trkpt lat="42.9911548" lon="13.1283105"><ele>1254.0</ele><time>2026-05-03T07:56:35.92Z</time></trkpt><trkpt lat="42.9912169" lon="13.1282408"><ele>1254.0</ele><time>2026-05-03T07:56:37.923Z</time></trkpt><trkpt lat="42.991277" lon="13.1281748"><ele>1254.0</ele><time>2026-05-03T07:56:39.905Z</time></trkpt><trkpt lat="42.9913364" lon="13.1281012"><ele>1252.2</ele><time>2026-05-03T07:56:41.925Z</time></trkpt><trkpt lat="42.9914018" lon="13.128028"><ele>1250.4</ele><time>2026-05-03T07:56:43.926Z</time></trkpt><trkpt lat="42.991456" lon="13.1279564"><ele>1248.6</ele><time>2026-05-03T07:56:45.92Z</time></trkpt><trkpt lat="42.9915316" lon="13.1278758"><ele>1246.8</ele><time>2026-05-03T07:56:47.915Z</time></trkpt><trkpt lat="42.9916209" lon="13.1277828"><ele>1245.0</ele><time>2026-05-03T07:56:49.908Z</time></trkpt><trkpt lat="42.9916894" lon="13.1277033"><ele>1245.0</ele><time>2026-05-03T07:56:51.913Z</time></trkpt><trkpt lat="42.9917455" lon="13.1276238"><ele>1245.0</ele><time>2026-05-03T07:56:53.912Z</time></trkpt><trkpt lat="42.9917968" lon="13.1275516"><ele>1245.0</ele><time>2026-05-03T07:56:55.911Z</time></trkpt><trkpt lat="42.9918518" lon="13.1274768"><ele>1245.0</ele><time>2026-05-03T07:56:57.915Z</time></trkpt><trkpt lat="42.991904" lon="13.1274092"><ele>1245.0</ele><time>2026-05-03T07:56:59.923Z</time></trkpt><trkpt lat="42.9919636" lon="13.127344"><ele>1245.0</ele><time>2026-05-03T07:57:01.914Z</time></trkpt><trkpt lat="42.99203" lon="13.1272813"><ele>1241.0</ele><time>2026-05-03T07:57:03.921Z</time></trkpt><trkpt lat="42.9920876" lon="13.1272302"><ele>1237.0</ele><time>2026-05-03T07:57:05.921Z</time></trkpt><trkpt lat="42.9921564" lon="13.1271588"><ele>1233.0</ele><time>2026-05-03T07:57:08.919Z</time></trkpt><trkpt lat="42.9922223" lon="13.1270911"><ele>1229.0</ele><time>2026-05-03T07:57:11.928Z</time></trkpt><trkpt lat="42.9922931" lon="13.1270109"><ele>1225.0</ele><time>2026-05-03T07:57:14.919Z</time></trkpt><trkpt lat="42.9923601" lon="13.1269442"><ele>1221.0</ele><time>2026-05-03T07:57:17.919Z</time></trkpt><trkpt lat="42.9924266" lon="13.1268878"><ele>1221.0</ele><time>2026-05-03T07:57:20.915Z</time></trkpt><trkpt lat="42.992493" lon="13.1268358"><ele>1221.0</ele><time>2026-05-03T07:57:23.912Z</time></trkpt><trkpt lat="42.9925728" lon="13.1267693"><ele>1221.0</ele><time>2026-05-03T07:57:26.922Z</time></trkpt><trkpt lat="42.992627" lon="13.126718"><ele>1221.0</ele><time>2026-05-03T07:57:28.912Z</time></trkpt><trkpt lat="42.9926837" lon="13.126667"><ele>1221.0</ele><time>2026-05-03T07:57:30.905Z</time></trkpt><trkpt lat="42.9927457" lon="13.1266117"><ele>1221.0</ele><time>2026-05-03T07:57:32.93Z</time></trkpt><trkpt lat="42.9928041" lon="13.1265546"><ele>1219.2857142857142</ele><time>2026-05-03T07:57:34.921Z</time></trkpt><trkpt lat="42.9928623" lon="13.1264979"><ele>1217.5714285714284</ele><time>2026-05-03T07:57:36.92Z</time></trkpt><trkpt lat="42.9929238" lon="13.126443"><ele>1215.8571428571427</ele><time>2026-05-03T07:57:38.92Z</time></trkpt><trkpt lat="42.992991" lon="13.1263844"><ele>1214.142857142857</ele><time>2026-05-03T07:57:40.92Z</time></trkpt><trkpt lat="42.9930513" lon="13.1263339"><ele>1212.4285714285716</ele><time>2026-05-03T07:57:42.925Z</time></trkpt><trkpt lat="42.9931137" lon="13.1262824"><ele>1210.7142857142856</ele><time>2026-05-03T07:57:44.919Z</time></trkpt><trkpt lat="42.9931721" lon="13.1262405"><ele>1209.0</ele><time>2026-05-03T07:57:46.923Z</time></trkpt><trkpt lat="42.993259" lon="13.1262139"><ele>1209.0</ele><time>2026-05-03T07:57:49.911Z</time></trkpt><trkpt lat="42.9933217" lon="13.1262257"><ele>1209.0</ele><time>2026-05-03T07:57:51.919Z</time></trkpt><trkpt lat="42.993401" lon="13.1262557"><ele>1209.0</ele><time>2026-05-03T07:57:54.922Z</time></trkpt><trkpt lat="42.9934678" lon="13.12623"><ele>1209.0</ele><time>2026-05-03T07:57:57.921Z</time></trkpt><trkpt lat="42.9934464" lon="13.1261416"><ele>1209.0</ele><time>2026-05-03T07:58:01.906Z</time></trkpt><trkpt lat="42.9933929" lon="13.1260924"><ele>1209.0</ele><time>2026-05-03T07:58:03.907Z</time></trkpt><trkpt lat="42.9933304" lon="13.1260353"><ele>1209.0</ele><time>2026-05-03T07:58:05.917Z</time></trkpt><trkpt lat="42.9932782" lon="13.1259663"><ele>1209.0</ele><time>2026-05-03T07:58:07.927Z</time></trkpt><trkpt lat="42.9932246" lon="13.125899"><ele>1209.0</ele><time>2026-05-03T07:58:09.919Z</time></trkpt><trkpt lat="42.993167" lon="13.1258637"><ele>1209.0</ele><time>2026-05-03T07:58:11.908Z</time></trkpt><trkpt lat="42.9930997" lon="13.1258529"><ele>1209.0</ele><time>2026-05-03T07:58:13.912Z</time></trkpt><trkpt lat="42.9930117" lon="13.1258567"><ele>1209.0</ele><time>2026-05-03T07:58:15.913Z</time></trkpt><trkpt lat="42.9929084" lon="13.1258539"><ele>1209.0</ele><time>2026-05-03T07:58:17.92Z</time></trkpt><trkpt lat="42.9927988" lon="13.1258498"><ele>1209.0</ele><time>2026-05-03T07:58:19.919Z</time></trkpt><trkpt lat="42.9926955" lon="13.1258565"><ele>1209.0</ele><time>2026-05-03T07:58:21.922Z</time></trkpt><trkpt lat="42.9925906" lon="13.125861"><ele>1209.0</ele><time>2026-05-03T07:58:23.925Z</time></trkpt><trkpt lat="42.9924879" lon="13.1258622"><ele>1209.0</ele><time>2026-05-03T07:58:25.91Z</time></trkpt><trkpt lat="42.9923902" lon="13.1258651"><ele>1209.0</ele><time>2026-05-03T07:58:27.914Z</time></trkpt><trkpt lat="42.9922969" lon="13.1258664"><ele>1208.0</ele><time>2026-05-03T07:58:29.923Z</time></trkpt><trkpt lat="42.9922084" lon="13.125865"><ele>1207.0</ele><time>2026-05-03T07:58:31.926Z</time></trkpt><trkpt lat="42.9921162" lon="13.1258591"><ele>1206.0</ele><time>2026-05-03T07:58:33.91Z</time></trkpt><trkpt lat="42.9920195" lon="13.1258588"><ele>1205.0</ele><time>2026-05-03T07:58:35.922Z</time></trkpt><trkpt lat="42.9919209" lon="13.1258579"><ele>1204.0</ele><time>2026-05-03T07:58:37.921Z</time></trkpt><trkpt lat="42.9918201" lon="13.125863"><ele>1204.0</ele><time>2026-05-03T07:58:39.912Z</time></trkpt><trkpt lat="42.9917318" lon="13.1258683"><ele>1204.0</ele><time>2026-05-03T07:58:41.914Z</time></trkpt><trkpt lat="42.9916404" lon="13.1258698"><ele>1204.0</ele><time>2026-05-03T07:58:43.917Z</time></trkpt><trkpt lat="42.99155" lon="13.1258686"><ele>1204.0</ele><time>2026-05-03T07:58:45.908Z</time></trkpt><trkpt lat="42.991469" lon="13.12587"><ele>1204.0</ele><time>2026-05-03T07:58:47.915Z</time></trkpt><trkpt lat="42.9913786" lon="13.1258785"><ele>1204.0</ele><time>2026-05-03T07:58:50.919Z</time></trkpt><trkpt lat="42.9913162" lon="13.1258901"><ele>1202.7142857142858</ele><time>2026-05-03T07:58:52.912Z</time></trkpt><trkpt lat="42.9912281" lon="13.1259034"><ele>1201.4285714285716</ele><time>2026-05-03T07:58:55.928Z</time></trkpt><trkpt lat="42.9911383" lon="13.1259127"><ele>1200.142857142857</ele><time>2026-05-03T07:58:58.915Z</time></trkpt><trkpt lat="42.9910704" lon="13.1259245"><ele>1198.857142857143</ele><time>2026-05-03T07:59:00.924Z</time></trkpt><trkpt lat="42.9910024" lon="13.1259323"><ele>1197.5714285714287</ele><time>2026-05-03T07:59:02.932Z</time></trkpt><trkpt lat="42.9909397" lon="13.1259474"><ele>1196.2857142857142</ele><time>2026-05-03T07:59:04.919Z</time></trkpt><trkpt lat="42.9908761" lon="13.1259596"><ele>1195.0</ele><time>2026-05-03T07:59:06.916Z</time></trkpt><trkpt lat="42.9908099" lon="13.1259757"><ele>1193.0</ele><time>2026-05-03T07:59:20.932Z</time></trkpt><trkpt lat="42.9907273" lon="13.1259937"><ele>1191.0</ele><time>2026-05-03T07:59:23.91Z</time></trkpt><trkpt lat="42.9906604" lon="13.1260025"><ele>1189.0</ele><time>2026-05-03T07:59:25.913Z</time></trkpt><trkpt lat="42.99057" lon="13.126018"><ele>1187.0</ele><time>2026-05-03T07:59:28.919Z</time></trkpt><trkpt lat="42.9904738" lon="13.1260285"><ele>1185.0</ele><time>2026-05-03T07:59:31.92Z</time></trkpt><trkpt lat="42.9903905" lon="13.1260435"><ele>1183.0</ele><time>2026-05-03T07:59:33.918Z</time></trkpt><trkpt lat="42.9903134" lon="13.1260542"><ele>1183.0</ele><time>2026-05-03T07:59:35.92Z</time></trkpt><trkpt lat="42.990248" lon="13.1260637"><ele>1183.0</ele><time>2026-05-03T07:59:37.921Z</time></trkpt><trkpt lat="42.9901778" lon="13.1260755"><ele>1183.0</ele><time>2026-05-03T07:59:39.923Z</time></trkpt><trkpt lat="42.9901074" lon="13.1260804"><ele>1183.0</ele><time>2026-05-03T07:59:41.923Z</time></trkpt><trkpt lat="42.9900423" lon="13.1260921"><ele>1183.0</ele><time>2026-05-03T07:59:43.922Z</time></trkpt><trkpt lat="42.9899549" lon="13.1260988"><ele>1183.0</ele><time>2026-05-03T07:59:46.925Z</time></trkpt><trkpt lat="42.9898431" lon="13.1261088"><ele>1181.0</ele><time>2026-05-03T07:59:49.916Z</time></trkpt><trkpt lat="42.9897638" lon="13.1261178"><ele>1179.0</ele><time>2026-05-03T07:59:51.917Z</time></trkpt><trkpt lat="42.9896921" lon="13.1261268"><ele>1177.0</ele><time>2026-05-03T07:59:53.911Z</time></trkpt><trkpt lat="42.9896022" lon="13.1261484"><ele>1175.0</ele><time>2026-05-03T07:59:56.908Z</time></trkpt><trkpt lat="42.9895269" lon="13.1261594"><ele>1173.0</ele><time>2026-05-03T07:59:58.92Z</time></trkpt><trkpt lat="42.9894559" lon="13.1261687"><ele>1171.0</ele><time>2026-05-03T08:00:00.846Z</time></trkpt><trkpt lat="42.9893688" lon="13.1261889"><ele>1171.0</ele><time>2026-05-03T08:00:02.923Z</time></trkpt><trkpt lat="42.9892879" lon="13.1262065"><ele>1171.0</ele><time>2026-05-03T08:00:04.909Z</time></trkpt><trkpt lat="42.9892095" lon="13.1262186"><ele>1171.0</ele><time>2026-05-03T08:00:06.846Z</time></trkpt><trkpt lat="42.9891224" lon="13.1262385"><ele>1171.0</ele><time>2026-05-03T08:00:08.919Z</time></trkpt><trkpt lat="42.9890208" lon="13.1262584"><ele>1171.0</ele><time>2026-05-03T08:00:10.921Z</time></trkpt><trkpt lat="42.9889192" lon="13.1262726"><ele>1169.2</ele><time>2026-05-03T08:00:12.917Z</time></trkpt><trkpt lat="42.9888031" lon="13.1262886"><ele>1167.3999999999999</ele><time>2026-05-03T08:00:14.926Z</time></trkpt><trkpt lat="42.988696" lon="13.1263027"><ele>1165.6</ele><time>2026-05-03T08:00:16.912Z</time></trkpt><trkpt lat="42.988606" lon="13.1263164"><ele>1163.8</ele><time>2026-05-03T08:00:18.918Z</time></trkpt><trkpt lat="42.9885242" lon="13.1263315"><ele>1162.0</ele><time>2026-05-03T08:00:20.929Z</time></trkpt><trkpt lat="42.9884467" lon="13.1263397"><ele>1162.0</ele><time>2026-05-03T08:00:22.912Z</time></trkpt><trkpt lat="42.9883716" lon="13.126345"><ele>1162.0</ele><time>2026-05-03T08:00:24.923Z</time></trkpt><trkpt lat="42.9882962" lon="13.1263294"><ele>1162.0</ele><time>2026-05-03T08:00:26.927Z</time></trkpt><trkpt lat="42.9882295" lon="13.1262843"><ele>1162.0</ele><time>2026-05-03T08:00:28.926Z</time></trkpt><trkpt lat="42.9881769" lon="13.1262083"><ele>1162.0</ele><time>2026-05-03T08:00:30.923Z</time></trkpt><trkpt lat="42.9881393" lon="13.1261121"><ele>1162.0</ele><time>2026-05-03T08:00:32.914Z</time></trkpt><trkpt lat="42.9881142" lon="13.1260066"><ele>1161.5</ele><time>2026-05-03T08:00:34.913Z</time></trkpt><trkpt lat="42.9881193" lon="13.1258887"><ele>1161.0</ele><time>2026-05-03T08:00:36.923Z</time></trkpt><trkpt lat="42.9881363" lon="13.1257848"><ele>1160.5</ele><time>2026-05-03T08:00:38.923Z</time></trkpt><trkpt lat="42.9881611" lon="13.1256884"><ele>1160.0</ele><time>2026-05-03T08:00:41.902Z</time></trkpt><trkpt lat="42.988145" lon="13.1255983"><ele>1159.5</ele><time>2026-05-03T08:03:31.915Z</time></trkpt><trkpt lat="42.988046" lon="13.1256271"><ele>1159.0</ele><time>2026-05-03T08:03:34.922Z</time></trkpt><trkpt lat="42.9879488" lon="13.1256556"><ele>1157.8333333333333</ele><time>2026-05-03T08:03:36.914Z</time></trkpt><trkpt lat="42.9878491" lon="13.125682"><ele>1156.6666666666665</ele><time>2026-05-03T08:03:38.935Z</time></trkpt><trkpt lat="42.9877649" lon="13.1256952"><ele>1155.5</ele><time>2026-05-03T08:03:40.922Z</time></trkpt><trkpt lat="42.9876947" lon="13.125703"><ele>1154.3333333333333</ele><time>2026-05-03T08:03:42.901Z</time></trkpt><trkpt lat="42.9875993" lon="13.1257045"><ele>1153.1666666666667</ele><time>2026-05-03T08:03:45.915Z</time></trkpt><trkpt lat="42.9875282" lon="13.125705"><ele>1152.0</ele><time>2026-05-03T08:03:47.917Z</time></trkpt><trkpt lat="42.9874544" lon="13.1256807"><ele>1152.0</ele><time>2026-05-03T08:03:49.91Z</time></trkpt><trkpt lat="42.9873784" lon="13.1256226"><ele>1152.0</ele><time>2026-05-03T08:03:51.913Z</time></trkpt><trkpt lat="42.9872985" lon="13.1255568"><ele>1152.0</ele><time>2026-05-03T08:03:53.91Z</time></trkpt><trkpt lat="42.9872157" lon="13.1255051"><ele>1152.0</ele><time>2026-05-03T08:03:55.915Z</time></trkpt><trkpt lat="42.987146" lon="13.1254621"><ele>1152.0</ele><time>2026-05-03T08:03:57.929Z</time></trkpt><trkpt lat="42.9870571" lon="13.1254211"><ele>1152.0</ele><time>2026-05-03T08:03:59.907Z</time></trkpt><trkpt lat="42.9869673" lon="13.1253758"><ele>1152.0000000000002</ele><time>2026-05-03T08:04:01.907Z</time></trkpt><trkpt lat="42.9868982" lon="13.1253408"><ele>1152.0</ele><time>2026-05-03T08:04:03.905Z</time></trkpt><trkpt lat="42.986827" lon="13.1252908"><ele>1152.0</ele><time>2026-05-03T08:04:05.912Z</time></trkpt><trkpt lat="42.9867643" lon="13.1252336"><ele>1152.0</ele><time>2026-05-03T08:04:08.917Z</time></trkpt><trkpt lat="42.9867016" lon="13.1252563"><ele>1152.0</ele><time>2026-05-03T08:04:13.919Z</time></trkpt><trkpt lat="42.9867833" lon="13.1252952"><ele>1152.0000000000002</ele><time>2026-05-03T08:04:17.913Z</time></trkpt><trkpt lat="42.9868505" lon="13.125296"><ele>1152.0</ele><time>2026-05-03T08:04:20.921Z</time></trkpt><trkpt lat="42.9869403" lon="13.1253455"><ele>1152.0</ele><time>2026-05-03T08:04:23.918Z</time></trkpt><trkpt lat="42.9870155" lon="13.1253812"><ele>1152.0</ele><time>2026-05-03T08:04:25.917Z</time></trkpt><trkpt lat="42.9870885" lon="13.1254161"><ele>1152.0</ele><time>2026-05-03T08:04:27.907Z</time></trkpt><trkpt lat="42.9871567" lon="13.1254501"><ele>1152.0</ele><time>2026-05-03T08:04:29.915Z</time></trkpt><trkpt lat="42.9872357" lon="13.1254879"><ele>1152.0</ele><time>2026-05-03T08:04:32.923Z</time></trkpt><trkpt lat="42.9873074" lon="13.1255182"><ele>1152.0</ele><time>2026-05-03T08:04:36.915Z</time></trkpt><trkpt lat="42.987369" lon="13.125572"><ele>1152.0000000000002</ele><time>2026-05-03T08:04:38.918Z</time></trkpt><trkpt lat="42.9874286" lon="13.1256167"><ele>1152.0</ele><time>2026-05-03T08:04:40.923Z</time></trkpt><trkpt lat="42.9874917" lon="13.1256586"><ele>1152.0</ele><time>2026-05-03T08:04:47.921Z</time></trkpt><trkpt lat="42.9875494" lon="13.1257025"><ele>1152.0</ele><time>2026-05-03T08:04:56.92Z</time></trkpt><trkpt lat="42.9876147" lon="13.1256935"><ele>1152.0</ele><time>2026-05-03T08:05:08.916Z</time></trkpt><trkpt lat="42.9877026" lon="13.1256817"><ele>1152.0000000000002</ele><time>2026-05-03T08:05:11.918Z</time></trkpt><trkpt lat="42.9877784" lon="13.1256753"><ele>1152.0</ele><time>2026-05-03T08:05:13.918Z</time></trkpt><trkpt lat="42.9878636" lon="13.1256643"><ele>1151.8333333333333</ele><time>2026-05-03T08:05:15.917Z</time></trkpt><trkpt lat="42.9879413" lon="13.1256452"><ele>1151.6666666666667</ele><time>2026-05-03T08:05:17.913Z</time></trkpt><trkpt lat="42.9880071" lon="13.1256265"><ele>1151.5</ele><time>2026-05-03T08:05:19.919Z</time></trkpt><trkpt lat="42.9880846" lon="13.1256078"><ele>1151.3333333333335</ele><time>2026-05-03T08:05:22.921Z</time></trkpt><trkpt lat="42.9881614" lon="13.1256086"><ele>1151.1666666666667</ele><time>2026-05-03T08:05:25.911Z</time></trkpt><trkpt lat="42.9882127" lon="13.1255162"><ele>1151.0</ele><time>2026-05-03T08:05:37.915Z</time></trkpt><trkpt lat="42.9882758" lon="13.1253923"><ele>1152.0</ele><time>2026-05-03T08:05:39.926Z</time></trkpt><trkpt lat="42.988352" lon="13.1252717"><ele>1153.0</ele><time>2026-05-03T08:05:41.926Z</time></trkpt><trkpt lat="42.9884248" lon="13.1251681"><ele>1154.0</ele><time>2026-05-03T08:05:43.927Z</time></trkpt><trkpt lat="42.9884974" lon="13.1250757"><ele>1155.0</ele><time>2026-05-03T08:05:45.925Z</time></trkpt><trkpt lat="42.9885658" lon="13.1249897"><ele>1156.0</ele><time>2026-05-03T08:05:47.922Z</time></trkpt><trkpt lat="42.988633" lon="13.12491"><ele>1153.2</ele><time>2026-05-03T08:05:49.92Z</time></trkpt><trkpt lat="42.9886935" lon="13.1248358"><ele>1150.3999999999999</ele><time>2026-05-03T08:05:51.922Z</time></trkpt><trkpt lat="42.9887495" lon="13.1247593"><ele>1147.6</ele><time>2026-05-03T08:05:53.928Z</time></trkpt><trkpt lat="42.9887978" lon="13.1246829"><ele>1144.8</ele><time>2026-05-03T08:05:55.918Z</time></trkpt><trkpt lat="42.9888605" lon="13.1245754"><ele>1142.0</ele><time>2026-05-03T08:05:57.925Z</time></trkpt><trkpt lat="42.9889331" lon="13.1244487"><ele>1142.0</ele><time>2026-05-03T08:05:59.909Z</time></trkpt><trkpt lat="42.9889981" lon="13.1243443"><ele>1142.0</ele><time>2026-05-03T08:06:01.92Z</time></trkpt><trkpt lat="42.9890574" lon="13.1242548"><ele>1142.0</ele><time>2026-05-03T08:06:03.917Z</time></trkpt><trkpt lat="42.989115" lon="13.1241716"><ele>1142.0</ele><time>2026-05-03T08:06:05.931Z</time></trkpt><trkpt lat="42.9891732" lon="13.124084"><ele>1142.0</ele><time>2026-05-03T08:06:07.919Z</time></trkpt><trkpt lat="42.9892326" lon="13.1239918"><ele>1142.0</ele><time>2026-05-03T08:06:09.942Z</time></trkpt><trkpt lat="42.9892815" lon="13.1239117"><ele>1141.0</ele><time>2026-05-03T08:06:11.912Z</time></trkpt><trkpt lat="42.9893224" lon="13.1238303"><ele>1140.0</ele><time>2026-05-03T08:06:13.925Z</time></trkpt><trkpt lat="42.9893671" lon="13.1237424"><ele>1139.0</ele><time>2026-05-03T08:06:15.93Z</time></trkpt><trkpt lat="42.9894041" lon="13.123666"><ele>1138.0</ele><time>2026-05-03T08:06:17.936Z</time></trkpt><trkpt lat="42.9894406" lon="13.1235931"><ele>1137.0</ele><time>2026-05-03T08:06:19.924Z</time></trkpt><trkpt lat="42.9894844" lon="13.1235169"><ele>1136.0</ele><time>2026-05-03T08:06:21.913Z</time></trkpt><trkpt lat="42.9895334" lon="13.1234386"><ele>1135.0</ele><time>2026-05-03T08:06:23.922Z</time></trkpt><trkpt lat="42.9895918" lon="13.1233552"><ele>1135.0</ele><time>2026-05-03T08:06:25.916Z</time></trkpt><trkpt lat="42.9896592" lon="13.1232657"><ele>1135.0</ele><time>2026-05-03T08:06:27.927Z</time></trkpt><trkpt lat="42.9897252" lon="13.123184"><ele>1135.0</ele><time>2026-05-03T08:06:29.923Z</time></trkpt><trkpt lat="42.9898032" lon="13.1230862"><ele>1135.0</ele><time>2026-05-03T08:06:31.936Z</time></trkpt><trkpt lat="42.989886" lon="13.1229886"><ele>1135.0</ele><time>2026-05-03T08:06:33.916Z</time></trkpt><trkpt lat="42.9899687" lon="13.1229054"><ele>1133.6</ele><time>2026-05-03T08:06:35.911Z</time></trkpt><trkpt lat="42.9900616" lon="13.1228295"><ele>1132.2</ele><time>2026-05-03T08:06:37.919Z</time></trkpt><trkpt lat="42.990165" lon="13.122751"><ele>1130.8</ele><time>2026-05-03T08:06:39.911Z</time></trkpt><trkpt lat="42.9902578" lon="13.1226841"><ele>1129.4</ele><time>2026-05-03T08:06:41.924Z</time></trkpt><trkpt lat="42.9903382" lon="13.1226149"><ele>1128.0</ele><time>2026-05-03T08:06:43.924Z</time></trkpt><trkpt lat="42.9904096" lon="13.1225243"><ele>1128.0</ele><time>2026-05-03T08:06:45.926Z</time></trkpt><trkpt lat="42.9904729" lon="13.1224173"><ele>1128.0</ele><time>2026-05-03T08:06:47.916Z</time></trkpt><trkpt lat="42.9905365" lon="13.122322"><ele>1128.0</ele><time>2026-05-03T08:06:49.914Z</time></trkpt><trkpt lat="42.9905996" lon="13.1222352"><ele>1128.0</ele><time>2026-05-03T08:06:51.911Z</time></trkpt><trkpt lat="42.9906755" lon="13.1221516"><ele>1128.0</ele><time>2026-05-03T08:06:53.911Z</time></trkpt><trkpt lat="42.9907487" lon="13.1220705"><ele>1128.0</ele><time>2026-05-03T08:06:55.91Z</time></trkpt><trkpt lat="42.9908122" lon="13.1219979"><ele>1128.0</ele><time>2026-05-03T08:06:57.916Z</time></trkpt><trkpt lat="42.9908683" lon="13.1219369"><ele>1128.0</ele><time>2026-05-03T08:06:59.922Z</time></trkpt><trkpt lat="42.9909412" lon="13.1218331"><ele>1128.0</ele><time>2026-05-03T08:09:20.938Z</time></trkpt><trkpt lat="42.9910244" lon="13.1217292"><ele>1128.0</ele><time>2026-05-03T08:09:22.932Z</time></trkpt><trkpt lat="42.9911157" lon="13.1216123"><ele>1127.0</ele><time>2026-05-03T08:09:24.917Z</time></trkpt><trkpt lat="42.9911847" lon="13.1215109"><ele>1126.0</ele><time>2026-05-03T08:09:26.937Z</time></trkpt><trkpt lat="42.9912261" lon="13.1214065"><ele>1125.0</ele><time>2026-05-03T08:09:28.912Z</time></trkpt><trkpt lat="42.9912508" lon="13.1213179"><ele>1124.0</ele><time>2026-05-03T08:09:29.923Z</time></trkpt><trkpt lat="42.9912753" lon="13.1212117"><ele>1123.0</ele><time>2026-05-03T08:09:30.913Z</time></trkpt><trkpt lat="42.9913022" lon="13.1210949"><ele>1122.0</ele><time>2026-05-03T08:09:31.914Z</time></trkpt><trkpt lat="42.9913236" lon="13.1209997"><ele>1122.0</ele><time>2026-05-03T08:09:32.93Z</time></trkpt><trkpt lat="42.9913424" lon="13.1209139"><ele>1122.0</ele><time>2026-05-03T08:09:33.922Z</time></trkpt><trkpt lat="42.9913917" lon="13.1207598"><ele>1122.0</ele><time>2026-05-03T08:09:35.913Z</time></trkpt><trkpt lat="42.9914316" lon="13.1206767"><ele>1122.0</ele><time>2026-05-03T08:09:36.914Z</time></trkpt><trkpt lat="42.9914714" lon="13.1206028"><ele>1122.0</ele><time>2026-05-03T08:09:37.924Z</time></trkpt><trkpt lat="42.9915129" lon="13.1205369"><ele>1122.0</ele><time>2026-05-03T08:09:38.934Z</time></trkpt><trkpt lat="42.9915618" lon="13.1204671"><ele>1121.0</ele><time>2026-05-03T08:09:39.923Z</time></trkpt><trkpt lat="42.9916161" lon="13.1203991"><ele>1120.0</ele><time>2026-05-03T08:09:40.915Z</time></trkpt><trkpt lat="42.9916689" lon="13.120334"><ele>1119.0</ele><time>2026-05-03T08:09:41.923Z</time></trkpt><trkpt lat="42.991719" lon="13.1202753"><ele>1118.0</ele><time>2026-05-03T08:09:42.931Z</time></trkpt><trkpt lat="42.9918198" lon="13.1201667"><ele>1117.0</ele><time>2026-05-03T08:09:44.925Z</time></trkpt><trkpt lat="42.9918761" lon="13.1201113"><ele>1116.0</ele><time>2026-05-03T08:09:45.932Z</time></trkpt><trkpt lat="42.9919365" lon="13.120053"><ele>1116.0</ele><time>2026-05-03T08:09:46.909Z</time></trkpt><trkpt lat="42.9919914" lon="13.1199968"><ele>1116.0</ele><time>2026-05-03T08:09:47.923Z</time></trkpt><trkpt lat="42.9920441" lon="13.1199449"><ele>1116.0</ele><time>2026-05-03T08:09:48.929Z</time></trkpt><trkpt lat="42.9921384" lon="13.1198519"><ele>1116.0</ele><time>2026-05-03T08:09:50.933Z</time></trkpt><trkpt lat="42.9922266" lon="13.1197662"><ele>1116.0</ele><time>2026-05-03T08:09:52.922Z</time></trkpt><trkpt lat="42.9923125" lon="13.1196754"><ele>1114.2</ele><time>2026-05-03T08:09:54.928Z</time></trkpt><trkpt lat="42.9923974" lon="13.1195759"><ele>1112.3999999999999</ele><time>2026-05-03T08:09:56.935Z</time></trkpt><trkpt lat="42.9924837" lon="13.1194568"><ele>1110.6</ele><time>2026-05-03T08:09:58.926Z</time></trkpt><trkpt lat="42.9925627" lon="13.1193165"><ele>1108.8</ele><time>2026-05-03T08:10:00.916Z</time></trkpt><trkpt lat="42.9926048" lon="13.1192406"><ele>1107.0</ele><time>2026-05-03T08:10:01.928Z</time></trkpt><trkpt lat="42.9926422" lon="13.1191628"><ele>1107.0</ele><time>2026-05-03T08:10:02.945Z</time></trkpt><trkpt lat="42.9926764" lon="13.1190886"><ele>1107.0</ele><time>2026-05-03T08:10:03.92Z</time></trkpt><trkpt lat="42.9927326" lon="13.1189519"><ele>1107.0</ele><time>2026-05-03T08:10:05.924Z</time></trkpt><trkpt lat="42.9927808" lon="13.1188323"><ele>1107.0</ele><time>2026-05-03T08:10:07.929Z</time></trkpt><trkpt lat="42.9928387" lon="13.1187072"><ele>1107.0</ele><time>2026-05-03T08:10:09.922Z</time></trkpt><trkpt lat="42.9929001" lon="13.1185919"><ele>1105.8</ele><time>2026-05-03T08:10:11.916Z</time></trkpt><trkpt lat="42.9929855" lon="13.1184949"><ele>1104.6</ele><time>2026-05-03T08:10:13.926Z</time></trkpt><trkpt lat="42.9930868" lon="13.1184243"><ele>1103.3999999999999</ele><time>2026-05-03T08:10:15.92Z</time></trkpt><trkpt lat="42.993175" lon="13.1183626"><ele>1102.2</ele><time>2026-05-03T08:10:17.924Z</time></trkpt><trkpt lat="42.9932564" lon="13.1183008"><ele>1101.0</ele><time>2026-05-03T08:10:19.923Z</time></trkpt><trkpt lat="42.9933334" lon="13.1182216"><ele>1097.3999999999999</ele><time>2026-05-03T08:10:21.915Z</time></trkpt><trkpt lat="42.9934111" lon="13.1181501"><ele>1093.8</ele><time>2026-05-03T08:10:23.916Z</time></trkpt><trkpt lat="42.9934851" lon="13.1180767"><ele>1090.1999999999998</ele><time>2026-05-03T08:10:25.919Z</time></trkpt><trkpt lat="42.9935651" lon="13.1179987"><ele>1086.6</ele><time>2026-05-03T08:10:27.917Z</time></trkpt><trkpt lat="42.9936466" lon="13.1179195"><ele>1083.0</ele><time>2026-05-03T08:10:29.908Z</time></trkpt><trkpt lat="42.9937239" lon="13.1178366"><ele>1083.0</ele><time>2026-05-03T08:10:31.911Z</time></trkpt><trkpt lat="42.9937947" lon="13.1177539"><ele>1083.0</ele><time>2026-05-03T08:10:33.91Z</time></trkpt><trkpt lat="42.9938731" lon="13.1176867"><ele>1083.0</ele><time>2026-05-03T08:10:35.918Z</time></trkpt><trkpt lat="42.9939741" lon="13.1176536"><ele>1083.0</ele><time>2026-05-03T08:10:37.924Z</time></trkpt><trkpt lat="42.9940761" lon="13.1176242"><ele>1083.0</ele><time>2026-05-03T08:10:39.921Z</time></trkpt><trkpt lat="42.9941543" lon="13.1175656"><ele>1082.4285714285716</ele><time>2026-05-03T08:10:41.91Z</time></trkpt><trkpt lat="42.9941995" lon="13.1175034"><ele>1081.857142857143</ele><time>2026-05-03T08:10:43.922Z</time></trkpt><trkpt lat="42.994265" lon="13.1174011"><ele>1081.2857142857142</ele><time>2026-05-03T08:10:46.911Z</time></trkpt><trkpt lat="42.9943201" lon="13.1173297"><ele>1080.7142857142858</ele><time>2026-05-03T08:10:48.913Z</time></trkpt><trkpt lat="42.9943666" lon="13.1172705"><ele>1080.142857142857</ele><time>2026-05-03T08:10:50.92Z</time></trkpt><trkpt lat="42.9944215" lon="13.1172192"><ele>1079.5714285714287</ele><time>2026-05-03T08:10:52.917Z</time></trkpt><trkpt lat="42.9944835" lon="13.1171529"><ele>1079.0</ele><time>2026-05-03T08:10:54.916Z</time></trkpt><trkpt lat="42.9945539" lon="13.1170876"><ele>1076.5</ele><time>2026-05-03T08:10:56.918Z</time></trkpt><trkpt lat="42.994643" lon="13.1170254"><ele>1074.0</ele><time>2026-05-03T08:10:58.918Z</time></trkpt><trkpt lat="42.9947396" lon="13.1169754"><ele>1071.5</ele><time>2026-05-03T08:11:00.924Z</time></trkpt><trkpt lat="42.9948231" lon="13.1169469"><ele>1069.0</ele><time>2026-05-03T08:11:02.916Z</time></trkpt><trkpt lat="42.9948967" lon="13.1169226"><ele>1066.5</ele><time>2026-05-03T08:11:04.921Z</time></trkpt><trkpt lat="42.994972" lon="13.1168947"><ele>1064.0</ele><time>2026-05-03T08:11:06.911Z</time></trkpt><trkpt lat="42.9950463" lon="13.1168944"><ele>1064.0</ele><time>2026-05-03T08:11:08.916Z</time></trkpt><trkpt lat="42.9951142" lon="13.1168777"><ele>1064.0</ele><time>2026-05-03T08:11:10.909Z</time></trkpt><trkpt lat="42.9951347" lon="13.1167857"><ele>1064.0</ele><time>2026-05-03T08:11:12.913Z</time></trkpt><trkpt lat="42.9950796" lon="13.1167078"><ele>1064.0</ele><time>2026-05-03T08:11:14.927Z</time></trkpt><trkpt lat="42.9950001" lon="13.1166518"><ele>1064.0</ele><time>2026-05-03T08:11:16.914Z</time></trkpt><trkpt lat="42.9949059" lon="13.1166066"><ele>1064.0</ele><time>2026-05-03T08:11:18.92Z</time></trkpt><trkpt lat="42.994818" lon="13.1165531"><ele>1061.2</ele><time>2026-05-03T08:11:20.918Z</time></trkpt><trkpt lat="42.9947298" lon="13.1165086"><ele>1058.4</ele><time>2026-05-03T08:11:22.922Z</time></trkpt><trkpt lat="42.9946474" lon="13.1164662"><ele>1055.6</ele><time>2026-05-03T08:11:24.919Z</time></trkpt><trkpt lat="42.994567" lon="13.1164312"><ele>1052.8</ele><time>2026-05-03T08:11:26.932Z</time></trkpt><trkpt lat="42.9944773" lon="13.1163667"><ele>1050.0</ele><time>2026-05-03T08:11:28.918Z</time></trkpt><trkpt lat="42.9943841" lon="13.1162917"><ele>1050.0</ele><time>2026-05-03T08:11:30.915Z</time></trkpt><trkpt lat="42.9942993" lon="13.1162192"><ele>1050.0</ele><time>2026-05-03T08:11:32.919Z</time></trkpt><trkpt lat="42.9942082" lon="13.116171"><ele>1050.0</ele><time>2026-05-03T08:11:34.916Z</time></trkpt><trkpt lat="42.9941184" lon="13.116146"><ele>1050.0</ele><time>2026-05-03T08:11:36.921Z</time></trkpt><trkpt lat="42.9940519" lon="13.1160757"><ele>1050.0</ele><time>2026-05-03T08:11:38.921Z</time></trkpt><trkpt lat="42.9940415" lon="13.1159728"><ele>1050.0</ele><time>2026-05-03T08:11:40.919Z</time></trkpt><trkpt lat="42.9940843" lon="13.1158917"><ele>1050.0</ele><time>2026-05-03T08:11:42.928Z</time></trkpt><trkpt lat="42.9941667" lon="13.1158426"><ele>1050.0</ele><time>2026-05-03T08:11:44.927Z</time></trkpt><trkpt lat="42.994257" lon="13.1157891"><ele>1050.0</ele><time>2026-05-03T08:11:46.927Z</time></trkpt><trkpt lat="42.9943496" lon="13.1157319"><ele>1050.0</ele><time>2026-05-03T08:11:48.912Z</time></trkpt><trkpt lat="42.9944504" lon="13.1156854"><ele>1050.0</ele><time>2026-05-03T08:11:50.926Z</time></trkpt><trkpt lat="42.9945474" lon="13.115661"><ele>1047.5</ele><time>2026-05-03T08:11:52.911Z</time></trkpt><trkpt lat="42.9946188" lon="13.1156224"><ele>1045.0</ele><time>2026-05-03T08:11:54.908Z</time></trkpt><trkpt lat="42.9946322" lon="13.1155295"><ele>1042.5</ele><time>2026-05-03T08:11:56.921Z</time></trkpt><trkpt lat="42.9946003" lon="13.115428"><ele>1040.0</ele><time>2026-05-03T08:11:58.922Z</time></trkpt><trkpt lat="42.9945118" lon="13.1153516"><ele>1037.5</ele><time>2026-05-03T08:12:00.918Z</time></trkpt><trkpt lat="42.9944249" lon="13.1152821"><ele>1035.0</ele><time>2026-05-03T08:12:02.926Z</time></trkpt><trkpt lat="42.9943431" lon="13.1152229"><ele>1035.0</ele><time>2026-05-03T08:12:04.925Z</time></trkpt><trkpt lat="42.9942617" lon="13.1151675"><ele>1035.0</ele><time>2026-05-03T08:12:06.91Z</time></trkpt><trkpt lat="42.9941698" lon="13.1151008"><ele>1035.0</ele><time>2026-05-03T08:12:08.929Z</time></trkpt><trkpt lat="42.9940741" lon="13.1150393"><ele>1035.0</ele><time>2026-05-03T08:12:10.907Z</time></trkpt><trkpt lat="42.9939846" lon="13.1149834"><ele>1035.0</ele><time>2026-05-03T08:12:12.918Z</time></trkpt><trkpt lat="42.9938902" lon="13.1149369"><ele>1035.1666666666667</ele><time>2026-05-03T08:12:14.913Z</time></trkpt><trkpt lat="42.9937994" lon="13.1149107"><ele>1035.3333333333333</ele><time>2026-05-03T08:12:16.916Z</time></trkpt><trkpt lat="42.9937155" lon="13.1148731"><ele>1035.5</ele><time>2026-05-03T08:12:18.916Z</time></trkpt><trkpt lat="42.9936871" lon="13.1147826"><ele>1035.6666666666665</ele><time>2026-05-03T08:12:20.919Z</time></trkpt><trkpt lat="42.9937354" lon="13.1146935"><ele>1035.8333333333333</ele><time>2026-05-03T08:12:22.918Z</time></trkpt><trkpt lat="42.9938108" lon="13.1146249"><ele>1036.0</ele><time>2026-05-03T08:12:24.92Z</time></trkpt><trkpt lat="42.9938889" lon="13.1145604"><ele>1032.8</ele><time>2026-05-03T08:12:26.917Z</time></trkpt><trkpt lat="42.993969" lon="13.1144789"><ele>1029.6</ele><time>2026-05-03T08:12:28.917Z</time></trkpt><trkpt lat="42.9940542" lon="13.1143727"><ele>1026.4</ele><time>2026-05-03T08:12:30.916Z</time></trkpt><trkpt lat="42.9941285" lon="13.11428"><ele>1023.2</ele><time>2026-05-03T08:12:32.917Z</time></trkpt><trkpt lat="42.9941958" lon="13.1141943"><ele>1020.0</ele><time>2026-05-03T08:12:34.913Z</time></trkpt><trkpt lat="42.9942608" lon="13.1141236"><ele>1017.0</ele><time>2026-05-03T08:12:36.92Z</time></trkpt><trkpt lat="42.9943149" lon="13.1140447"><ele>1014.0</ele><time>2026-05-03T08:12:38.926Z</time></trkpt><trkpt lat="42.9943815" lon="13.1139839"><ele>1011.0</ele><time>2026-05-03T08:12:40.914Z</time></trkpt><trkpt lat="42.9944551" lon="13.1139515"><ele>1008.0</ele><time>2026-05-03T08:12:42.912Z</time></trkpt><trkpt lat="42.994531" lon="13.1139347"><ele>1005.0</ele><time>2026-05-03T08:12:44.925Z</time></trkpt><trkpt lat="42.994598" lon="13.1139411"><ele>1002.0</ele><time>2026-05-03T08:12:46.909Z</time></trkpt><trkpt lat="42.9946652" lon="13.1139697"><ele>1002.0</ele><time>2026-05-03T08:12:48.915Z</time></trkpt><trkpt lat="42.9947479" lon="13.113992"><ele>1002.0</ele><time>2026-05-03T08:12:50.912Z</time></trkpt><trkpt lat="42.9948341" lon="13.1139905"><ele>1002.0</ele><time>2026-05-03T08:12:52.914Z</time></trkpt><trkpt lat="42.9949253" lon="13.1139764"><ele>1002.0</ele><time>2026-05-03T08:12:54.919Z</time></trkpt><trkpt lat="42.9950216" lon="13.1139473"><ele>1002.0</ele><time>2026-05-03T08:12:56.922Z</time></trkpt><trkpt lat="42.9951199" lon="13.1139333"><ele>1001.2</ele><time>2026-05-03T08:12:58.916Z</time></trkpt><trkpt lat="42.9952225" lon="13.1139279"><ele>1000.4000000000001</ele><time>2026-05-03T08:13:00.91Z</time></trkpt><trkpt lat="42.9953237" lon="13.1139144"><ele>999.5999999999999</ele><time>2026-05-03T08:13:02.921Z</time></trkpt><trkpt lat="42.9954275" lon="13.1138899"><ele>998.8</ele><time>2026-05-03T08:13:04.927Z</time></trkpt><trkpt lat="42.9955561" lon="13.1138453"><ele>998.0</ele><time>2026-05-03T08:13:06.922Z</time></trkpt><trkpt lat="42.9956206" lon="13.1138238"><ele>998.0000000000001</ele><time>2026-05-03T08:13:07.911Z</time></trkpt><trkpt lat="42.9957255" lon="13.1138292"><ele>998.0</ele><time>2026-05-03T08:13:09.925Z</time></trkpt><trkpt lat="42.995817" lon="13.1138505"><ele>998.0</ele><time>2026-05-03T08:13:11.91Z</time></trkpt><trkpt lat="42.9959102" lon="13.1138542"><ele>998.0</ele><time>2026-05-03T08:13:13.918Z</time></trkpt><trkpt lat="42.9959847" lon="13.1138169"><ele>998.0000000000001</ele><time>2026-05-03T08:13:15.922Z</time></trkpt><trkpt lat="42.9960511" lon="13.1137773"><ele>998.0</ele><time>2026-05-03T08:13:17.921Z</time></trkpt><trkpt lat="42.9961168" lon="13.1137558"><ele>997.0000000000001</ele><time>2026-05-03T08:13:19.904Z</time></trkpt><trkpt lat="42.9961984" lon="13.1137456"><ele>996.0</ele><time>2026-05-03T08:13:21.922Z</time></trkpt><trkpt lat="42.9962719" lon="13.1137431"><ele>995.0000000000001</ele><time>2026-05-03T08:13:23.921Z</time></trkpt><trkpt lat="42.9963359" lon="13.1137421"><ele>994.0000000000001</ele><time>2026-05-03T08:13:25.918Z</time></trkpt><trkpt lat="42.9964208" lon="13.1137495"><ele>993.0</ele><time>2026-05-03T08:13:28.921Z</time></trkpt><trkpt lat="42.996489" lon="13.1137716"><ele>992.0000000000001</ele><time>2026-05-03T08:13:30.92Z</time></trkpt><trkpt lat="42.9965539" lon="13.1137943"><ele>991.0000000000001</ele><time>2026-05-03T08:13:32.926Z</time></trkpt><trkpt lat="42.9966298" lon="13.1138185"><ele>989.1999999999999</ele><time>2026-05-03T08:13:34.913Z</time></trkpt><trkpt lat="42.9967134" lon="13.1138229"><ele>987.3999999999999</ele><time>2026-05-03T08:13:36.91Z</time></trkpt><trkpt lat="42.9968153" lon="13.113793"><ele>985.6</ele><time>2026-05-03T08:13:38.921Z</time></trkpt><trkpt lat="42.9969247" lon="13.113774"><ele>983.8</ele><time>2026-05-03T08:13:40.915Z</time></trkpt><trkpt lat="42.9970348" lon="13.1137605"><ele>982.0</ele><time>2026-05-03T08:13:42.914Z</time></trkpt><trkpt lat="42.9971524" lon="13.1137655"><ele>981.9999999999999</ele><time>2026-05-03T08:13:44.922Z</time></trkpt><trkpt lat="42.9972447" lon="13.1137847"><ele>982.0</ele><time>2026-05-03T08:13:46.913Z</time></trkpt><trkpt lat="42.9973085" lon="13.1137857"><ele>982.0</ele><time>2026-05-03T08:13:48.91Z</time></trkpt><trkpt lat="42.9973837" lon="13.1137684"><ele>982.0</ele><time>2026-05-03T08:13:50.927Z</time></trkpt><trkpt lat="42.9974665" lon="13.1137093"><ele>981.9999999999999</ele><time>2026-05-03T08:13:52.917Z</time></trkpt><trkpt lat="42.9975207" lon="13.1136617"><ele>982.0</ele><time>2026-05-03T08:13:53.921Z</time></trkpt><trkpt lat="42.9975834" lon="13.1135957"><ele>981.8333333333333</ele><time>2026-05-03T08:13:54.917Z</time></trkpt><trkpt lat="42.997644" lon="13.1135336"><ele>981.6666666666666</ele><time>2026-05-03T08:13:55.914Z</time></trkpt><trkpt lat="42.9976957" lon="13.113481"><ele>981.5</ele><time>2026-05-03T08:13:56.91Z</time></trkpt><trkpt lat="42.997766" lon="13.1134001"><ele>981.3333333333333</ele><time>2026-05-03T08:13:58.924Z</time></trkpt><trkpt lat="42.9978169" lon="13.1133176"><ele>981.1666666666666</ele><time>2026-05-03T08:14:01.922Z</time></trkpt><trkpt lat="42.9978399" lon="13.1132356"><ele>981.0</ele><time>2026-05-03T08:14:27.919Z</time></trkpt><trkpt lat="42.9977523" lon="13.1131411"><ele>981.0</ele><time>2026-05-03T08:14:29.918Z</time></trkpt><trkpt lat="42.9976824" lon="13.1130692"><ele>981.0</ele><time>2026-05-03T08:14:30.937Z</time></trkpt><trkpt lat="42.9975938" lon="13.1129496"><ele>981.0</ele><time>2026-05-03T08:14:31.913Z</time></trkpt><trkpt lat="42.9974903" lon="13.112796"><ele>981.0</ele><time>2026-05-03T08:14:32.924Z</time></trkpt><trkpt lat="42.9973869" lon="13.1126386"><ele>979.75</ele><time>2026-05-03T08:14:33.912Z</time></trkpt><trkpt lat="42.9972946" lon="13.112483"><ele>978.5</ele><time>2026-05-03T08:14:34.918Z</time></trkpt><trkpt lat="42.9972138" lon="13.1123482"><ele>977.25</ele><time>2026-05-03T08:14:35.922Z</time></trkpt><trkpt lat="42.9971368" lon="13.1122175"><ele>976.0</ele><time>2026-05-03T08:14:36.921Z</time></trkpt><trkpt lat="42.9970569" lon="13.1121007"><ele>973.75</ele><time>2026-05-03T08:14:37.913Z</time></trkpt><trkpt lat="42.9969753" lon="13.1119949"><ele>971.5</ele><time>2026-05-03T08:14:38.913Z</time></trkpt><trkpt lat="42.9968835" lon="13.1119013"><ele>969.25</ele><time>2026-05-03T08:14:39.908Z</time></trkpt><trkpt lat="42.9967813" lon="13.1118121"><ele>967.0</ele><time>2026-05-03T08:14:40.917Z</time></trkpt><trkpt lat="42.9966702" lon="13.1117172"><ele>967.25</ele><time>2026-05-03T08:14:41.917Z</time></trkpt><trkpt lat="42.9965491" lon="13.1116183"><ele>967.5</ele><time>2026-05-03T08:14:42.922Z</time></trkpt><trkpt lat="42.9964262" lon="13.1115223"><ele>967.75</ele><time>2026-05-03T08:14:43.922Z</time></trkpt><trkpt lat="42.9963084" lon="13.111431"><ele>968.0</ele><time>2026-05-03T08:14:44.93Z</time></trkpt><trkpt lat="42.9961994" lon="13.1113557"><ele>966.2</ele><time>2026-05-03T08:14:45.916Z</time></trkpt><trkpt lat="42.9961037" lon="13.1112806"><ele>964.4</ele><time>2026-05-03T08:14:46.913Z</time></trkpt><trkpt lat="42.9960114" lon="13.111232"><ele>962.6000000000001</ele><time>2026-05-03T08:14:47.925Z</time></trkpt><trkpt lat="42.9959181" lon="13.1111913"><ele>960.8000000000001</ele><time>2026-05-03T08:14:48.917Z</time></trkpt><trkpt lat="42.9958195" lon="13.1111724"><ele>959.0</ele><time>2026-05-03T08:14:49.908Z</time></trkpt><trkpt lat="42.9957078" lon="13.1111862"><ele>957.75</ele><time>2026-05-03T08:14:50.916Z</time></trkpt><trkpt lat="42.9955833" lon="13.1112278"><ele>956.5</ele><time>2026-05-03T08:14:51.912Z</time></trkpt><trkpt lat="42.9954464" lon="13.1112565"><ele>955.25</ele><time>2026-05-03T08:14:52.916Z</time></trkpt><trkpt lat="42.9953119" lon="13.1112668"><ele>954.0</ele><time>2026-05-03T08:14:53.917Z</time></trkpt><trkpt lat="42.9951705" lon="13.1112546"><ele>954.0</ele><time>2026-05-03T08:14:54.919Z</time></trkpt><trkpt lat="42.9950282" lon="13.1112418"><ele>954.0</ele><time>2026-05-03T08:14:55.914Z</time></trkpt><trkpt lat="42.9948859" lon="13.111188"><ele>954.0</ele><time>2026-05-03T08:14:56.915Z</time></trkpt><trkpt lat="42.994752" lon="13.1111344"><ele>954.0</ele><time>2026-05-03T08:14:57.919Z</time></trkpt><trkpt lat="42.9946286" lon="13.1110937"><ele>952.0</ele><time>2026-05-03T08:14:58.915Z</time></trkpt><trkpt lat="42.9945094" lon="13.1110719"><ele>950.0</ele><time>2026-05-03T08:14:59.905Z</time></trkpt><trkpt lat="42.9943943" lon="13.1110671"><ele>948.0</ele><time>2026-05-03T08:15:00.911Z</time></trkpt><trkpt lat="42.9942835" lon="13.1110742"><ele>946.0</ele><time>2026-05-03T08:15:01.917Z</time></trkpt><trkpt lat="42.9941731" lon="13.1110845"><ele>945.1999999999999</ele><time>2026-05-03T08:15:02.914Z</time></trkpt><trkpt lat="42.9940565" lon="13.1110819"><ele>944.3999999999999</ele><time>2026-05-03T08:15:03.916Z</time></trkpt><trkpt lat="42.9939414" lon="13.1110501"><ele>943.6</ele><time>2026-05-03T08:15:04.913Z</time></trkpt><trkpt lat="42.9938323" lon="13.1110176"><ele>942.8</ele><time>2026-05-03T08:15:05.914Z</time></trkpt><trkpt lat="42.9937418" lon="13.1109637"><ele>942.0</ele><time>2026-05-03T08:15:06.911Z</time></trkpt><trkpt lat="42.993645" lon="13.1109198"><ele>942.0</ele><time>2026-05-03T08:15:07.912Z</time></trkpt><trkpt lat="42.9935296" lon="13.1109269"><ele>942.0</ele><time>2026-05-03T08:15:08.917Z</time></trkpt><trkpt lat="42.9933894" lon="13.110974"><ele>942.0</ele><time>2026-05-03T08:15:09.912Z</time></trkpt><trkpt lat="42.993229" lon="13.1110601"><ele>942.0</ele><time>2026-05-03T08:15:10.91Z</time></trkpt><trkpt lat="42.9930503" lon="13.1111409"><ele>939.0</ele><time>2026-05-03T08:15:11.909Z</time></trkpt><trkpt lat="42.9928579" lon="13.111211"><ele>936.0</ele><time>2026-05-03T08:15:12.924Z</time></trkpt><trkpt lat="42.9926721" lon="13.1112741"><ele>933.0</ele><time>2026-05-03T08:15:13.921Z</time></trkpt><trkpt lat="42.9924954" lon="13.1113223"><ele>927.6666666666667</ele><time>2026-05-03T08:15:14.923Z</time></trkpt><trkpt lat="42.9923231" lon="13.1113707"><ele>922.3333333333334</ele><time>2026-05-03T08:15:15.927Z</time></trkpt><trkpt lat="42.9921589" lon="13.1114133"><ele>917.0</ele><time>2026-05-03T08:15:16.91Z</time></trkpt><trkpt lat="42.9919902" lon="13.1114708"><ele>917.0</ele><time>2026-05-03T08:15:17.924Z</time></trkpt><trkpt lat="42.9918238" lon="13.1115366"><ele>917.0</ele><time>2026-05-03T08:15:18.905Z</time></trkpt><trkpt lat="42.9916743" lon="13.1115911"><ele>917.0</ele><time>2026-05-03T08:15:19.919Z</time></trkpt><trkpt lat="42.991538" lon="13.1116254"><ele>921.8</ele><time>2026-05-03T08:15:20.907Z</time></trkpt><trkpt lat="42.9914148" lon="13.1116602"><ele>926.6</ele><time>2026-05-03T08:15:21.92Z</time></trkpt><trkpt lat="42.9912991" lon="13.1116907"><ele>931.3999999999999</ele><time>2026-05-03T08:15:22.919Z</time></trkpt><trkpt lat="42.991202" lon="13.1117067"><ele>936.1999999999999</ele><time>2026-05-03T08:15:23.923Z</time></trkpt><trkpt lat="42.9911111" lon="13.1117376"><ele>941.0</ele><time>2026-05-03T08:15:24.923Z</time></trkpt><trkpt lat="42.991033" lon="13.1117924"><ele>941.0</ele><time>2026-05-03T08:15:25.918Z</time></trkpt><trkpt lat="42.990965" lon="13.1118794"><ele>940.9999999999999</ele><time>2026-05-03T08:15:26.92Z</time></trkpt><trkpt lat="42.9909124" lon="13.1119994"><ele>940.9999999999999</ele><time>2026-05-03T08:15:27.918Z</time></trkpt><trkpt lat="42.9908706" lon="13.1121245"><ele>941.0</ele><time>2026-05-03T08:15:28.902Z</time></trkpt><trkpt lat="42.9908295" lon="13.1122354"><ele>941.0</ele><time>2026-05-03T08:15:29.915Z</time></trkpt><trkpt lat="42.990779" lon="13.1123184"><ele>937.0</ele><time>2026-05-03T08:15:30.91Z</time></trkpt><trkpt lat="42.9907161" lon="13.1123625"><ele>932.9999999999999</ele><time>2026-05-03T08:15:31.925Z</time></trkpt><trkpt lat="42.9906404" lon="13.1123613"><ele>928.9999999999999</ele><time>2026-05-03T08:15:32.911Z</time></trkpt><trkpt lat="42.9905509" lon="13.1123208"><ele>925.0</ele><time>2026-05-03T08:15:33.913Z</time></trkpt><trkpt lat="42.990447" lon="13.112251"><ele>921.0</ele><time>2026-05-03T08:15:34.918Z</time></trkpt><trkpt lat="42.990333" lon="13.1121665"><ele>921.0</ele><time>2026-05-03T08:15:35.91Z</time></trkpt><trkpt lat="42.990222" lon="13.1120844"><ele>921.0</ele><time>2026-05-03T08:15:36.913Z</time></trkpt><trkpt lat="42.9901149" lon="13.1120085"><ele>921.0</ele><time>2026-05-03T08:15:37.913Z</time></trkpt><trkpt lat="42.9900073" lon="13.111943"><ele>921.0</ele><time>2026-05-03T08:15:38.917Z</time></trkpt><trkpt lat="42.9898902" lon="13.1118946"><ele>919.0</ele><time>2026-05-03T08:15:39.909Z</time></trkpt><trkpt lat="42.9897549" lon="13.1118657"><ele>917.0</ele><time>2026-05-03T08:15:40.917Z</time></trkpt><trkpt lat="42.9896197" lon="13.1118608"><ele>915.0</ele><time>2026-05-03T08:15:41.922Z</time></trkpt><trkpt lat="42.9894925" lon="13.1118698"><ele>913.0</ele><time>2026-05-03T08:15:42.912Z</time></trkpt><trkpt lat="42.9893883" lon="13.1118974"><ele>913.0</ele><time>2026-05-03T08:15:43.913Z</time></trkpt><trkpt lat="42.9892914" lon="13.1119275"><ele>913.0</ele><time>2026-05-03T08:15:44.917Z</time></trkpt><trkpt lat="42.9892049" lon="13.111988"><ele>913.0</ele><time>2026-05-03T08:15:45.918Z</time></trkpt><trkpt lat="42.9891213" lon="13.112092"><ele>913.0</ele><time>2026-05-03T08:15:46.916Z</time></trkpt><trkpt lat="42.9890483" lon="13.112244"><ele>913.0</ele><time>2026-05-03T08:15:47.914Z</time></trkpt><trkpt lat="42.988979" lon="13.1124415"><ele>916.6666666666666</ele><time>2026-05-03T08:15:48.913Z</time></trkpt><trkpt lat="42.9889111" lon="13.1126595"><ele>920.3333333333333</ele><time>2026-05-03T08:15:49.914Z</time></trkpt><trkpt lat="42.9888429" lon="13.1128758"><ele>924.0</ele><time>2026-05-03T08:15:50.923Z</time></trkpt><trkpt lat="42.9887894" lon="13.1130864"><ele>929.0</ele><time>2026-05-03T08:15:51.915Z</time></trkpt><trkpt lat="42.9887446" lon="13.1132684"><ele>934.0</ele><time>2026-05-03T08:15:52.921Z</time></trkpt><trkpt lat="42.9886985" lon="13.1134291"><ele>939.0</ele><time>2026-05-03T08:15:53.923Z</time></trkpt><trkpt lat="42.9886375" lon="13.1135821"><ele>944.0</ele><time>2026-05-03T08:15:54.921Z</time></trkpt><trkpt lat="42.9885544" lon="13.1137296"><ele>944.0</ele><time>2026-05-03T08:15:55.913Z</time></trkpt><trkpt lat="42.9884545" lon="13.1138887"><ele>944.0</ele><time>2026-05-03T08:15:56.913Z</time></trkpt><trkpt lat="42.9883546" lon="13.1140403"><ele>944.0</ele><time>2026-05-03T08:15:57.919Z</time></trkpt><trkpt lat="42.9882648" lon="13.11418"><ele>944.0</ele><time>2026-05-03T08:15:58.914Z</time></trkpt><trkpt lat="42.9881912" lon="13.1142979"><ele>941.2</ele><time>2026-05-03T08:15:59.919Z</time></trkpt><trkpt lat="42.9881293" lon="13.1143974"><ele>938.4000000000001</ele><time>2026-05-03T08:16:00.913Z</time></trkpt><trkpt lat="42.9880709" lon="13.1144767"><ele>935.6</ele><time>2026-05-03T08:16:01.919Z</time></trkpt><trkpt lat="42.9880115" lon="13.1145226"><ele>932.8</ele><time>2026-05-03T08:16:02.915Z</time></trkpt><trkpt lat="42.98789" lon="13.1145222"><ele>930.0</ele><time>2026-05-03T08:16:04.915Z</time></trkpt><trkpt lat="42.9878357" lon="13.1144272"><ele>930.0</ele><time>2026-05-03T08:16:05.918Z</time></trkpt><trkpt lat="42.9878011" lon="13.1142967"><ele>930.0</ele><time>2026-05-03T08:16:06.907Z</time></trkpt><trkpt lat="42.9877784" lon="13.1141388"><ele>930.0</ele><time>2026-05-03T08:16:07.908Z</time></trkpt><trkpt lat="42.9877769" lon="13.1139695"><ele>930.0</ele><time>2026-05-03T08:16:08.922Z</time></trkpt><trkpt lat="42.9877793" lon="13.1138139"><ele>925.0</ele><time>2026-05-03T08:16:09.916Z</time></trkpt><trkpt lat="42.9877765" lon="13.1136761"><ele>920.0</ele><time>2026-05-03T08:16:10.921Z</time></trkpt><trkpt lat="42.9877509" lon="13.113532"><ele>915.0</ele><time>2026-05-03T08:16:11.912Z</time></trkpt><trkpt lat="42.9876929" lon="13.1133726"><ele>910.0</ele><time>2026-05-03T08:16:12.915Z</time></trkpt><trkpt lat="42.9876093" lon="13.1131949"><ele>911.6666666666666</ele><time>2026-05-03T08:16:13.914Z</time></trkpt><trkpt lat="42.9875003" lon="13.1130037"><ele>913.3333333333333</ele><time>2026-05-03T08:16:14.917Z</time></trkpt><trkpt lat="42.9873775" lon="13.1128142"><ele>915.0</ele><time>2026-05-03T08:16:15.915Z</time></trkpt><trkpt lat="42.9872489" lon="13.1126336"><ele>915.0</ele><time>2026-05-03T08:16:16.928Z</time></trkpt><trkpt lat="42.9871356" lon="13.1124643"><ele>915.0</ele><time>2026-05-03T08:16:17.911Z</time></trkpt><trkpt lat="42.9870424" lon="13.112294"><ele>915.0</ele><time>2026-05-03T08:16:18.912Z</time></trkpt><trkpt lat="42.9869688" lon="13.1121267"><ele>909.0</ele><time>2026-05-03T08:16:19.922Z</time></trkpt><trkpt lat="42.9869168" lon="13.1119649"><ele>903.0</ele><time>2026-05-03T08:16:20.911Z</time></trkpt><trkpt lat="42.9868806" lon="13.111805"><ele>897.0</ele><time>2026-05-03T08:16:21.919Z</time></trkpt><trkpt lat="42.9868509" lon="13.1116582"><ele>891.0</ele><time>2026-05-03T08:16:22.914Z</time></trkpt><trkpt lat="42.9868077" lon="13.1115368"><ele>893.5</ele><time>2026-05-03T08:16:23.925Z</time></trkpt><trkpt lat="42.9867409" lon="13.1114361"><ele>896.0</ele><time>2026-05-03T08:16:24.913Z</time></trkpt><trkpt lat="42.9866638" lon="13.1113298"><ele>898.5</ele><time>2026-05-03T08:16:25.927Z</time></trkpt><trkpt lat="42.9865338" lon="13.1112717"><ele>901.0</ele><time>2026-05-03T08:16:26.92Z</time></trkpt><trkpt lat="42.9863893" lon="13.1112284"><ele>901.0</ele><time>2026-05-03T08:16:27.923Z</time></trkpt><trkpt lat="42.9862397" lon="13.1111967"><ele>901.0</ele><time>2026-05-03T08:16:28.915Z</time></trkpt><trkpt lat="42.9860917" lon="13.1111746"><ele>901.0</ele><time>2026-05-03T08:16:29.915Z</time></trkpt><trkpt lat="42.985938" lon="13.1111727"><ele>902.6666666666666</ele><time>2026-05-03T08:16:30.91Z</time></trkpt><trkpt lat="42.9857625" lon="13.1111959"><ele>904.3333333333333</ele><time>2026-05-03T08:16:31.92Z</time></trkpt><trkpt lat="42.9855669" lon="13.1112395"><ele>906.0</ele><time>2026-05-03T08:16:32.927Z</time></trkpt><trkpt lat="42.9853568" lon="13.1113016"><ele>906.0</ele><time>2026-05-03T08:16:33.916Z</time></trkpt><trkpt lat="42.985149" lon="13.1113841"><ele>906.0</ele><time>2026-05-03T08:16:34.926Z</time></trkpt><trkpt lat="42.9849416" lon="13.1114818"><ele>906.0</ele><time>2026-05-03T08:16:35.915Z</time></trkpt><trkpt lat="42.9847393" lon="13.1115798"><ele>920.3333333333333</ele><time>2026-05-03T08:16:36.915Z</time></trkpt><trkpt lat="42.9845647" lon="13.1116719"><ele>934.6666666666666</ele><time>2026-05-03T08:16:37.919Z</time></trkpt><trkpt lat="42.9843907" lon="13.1117703"><ele>949.0</ele><time>2026-05-03T08:16:38.914Z</time></trkpt><trkpt lat="42.9842119" lon="13.1118916"><ele>942.0</ele><time>2026-05-03T08:16:39.913Z</time></trkpt><trkpt lat="42.9840205" lon="13.1120247"><ele>935.0</ele><time>2026-05-03T08:16:40.922Z</time></trkpt><trkpt lat="42.9838356" lon="13.1121632"><ele>928.0</ele><time>2026-05-03T08:16:41.91Z</time></trkpt><trkpt lat="42.9836672" lon="13.1122889"><ele>928.0</ele><time>2026-05-03T08:16:42.924Z</time></trkpt><trkpt lat="42.9835146" lon="13.1124023"><ele>928.0</ele><time>2026-05-03T08:16:43.913Z</time></trkpt><trkpt lat="42.9833655" lon="13.112515"><ele>928.0</ele><time>2026-05-03T08:16:44.932Z</time></trkpt><trkpt lat="42.9832143" lon="13.1126398"><ele>932.6666666666666</ele><time>2026-05-03T08:16:45.913Z</time></trkpt><trkpt lat="42.9830572" lon="13.1127945"><ele>937.3333333333333</ele><time>2026-05-03T08:16:46.909Z</time></trkpt><trkpt lat="42.9828896" lon="13.1129704"><ele>942.0</ele><time>2026-05-03T08:16:47.902Z</time></trkpt><trkpt lat="42.9827056" lon="13.1131655"><ele>944.5</ele><time>2026-05-03T08:16:48.908Z</time></trkpt><trkpt lat="42.9825159" lon="13.1133634"><ele>947.0</ele><time>2026-05-03T08:16:49.909Z</time></trkpt><trkpt lat="42.9823384" lon="13.1135414"><ele>947.0</ele><time>2026-05-03T08:16:50.922Z</time></trkpt><trkpt lat="42.9821747" lon="13.1136996"><ele>947.0</ele><time>2026-05-03T08:16:51.913Z</time></trkpt><trkpt lat="42.9820248" lon="13.1138446"><ele>947.0</ele><time>2026-05-03T08:16:52.921Z</time></trkpt><trkpt lat="42.9818827" lon="13.113991"><ele>949.0</ele><time>2026-05-03T08:16:53.919Z</time></trkpt><trkpt lat="42.9817432" lon="13.1141502"><ele>951.0</ele><time>2026-05-03T08:16:54.92Z</time></trkpt><trkpt lat="42.9815998" lon="13.1143129"><ele>953.0</ele><time>2026-05-03T08:16:55.916Z</time></trkpt><trkpt lat="42.9814622" lon="13.1144948"><ele>953.0</ele><time>2026-05-03T08:16:56.909Z</time></trkpt><trkpt lat="42.9813319" lon="13.1146512"><ele>953.0</ele><time>2026-05-03T08:16:57.909Z</time></trkpt><trkpt lat="42.9812133" lon="13.1147909"><ele>953.0</ele><time>2026-05-03T08:16:58.92Z</time></trkpt><trkpt lat="42.981095" lon="13.1149221"><ele>953.0</ele><time>2026-05-03T08:16:59.916Z</time></trkpt><trkpt lat="42.980979" lon="13.1150487"><ele>953.0</ele><time>2026-05-03T08:17:00.91Z</time></trkpt><trkpt lat="42.9808623" lon="13.1151797"><ele>953.0</ele><time>2026-05-03T08:17:01.924Z</time></trkpt><trkpt lat="42.9807483" lon="13.1153309"><ele>953.0</ele><time>2026-05-03T08:17:02.911Z</time></trkpt><trkpt lat="42.9806288" lon="13.1154869"><ele>953.0</ele><time>2026-05-03T08:17:03.911Z</time></trkpt><trkpt lat="42.9804864" lon="13.1156386"><ele>953.0</ele><time>2026-05-03T08:17:04.926Z</time></trkpt><trkpt lat="42.9803375" lon="13.1157785"><ele>953.3333333333334</ele><time>2026-05-03T08:17:05.923Z</time></trkpt><trkpt lat="42.980188" lon="13.115932"><ele>953.6666666666667</ele><time>2026-05-03T08:17:06.929Z</time></trkpt><trkpt lat="42.9800329" lon="13.1160975"><ele>954.0</ele><time>2026-05-03T08:17:07.906Z</time></trkpt><trkpt lat="42.9798855" lon="13.1162891"><ele>954.0</ele><time>2026-05-03T08:17:08.911Z</time></trkpt><trkpt lat="42.9797551" lon="13.1164608"><ele>954.0</ele><time>2026-05-03T08:17:09.918Z</time></trkpt><trkpt lat="42.9796421" lon="13.1166136"><ele>954.0</ele><time>2026-05-03T08:17:10.914Z</time></trkpt><trkpt lat="42.9795404" lon="13.1167404"><ele>961.0</ele><time>2026-05-03T08:17:11.917Z</time></trkpt><trkpt lat="42.979458" lon="13.1168405"><ele>968.0000000000001</ele><time>2026-05-03T08:17:12.918Z</time></trkpt><trkpt lat="42.9793882" lon="13.1169287"><ele>975.0000000000001</ele><time>2026-05-03T08:17:13.915Z</time></trkpt><trkpt lat="42.9793351" lon="13.1170137"><ele>982.0</ele><time>2026-05-03T08:17:14.911Z</time></trkpt><trkpt lat="42.9792982" lon="13.1171225"><ele>989.0</ele><time>2026-05-03T08:17:15.91Z</time></trkpt><trkpt lat="42.979287" lon="13.1172583"><ele>993.4000000000001</ele><time>2026-05-03T08:17:16.918Z</time></trkpt><trkpt lat="42.9792986" lon="13.1174105"><ele>997.8000000000001</ele><time>2026-05-03T08:17:17.929Z</time></trkpt><trkpt lat="42.9793092" lon="13.1175662"><ele>1002.1999999999999</ele><time>2026-05-03T08:17:18.918Z</time></trkpt><trkpt lat="42.9793187" lon="13.1177184"><ele>1006.5999999999999</ele><time>2026-05-03T08:17:19.916Z</time></trkpt><trkpt lat="42.9793272" lon="13.1178534"><ele>1011.0</ele><time>2026-05-03T08:17:20.917Z</time></trkpt><trkpt lat="42.9793245" lon="13.1179674"><ele>1011.0</ele><time>2026-05-03T08:17:21.906Z</time></trkpt><trkpt lat="42.9793018" lon="13.1180654"><ele>1011.0</ele><time>2026-05-03T08:17:22.918Z</time></trkpt><trkpt lat="42.9792548" lon="13.11814"><ele>1011.0</ele><time>2026-05-03T08:17:23.92Z</time></trkpt><trkpt lat="42.9791863" lon="13.118179"><ele>1011.0</ele><time>2026-05-03T08:17:24.902Z</time></trkpt><trkpt lat="42.9791086" lon="13.1181716"><ele>1011.0</ele><time>2026-05-03T08:17:25.917Z</time></trkpt><trkpt lat="42.9790241" lon="13.1181183"><ele>1011.0</ele><time>2026-05-03T08:17:26.918Z</time></trkpt><trkpt lat="42.9789247" lon="13.1180404"><ele>1000.0</ele><time>2026-05-03T08:17:27.918Z</time></trkpt><trkpt lat="42.9788133" lon="13.1179622"><ele>989.0</ele><time>2026-05-03T08:17:28.917Z</time></trkpt><trkpt lat="42.9786828" lon="13.1179115"><ele>978.0</ele><time>2026-05-03T08:17:29.915Z</time></trkpt><trkpt lat="42.9785672" lon="13.1178788"><ele>967.0</ele><time>2026-05-03T08:17:30.92Z</time></trkpt><trkpt lat="42.9784623" lon="13.1178806"><ele>961.75</ele><time>2026-05-03T08:17:31.914Z</time></trkpt><trkpt lat="42.9783448" lon="13.1179191"><ele>956.5</ele><time>2026-05-03T08:17:32.916Z</time></trkpt><trkpt lat="42.9782354" lon="13.1179765"><ele>951.25</ele><time>2026-05-03T08:17:33.915Z</time></trkpt><trkpt lat="42.9781335" lon="13.1180789"><ele>946.0</ele><time>2026-05-03T08:17:34.913Z</time></trkpt><trkpt lat="42.9780292" lon="13.1182297"><ele>956.6666666666666</ele><time>2026-05-03T08:17:35.922Z</time></trkpt><trkpt lat="42.9779336" lon="13.1184236"><ele>967.3333333333333</ele><time>2026-05-03T08:17:36.917Z</time></trkpt><trkpt lat="42.977844" lon="13.1186664"><ele>978.0</ele><time>2026-05-03T08:17:37.925Z</time></trkpt><trkpt lat="42.9777669" lon="13.1189124"><ele>986.3333333333333</ele><time>2026-05-03T08:17:38.917Z</time></trkpt><trkpt lat="42.9777011" lon="13.1191431"><ele>994.6666666666666</ele><time>2026-05-03T08:17:39.906Z</time></trkpt><trkpt lat="42.9776375" lon="13.1193843"><ele>1003.0</ele><time>2026-05-03T08:17:40.927Z</time></trkpt><trkpt lat="42.9775759" lon="13.1196464"><ele>992.3333333333333</ele><time>2026-05-03T08:17:41.9Z</time></trkpt><trkpt lat="42.9775093" lon="13.1199083"><ele>981.6666666666667</ele><time>2026-05-03T08:17:42.915Z</time></trkpt><trkpt lat="42.977441" lon="13.1201595"><ele>971.0</ele><time>2026-05-03T08:17:43.913Z</time></trkpt><trkpt lat="42.9773806" lon="13.1203966"><ele>971.0</ele><time>2026-05-03T08:17:44.91Z</time></trkpt><trkpt lat="42.9773338" lon="13.1206297"><ele>971.0</ele><time>2026-05-03T08:17:45.921Z</time></trkpt><trkpt lat="42.9772922" lon="13.1208721"><ele>971.0</ele><time>2026-05-03T08:17:46.911Z</time></trkpt><trkpt lat="42.9772496" lon="13.1211294"><ele>973.6666666666667</ele><time>2026-05-03T08:17:47.915Z</time></trkpt><trkpt lat="42.9772093" lon="13.1214003"><ele>976.3333333333333</ele><time>2026-05-03T08:17:48.921Z</time></trkpt><trkpt lat="42.9771766" lon="13.1216617"><ele>979.0</ele><time>2026-05-03T08:17:49.912Z</time></trkpt><trkpt lat="42.9771519" lon="13.1219103"><ele>982.0</ele><time>2026-05-03T08:17:50.922Z</time></trkpt><trkpt lat="42.9771333" lon="13.1221473"><ele>985.0</ele><time>2026-05-03T08:17:51.9Z</time></trkpt><trkpt lat="42.9771156" lon="13.1223722"><ele>988.0</ele><time>2026-05-03T08:17:52.908Z</time></trkpt><trkpt lat="42.9770981" lon="13.1225837"><ele>989.75</ele><time>2026-05-03T08:17:53.914Z</time></trkpt><trkpt lat="42.977079" lon="13.1227802"><ele>991.5</ele><time>2026-05-03T08:17:54.926Z</time></trkpt><trkpt lat="42.9770591" lon="13.1229579"><ele>993.25</ele><time>2026-05-03T08:17:55.922Z</time></trkpt><trkpt lat="42.977038" lon="13.1231113"><ele>995.0</ele><time>2026-05-03T08:17:56.922Z</time></trkpt><trkpt lat="42.9770202" lon="13.1232361"><ele>995.0</ele><time>2026-05-03T08:17:57.912Z</time></trkpt><trkpt lat="42.9769971" lon="13.1233298"><ele>995.0</ele><time>2026-05-03T08:17:58.916Z</time></trkpt><trkpt lat="42.9769094" lon="13.1234048"><ele>995.0</ele><time>2026-05-03T08:18:00.917Z</time></trkpt><trkpt lat="42.9767986" lon="13.1233371"><ele>995.0</ele><time>2026-05-03T08:18:02.923Z</time></trkpt><trkpt lat="42.9767821" lon="13.1232135"><ele>995.0</ele><time>2026-05-03T08:18:03.928Z</time></trkpt><trkpt lat="42.9767698" lon="13.1230487"><ele>995.0</ele><time>2026-05-03T08:18:04.919Z</time></trkpt><trkpt lat="42.9767495" lon="13.1228504"><ele>995.0</ele><time>2026-05-03T08:18:05.917Z</time></trkpt><trkpt lat="42.9767314" lon="13.122644"><ele>995.0</ele><time>2026-05-03T08:18:06.912Z</time></trkpt><trkpt lat="42.976689" lon="13.1223965"><ele>987.0</ele><time>2026-05-03T08:18:07.926Z</time></trkpt><trkpt lat="42.976633" lon="13.1221081"><ele>979.0</ele><time>2026-05-03T08:18:08.917Z</time></trkpt><trkpt lat="42.97657" lon="13.1218042"><ele>971.0</ele><time>2026-05-03T08:18:09.905Z</time></trkpt><trkpt lat="42.9765147" lon="13.1214769"><ele>970.0</ele><time>2026-05-03T08:18:10.918Z</time></trkpt><trkpt lat="42.9764677" lon="13.1211748"><ele>969.0</ele><time>2026-05-03T08:18:11.91Z</time></trkpt><trkpt lat="42.976431" lon="13.1208934"><ele>968.0</ele><time>2026-05-03T08:18:12.914Z</time></trkpt><trkpt lat="42.9764005" lon="13.1206253"><ele>965.3333333333334</ele><time>2026-05-03T08:18:13.909Z</time></trkpt><trkpt lat="42.9763755" lon="13.1203599"><ele>962.6666666666667</ele><time>2026-05-03T08:18:14.907Z</time></trkpt><trkpt lat="42.9763567" lon="13.1201094"><ele>960.0</ele><time>2026-05-03T08:18:15.924Z</time></trkpt><trkpt lat="42.9763472" lon="13.1198857"><ele>960.0</ele><time>2026-05-03T08:18:16.917Z</time></trkpt><trkpt lat="42.976339" lon="13.1196788"><ele>960.0</ele><time>2026-05-03T08:18:17.922Z</time></trkpt><trkpt lat="42.9763286" lon="13.1194674"><ele>960.0</ele><time>2026-05-03T08:18:18.917Z</time></trkpt><trkpt lat="42.9763151" lon="13.1192428"><ele>959.5</ele><time>2026-05-03T08:18:19.92Z</time></trkpt><trkpt lat="42.9762976" lon="13.1190235"><ele>959.0</ele><time>2026-05-03T08:18:20.915Z</time></trkpt><trkpt lat="42.9762896" lon="13.1188315"><ele>958.5</ele><time>2026-05-03T08:18:21.909Z</time></trkpt><trkpt lat="42.9762847" lon="13.1186653"><ele>958.0</ele><time>2026-05-03T08:18:22.911Z</time></trkpt><trkpt lat="42.9762702" lon="13.1185013"><ele>958.0</ele><time>2026-05-03T08:18:23.906Z</time></trkpt><trkpt lat="42.9762242" lon="13.1183246"><ele>958.0</ele><time>2026-05-03T08:18:24.918Z</time></trkpt><trkpt lat="42.9761487" lon="13.1181293"><ele>958.0</ele><time>2026-05-03T08:18:25.921Z</time></trkpt><trkpt lat="42.9760594" lon="13.1179406"><ele>959.5</ele><time>2026-05-03T08:18:26.908Z</time></trkpt><trkpt lat="42.9759655" lon="13.1177772"><ele>961.0</ele><time>2026-05-03T08:18:27.92Z</time></trkpt><trkpt lat="42.9758861" lon="13.1176429"><ele>962.5</ele><time>2026-05-03T08:18:28.911Z</time></trkpt><trkpt lat="42.9758321" lon="13.1175214"><ele>964.0</ele><time>2026-05-03T08:18:29.922Z</time></trkpt><trkpt lat="42.9758005" lon="13.1174025"><ele>967.2</ele><time>2026-05-03T08:18:30.921Z</time></trkpt><trkpt lat="42.9757981" lon="13.1172811"><ele>970.4000000000001</ele><time>2026-05-03T08:18:31.912Z</time></trkpt><trkpt lat="42.9758324" lon="13.117156"><ele>973.6</ele><time>2026-05-03T08:18:32.909Z</time></trkpt><trkpt lat="42.9758989" lon="13.1170407"><ele>976.8</ele><time>2026-05-03T08:18:33.905Z</time></trkpt><trkpt lat="42.9759776" lon="13.1169077"><ele>980.0</ele><time>2026-05-03T08:18:34.922Z</time></trkpt><trkpt lat="42.9760836" lon="13.1167675"><ele>980.0</ele><time>2026-05-03T08:18:35.915Z</time></trkpt><trkpt lat="42.976197" lon="13.116607"><ele>980.0</ele><time>2026-05-03T08:18:36.921Z</time></trkpt><trkpt lat="42.9762982" lon="13.1164705"><ele>980.0</ele><time>2026-05-03T08:18:37.907Z</time></trkpt><trkpt lat="42.9763861" lon="13.1163435"><ele>980.0</ele><time>2026-05-03T08:18:38.912Z</time></trkpt><trkpt lat="42.9764606" lon="13.1162469"><ele>982.0000000000001</ele><time>2026-05-03T08:18:39.918Z</time></trkpt><trkpt lat="42.9765172" lon="13.1161667"><ele>984.0</ele><time>2026-05-03T08:18:40.913Z</time></trkpt><trkpt lat="42.9765594" lon="13.1160718"><ele>986.0</ele><time>2026-05-03T08:18:41.914Z</time></trkpt><trkpt lat="42.9766008" lon="13.1159947"><ele>988.0</ele><time>2026-05-03T08:18:42.925Z</time></trkpt><trkpt lat="42.9766037" lon="13.1158979"><ele>990.0000000000001</ele><time>2026-05-03T08:18:43.917Z</time></trkpt><trkpt lat="42.976606" lon="13.1157578"><ele>992.0</ele><time>2026-05-03T08:18:44.91Z</time></trkpt><trkpt lat="42.9766125" lon="13.1156076"><ele>993.6</ele><time>2026-05-03T08:18:45.915Z</time></trkpt><trkpt lat="42.9766146" lon="13.1154464"><ele>995.2</ele><time>2026-05-03T08:18:46.917Z</time></trkpt><trkpt lat="42.9766141" lon="13.1153006"><ele>996.8</ele><time>2026-05-03T08:18:47.906Z</time></trkpt><trkpt lat="42.9766147" lon="13.1151669"><ele>998.4</ele><time>2026-05-03T08:18:48.918Z</time></trkpt><trkpt lat="42.9766263" lon="13.1150491"><ele>1000.0</ele><time>2026-05-03T08:18:49.918Z</time></trkpt><trkpt lat="42.976621" lon="13.114929"><ele>999.4</ele><time>2026-05-03T08:18:50.917Z</time></trkpt><trkpt lat="42.9766283" lon="13.1148231"><ele>998.8</ele><time>2026-05-03T08:18:51.923Z</time></trkpt><trkpt lat="42.9766682" lon="13.1147025"><ele>998.2</ele><time>2026-05-03T08:18:52.916Z</time></trkpt><trkpt lat="42.9767504" lon="13.1145945"><ele>997.6</ele><time>2026-05-03T08:18:53.915Z</time></trkpt><trkpt lat="42.9768395" lon="13.1144753"><ele>997.0</ele><time>2026-05-03T08:18:54.917Z</time></trkpt><trkpt lat="42.9769524" lon="13.1143461"><ele>995.5</ele><time>2026-05-03T08:18:55.915Z</time></trkpt><trkpt lat="42.9770611" lon="13.1142287"><ele>994.0</ele><time>2026-05-03T08:18:56.922Z</time></trkpt><trkpt lat="42.9771683" lon="13.1141138"><ele>992.5</ele><time>2026-05-03T08:18:57.915Z</time></trkpt><trkpt lat="42.9772703" lon="13.1140028"><ele>991.0</ele><time>2026-05-03T08:18:58.918Z</time></trkpt><trkpt lat="42.9773647" lon="13.1138751"><ele>990.25</ele><time>2026-05-03T08:18:59.919Z</time></trkpt><trkpt lat="42.9774551" lon="13.1137544"><ele>989.5</ele><time>2026-05-03T08:19:00.918Z</time></trkpt><trkpt lat="42.9775247" lon="13.1136255"><ele>988.75</ele><time>2026-05-03T08:19:01.921Z</time></trkpt><trkpt lat="42.9775759" lon="13.1134667"><ele>988.0</ele><time>2026-05-03T08:19:02.91Z</time></trkpt><trkpt lat="42.9775859" lon="13.1132675"><ele>985.6666666666666</ele><time>2026-05-03T08:19:03.919Z</time></trkpt><trkpt lat="42.9775714" lon="13.1130389"><ele>983.3333333333333</ele><time>2026-05-03T08:19:04.926Z</time></trkpt><trkpt lat="42.9775552" lon="13.1128179"><ele>981.0</ele><time>2026-05-03T08:19:05.921Z</time></trkpt><trkpt lat="42.9775362" lon="13.1126172"><ele>981.0</ele><time>2026-05-03T08:19:06.912Z</time></trkpt><trkpt lat="42.9775202" lon="13.1124431"><ele>980.9999999999999</ele><time>2026-05-03T08:19:07.921Z</time></trkpt><trkpt lat="42.9775156" lon="13.1122924"><ele>980.9999999999999</ele><time>2026-05-03T08:19:08.92Z</time></trkpt><trkpt lat="42.9775143" lon="13.1121631"><ele>981.0</ele><time>2026-05-03T08:19:09.911Z</time></trkpt><trkpt lat="42.9775121" lon="13.1120536"><ele>981.0</ele><time>2026-05-03T08:19:10.922Z</time></trkpt><trkpt lat="42.9775133" lon="13.111951"><ele>979.5</ele><time>2026-05-03T08:19:11.925Z</time></trkpt><trkpt lat="42.9774971" lon="13.1118636"><ele>978.0</ele><time>2026-05-03T08:19:12.917Z</time></trkpt><trkpt lat="42.9774495" lon="13.1118032"><ele>976.5</ele><time>2026-05-03T08:19:13.915Z</time></trkpt><trkpt lat="42.977373" lon="13.111786"><ele>975.0</ele><time>2026-05-03T08:19:14.913Z</time></trkpt><trkpt lat="42.9772801" lon="13.1117916"><ele>973.5</ele><time>2026-05-03T08:19:15.919Z</time></trkpt><trkpt lat="42.9771508" lon="13.1118778"><ele>972.0</ele><time>2026-05-03T08:19:16.92Z</time></trkpt><trkpt lat="42.9769947" lon="13.1119677"><ele>972.0</ele><time>2026-05-03T08:19:17.916Z</time></trkpt><trkpt lat="42.9768195" lon="13.1120691"><ele>972.0</ele><time>2026-05-03T08:19:18.91Z</time></trkpt><trkpt lat="42.9766501" lon="13.1121863"><ele>972.0</ele><time>2026-05-03T08:19:19.916Z</time></trkpt><trkpt lat="42.9765001" lon="13.1122913"><ele>971.5</ele><time>2026-05-03T08:19:20.908Z</time></trkpt><trkpt lat="42.976362" lon="13.1123849"><ele>971.0</ele><time>2026-05-03T08:19:21.913Z</time></trkpt><trkpt lat="42.9762243" lon="13.1124525"><ele>970.5</ele><time>2026-05-03T08:19:22.909Z</time></trkpt><trkpt lat="42.9760869" lon="13.1125085"><ele>970.0</ele><time>2026-05-03T08:19:23.907Z</time></trkpt><trkpt lat="42.9759418" lon="13.1125696"><ele>965.25</ele><time>2026-05-03T08:19:24.909Z</time></trkpt><trkpt lat="42.9757959" lon="13.1126441"><ele>960.5</ele><time>2026-05-03T08:19:25.909Z</time></trkpt><trkpt lat="42.9756556" lon="13.1127199"><ele>955.75</ele><time>2026-05-03T08:19:26.921Z</time></trkpt><trkpt lat="42.9755259" lon="13.1127977"><ele>951.0</ele><time>2026-05-03T08:19:27.911Z</time></trkpt><trkpt lat="42.9754001" lon="13.1128693"><ele>951.0</ele><time>2026-05-03T08:19:28.92Z</time></trkpt><trkpt lat="42.9752758" lon="13.1129585"><ele>951.0</ele><time>2026-05-03T08:19:29.924Z</time></trkpt><trkpt lat="42.9751437" lon="13.1130839"><ele>951.0</ele><time>2026-05-03T08:19:30.916Z</time></trkpt><trkpt lat="42.9750148" lon="13.1132297"><ele>951.0</ele><time>2026-05-03T08:19:31.916Z</time></trkpt><trkpt lat="42.9748993" lon="13.1133785"><ele>951.0</ele><time>2026-05-03T08:19:32.913Z</time></trkpt><trkpt lat="42.9747897" lon="13.1135256"><ele>951.0</ele><time>2026-05-03T08:19:33.908Z</time></trkpt><trkpt lat="42.9746855" lon="13.1136636"><ele>951.0</ele><time>2026-05-03T08:19:34.915Z</time></trkpt><trkpt lat="42.974583" lon="13.1137856"><ele>951.0</ele><time>2026-05-03T08:19:35.923Z</time></trkpt><trkpt lat="42.9744813" lon="13.1138895"><ele>951.0</ele><time>2026-05-03T08:19:36.902Z</time></trkpt><trkpt lat="42.9743838" lon="13.1139782"><ele>951.0</ele><time>2026-05-03T08:19:37.905Z</time></trkpt><trkpt lat="42.9743023" lon="13.1140505"><ele>952.0</ele><time>2026-05-03T08:19:38.916Z</time></trkpt><trkpt lat="42.9742407" lon="13.114109"><ele>952.9999999999999</ele><time>2026-05-03T08:19:39.932Z</time></trkpt><trkpt lat="42.9741389" lon="13.1141812"><ele>953.9999999999999</ele><time>2026-05-03T08:19:41.912Z</time></trkpt><trkpt lat="42.9740584" lon="13.1141218"><ele>955.0</ele><time>2026-05-03T08:19:43.91Z</time></trkpt><trkpt lat="42.974084" lon="13.1139757"><ele>956.0</ele><time>2026-05-03T08:19:45.923Z</time></trkpt><trkpt lat="42.974131" lon="13.1138901"><ele>955.0</ele><time>2026-05-03T08:19:46.919Z</time></trkpt><trkpt lat="42.9741976" lon="13.1138"><ele>953.9999999999999</ele><time>2026-05-03T08:19:47.908Z</time></trkpt><trkpt lat="42.9742822" lon="13.1137128"><ele>952.9999999999999</ele><time>2026-05-03T08:19:48.907Z</time></trkpt><trkpt lat="42.9743638" lon="13.1136026"><ele>952.0</ele><time>2026-05-03T08:19:49.92Z</time></trkpt><trkpt lat="42.9744335" lon="13.1134584"><ele>951.0</ele><time>2026-05-03T08:19:50.918Z</time></trkpt><trkpt lat="42.9744945" lon="13.1132944"><ele>950.0</ele><time>2026-05-03T08:19:51.912Z</time></trkpt><trkpt lat="42.9745608" lon="13.1131252"><ele>949.0</ele><time>2026-05-03T08:19:52.924Z</time></trkpt><trkpt lat="42.9746392" lon="13.1129615"><ele>948.0</ele><time>2026-05-03T08:19:53.911Z</time></trkpt><trkpt lat="42.9747153" lon="13.1128035"><ele>947.0</ele><time>2026-05-03T08:19:54.916Z</time></trkpt><trkpt lat="42.9748199" lon="13.1126688"><ele>947.0</ele><time>2026-05-03T08:19:55.931Z</time></trkpt><trkpt lat="42.9749319" lon="13.1125404"><ele>947.0</ele><time>2026-05-03T08:19:56.904Z</time></trkpt><trkpt lat="42.9750397" lon="13.1124017"><ele>947.0</ele><time>2026-05-03T08:19:57.912Z</time></trkpt><trkpt lat="42.9751474" lon="13.1122321"><ele>944.5</ele><time>2026-05-03T08:19:58.916Z</time></trkpt><trkpt lat="42.9752392" lon="13.1120522"><ele>942.0</ele><time>2026-05-03T08:19:59.914Z</time></trkpt><trkpt lat="42.9753229" lon="13.111883"><ele>939.5</ele><time>2026-05-03T08:20:00.921Z</time></trkpt><trkpt lat="42.9753847" lon="13.1117356"><ele>937.0</ele><time>2026-05-03T08:20:01.923Z</time></trkpt><trkpt lat="42.9754468" lon="13.1116116"><ele>938.2</ele><time>2026-05-03T08:20:02.924Z</time></trkpt><trkpt lat="42.9754939" lon="13.1114886"><ele>939.4000000000001</ele><time>2026-05-03T08:20:03.922Z</time></trkpt><trkpt lat="42.9755068" lon="13.1113572"><ele>940.5999999999999</ele><time>2026-05-03T08:20:04.922Z</time></trkpt><trkpt lat="42.975494" lon="13.1112203"><ele>941.8</ele><time>2026-05-03T08:20:05.908Z</time></trkpt><trkpt lat="42.9754729" lon="13.1110975"><ele>943.0</ele><time>2026-05-03T08:20:06.907Z</time></trkpt><trkpt lat="42.9754695" lon="13.1109915"><ele>943.0</ele><time>2026-05-03T08:20:07.924Z</time></trkpt><trkpt lat="42.9755281" lon="13.1108568"><ele>943.0</ele><time>2026-05-03T08:20:09.918Z</time></trkpt><trkpt lat="42.9755963" lon="13.1108384"><ele>943.0</ele><time>2026-05-03T08:20:10.916Z</time></trkpt><trkpt lat="42.9756825" lon="13.1108344"><ele>943.0</ele><time>2026-05-03T08:20:11.908Z</time></trkpt><trkpt lat="42.9757695" lon="13.1108244"><ele>943.0</ele><time>2026-05-03T08:20:12.922Z</time></trkpt><trkpt lat="42.9758579" lon="13.1107875"><ele>941.25</ele><time>2026-05-03T08:20:13.913Z</time></trkpt><trkpt lat="42.9759484" lon="13.1106991"><ele>939.5</ele><time>2026-05-03T08:20:14.911Z</time></trkpt><trkpt lat="42.9760437" lon="13.1105456"><ele>937.75</ele><time>2026-05-03T08:20:15.916Z</time></trkpt><trkpt lat="42.976134" lon="13.1103867"><ele>936.0</ele><time>2026-05-03T08:20:16.914Z</time></trkpt><trkpt lat="42.9762151" lon="13.1102454"><ele>936.0</ele><time>2026-05-03T08:20:17.908Z</time></trkpt><trkpt lat="42.976295" lon="13.1101091"><ele>936.0</ele><time>2026-05-03T08:20:18.919Z</time></trkpt><trkpt lat="42.9763315" lon="13.1099238"><ele>936.0</ele><time>2026-05-03T08:20:19.915Z</time></trkpt><trkpt lat="42.9763652" lon="13.1097315"><ele>936.0</ele><time>2026-05-03T08:20:20.911Z</time></trkpt><trkpt lat="42.9764066" lon="13.1095637"><ele>935.0</ele><time>2026-05-03T08:20:21.915Z</time></trkpt><trkpt lat="42.9764671" lon="13.1094113"><ele>934.0</ele><time>2026-05-03T08:20:22.92Z</time></trkpt><trkpt lat="42.9765478" lon="13.1092569"><ele>933.0</ele><time>2026-05-03T08:20:23.915Z</time></trkpt><trkpt lat="42.9766437" lon="13.1091154"><ele>932.0</ele><time>2026-05-03T08:20:24.906Z</time></trkpt><trkpt lat="42.9767284" lon="13.1089644"><ele>932.0</ele><time>2026-05-03T08:20:25.916Z</time></trkpt><trkpt lat="42.9768129" lon="13.1087929"><ele>932.0</ele><time>2026-05-03T08:20:26.912Z</time></trkpt><trkpt lat="42.9768825" lon="13.1085525"><ele>932.0</ele><time>2026-05-03T08:20:27.919Z</time></trkpt><trkpt lat="42.9769681" lon="13.1083151"><ele>938.0</ele><time>2026-05-03T08:20:28.914Z</time></trkpt><trkpt lat="42.9770473" lon="13.1080899"><ele>944.0</ele><time>2026-05-03T08:20:29.931Z</time></trkpt><trkpt lat="42.9771151" lon="13.1078891"><ele>950.0</ele><time>2026-05-03T08:20:30.904Z</time></trkpt><trkpt lat="42.9772044" lon="13.1077062"><ele>950.0</ele><time>2026-05-03T08:20:31.93Z</time></trkpt><trkpt lat="42.9773062" lon="13.1075218"><ele>950.0</ele><time>2026-05-03T08:20:32.913Z</time></trkpt><trkpt lat="42.977419" lon="13.1073422"><ele>950.0</ele><time>2026-05-03T08:20:33.916Z</time></trkpt><trkpt lat="42.9775532" lon="13.1071639"><ele>951.6666666666667</ele><time>2026-05-03T08:20:34.913Z</time></trkpt><trkpt lat="42.9777125" lon="13.1069838"><ele>953.3333333333333</ele><time>2026-05-03T08:20:35.922Z</time></trkpt><trkpt lat="42.9778821" lon="13.1068014"><ele>955.0</ele><time>2026-05-03T08:20:36.917Z</time></trkpt><trkpt lat="42.9780411" lon="13.1066344"><ele>956.0</ele><time>2026-05-03T08:20:37.908Z</time></trkpt><trkpt lat="42.9781906" lon="13.1064832"><ele>957.0</ele><time>2026-05-03T08:20:38.916Z</time></trkpt><trkpt lat="42.978324" lon="13.1063419"><ele>958.0</ele><time>2026-05-03T08:20:39.927Z</time></trkpt><trkpt lat="42.9784416" lon="13.1062116"><ele>958.0</ele><time>2026-05-03T08:20:40.923Z</time></trkpt><trkpt lat="42.978557" lon="13.1060847"><ele>958.0</ele><time>2026-05-03T08:20:41.919Z</time></trkpt><trkpt lat="42.9786613" lon="13.1059516"><ele>958.0</ele><time>2026-05-03T08:20:42.908Z</time></trkpt><trkpt lat="42.9787493" lon="13.1058106"><ele>958.0</ele><time>2026-05-03T08:20:43.911Z</time></trkpt><trkpt lat="42.9788224" lon="13.1056613"><ele>960.5</ele><time>2026-05-03T08:20:44.917Z</time></trkpt><trkpt lat="42.9788829" lon="13.1055024"><ele>963.0</ele><time>2026-05-03T08:20:45.91Z</time></trkpt><trkpt lat="42.9789283" lon="13.105346"><ele>965.5</ele><time>2026-05-03T08:20:46.917Z</time></trkpt><trkpt lat="42.9789565" lon="13.1052023"><ele>968.0</ele><time>2026-05-03T08:20:47.91Z</time></trkpt><trkpt lat="42.9789721" lon="13.1050737"><ele>968.0</ele><time>2026-05-03T08:20:48.922Z</time></trkpt><trkpt lat="42.9789769" lon="13.1049449"><ele>968.0</ele><time>2026-05-03T08:20:49.923Z</time></trkpt><trkpt lat="42.9789738" lon="13.1048108"><ele>968.0</ele><time>2026-05-03T08:20:50.919Z</time></trkpt><trkpt lat="42.9789648" lon="13.1046686"><ele>968.0</ele><time>2026-05-03T08:20:51.906Z</time></trkpt><trkpt lat="42.9789493" lon="13.1045212"><ele>968.0</ele><time>2026-05-03T08:20:52.918Z</time></trkpt><trkpt lat="42.9789354" lon="13.1043701"><ele>968.0</ele><time>2026-05-03T08:20:53.908Z</time></trkpt><trkpt lat="42.9789033" lon="13.1042243"><ele>968.0</ele><time>2026-05-03T08:20:54.911Z</time></trkpt><trkpt lat="42.9788533" lon="13.1040794"><ele>968.0</ele><time>2026-05-03T08:20:55.911Z</time></trkpt><trkpt lat="42.9787584" lon="13.1039455"><ele>968.0</ele><time>2026-05-03T08:20:56.915Z</time></trkpt><trkpt lat="42.978642" lon="13.1038007"><ele>968.3333333333334</ele><time>2026-05-03T08:20:57.923Z</time></trkpt><trkpt lat="42.9785132" lon="13.103629"><ele>968.6666666666667</ele><time>2026-05-03T08:20:58.909Z</time></trkpt><trkpt lat="42.9783919" lon="13.1034262"><ele>969.0</ele><time>2026-05-03T08:20:59.917Z</time></trkpt><trkpt lat="42.9782828" lon="13.1032294"><ele>969.0</ele><time>2026-05-03T08:21:00.922Z</time></trkpt><trkpt lat="42.978192" lon="13.1030358"><ele>969.0</ele><time>2026-05-03T08:21:01.913Z</time></trkpt><trkpt lat="42.9781293" lon="13.1028588"><ele>969.0</ele><time>2026-05-03T08:21:02.918Z</time></trkpt><trkpt lat="42.9780977" lon="13.1026866"><ele>969.0</ele><time>2026-05-03T08:21:03.933Z</time></trkpt><trkpt lat="42.9780939" lon="13.1025058"><ele>970.6666666666667</ele><time>2026-05-03T08:21:04.916Z</time></trkpt><trkpt lat="42.9781265" lon="13.1023038"><ele>972.3333333333334</ele><time>2026-05-03T08:21:05.929Z</time></trkpt><trkpt lat="42.9781935" lon="13.1020772"><ele>974.0</ele><time>2026-05-03T08:21:06.909Z</time></trkpt><trkpt lat="42.9782792" lon="13.1018265"><ele>971.6666666666667</ele><time>2026-05-03T08:21:07.926Z</time></trkpt><trkpt lat="42.9783694" lon="13.1015779"><ele>969.3333333333333</ele><time>2026-05-03T08:21:08.908Z</time></trkpt><trkpt lat="42.9784533" lon="13.1013646"><ele>967.0</ele><time>2026-05-03T08:21:09.927Z</time></trkpt><trkpt lat="42.978534" lon="13.1011743"><ele>967.0</ele><time>2026-05-03T08:21:10.926Z</time></trkpt><trkpt lat="42.9786108" lon="13.101007"><ele>967.0</ele><time>2026-05-03T08:21:11.928Z</time></trkpt><trkpt lat="42.9786766" lon="13.1008252"><ele>967.0</ele><time>2026-05-03T08:21:12.929Z</time></trkpt><trkpt lat="42.978726" lon="13.1006306"><ele>967.0</ele><time>2026-05-03T08:21:13.922Z</time></trkpt><trkpt lat="42.9787565" lon="13.1004471"><ele>968.0</ele><time>2026-05-03T08:21:14.931Z</time></trkpt><trkpt lat="42.9787655" lon="13.1002751"><ele>969.0</ele><time>2026-05-03T08:21:15.916Z</time></trkpt><trkpt lat="42.9787668" lon="13.1001036"><ele>970.0</ele><time>2026-05-03T08:21:16.912Z</time></trkpt><trkpt lat="42.9787175" lon="13.0999183"><ele>971.0</ele><time>2026-05-03T08:21:17.919Z</time></trkpt><trkpt lat="42.9786515" lon="13.0997226"><ele>971.0</ele><time>2026-05-03T08:21:18.91Z</time></trkpt><trkpt lat="42.9785756" lon="13.0995444"><ele>971.0</ele><time>2026-05-03T08:21:19.919Z</time></trkpt><trkpt lat="42.9785095" lon="13.0993836"><ele>971.0</ele><time>2026-05-03T08:21:20.92Z</time></trkpt><trkpt lat="42.9784435" lon="13.0992237"><ele>971.0</ele><time>2026-05-03T08:21:21.913Z</time></trkpt><trkpt lat="42.9783772" lon="13.0990554"><ele>973.3333333333334</ele><time>2026-05-03T08:21:22.916Z</time></trkpt><trkpt lat="42.9782993" lon="13.0988815"><ele>975.6666666666667</ele><time>2026-05-03T08:21:23.917Z</time></trkpt><trkpt lat="42.9781939" lon="13.0986969"><ele>978.0</ele><time>2026-05-03T08:21:24.918Z</time></trkpt><trkpt lat="42.9780606" lon="13.0984916"><ele>978.0</ele><time>2026-05-03T08:21:25.918Z</time></trkpt><trkpt lat="42.9779139" lon="13.0982833"><ele>978.0</ele><time>2026-05-03T08:21:26.92Z</time></trkpt><trkpt lat="42.9777735" lon="13.0980968"><ele>978.0</ele><time>2026-05-03T08:21:27.92Z</time></trkpt><trkpt lat="42.9776422" lon="13.0979353"><ele>977.75</ele><time>2026-05-03T08:21:28.92Z</time></trkpt><trkpt lat="42.9775192" lon="13.0977976"><ele>977.5</ele><time>2026-05-03T08:21:29.917Z</time></trkpt><trkpt lat="42.9774029" lon="13.0976815"><ele>977.25</ele><time>2026-05-03T08:21:30.918Z</time></trkpt><trkpt lat="42.977295" lon="13.0975819"><ele>977.0</ele><time>2026-05-03T08:21:31.912Z</time></trkpt><trkpt lat="42.9771838" lon="13.0974845"><ele>979.0</ele><time>2026-05-03T08:21:32.922Z</time></trkpt><trkpt lat="42.9770631" lon="13.0973868"><ele>981.0</ele><time>2026-05-03T08:21:33.923Z</time></trkpt><trkpt lat="42.9769284" lon="13.0972904"><ele>983.0</ele><time>2026-05-03T08:21:34.924Z</time></trkpt><trkpt lat="42.9767891" lon="13.0971817"><ele>985.6666666666667</ele><time>2026-05-03T08:21:35.93Z</time></trkpt><trkpt lat="42.9766477" lon="13.0970652"><ele>988.3333333333333</ele><time>2026-05-03T08:21:36.909Z</time></trkpt><trkpt lat="42.9765118" lon="13.0969526"><ele>991.0</ele><time>2026-05-03T08:21:37.918Z</time></trkpt><trkpt lat="42.9763898" lon="13.0968528"><ele>991.0</ele><time>2026-05-03T08:21:38.923Z</time></trkpt><trkpt lat="42.9762835" lon="13.0967581"><ele>991.0</ele><time>2026-05-03T08:21:39.922Z</time></trkpt><trkpt lat="42.9761883" lon="13.0966429"><ele>991.0</ele><time>2026-05-03T08:21:40.92Z</time></trkpt><trkpt lat="42.9761108" lon="13.096494"><ele>991.0</ele><time>2026-05-03T08:21:41.912Z</time></trkpt><trkpt lat="42.9760502" lon="13.0963042"><ele>992.75</ele><time>2026-05-03T08:21:42.909Z</time></trkpt><trkpt lat="42.9759984" lon="13.0961055"><ele>994.5</ele><time>2026-05-03T08:21:43.913Z</time></trkpt><trkpt lat="42.9759501" lon="13.095931"><ele>996.25</ele><time>2026-05-03T08:21:44.915Z</time></trkpt><trkpt lat="42.9759052" lon="13.0957735"><ele>998.0</ele><time>2026-05-03T08:21:45.915Z</time></trkpt><trkpt lat="42.9758586" lon="13.0956381"><ele>1000.4</ele><time>2026-05-03T08:21:46.916Z</time></trkpt><trkpt lat="42.9758358" lon="13.0955459"><ele>1002.8</ele><time>2026-05-03T08:21:47.912Z</time></trkpt><trkpt lat="42.9758611" lon="13.0954145"><ele>1005.2</ele><time>2026-05-03T08:21:49.908Z</time></trkpt><trkpt lat="42.9759763" lon="13.0954065"><ele>1007.6</ele><time>2026-05-03T08:21:51.925Z</time></trkpt><trkpt lat="42.9760692" lon="13.0954621"><ele>1010.0</ele><time>2026-05-03T08:21:52.928Z</time></trkpt><trkpt lat="42.9761842" lon="13.0955265"><ele>1010.25</ele><time>2026-05-03T08:21:53.927Z</time></trkpt><trkpt lat="42.9763166" lon="13.0955879"><ele>1010.5</ele><time>2026-05-03T08:21:54.919Z</time></trkpt><trkpt lat="42.9764459" lon="13.0956407"><ele>1010.75</ele><time>2026-05-03T08:21:55.909Z</time></trkpt><trkpt lat="42.9765603" lon="13.0956818"><ele>1011.0</ele><time>2026-05-03T08:21:56.928Z</time></trkpt><trkpt lat="42.9766604" lon="13.0957144"><ele>1009.3333333333334</ele><time>2026-05-03T08:21:57.925Z</time></trkpt><trkpt lat="42.9767512" lon="13.0957358"><ele>1007.6666666666667</ele><time>2026-05-03T08:21:58.916Z</time></trkpt><trkpt lat="42.9768314" lon="13.0957476"><ele>1006.0</ele><time>2026-05-03T08:21:59.908Z</time></trkpt><trkpt lat="42.9769133" lon="13.0957429"><ele>1004.3333333333334</ele><time>2026-05-03T08:22:00.913Z</time></trkpt><trkpt lat="42.9769969" lon="13.0957171"><ele>1002.6666666666667</ele><time>2026-05-03T08:22:01.92Z</time></trkpt><trkpt lat="42.9770746" lon="13.0956566"><ele>1001.0</ele><time>2026-05-03T08:22:02.922Z</time></trkpt><trkpt lat="42.9771378" lon="13.0955562"><ele>1001.0</ele><time>2026-05-03T08:22:03.916Z</time></trkpt><trkpt lat="42.9771827" lon="13.0954098"><ele>1001.0</ele><time>2026-05-03T08:22:04.915Z</time></trkpt><trkpt lat="42.9772212" lon="13.0952303"><ele>1001.0</ele><time>2026-05-03T08:22:05.903Z</time></trkpt><trkpt lat="42.9772564" lon="13.0950592"><ele>1001.0</ele><time>2026-05-03T08:22:06.915Z</time></trkpt><trkpt lat="42.9772878" lon="13.0949081"><ele>1002.8</ele><time>2026-05-03T08:22:07.925Z</time></trkpt><trkpt lat="42.9773171" lon="13.094775"><ele>1004.5999999999999</ele><time>2026-05-03T08:22:08.929Z</time></trkpt><trkpt lat="42.9773469" lon="13.0946603"><ele>1006.4</ele><time>2026-05-03T08:22:09.92Z</time></trkpt><trkpt lat="42.9773797" lon="13.0945472"><ele>1008.2</ele><time>2026-05-03T08:22:10.918Z</time></trkpt><trkpt lat="42.9774168" lon="13.0944412"><ele>1010.0</ele><time>2026-05-03T08:22:11.916Z</time></trkpt><trkpt lat="42.9774617" lon="13.0943432"><ele>1009.1666666666667</ele><time>2026-05-03T08:22:12.934Z</time></trkpt><trkpt lat="42.977524" lon="13.0942695"><ele>1008.3333333333334</ele><time>2026-05-03T08:22:13.918Z</time></trkpt><trkpt lat="42.9775924" lon="13.0942099"><ele>1007.5</ele><time>2026-05-03T08:22:14.91Z</time></trkpt><trkpt lat="42.9776446" lon="13.0941467"><ele>1006.6666666666667</ele><time>2026-05-03T08:22:15.917Z</time></trkpt><trkpt lat="42.9776881" lon="13.0940731"><ele>1005.8333333333334</ele><time>2026-05-03T08:22:16.93Z</time></trkpt><trkpt lat="42.9777296" lon="13.0939907"><ele>1005.0</ele><time>2026-05-03T08:22:17.917Z</time></trkpt><trkpt lat="42.9777681" lon="13.0938995"><ele>1005.0</ele><time>2026-05-03T08:22:18.921Z</time></trkpt><trkpt lat="42.9777963" lon="13.0938073"><ele>1005.0</ele><time>2026-05-03T08:22:19.919Z</time></trkpt><trkpt lat="42.977811" lon="13.0937203"><ele>1005.0</ele><time>2026-05-03T08:22:20.909Z</time></trkpt><trkpt lat="42.977826" lon="13.0935693"><ele>1005.0</ele><time>2026-05-03T08:22:22.912Z</time></trkpt><trkpt lat="42.9778288" lon="13.0934462"><ele>1005.0</ele><time>2026-05-03T08:22:24.92Z</time></trkpt><trkpt lat="42.9778177" lon="13.0933422"><ele>1005.0</ele><time>2026-05-03T08:22:26.938Z</time></trkpt><trkpt lat="42.9778044" lon="13.093244"><ele>1005.5</ele><time>2026-05-03T08:22:28.916Z</time></trkpt><trkpt lat="42.9777874" lon="13.0931497"><ele>1006.0</ele><time>2026-05-03T08:22:30.925Z</time></trkpt><trkpt lat="42.977743" lon="13.0930427"><ele>1006.5</ele><time>2026-05-03T08:22:33.921Z</time></trkpt><trkpt lat="42.9777025" lon="13.0929751"><ele>1007.0</ele><time>2026-05-03T08:22:34.913Z</time></trkpt><trkpt lat="42.9776354" lon="13.0928879"><ele>1007.5</ele><time>2026-05-03T08:22:35.925Z</time></trkpt><trkpt lat="42.9775463" lon="13.0927918"><ele>1008.0</ele><time>2026-05-03T08:22:36.921Z</time></trkpt><trkpt lat="42.9774393" lon="13.0926933"><ele>1006.5</ele><time>2026-05-03T08:22:37.911Z</time></trkpt><trkpt lat="42.9773328" lon="13.0926111"><ele>1005.0</ele><time>2026-05-03T08:22:38.908Z</time></trkpt><trkpt lat="42.977234" lon="13.0925346"><ele>1003.5</ele><time>2026-05-03T08:22:39.917Z</time></trkpt><trkpt lat="42.9771424" lon="13.0924421"><ele>1002.0</ele><time>2026-05-03T08:22:40.92Z</time></trkpt><trkpt lat="42.9770673" lon="13.0923278"><ele>999.75</ele><time>2026-05-03T08:22:41.908Z</time></trkpt><trkpt lat="42.9769977" lon="13.0921882"><ele>997.5</ele><time>2026-05-03T08:22:42.907Z</time></trkpt><trkpt lat="42.9769302" lon="13.0920451"><ele>995.25</ele><time>2026-05-03T08:22:43.915Z</time></trkpt><trkpt lat="42.9768642" lon="13.0919085"><ele>993.0</ele><time>2026-05-03T08:22:44.915Z</time></trkpt><trkpt lat="42.9768176" lon="13.0917636"><ele>993.0</ele><time>2026-05-03T08:22:45.916Z</time></trkpt><trkpt lat="42.9767905" lon="13.0916182"><ele>993.0</ele><time>2026-05-03T08:22:46.917Z</time></trkpt><trkpt lat="42.9767617" lon="13.0914655"><ele>993.0</ele><time>2026-05-03T08:22:47.912Z</time></trkpt><trkpt lat="42.9767194" lon="13.0912963"><ele>993.0</ele><time>2026-05-03T08:22:48.916Z</time></trkpt><trkpt lat="42.976631" lon="13.0911088"><ele>991.0</ele><time>2026-05-03T08:22:49.917Z</time></trkpt><trkpt lat="42.9765445" lon="13.0909397"><ele>989.0</ele><time>2026-05-03T08:22:50.915Z</time></trkpt><trkpt lat="42.9764694" lon="13.0907671"><ele>987.0</ele><time>2026-05-03T08:22:51.922Z</time></trkpt><trkpt lat="42.9764014" lon="13.0905823"><ele>985.0</ele><time>2026-05-03T08:22:52.917Z</time></trkpt><trkpt lat="42.9763412" lon="13.09039"><ele>979.5</ele><time>2026-05-03T08:22:53.918Z</time></trkpt><trkpt lat="42.9762787" lon="13.0902074"><ele>974.0</ele><time>2026-05-03T08:22:54.903Z</time></trkpt><trkpt lat="42.9762139" lon="13.0900441"><ele>968.5</ele><time>2026-05-03T08:22:55.93Z</time></trkpt><trkpt lat="42.97615" lon="13.0898967"><ele>963.0</ele><time>2026-05-03T08:22:56.921Z</time></trkpt><trkpt lat="42.9760852" lon="13.0897636"><ele>962.5999999999999</ele><time>2026-05-03T08:22:57.915Z</time></trkpt><trkpt lat="42.976016" lon="13.0896413"><ele>962.1999999999999</ele><time>2026-05-03T08:22:58.922Z</time></trkpt><trkpt lat="42.9759426" lon="13.0895312"><ele>961.8</ele><time>2026-05-03T08:22:59.91Z</time></trkpt><trkpt lat="42.9758673" lon="13.089436"><ele>961.4</ele><time>2026-05-03T08:23:00.92Z</time></trkpt><trkpt lat="42.9757873" lon="13.0893681"><ele>961.0</ele><time>2026-05-03T08:23:01.93Z</time></trkpt><trkpt lat="42.9757021" lon="13.0893311"><ele>960.9999999999999</ele><time>2026-05-03T08:23:02.924Z</time></trkpt><trkpt lat="42.9756136" lon="13.089321"><ele>961.0</ele><time>2026-05-03T08:23:03.922Z</time></trkpt><trkpt lat="42.9755217" lon="13.0893205"><ele>961.0</ele><time>2026-05-03T08:23:04.92Z</time></trkpt><trkpt lat="42.975431" lon="13.089366"><ele>961.0</ele><time>2026-05-03T08:23:05.923Z</time></trkpt><trkpt lat="42.975357" lon="13.0894122"><ele>960.9999999999999</ele><time>2026-05-03T08:23:06.912Z</time></trkpt><trkpt lat="42.9752976" lon="13.0894574"><ele>961.0</ele><time>2026-05-03T08:23:07.927Z</time></trkpt><trkpt lat="42.9752011" lon="13.0894003"><ele>960.9999999999999</ele><time>2026-05-03T08:23:09.921Z</time></trkpt><trkpt lat="42.9751874" lon="13.0893087"><ele>961.0</ele><time>2026-05-03T08:23:10.924Z</time></trkpt><trkpt lat="42.9752023" lon="13.0891962"><ele>961.0</ele><time>2026-05-03T08:23:11.912Z</time></trkpt><trkpt lat="42.9752216" lon="13.0890761"><ele>961.0</ele><time>2026-05-03T08:23:12.913Z</time></trkpt><trkpt lat="42.9752396" lon="13.0889597"><ele>960.9999999999999</ele><time>2026-05-03T08:23:13.924Z</time></trkpt><trkpt lat="42.9751983" lon="13.0888507"><ele>961.0</ele><time>2026-05-03T08:23:14.919Z</time></trkpt><trkpt lat="42.9751319" lon="13.08875"><ele>959.0</ele><time>2026-05-03T08:23:15.917Z</time></trkpt><trkpt lat="42.9750279" lon="13.0886806"><ele>957.0</ele><time>2026-05-03T08:23:16.937Z</time></trkpt><trkpt lat="42.9748858" lon="13.0886327"><ele>955.0</ele><time>2026-05-03T08:23:17.927Z</time></trkpt><trkpt lat="42.9747329" lon="13.0885781"><ele>953.0</ele><time>2026-05-03T08:23:18.913Z</time></trkpt><trkpt lat="42.9745659" lon="13.0885375"><ele>953.0</ele><time>2026-05-03T08:23:19.91Z</time></trkpt><trkpt lat="42.9744122" lon="13.0885057"><ele>953.0</ele><time>2026-05-03T08:23:20.911Z</time></trkpt><trkpt lat="42.9742756" lon="13.0884759"><ele>953.0</ele><time>2026-05-03T08:23:21.923Z</time></trkpt><trkpt lat="42.9741658" lon="13.0884565"><ele>953.0</ele><time>2026-05-03T08:23:22.928Z</time></trkpt><trkpt lat="42.9740635" lon="13.0884538"><ele>953.2</ele><time>2026-05-03T08:23:23.928Z</time></trkpt><trkpt lat="42.9739641" lon="13.0884566"><ele>953.4</ele><time>2026-05-03T08:23:24.911Z</time></trkpt><trkpt lat="42.9738738" lon="13.0885268"><ele>953.6000000000001</ele><time>2026-05-03T08:23:25.925Z</time></trkpt><trkpt lat="42.9738001" lon="13.0886167"><ele>953.8000000000001</ele><time>2026-05-03T08:23:26.914Z</time></trkpt><trkpt lat="42.9737225" lon="13.0886872"><ele>954.0</ele><time>2026-05-03T08:23:27.929Z</time></trkpt><trkpt lat="42.973663" lon="13.0887157"><ele>954.0</ele><time>2026-05-03T08:23:28.919Z</time></trkpt><trkpt lat="42.9735949" lon="13.0886954"><ele>954.0000000000001</ele><time>2026-05-03T08:23:29.923Z</time></trkpt><trkpt lat="42.9735096" lon="13.0886414"><ele>954.0000000000001</ele><time>2026-05-03T08:23:30.923Z</time></trkpt><trkpt lat="42.9734364" lon="13.0884967"><ele>954.0</ele><time>2026-05-03T08:23:31.915Z</time></trkpt><trkpt lat="42.9733744" lon="13.0883434"><ele>954.0</ele><time>2026-05-03T08:23:32.918Z</time></trkpt><trkpt lat="42.9733231" lon="13.0882046"><ele>949.6</ele><time>2026-05-03T08:23:33.909Z</time></trkpt><trkpt lat="42.9732705" lon="13.0880902"><ele>945.2</ele><time>2026-05-03T08:23:34.921Z</time></trkpt><trkpt lat="42.9732157" lon="13.0879736"><ele>940.8000000000001</ele><time>2026-05-03T08:23:35.923Z</time></trkpt><trkpt lat="42.9731225" lon="13.0878828"><ele>936.4000000000001</ele><time>2026-05-03T08:23:36.924Z</time></trkpt><trkpt lat="42.9730016" lon="13.0878324"><ele>932.0</ele><time>2026-05-03T08:23:37.908Z</time></trkpt><trkpt lat="42.9728734" lon="13.0877943"><ele>932.0</ele><time>2026-05-03T08:23:38.927Z</time></trkpt><trkpt lat="42.9727375" lon="13.0877601"><ele>932.0</ele><time>2026-05-03T08:23:39.926Z</time></trkpt><trkpt lat="42.9725865" lon="13.0877607"><ele>932.0</ele><time>2026-05-03T08:23:40.909Z</time></trkpt><trkpt lat="42.972448" lon="13.0877654"><ele>932.0</ele><time>2026-05-03T08:23:41.93Z</time></trkpt><trkpt lat="42.972318" lon="13.0877715"><ele>932.25</ele><time>2026-05-03T08:23:42.913Z</time></trkpt><trkpt lat="42.9721913" lon="13.0877769"><ele>932.5</ele><time>2026-05-03T08:23:43.924Z</time></trkpt><trkpt lat="42.9720703" lon="13.0877809"><ele>932.75</ele><time>2026-05-03T08:23:44.914Z</time></trkpt><trkpt lat="42.9719497" lon="13.0877835"><ele>933.0</ele><time>2026-05-03T08:23:45.917Z</time></trkpt><trkpt lat="42.9718282" lon="13.0877905"><ele>933.0</ele><time>2026-05-03T08:23:46.912Z</time></trkpt><trkpt lat="42.9717087" lon="13.0878038"><ele>933.0</ele><time>2026-05-03T08:23:47.914Z</time></trkpt><trkpt lat="42.971593" lon="13.0878256"><ele>933.0</ele><time>2026-05-03T08:23:48.917Z</time></trkpt><trkpt lat="42.9714778" lon="13.0878485"><ele>933.0</ele><time>2026-05-03T08:23:49.92Z</time></trkpt><trkpt lat="42.9713733" lon="13.0878547"><ele>930.8</ele><time>2026-05-03T08:23:50.928Z</time></trkpt><trkpt lat="42.971268" lon="13.0878465"><ele>928.5999999999999</ele><time>2026-05-03T08:23:51.919Z</time></trkpt><trkpt lat="42.9711701" lon="13.0878311"><ele>926.4000000000001</ele><time>2026-05-03T08:23:52.922Z</time></trkpt><trkpt lat="42.9710759" lon="13.0878111"><ele>924.2</ele><time>2026-05-03T08:23:53.918Z</time></trkpt><trkpt lat="42.970972" lon="13.0878067"><ele>922.0</ele><time>2026-05-03T08:23:54.923Z</time></trkpt><trkpt lat="42.9708506" lon="13.0877853"><ele>921.25</ele><time>2026-05-03T08:23:55.92Z</time></trkpt><trkpt lat="42.970716" lon="13.0877592"><ele>920.5</ele><time>2026-05-03T08:23:56.92Z</time></trkpt><trkpt lat="42.9705816" lon="13.0877347"><ele>919.75</ele><time>2026-05-03T08:23:57.924Z</time></trkpt><trkpt lat="42.9704506" lon="13.0877176"><ele>919.0</ele><time>2026-05-03T08:23:58.923Z</time></trkpt><trkpt lat="42.9703248" lon="13.0877059"><ele>919.0</ele><time>2026-05-03T08:23:59.922Z</time></trkpt><trkpt lat="42.9702018" lon="13.0876883"><ele>919.0</ele><time>2026-05-03T08:24:00.916Z</time></trkpt><trkpt lat="42.9700824" lon="13.0876555"><ele>919.0</ele><time>2026-05-03T08:24:01.923Z</time></trkpt><trkpt lat="42.9699702" lon="13.087615"><ele>919.0</ele><time>2026-05-03T08:24:02.925Z</time></trkpt><trkpt lat="42.9698686" lon="13.0875608"><ele>919.0</ele><time>2026-05-03T08:24:03.925Z</time></trkpt><trkpt lat="42.9697743" lon="13.0874795"><ele>919.0</ele><time>2026-05-03T08:24:04.925Z</time></trkpt><trkpt lat="42.9696911" lon="13.0873727"><ele>919.0</ele><time>2026-05-03T08:24:05.925Z</time></trkpt><trkpt lat="42.9696163" lon="13.0872445"><ele>919.0</ele><time>2026-05-03T08:24:06.919Z</time></trkpt><trkpt lat="42.9695546" lon="13.0871048"><ele>914.0</ele><time>2026-05-03T08:24:07.922Z</time></trkpt><trkpt lat="42.9695106" lon="13.0869475"><ele>909.0</ele><time>2026-05-03T08:24:08.921Z</time></trkpt><trkpt lat="42.9694838" lon="13.0867818"><ele>904.0</ele><time>2026-05-03T08:24:09.928Z</time></trkpt><trkpt lat="42.9694684" lon="13.0866118"><ele>899.0</ele><time>2026-05-03T08:24:10.915Z</time></trkpt><trkpt lat="42.9694612" lon="13.0864317"><ele>897.0</ele><time>2026-05-03T08:24:11.925Z</time></trkpt><trkpt lat="42.9694657" lon="13.0862397"><ele>895.0</ele><time>2026-05-03T08:24:12.915Z</time></trkpt><trkpt lat="42.9694831" lon="13.0860415"><ele>893.0</ele><time>2026-05-03T08:24:13.914Z</time></trkpt><trkpt lat="42.9695126" lon="13.0858437"><ele>891.0</ele><time>2026-05-03T08:24:14.909Z</time></trkpt><trkpt lat="42.9695443" lon="13.0856534"><ele>890.5</ele><time>2026-05-03T08:24:15.924Z</time></trkpt><trkpt lat="42.9695727" lon="13.0854552"><ele>890.0</ele><time>2026-05-03T08:24:16.918Z</time></trkpt><trkpt lat="42.969607" lon="13.0852619"><ele>889.5</ele><time>2026-05-03T08:24:17.921Z</time></trkpt><trkpt lat="42.9696447" lon="13.0850746"><ele>889.0</ele><time>2026-05-03T08:24:18.917Z</time></trkpt><trkpt lat="42.9697047" lon="13.084904"><ele>888.0</ele><time>2026-05-03T08:24:19.924Z</time></trkpt><trkpt lat="42.9697848" lon="13.0847498"><ele>887.0</ele><time>2026-05-03T08:24:20.92Z</time></trkpt><trkpt lat="42.9698785" lon="13.0846084"><ele>886.0</ele><time>2026-05-03T08:24:21.92Z</time></trkpt><trkpt lat="42.9699777" lon="13.0844874"><ele>885.0</ele><time>2026-05-03T08:24:22.921Z</time></trkpt><trkpt lat="42.9700761" lon="13.0843839"><ele>882.4</ele><time>2026-05-03T08:24:23.923Z</time></trkpt><trkpt lat="42.9701724" lon="13.0842949"><ele>879.8</ele><time>2026-05-03T08:24:24.92Z</time></trkpt><trkpt lat="42.9702569" lon="13.0842155"><ele>877.2</ele><time>2026-05-03T08:24:25.923Z</time></trkpt><trkpt lat="42.9703319" lon="13.0841539"><ele>874.6</ele><time>2026-05-03T08:24:26.913Z</time></trkpt><trkpt lat="42.9703885" lon="13.0840775"><ele>872.0</ele><time>2026-05-03T08:24:27.917Z</time></trkpt><trkpt lat="42.9704419" lon="13.0839903"><ele>869.8</ele><time>2026-05-03T08:24:28.919Z</time></trkpt><trkpt lat="42.9704593" lon="13.0838794"><ele>867.6</ele><time>2026-05-03T08:24:29.918Z</time></trkpt><trkpt lat="42.9704381" lon="13.0837744"><ele>865.3999999999999</ele><time>2026-05-03T08:24:30.925Z</time></trkpt><trkpt lat="42.9703687" lon="13.0836679"><ele>863.1999999999999</ele><time>2026-05-03T08:24:31.916Z</time></trkpt><trkpt lat="42.9702723" lon="13.0835862"><ele>861.0</ele><time>2026-05-03T08:24:32.92Z</time></trkpt><trkpt lat="42.9701514" lon="13.0835256"><ele>862.0</ele><time>2026-05-03T08:24:33.915Z</time></trkpt><trkpt lat="42.9700196" lon="13.0834969"><ele>863.0</ele><time>2026-05-03T08:24:34.908Z</time></trkpt><trkpt lat="42.9698929" lon="13.0834938"><ele>864.0</ele><time>2026-05-03T08:24:35.908Z</time></trkpt><trkpt lat="42.9697637" lon="13.0835008"><ele>865.0</ele><time>2026-05-03T08:24:36.922Z</time></trkpt><trkpt lat="42.9696383" lon="13.0835072"><ele>865.0</ele><time>2026-05-03T08:24:37.923Z</time></trkpt><trkpt lat="42.9695177" lon="13.083496"><ele>865.0</ele><time>2026-05-03T08:24:38.919Z</time></trkpt><trkpt lat="42.9694045" lon="13.0834679"><ele>865.0</ele><time>2026-05-03T08:24:39.915Z</time></trkpt><trkpt lat="42.969289" lon="13.0834441"><ele>865.0</ele><time>2026-05-03T08:24:40.917Z</time></trkpt><trkpt lat="42.9691791" lon="13.0834254"><ele>863.75</ele><time>2026-05-03T08:24:41.914Z</time></trkpt><trkpt lat="42.969063" lon="13.0833932"><ele>862.5</ele><time>2026-05-03T08:24:42.923Z</time></trkpt><trkpt lat="42.9689463" lon="13.0833538"><ele>861.25</ele><time>2026-05-03T08:24:43.923Z</time></trkpt><trkpt lat="42.9688322" lon="13.0833146"><ele>860.0</ele><time>2026-05-03T08:24:44.919Z</time></trkpt><trkpt lat="42.9687257" lon="13.0832696"><ele>858.4</ele><time>2026-05-03T08:24:45.919Z</time></trkpt><trkpt lat="42.9686359" lon="13.0832015"><ele>856.8</ele><time>2026-05-03T08:24:46.922Z</time></trkpt><trkpt lat="42.9685554" lon="13.0831337"><ele>855.2</ele><time>2026-05-03T08:24:47.918Z</time></trkpt><trkpt lat="42.9684861" lon="13.0830763"><ele>853.6</ele><time>2026-05-03T08:24:48.915Z</time></trkpt><trkpt lat="42.9684279" lon="13.0830307"><ele>852.0</ele><time>2026-05-03T08:24:49.916Z</time></trkpt><trkpt lat="42.9683504" lon="13.0829012"><ele>852.0</ele><time>2026-05-03T08:24:51.925Z</time></trkpt><trkpt lat="42.9683439" lon="13.0828068"><ele>852.0</ele><time>2026-05-03T08:24:52.918Z</time></trkpt><trkpt lat="42.9683666" lon="13.082708"><ele>852.0</ele><time>2026-05-03T08:24:53.917Z</time></trkpt><trkpt lat="42.9684096" lon="13.0826118"><ele>852.0</ele><time>2026-05-03T08:24:54.922Z</time></trkpt><trkpt lat="42.9684586" lon="13.0825053"><ele>852.0</ele><time>2026-05-03T08:24:55.919Z</time></trkpt><trkpt lat="42.9685101" lon="13.0823964"><ele>852.0</ele><time>2026-05-03T08:24:56.918Z</time></trkpt><trkpt lat="42.9685656" lon="13.0822767"><ele>846.2</ele><time>2026-05-03T08:24:57.919Z</time></trkpt><trkpt lat="42.9686082" lon="13.0821421"><ele>840.4000000000001</ele><time>2026-05-03T08:24:58.92Z</time></trkpt><trkpt lat="42.9686454" lon="13.0820104"><ele>834.5999999999999</ele><time>2026-05-03T08:24:59.915Z</time></trkpt><trkpt lat="42.9686723" lon="13.0818781"><ele>828.8</ele><time>2026-05-03T08:25:00.927Z</time></trkpt><trkpt lat="42.968689" lon="13.0817538"><ele>823.0</ele><time>2026-05-03T08:25:01.918Z</time></trkpt><trkpt lat="42.9687038" lon="13.0816319"><ele>819.8</ele><time>2026-05-03T08:25:02.93Z</time></trkpt><trkpt lat="42.968694" lon="13.0815123"><ele>816.5999999999999</ele><time>2026-05-03T08:25:03.916Z</time></trkpt><trkpt lat="42.9686374" lon="13.0814005"><ele>813.4000000000001</ele><time>2026-05-03T08:25:04.923Z</time></trkpt><trkpt lat="42.9685576" lon="13.0813045"><ele>810.2</ele><time>2026-05-03T08:25:05.915Z</time></trkpt><trkpt lat="42.9684724" lon="13.0812159"><ele>807.0</ele><time>2026-05-03T08:25:06.915Z</time></trkpt><trkpt lat="42.9683772" lon="13.0811623"><ele>805.6666666666666</ele><time>2026-05-03T08:25:07.913Z</time></trkpt><trkpt lat="42.9682903" lon="13.0811071"><ele>804.3333333333333</ele><time>2026-05-03T08:25:08.921Z</time></trkpt><trkpt lat="42.9682173" lon="13.0810374"><ele>803.0</ele><time>2026-05-03T08:25:09.908Z</time></trkpt><trkpt lat="42.9681551" lon="13.0809518"><ele>801.6666666666666</ele><time>2026-05-03T08:25:10.918Z</time></trkpt><trkpt lat="42.9681034" lon="13.0808565"><ele>800.3333333333333</ele><time>2026-05-03T08:25:11.913Z</time></trkpt><trkpt lat="42.968062" lon="13.0807538"><ele>799.0</ele><time>2026-05-03T08:25:12.913Z</time></trkpt><trkpt lat="42.9680189" lon="13.0806525"><ele>799.0</ele><time>2026-05-03T08:25:13.917Z</time></trkpt><trkpt lat="42.9679615" lon="13.0805685"><ele>799.0</ele><time>2026-05-03T08:25:14.921Z</time></trkpt><trkpt lat="42.9678876" lon="13.0805009"><ele>799.0</ele><time>2026-05-03T08:25:15.924Z</time></trkpt><trkpt lat="42.9677954" lon="13.0804434"><ele>799.0</ele><time>2026-05-03T08:25:16.923Z</time></trkpt><trkpt lat="42.9676901" lon="13.0803934"><ele>799.0</ele><time>2026-05-03T08:25:17.911Z</time></trkpt><trkpt lat="42.9675863" lon="13.080345"><ele>800.4000000000001</ele><time>2026-05-03T08:25:18.914Z</time></trkpt><trkpt lat="42.9674797" lon="13.0803093"><ele>801.8</ele><time>2026-05-03T08:25:19.907Z</time></trkpt><trkpt lat="42.9673809" lon="13.0802765"><ele>803.2</ele><time>2026-05-03T08:25:20.927Z</time></trkpt><trkpt lat="42.967288" lon="13.0802584"><ele>804.5999999999999</ele><time>2026-05-03T08:25:21.917Z</time></trkpt><trkpt lat="42.9672014" lon="13.0802492"><ele>806.0</ele><time>2026-05-03T08:25:22.912Z</time></trkpt><trkpt lat="42.9671219" lon="13.0802483"><ele>806.0000000000001</ele><time>2026-05-03T08:25:23.925Z</time></trkpt><trkpt lat="42.9670518" lon="13.0802458"><ele>806.0</ele><time>2026-05-03T08:25:24.924Z</time></trkpt><trkpt lat="42.9669537" lon="13.0802769"><ele>806.0</ele><time>2026-05-03T08:25:26.911Z</time></trkpt><trkpt lat="42.966881" lon="13.0803039"><ele>806.0</ele><time>2026-05-03T08:25:28.917Z</time></trkpt><trkpt lat="42.9668185" lon="13.0802892"><ele>806.0000000000001</ele><time>2026-05-03T08:25:47.928Z</time></trkpt><trkpt lat="42.9667059" lon="13.0802563"><ele>806.0</ele><time>2026-05-03T08:25:50.925Z</time></trkpt><trkpt lat="42.9666015" lon="13.0802569"><ele>806.6666666666667</ele><time>2026-05-03T08:25:51.927Z</time></trkpt><trkpt lat="42.9664656" lon="13.0802318"><ele>807.3333333333333</ele><time>2026-05-03T08:25:52.925Z</time></trkpt><trkpt lat="42.9663151" lon="13.0801817"><ele>808.0</ele><time>2026-05-03T08:25:53.912Z</time></trkpt><trkpt lat="42.9661572" lon="13.080118"><ele>808.0</ele><time>2026-05-03T08:25:54.925Z</time></trkpt><trkpt lat="42.9659867" lon="13.0800565"><ele>808.0</ele><time>2026-05-03T08:25:55.913Z</time></trkpt><trkpt lat="42.9658201" lon="13.0799923"><ele>808.0</ele><time>2026-05-03T08:25:56.909Z</time></trkpt><trkpt lat="42.9656649" lon="13.0799587"><ele>807.5999999999999</ele><time>2026-05-03T08:25:57.915Z</time></trkpt><trkpt lat="42.9655231" lon="13.0799287"><ele>807.1999999999999</ele><time>2026-05-03T08:25:58.922Z</time></trkpt><trkpt lat="42.9654113" lon="13.0799047"><ele>806.8</ele><time>2026-05-03T08:25:59.923Z</time></trkpt><trkpt lat="42.9653116" lon="13.0798864"><ele>806.4</ele><time>2026-05-03T08:26:00.922Z</time></trkpt><trkpt lat="42.9652301" lon="13.0798837"><ele>806.0</ele><time>2026-05-03T08:26:01.909Z</time></trkpt><trkpt lat="42.9651516" lon="13.0799101"><ele>806.5999999999999</ele><time>2026-05-03T08:26:02.909Z</time></trkpt><trkpt lat="42.9650803" lon="13.079981"><ele>807.2</ele><time>2026-05-03T08:26:03.901Z</time></trkpt><trkpt lat="42.9650306" lon="13.0801013"><ele>807.8</ele><time>2026-05-03T08:26:04.919Z</time></trkpt><trkpt lat="42.965019" lon="13.080253"><ele>808.4000000000001</ele><time>2026-05-03T08:26:05.913Z</time></trkpt><trkpt lat="42.9650476" lon="13.0804281"><ele>809.0</ele><time>2026-05-03T08:26:06.914Z</time></trkpt><trkpt lat="42.9650907" lon="13.0805945"><ele>809.4000000000001</ele><time>2026-05-03T08:26:07.912Z</time></trkpt><trkpt lat="42.9651279" lon="13.0807479"><ele>809.8</ele><time>2026-05-03T08:26:08.916Z</time></trkpt><trkpt lat="42.9651461" lon="13.0808851"><ele>810.2</ele><time>2026-05-03T08:26:09.913Z</time></trkpt><trkpt lat="42.9651612" lon="13.0810123"><ele>810.5999999999999</ele><time>2026-05-03T08:26:10.915Z</time></trkpt><trkpt lat="42.9651208" lon="13.0811162"><ele>811.0</ele><time>2026-05-03T08:26:11.911Z</time></trkpt><trkpt lat="42.9650445" lon="13.0811909"><ele>811.0</ele><time>2026-05-03T08:26:12.922Z</time></trkpt><trkpt lat="42.9649425" lon="13.0812066"><ele>811.0</ele><time>2026-05-03T08:26:13.913Z</time></trkpt><trkpt lat="42.9648253" lon="13.0811697"><ele>811.0</ele><time>2026-05-03T08:26:14.91Z</time></trkpt><trkpt lat="42.9646878" lon="13.0811152"><ele>811.0</ele><time>2026-05-03T08:26:15.918Z</time></trkpt><trkpt lat="42.9645245" lon="13.0810892"><ele>811.0</ele><time>2026-05-03T08:26:16.912Z</time></trkpt><trkpt lat="42.9643352" lon="13.0811051"><ele>811.0</ele><time>2026-05-03T08:26:17.918Z</time></trkpt><trkpt lat="42.9641492" lon="13.0811238"><ele>811.0</ele><time>2026-05-03T08:26:18.914Z</time></trkpt><trkpt lat="42.9639751" lon="13.0811982"><ele>807.0</ele><time>2026-05-03T08:26:19.912Z</time></trkpt><trkpt lat="42.9638137" lon="13.0813044"><ele>803.0</ele><time>2026-05-03T08:26:20.911Z</time></trkpt><trkpt lat="42.96365" lon="13.0813814"><ele>799.0</ele><time>2026-05-03T08:26:21.912Z</time></trkpt><trkpt lat="42.9634671" lon="13.081423"><ele>796.6666666666666</ele><time>2026-05-03T08:26:22.923Z</time></trkpt><trkpt lat="42.9632757" lon="13.0814698"><ele>794.3333333333333</ele><time>2026-05-03T08:26:23.915Z</time></trkpt><trkpt lat="42.9630752" lon="13.0814797"><ele>792.0</ele><time>2026-05-03T08:26:24.916Z</time></trkpt><trkpt lat="42.9629034" lon="13.0815011"><ele>792.0</ele><time>2026-05-03T08:26:25.922Z</time></trkpt><trkpt lat="42.9627305" lon="13.0815398"><ele>792.0</ele><time>2026-05-03T08:26:26.921Z</time></trkpt><trkpt lat="42.962562" lon="13.0815692"><ele>792.0</ele><time>2026-05-03T08:26:27.931Z</time></trkpt><trkpt lat="42.9624033" lon="13.0816178"><ele>792.25</ele><time>2026-05-03T08:26:28.913Z</time></trkpt><trkpt lat="42.9622665" lon="13.0816608"><ele>792.5</ele><time>2026-05-03T08:26:29.916Z</time></trkpt><trkpt lat="42.9621432" lon="13.0816761"><ele>792.75</ele><time>2026-05-03T08:26:30.913Z</time></trkpt><trkpt lat="42.9620391" lon="13.0816721"><ele>793.0</ele><time>2026-05-03T08:26:31.913Z</time></trkpt><trkpt lat="42.9619427" lon="13.0816759"><ele>792.9999999999999</ele><time>2026-05-03T08:26:32.924Z</time></trkpt><trkpt lat="42.9618546" lon="13.0816805"><ele>793.0</ele><time>2026-05-03T08:26:33.913Z</time></trkpt><trkpt lat="42.9617881" lon="13.0817297"><ele>793.0</ele><time>2026-05-03T08:26:34.92Z</time></trkpt><trkpt lat="42.961747" lon="13.0818226"><ele>793.0</ele><time>2026-05-03T08:26:35.92Z</time></trkpt><trkpt lat="42.9617463" lon="13.0819393"><ele>792.9999999999999</ele><time>2026-05-03T08:26:36.917Z</time></trkpt><trkpt lat="42.961749" lon="13.0820691"><ele>793.0</ele><time>2026-05-03T08:26:37.915Z</time></trkpt><trkpt lat="42.9618185" lon="13.0821794"><ele>793.0</ele><time>2026-05-03T08:26:38.908Z</time></trkpt><trkpt lat="42.9619085" lon="13.0822585"><ele>793.0</ele><time>2026-05-03T08:26:39.929Z</time></trkpt><trkpt lat="42.9619851" lon="13.0823335"><ele>793.0</ele><time>2026-05-03T08:26:40.914Z</time></trkpt><trkpt lat="42.9620554" lon="13.0824152"><ele>793.0</ele><time>2026-05-03T08:26:41.913Z</time></trkpt><trkpt lat="42.9621261" lon="13.0824894"><ele>793.0</ele><time>2026-05-03T08:26:42.915Z</time></trkpt><trkpt lat="42.9621855" lon="13.0825751"><ele>794.2</ele><time>2026-05-03T08:26:43.909Z</time></trkpt><trkpt lat="42.9622225" lon="13.082686"><ele>795.4</ele><time>2026-05-03T08:26:44.914Z</time></trkpt><trkpt lat="42.9622363" lon="13.0828162"><ele>796.6</ele><time>2026-05-03T08:26:45.913Z</time></trkpt><trkpt lat="42.962248" lon="13.0829441"><ele>797.8000000000001</ele><time>2026-05-03T08:26:46.911Z</time></trkpt><trkpt lat="42.9622295" lon="13.083071"><ele>799.0</ele><time>2026-05-03T08:26:47.916Z</time></trkpt><trkpt lat="42.9621757" lon="13.0832013"><ele>800.0</ele><time>2026-05-03T08:26:48.916Z</time></trkpt><trkpt lat="42.9621126" lon="13.0833385"><ele>801.0</ele><time>2026-05-03T08:26:49.927Z</time></trkpt><trkpt lat="42.9620291" lon="13.0834543"><ele>802.0</ele><time>2026-05-03T08:26:50.917Z</time></trkpt><trkpt lat="42.9619512" lon="13.0835494"><ele>803.0</ele><time>2026-05-03T08:26:51.915Z</time></trkpt><trkpt lat="42.961853" lon="13.0836036"><ele>804.0</ele><time>2026-05-03T08:26:52.915Z</time></trkpt><trkpt lat="42.9617586" lon="13.0836089"><ele>800.0</ele><time>2026-05-03T08:26:53.917Z</time></trkpt><trkpt lat="42.9616609" lon="13.0835665"><ele>796.0</ele><time>2026-05-03T08:26:54.911Z</time></trkpt><trkpt lat="42.9615603" lon="13.0835162"><ele>792.0</ele><time>2026-05-03T08:26:55.915Z</time></trkpt><trkpt lat="42.9614953" lon="13.0834221"><ele>788.0</ele><time>2026-05-03T08:26:56.915Z</time></trkpt><trkpt lat="42.9614176" lon="13.0833105"><ele>784.0</ele><time>2026-05-03T08:26:57.928Z</time></trkpt><trkpt lat="42.9613325" lon="13.0831969"><ele>782.5</ele><time>2026-05-03T08:26:58.915Z</time></trkpt><trkpt lat="42.9612394" lon="13.0830852"><ele>781.0</ele><time>2026-05-03T08:26:59.915Z</time></trkpt><trkpt lat="42.961138" lon="13.082996"><ele>779.5</ele><time>2026-05-03T08:27:00.922Z</time></trkpt><trkpt lat="42.9610277" lon="13.0829313"><ele>778.0</ele><time>2026-05-03T08:27:01.915Z</time></trkpt><trkpt lat="42.9609211" lon="13.0828714"><ele>774.0</ele><time>2026-05-03T08:27:02.931Z</time></trkpt><trkpt lat="42.9607986" lon="13.0828434"><ele>770.0</ele><time>2026-05-03T08:27:03.927Z</time></trkpt><trkpt lat="42.9606846" lon="13.0828152"><ele>766.0</ele><time>2026-05-03T08:27:04.928Z</time></trkpt><trkpt lat="42.9605721" lon="13.0827848"><ele>762.0</ele><time>2026-05-03T08:27:05.912Z</time></trkpt><trkpt lat="42.9604375" lon="13.082781"><ele>762.0</ele><time>2026-05-03T08:27:06.921Z</time></trkpt><trkpt lat="42.9602757" lon="13.0828476"><ele>762.0</ele><time>2026-05-03T08:27:07.913Z</time></trkpt><trkpt lat="42.9600997" lon="13.0829158"><ele>762.0</ele><time>2026-05-03T08:27:08.924Z</time></trkpt><trkpt lat="42.9599124" lon="13.0829682"><ele>759.0</ele><time>2026-05-03T08:27:09.918Z</time></trkpt><trkpt lat="42.9597188" lon="13.0829722"><ele>756.0</ele><time>2026-05-03T08:27:10.913Z</time></trkpt><trkpt lat="42.9595267" lon="13.0829249"><ele>753.0</ele><time>2026-05-03T08:27:11.909Z</time></trkpt><trkpt lat="42.9593625" lon="13.0828907"><ele>753.0</ele><time>2026-05-03T08:27:12.917Z</time></trkpt><trkpt lat="42.9592269" lon="13.0828539"><ele>753.0</ele><time>2026-05-03T08:27:13.92Z</time></trkpt><trkpt lat="42.959097" lon="13.0828623"><ele>753.0</ele><time>2026-05-03T08:27:14.923Z</time></trkpt><trkpt lat="42.9589673" lon="13.0829226"><ele>753.0</ele><time>2026-05-03T08:27:15.917Z</time></trkpt><trkpt lat="42.9588525" lon="13.0830233"><ele>751.5</ele><time>2026-05-03T08:27:16.911Z</time></trkpt><trkpt lat="42.9587631" lon="13.0831666"><ele>750.0</ele><time>2026-05-03T08:27:17.926Z</time></trkpt><trkpt lat="42.958697" lon="13.0833429"><ele>748.5</ele><time>2026-05-03T08:27:18.92Z</time></trkpt><trkpt lat="42.9586431" lon="13.0835128"><ele>747.0</ele><time>2026-05-03T08:27:19.923Z</time></trkpt><trkpt lat="42.9585694" lon="13.0836658"><ele>747.6666666666666</ele><time>2026-05-03T08:27:20.923Z</time></trkpt><trkpt lat="42.9584568" lon="13.0838016"><ele>748.3333333333333</ele><time>2026-05-03T08:27:21.912Z</time></trkpt><trkpt lat="42.9583136" lon="13.0839168"><ele>749.0</ele><time>2026-05-03T08:27:22.921Z</time></trkpt><trkpt lat="42.9581576" lon="13.0840056"><ele>749.0</ele><time>2026-05-03T08:27:23.907Z</time></trkpt><trkpt lat="42.958011" lon="13.084092"><ele>749.0</ele><time>2026-05-03T08:27:24.907Z</time></trkpt><trkpt lat="42.9578657" lon="13.0841059"><ele>749.0</ele><time>2026-05-03T08:27:25.923Z</time></trkpt><trkpt lat="42.9577538" lon="13.0840799"><ele>749.0</ele><time>2026-05-03T08:27:26.912Z</time></trkpt><trkpt lat="42.9576795" lon="13.084055"><ele>749.0</ele><time>2026-05-03T08:27:27.907Z</time></trkpt><trkpt lat="42.9576402" lon="13.0839848"><ele>749.0</ele><time>2026-05-03T08:27:32.922Z</time></trkpt><trkpt lat="42.9575886" lon="13.0839189"><ele>749.0</ele><time>2026-05-03T08:27:34.918Z</time></trkpt><trkpt lat="42.9575359" lon="13.0838712"><ele>749.0</ele><time>2026-05-03T08:27:35.922Z</time></trkpt><trkpt lat="42.957436" lon="13.0838171"><ele>749.0</ele><time>2026-05-03T08:27:36.918Z</time></trkpt><trkpt lat="42.957307" lon="13.0837227"><ele>746.0</ele><time>2026-05-03T08:27:37.908Z</time></trkpt><trkpt lat="42.9571725" lon="13.0835668"><ele>743.0</ele><time>2026-05-03T08:27:38.928Z</time></trkpt><trkpt lat="42.9570468" lon="13.0833562"><ele>740.0</ele><time>2026-05-03T08:27:39.917Z</time></trkpt><trkpt lat="42.956947" lon="13.0831891"><ele>736.25</ele><time>2026-05-03T08:27:40.908Z</time></trkpt><trkpt lat="42.9568694" lon="13.0830539"><ele>732.5</ele><time>2026-05-03T08:27:41.932Z</time></trkpt><trkpt lat="42.9567777" lon="13.0829483"><ele>728.75</ele><time>2026-05-03T08:27:42.937Z</time></trkpt><trkpt lat="42.9566907" lon="13.0828422"><ele>725.0</ele><time>2026-05-03T08:27:43.907Z</time></trkpt><trkpt lat="42.9565795" lon="13.0828272"><ele>723.0</ele><time>2026-05-03T08:27:44.922Z</time></trkpt><trkpt lat="42.9564582" lon="13.0828605"><ele>721.0</ele><time>2026-05-03T08:27:45.922Z</time></trkpt><trkpt lat="42.9563307" lon="13.0829053"><ele>719.0</ele><time>2026-05-03T08:27:46.903Z</time></trkpt><trkpt lat="42.9562089" lon="13.0830093"><ele>717.0</ele><time>2026-05-03T08:27:47.919Z</time></trkpt><trkpt lat="42.9560937" lon="13.0831268"><ele>723.25</ele><time>2026-05-03T08:27:48.906Z</time></trkpt><trkpt lat="42.9560046" lon="13.0832769"><ele>729.5</ele><time>2026-05-03T08:27:49.919Z</time></trkpt><trkpt lat="42.9559426" lon="13.0834515"><ele>735.75</ele><time>2026-05-03T08:27:50.92Z</time></trkpt><trkpt lat="42.9559084" lon="13.0836244"><ele>742.0</ele><time>2026-05-03T08:27:51.916Z</time></trkpt><trkpt lat="42.955881" lon="13.08378"><ele>742.0</ele><time>2026-05-03T08:27:52.918Z</time></trkpt><trkpt lat="42.9558813" lon="13.0839285"><ele>742.0</ele><time>2026-05-03T08:27:53.918Z</time></trkpt><trkpt lat="42.9558804" lon="13.0841054"><ele>742.0</ele><time>2026-05-03T08:27:54.919Z</time></trkpt><trkpt lat="42.9559544" lon="13.0842795"><ele>742.0</ele><time>2026-05-03T08:27:55.918Z</time></trkpt><trkpt lat="42.9560365" lon="13.084431"><ele>743.8</ele><time>2026-05-03T08:27:56.922Z</time></trkpt><trkpt lat="42.9561329" lon="13.0845222"><ele>745.6</ele><time>2026-05-03T08:27:57.919Z</time></trkpt><trkpt lat="42.9562083" lon="13.0846048"><ele>747.4</ele><time>2026-05-03T08:27:58.92Z</time></trkpt><trkpt lat="42.9562576" lon="13.0847052"><ele>749.1999999999999</ele><time>2026-05-03T08:27:59.916Z</time></trkpt><trkpt lat="42.9563009" lon="13.0848012"><ele>751.0</ele><time>2026-05-03T08:28:00.919Z</time></trkpt><trkpt lat="42.9562903" lon="13.0849052"><ele>749.75</ele><time>2026-05-03T08:28:01.922Z</time></trkpt><trkpt lat="42.9562156" lon="13.0850066"><ele>748.5</ele><time>2026-05-03T08:28:02.919Z</time></trkpt><trkpt lat="42.9560731" lon="13.0850588"><ele>747.25</ele><time>2026-05-03T08:28:03.92Z</time></trkpt><trkpt lat="42.9559308" lon="13.0850923"><ele>746.0</ele><time>2026-05-03T08:28:04.913Z</time></trkpt><trkpt lat="42.955796" lon="13.0851292"><ele>740.75</ele><time>2026-05-03T08:28:05.906Z</time></trkpt><trkpt lat="42.9556725" lon="13.0851565"><ele>735.5</ele><time>2026-05-03T08:28:06.925Z</time></trkpt><trkpt lat="42.9555609" lon="13.0851275"><ele>730.25</ele><time>2026-05-03T08:28:07.915Z</time></trkpt><trkpt lat="42.9554591" lon="13.0850565"><ele>725.0</ele><time>2026-05-03T08:28:08.918Z</time></trkpt><trkpt lat="42.9553559" lon="13.0849374"><ele>723.6666666666666</ele><time>2026-05-03T08:28:09.922Z</time></trkpt><trkpt lat="42.955247" lon="13.0847836"><ele>722.3333333333334</ele><time>2026-05-03T08:28:10.918Z</time></trkpt><trkpt lat="42.9551314" lon="13.0846231"><ele>721.0</ele><time>2026-05-03T08:28:11.923Z</time></trkpt><trkpt lat="42.955019" lon="13.0844666"><ele>718.0</ele><time>2026-05-03T08:28:12.912Z</time></trkpt><trkpt lat="42.954924" lon="13.0842961"><ele>715.0</ele><time>2026-05-03T08:28:13.909Z</time></trkpt><trkpt lat="42.9548456" lon="13.0841067"><ele>712.0</ele><time>2026-05-03T08:28:14.92Z</time></trkpt><trkpt lat="42.9547945" lon="13.0839141"><ele>708.75</ele><time>2026-05-03T08:28:15.918Z</time></trkpt><trkpt lat="42.9547433" lon="13.0837306"><ele>705.5</ele><time>2026-05-03T08:28:16.915Z</time></trkpt><trkpt lat="42.9546773" lon="13.0835692"><ele>702.25</ele><time>2026-05-03T08:28:17.922Z</time></trkpt><trkpt lat="42.9545919" lon="13.0834449"><ele>699.0</ele><time>2026-05-03T08:28:18.914Z</time></trkpt><trkpt lat="42.9544779" lon="13.0833651"><ele>699.0</ele><time>2026-05-03T08:28:19.912Z</time></trkpt><trkpt lat="42.9543562" lon="13.0832837"><ele>699.0</ele><time>2026-05-03T08:28:20.914Z</time></trkpt><trkpt lat="42.9541913" lon="13.0832919"><ele>699.0</ele><time>2026-05-03T08:28:21.914Z</time></trkpt><trkpt lat="42.954012" lon="13.0833319"><ele>699.0</ele><time>2026-05-03T08:28:22.914Z</time></trkpt><trkpt lat="42.9538398" lon="13.083375"><ele>699.0</ele><time>2026-05-03T08:28:23.914Z</time></trkpt><trkpt lat="42.9536764" lon="13.0833992"><ele>699.0</ele><time>2026-05-03T08:28:24.913Z</time></trkpt><trkpt lat="42.9535145" lon="13.083381"><ele>697.6666666666666</ele><time>2026-05-03T08:28:25.91Z</time></trkpt><trkpt lat="42.9533508" lon="13.0832983"><ele>696.3333333333333</ele><time>2026-05-03T08:28:26.912Z</time></trkpt><trkpt lat="42.9531953" lon="13.0832087"><ele>695.0</ele><time>2026-05-03T08:28:27.913Z</time></trkpt><trkpt lat="42.9530442" lon="13.0831394"><ele>692.3333333333333</ele><time>2026-05-03T08:28:28.909Z</time></trkpt><trkpt lat="42.952897" lon="13.0830939"><ele>689.6666666666666</ele><time>2026-05-03T08:28:29.912Z</time></trkpt><trkpt lat="42.9527421" lon="13.0830508"><ele>687.0</ele><time>2026-05-03T08:28:30.911Z</time></trkpt><trkpt lat="42.9525818" lon="13.0830729"><ele>684.6666666666666</ele><time>2026-05-03T08:28:31.914Z</time></trkpt><trkpt lat="42.9523743" lon="13.0831284"><ele>682.3333333333333</ele><time>2026-05-03T08:28:32.916Z</time></trkpt><trkpt lat="42.9521536" lon="13.0831987"><ele>680.0</ele><time>2026-05-03T08:28:33.921Z</time></trkpt><trkpt lat="42.9519425" lon="13.0832586"><ele>682.0</ele><time>2026-05-03T08:28:34.911Z</time></trkpt><trkpt lat="42.9517508" lon="13.0833046"><ele>684.0</ele><time>2026-05-03T08:28:35.907Z</time></trkpt><trkpt lat="42.9515692" lon="13.083333"><ele>686.0</ele><time>2026-05-03T08:28:36.914Z</time></trkpt><trkpt lat="42.9513998" lon="13.0833518"><ele>686.0</ele><time>2026-05-03T08:28:37.908Z</time></trkpt><trkpt lat="42.9512359" lon="13.0833364"><ele>686.0</ele><time>2026-05-03T08:28:38.916Z</time></trkpt><trkpt lat="42.9510743" lon="13.0833025"><ele>686.0</ele><time>2026-05-03T08:28:39.916Z</time></trkpt><trkpt lat="42.9509196" lon="13.0832566"><ele>684.3333333333333</ele><time>2026-05-03T08:28:40.919Z</time></trkpt><trkpt lat="42.9507634" lon="13.0832474"><ele>682.6666666666666</ele><time>2026-05-03T08:28:41.914Z</time></trkpt><trkpt lat="42.9505817" lon="13.0832977"><ele>681.0</ele><time>2026-05-03T08:28:42.915Z</time></trkpt><trkpt lat="42.9504025" lon="13.0833667"><ele>681.0</ele><time>2026-05-03T08:28:43.906Z</time></trkpt><trkpt lat="42.9502267" lon="13.0834028"><ele>681.0</ele><time>2026-05-03T08:28:44.915Z</time></trkpt><trkpt lat="42.9500603" lon="13.0834051"><ele>681.0</ele><time>2026-05-03T08:28:45.917Z</time></trkpt><trkpt lat="42.9498998" lon="13.0833825"><ele>677.6666666666666</ele><time>2026-05-03T08:28:46.913Z</time></trkpt><trkpt lat="42.9497249" lon="13.0834134"><ele>674.3333333333333</ele><time>2026-05-03T08:28:47.915Z</time></trkpt><trkpt lat="42.9495477" lon="13.0835077"><ele>671.0</ele><time>2026-05-03T08:28:48.913Z</time></trkpt><trkpt lat="42.949388" lon="13.0836359"><ele>671.0</ele><time>2026-05-03T08:28:49.915Z</time></trkpt><trkpt lat="42.9492365" lon="13.0837571"><ele>671.0</ele><time>2026-05-03T08:28:50.915Z</time></trkpt><trkpt lat="42.9490824" lon="13.0838631"><ele>671.0</ele><time>2026-05-03T08:28:51.92Z</time></trkpt><trkpt lat="42.9489155" lon="13.083952"><ele>668.6666666666666</ele><time>2026-05-03T08:28:52.928Z</time></trkpt><trkpt lat="42.9487175" lon="13.0839907"><ele>666.3333333333334</ele><time>2026-05-03T08:28:53.912Z</time></trkpt><trkpt lat="42.9485266" lon="13.0840302"><ele>664.0</ele><time>2026-05-03T08:28:54.917Z</time></trkpt><trkpt lat="42.9483483" lon="13.0840518"><ele>661.0</ele><time>2026-05-03T08:28:55.922Z</time></trkpt><trkpt lat="42.9481766" lon="13.0840517"><ele>658.0</ele><time>2026-05-03T08:28:56.909Z</time></trkpt><trkpt lat="42.9479839" lon="13.0840323"><ele>655.0</ele><time>2026-05-03T08:28:57.917Z</time></trkpt><trkpt lat="42.9477803" lon="13.0839576"><ele>655.0</ele><time>2026-05-03T08:28:58.91Z</time></trkpt><trkpt lat="42.9475744" lon="13.083847"><ele>655.0</ele><time>2026-05-03T08:28:59.91Z</time></trkpt><trkpt lat="42.9473914" lon="13.0837386"><ele>655.0</ele><time>2026-05-03T08:29:00.918Z</time></trkpt><trkpt lat="42.9472393" lon="13.0836485"><ele>654.5</ele><time>2026-05-03T08:29:01.92Z</time></trkpt><trkpt lat="42.9471143" lon="13.08358"><ele>654.0</ele><time>2026-05-03T08:29:02.909Z</time></trkpt><trkpt lat="42.9470067" lon="13.0835185"><ele>653.5</ele><time>2026-05-03T08:29:03.923Z</time></trkpt><trkpt lat="42.9469084" lon="13.083462"><ele>653.0</ele><time>2026-05-03T08:29:04.917Z</time></trkpt><trkpt lat="42.9468151" lon="13.083411"><ele>653.0</ele><time>2026-05-03T08:29:05.915Z</time></trkpt><trkpt lat="42.9467229" lon="13.0833666"><ele>653.0</ele><time>2026-05-03T08:29:06.914Z</time></trkpt><trkpt lat="42.946621" lon="13.0833276"><ele>653.0</ele><time>2026-05-03T08:29:07.917Z</time></trkpt><trkpt lat="42.9465126" lon="13.0832933"><ele>653.0</ele><time>2026-05-03T08:29:08.918Z</time></trkpt><trkpt lat="42.9463989" lon="13.0832696"><ele>653.0</ele><time>2026-05-03T08:29:09.92Z</time></trkpt><trkpt lat="42.9462797" lon="13.0832602"><ele>652.25</ele><time>2026-05-03T08:29:10.915Z</time></trkpt><trkpt lat="42.946155" lon="13.0832628"><ele>651.5</ele><time>2026-05-03T08:29:11.91Z</time></trkpt><trkpt lat="42.9460244" lon="13.0832706"><ele>650.75</ele><time>2026-05-03T08:29:12.913Z</time></trkpt><trkpt lat="42.9458905" lon="13.0832779"><ele>650.0</ele><time>2026-05-03T08:29:13.922Z</time></trkpt><trkpt lat="42.9457457" lon="13.0832938"><ele>649.25</ele><time>2026-05-03T08:29:14.913Z</time></trkpt><trkpt lat="42.9455997" lon="13.0833124"><ele>648.5</ele><time>2026-05-03T08:29:15.926Z</time></trkpt><trkpt lat="42.9454504" lon="13.0833259"><ele>647.75</ele><time>2026-05-03T08:29:16.916Z</time></trkpt><trkpt lat="42.9452995" lon="13.0833368"><ele>647.0</ele><time>2026-05-03T08:29:17.911Z</time></trkpt><trkpt lat="42.9451514" lon="13.0833536"><ele>646.25</ele><time>2026-05-03T08:29:18.918Z</time></trkpt><trkpt lat="42.9450222" lon="13.0833647"><ele>645.5</ele><time>2026-05-03T08:29:19.911Z</time></trkpt><trkpt lat="42.9448949" lon="13.083375"><ele>644.75</ele><time>2026-05-03T08:29:20.921Z</time></trkpt><trkpt lat="42.9447765" lon="13.0833872"><ele>644.0</ele><time>2026-05-03T08:29:21.911Z</time></trkpt><trkpt lat="42.9446648" lon="13.0834015"><ele>644.0</ele><time>2026-05-03T08:29:22.914Z</time></trkpt><trkpt lat="42.9445532" lon="13.0834144"><ele>644.0</ele><time>2026-05-03T08:29:23.91Z</time></trkpt><trkpt lat="42.9444358" lon="13.0834274"><ele>644.0</ele><time>2026-05-03T08:29:24.919Z</time></trkpt><trkpt lat="42.9443089" lon="13.0834344"><ele>644.0</ele><time>2026-05-03T08:29:25.924Z</time></trkpt><trkpt lat="42.9441751" lon="13.0834438"><ele>643.0</ele><time>2026-05-03T08:29:26.923Z</time></trkpt><trkpt lat="42.9440323" lon="13.0834566"><ele>642.0</ele><time>2026-05-03T08:29:27.92Z</time></trkpt><trkpt lat="42.943886" lon="13.0834698"><ele>641.0</ele><time>2026-05-03T08:29:28.906Z</time></trkpt><trkpt lat="42.9437464" lon="13.0834802"><ele>640.0</ele><time>2026-05-03T08:29:29.917Z</time></trkpt><trkpt lat="42.9436107" lon="13.083495"><ele>640.0</ele><time>2026-05-03T08:29:30.916Z</time></trkpt><trkpt lat="42.9434845" lon="13.0835041"><ele>640.0</ele><time>2026-05-03T08:29:31.913Z</time></trkpt><trkpt lat="42.9433539" lon="13.0834972"><ele>640.0</ele><time>2026-05-03T08:29:32.921Z</time></trkpt><trkpt lat="42.9432345" lon="13.0834868"><ele>640.0</ele><time>2026-05-03T08:29:33.923Z</time></trkpt><trkpt lat="42.9431312" lon="13.083483"><ele>639.25</ele><time>2026-05-03T08:29:34.906Z</time></trkpt><trkpt lat="42.9430319" lon="13.0834858"><ele>638.5</ele><time>2026-05-03T08:29:35.911Z</time></trkpt><trkpt lat="42.9429215" lon="13.0834969"><ele>637.75</ele><time>2026-05-03T08:29:36.917Z</time></trkpt><trkpt lat="42.9428059" lon="13.0835072"><ele>637.0</ele><time>2026-05-03T08:29:37.921Z</time></trkpt><trkpt lat="42.9426813" lon="13.0834956"><ele>637.0</ele><time>2026-05-03T08:29:38.916Z</time></trkpt><trkpt lat="42.9425554" lon="13.0834826"><ele>637.0</ele><time>2026-05-03T08:29:39.916Z</time></trkpt><trkpt lat="42.9424184" lon="13.0834653"><ele>637.0</ele><time>2026-05-03T08:29:40.923Z</time></trkpt><trkpt lat="42.9422853" lon="13.083448"><ele>637.0</ele><time>2026-05-03T08:29:41.917Z</time></trkpt><trkpt lat="42.9421563" lon="13.0834344"><ele>637.0</ele><time>2026-05-03T08:29:42.918Z</time></trkpt><trkpt lat="42.9420315" lon="13.0834145"><ele>637.0</ele><time>2026-05-03T08:29:43.918Z</time></trkpt><trkpt lat="42.9419052" lon="13.0833939"><ele>637.0</ele><time>2026-05-03T08:29:44.925Z</time></trkpt><trkpt lat="42.9417837" lon="13.0833749"><ele>637.0</ele><time>2026-05-03T08:29:45.905Z</time></trkpt><trkpt lat="42.9416718" lon="13.0833567"><ele>636.75</ele><time>2026-05-03T08:29:46.913Z</time></trkpt><trkpt lat="42.9415659" lon="13.0833325"><ele>636.5</ele><time>2026-05-03T08:29:47.913Z</time></trkpt><trkpt lat="42.9414563" lon="13.0833079"><ele>636.25</ele><time>2026-05-03T08:29:48.917Z</time></trkpt><trkpt lat="42.9413422" lon="13.0832823"><ele>636.0</ele><time>2026-05-03T08:29:49.912Z</time></trkpt><trkpt lat="42.941224" lon="13.0832521"><ele>636.0</ele><time>2026-05-03T08:29:50.914Z</time></trkpt><trkpt lat="42.9411004" lon="13.0832189"><ele>636.0</ele><time>2026-05-03T08:29:51.919Z</time></trkpt><trkpt lat="42.9409707" lon="13.0831815"><ele>636.0</ele><time>2026-05-03T08:29:52.927Z</time></trkpt><trkpt lat="42.9408374" lon="13.0831418"><ele>636.0</ele><time>2026-05-03T08:29:53.922Z</time></trkpt><trkpt lat="42.9406992" lon="13.083096"><ele>635.6666666666666</ele><time>2026-05-03T08:29:54.914Z</time></trkpt><trkpt lat="42.9405557" lon="13.0830475"><ele>635.3333333333333</ele><time>2026-05-03T08:29:55.911Z</time></trkpt><trkpt lat="42.940408" lon="13.0829985"><ele>635.0</ele><time>2026-05-03T08:29:56.915Z</time></trkpt><trkpt lat="42.9402622" lon="13.0829458"><ele>635.0</ele><time>2026-05-03T08:29:57.915Z</time></trkpt><trkpt lat="42.9401158" lon="13.0828853"><ele>635.0</ele><time>2026-05-03T08:29:58.925Z</time></trkpt><trkpt lat="42.9399701" lon="13.0828168"><ele>635.0</ele><time>2026-05-03T08:29:59.921Z</time></trkpt><trkpt lat="42.9398219" lon="13.0827464"><ele>634.3333333333333</ele><time>2026-05-03T08:30:00.91Z</time></trkpt><trkpt lat="42.9396687" lon="13.0826801"><ele>633.6666666666666</ele><time>2026-05-03T08:30:01.914Z</time></trkpt><trkpt lat="42.9395218" lon="13.0826178"><ele>633.0</ele><time>2026-05-03T08:30:02.922Z</time></trkpt><trkpt lat="42.9393848" lon="13.0825628"><ele>633.0</ele><time>2026-05-03T08:30:03.91Z</time></trkpt><trkpt lat="42.9392558" lon="13.0825125"><ele>633.0</ele><time>2026-05-03T08:30:04.908Z</time></trkpt><trkpt lat="42.9391283" lon="13.0824678"><ele>633.0</ele><time>2026-05-03T08:30:05.921Z</time></trkpt><trkpt lat="42.9389959" lon="13.0824245"><ele>633.0</ele><time>2026-05-03T08:30:06.913Z</time></trkpt><trkpt lat="42.9388623" lon="13.0823855"><ele>633.5</ele><time>2026-05-03T08:30:07.927Z</time></trkpt><trkpt lat="42.9387283" lon="13.0823469"><ele>634.0</ele><time>2026-05-03T08:30:08.918Z</time></trkpt><trkpt lat="42.9385933" lon="13.0823084"><ele>634.5</ele><time>2026-05-03T08:30:09.925Z</time></trkpt><trkpt lat="42.9384662" lon="13.0822801"><ele>635.0</ele><time>2026-05-03T08:30:10.924Z</time></trkpt><trkpt lat="42.9383464" lon="13.0822599"><ele>635.0</ele><time>2026-05-03T08:30:11.924Z</time></trkpt><trkpt lat="42.9382341" lon="13.0822427"><ele>635.0</ele><time>2026-05-03T08:30:12.925Z</time></trkpt><trkpt lat="42.9381281" lon="13.0822194"><ele>635.0</ele><time>2026-05-03T08:30:13.926Z</time></trkpt><trkpt lat="42.9380148" lon="13.0821932"><ele>635.0</ele><time>2026-05-03T08:30:14.92Z</time></trkpt><trkpt lat="42.9378963" lon="13.0821723"><ele>635.0</ele><time>2026-05-03T08:30:15.924Z</time></trkpt><trkpt lat="42.9377781" lon="13.0821429"><ele>635.0</ele><time>2026-05-03T08:30:16.923Z</time></trkpt><trkpt lat="42.9376547" lon="13.0821206"><ele>635.0</ele><time>2026-05-03T08:30:17.92Z</time></trkpt><trkpt lat="42.9375326" lon="13.0820991"><ele>635.0</ele><time>2026-05-03T08:30:18.917Z</time></trkpt><trkpt lat="42.9374058" lon="13.0820697"><ele>632.75</ele><time>2026-05-03T08:30:19.92Z</time></trkpt><trkpt lat="42.9372846" lon="13.0820515"><ele>630.5</ele><time>2026-05-03T08:30:20.915Z</time></trkpt><trkpt lat="42.9371725" lon="13.0820414"><ele>628.25</ele><time>2026-05-03T08:30:21.915Z</time></trkpt><trkpt lat="42.9370641" lon="13.0820412"><ele>626.0</ele><time>2026-05-03T08:30:22.916Z</time></trkpt><trkpt lat="42.9369531" lon="13.0820371"><ele>626.0</ele><time>2026-05-03T08:30:23.91Z</time></trkpt><trkpt lat="42.9368397" lon="13.0820329"><ele>626.0</ele><time>2026-05-03T08:30:24.92Z</time></trkpt><trkpt lat="42.9367294" lon="13.0820296"><ele>626.0</ele><time>2026-05-03T08:30:25.917Z</time></trkpt><trkpt lat="42.936624" lon="13.082029"><ele>626.0</ele><time>2026-05-03T08:30:26.925Z</time></trkpt><trkpt lat="42.9365274" lon="13.0820302"><ele>626.0</ele><time>2026-05-03T08:30:27.911Z</time></trkpt><trkpt lat="42.936432" lon="13.082032"><ele>624.5</ele><time>2026-05-03T08:30:28.926Z</time></trkpt><trkpt lat="42.9363416" lon="13.0820342"><ele>623.0</ele><time>2026-05-03T08:30:29.922Z</time></trkpt><trkpt lat="42.9362548" lon="13.0820322"><ele>621.5</ele><time>2026-05-03T08:30:30.921Z</time></trkpt><trkpt lat="42.9361695" lon="13.0820327"><ele>620.0</ele><time>2026-05-03T08:30:31.919Z</time></trkpt><trkpt lat="42.9360858" lon="13.0820326"><ele>618.5</ele><time>2026-05-03T08:30:32.92Z</time></trkpt><trkpt lat="42.9360023" lon="13.0820296"><ele>617.0</ele><time>2026-05-03T08:30:33.917Z</time></trkpt><trkpt lat="42.9359133" lon="13.0820348"><ele>616.5</ele><time>2026-05-03T08:30:34.914Z</time></trkpt><trkpt lat="42.9358236" lon="13.0820305"><ele>616.0</ele><time>2026-05-03T08:30:35.913Z</time></trkpt><trkpt lat="42.9357373" lon="13.08203"><ele>615.5</ele><time>2026-05-03T08:30:36.919Z</time></trkpt><trkpt lat="42.9356501" lon="13.0820283"><ele>615.0</ele><time>2026-05-03T08:30:37.92Z</time></trkpt><trkpt lat="42.9355644" lon="13.0820295"><ele>614.5</ele><time>2026-05-03T08:30:38.906Z</time></trkpt><trkpt lat="42.9354819" lon="13.0820333"><ele>614.0</ele><time>2026-05-03T08:30:39.92Z</time></trkpt><trkpt lat="42.935408" lon="13.0820361"><ele>614.0</ele><time>2026-05-03T08:30:40.921Z</time></trkpt><trkpt lat="42.9353364" lon="13.0820347"><ele>614.0</ele><time>2026-05-03T08:30:41.918Z</time></trkpt><trkpt lat="42.935258" lon="13.082034"><ele>614.0</ele><time>2026-05-03T08:30:42.914Z</time></trkpt><trkpt lat="42.9351721" lon="13.0820346"><ele>614.0</ele><time>2026-05-03T08:30:43.917Z</time></trkpt><trkpt lat="42.9350917" lon="13.0820328"><ele>614.0</ele><time>2026-05-03T08:30:44.921Z</time></trkpt><trkpt lat="42.9350176" lon="13.0820312"><ele>614.0</ele><time>2026-05-03T08:30:45.917Z</time></trkpt><trkpt lat="42.9349427" lon="13.0820244"><ele>613.5</ele><time>2026-05-03T08:30:46.911Z</time></trkpt><trkpt lat="42.9348653" lon="13.0820158"><ele>613.0</ele><time>2026-05-03T08:30:47.919Z</time></trkpt><trkpt lat="42.9347881" lon="13.0820099"><ele>612.5</ele><time>2026-05-03T08:30:48.923Z</time></trkpt><trkpt lat="42.9347027" lon="13.0820066"><ele>612.0</ele><time>2026-05-03T08:30:49.919Z</time></trkpt><trkpt lat="42.9346062" lon="13.0820016"><ele>611.5</ele><time>2026-05-03T08:30:50.905Z</time></trkpt><trkpt lat="42.9345009" lon="13.0819968"><ele>611.0</ele><time>2026-05-03T08:30:51.925Z</time></trkpt><trkpt lat="42.9343924" lon="13.0819927"><ele>611.0</ele><time>2026-05-03T08:30:52.912Z</time></trkpt><trkpt lat="42.934288" lon="13.0819901"><ele>611.0</ele><time>2026-05-03T08:30:53.921Z</time></trkpt><trkpt lat="42.9341893" lon="13.0819906"><ele>611.0</ele><time>2026-05-03T08:30:54.92Z</time></trkpt><trkpt lat="42.9341016" lon="13.0820024"><ele>611.0</ele><time>2026-05-03T08:30:55.916Z</time></trkpt><trkpt lat="42.9340185" lon="13.0820181"><ele>611.0</ele><time>2026-05-03T08:30:56.917Z</time></trkpt><trkpt lat="42.9339435" lon="13.082051"><ele>611.0</ele><time>2026-05-03T08:30:57.915Z</time></trkpt><trkpt lat="42.9338629" lon="13.0820934"><ele>611.0</ele><time>2026-05-03T08:30:58.917Z</time></trkpt><trkpt lat="42.9337864" lon="13.0821496"><ele>611.0</ele><time>2026-05-03T08:30:59.915Z</time></trkpt><trkpt lat="42.9337166" lon="13.0822002"><ele>611.0</ele><time>2026-05-03T08:31:00.916Z</time></trkpt><trkpt lat="42.9336514" lon="13.0822665"><ele>611.0</ele><time>2026-05-03T08:31:01.923Z</time></trkpt><trkpt lat="42.9335836" lon="13.0823422"><ele>611.0</ele><time>2026-05-03T08:31:02.922Z</time></trkpt><trkpt lat="42.9335177" lon="13.0824407"><ele>610.8</ele><time>2026-05-03T08:31:03.916Z</time></trkpt><trkpt lat="42.9334475" lon="13.0825594"><ele>610.6</ele><time>2026-05-03T08:31:04.91Z</time></trkpt><trkpt lat="42.9333756" lon="13.0826818"><ele>610.4</ele><time>2026-05-03T08:31:05.913Z</time></trkpt><trkpt lat="42.9333078" lon="13.0827959"><ele>610.2</ele><time>2026-05-03T08:31:06.92Z</time></trkpt><trkpt lat="42.9332488" lon="13.0828996"><ele>610.0</ele><time>2026-05-03T08:31:07.913Z</time></trkpt><trkpt lat="42.933194" lon="13.0829948"><ele>610.0</ele><time>2026-05-03T08:31:08.908Z</time></trkpt><trkpt lat="42.9331408" lon="13.0830894"><ele>610.0</ele><time>2026-05-03T08:31:09.914Z</time></trkpt><trkpt lat="42.9330889" lon="13.0831837"><ele>610.0</ele><time>2026-05-03T08:31:10.914Z</time></trkpt><trkpt lat="42.9330356" lon="13.0832769"><ele>610.0</ele><time>2026-05-03T08:31:11.918Z</time></trkpt><trkpt lat="42.9329901" lon="13.083367"><ele>610.0</ele><time>2026-05-03T08:31:12.92Z</time></trkpt><trkpt lat="42.9329465" lon="13.0834538"><ele>610.0</ele><time>2026-05-03T08:31:13.911Z</time></trkpt><trkpt lat="42.9329061" lon="13.0835321"><ele>610.8</ele><time>2026-05-03T08:31:14.915Z</time></trkpt><trkpt lat="42.9328645" lon="13.0836107"><ele>611.6</ele><time>2026-05-03T08:31:15.914Z</time></trkpt><trkpt lat="42.9328244" lon="13.0836834"><ele>612.4</ele><time>2026-05-03T08:31:16.916Z</time></trkpt><trkpt lat="42.9327646" lon="13.0838102"><ele>613.2</ele><time>2026-05-03T08:31:18.906Z</time></trkpt><trkpt lat="42.9326936" lon="13.0839045"><ele>614.0</ele><time>2026-05-03T08:31:20.919Z</time></trkpt><trkpt lat="42.9326141" lon="13.0840329"><ele>615.0</ele><time>2026-05-03T08:31:22.93Z</time></trkpt><trkpt lat="42.9325702" lon="13.0841242"><ele>616.0</ele><time>2026-05-03T08:31:23.914Z</time></trkpt><trkpt lat="42.9325186" lon="13.0842281"><ele>617.0</ele><time>2026-05-03T08:31:24.916Z</time></trkpt><trkpt lat="42.9324695" lon="13.0843228"><ele>618.0</ele><time>2026-05-03T08:31:25.919Z</time></trkpt><trkpt lat="42.932425" lon="13.0844017"><ele>619.0</ele><time>2026-05-03T08:31:26.916Z</time></trkpt><trkpt lat="42.9323839" lon="13.0844701"><ele>620.0</ele><time>2026-05-03T08:31:27.92Z</time></trkpt><trkpt lat="42.932305" lon="13.0845762"><ele>617.6</ele><time>2026-05-03T08:31:29.917Z</time></trkpt><trkpt lat="42.9322051" lon="13.0845819"><ele>615.2</ele><time>2026-05-03T08:31:31.922Z</time></trkpt><trkpt lat="42.9320924" lon="13.0845059"><ele>612.8</ele><time>2026-05-03T08:31:33.912Z</time></trkpt><trkpt lat="42.9319961" lon="13.0844174"><ele>610.4</ele><time>2026-05-03T08:31:35.922Z</time></trkpt><trkpt lat="42.9319436" lon="13.0843672"><ele>608.0</ele><time>2026-05-03T08:31:36.921Z</time></trkpt><trkpt lat="42.9318886" lon="13.0843128"><ele>608.0</ele><time>2026-05-03T08:31:37.915Z</time></trkpt><trkpt lat="42.9317971" lon="13.0842437"><ele>608.0</ele><time>2026-05-03T08:31:39.915Z</time></trkpt><trkpt lat="42.931734" lon="13.0841872"><ele>608.0</ele><time>2026-05-03T08:31:42.918Z</time></trkpt><trkpt lat="42.9316476" lon="13.0841332"><ele>608.0</ele><time>2026-05-03T08:31:45.926Z</time></trkpt><trkpt lat="42.9315835" lon="13.084171"><ele>608.0</ele><time>2026-05-03T08:31:47.916Z</time></trkpt><trkpt lat="42.931619" lon="13.0842457"><ele>608.0</ele><time>2026-05-03T08:31:50.913Z</time></trkpt><trkpt lat="42.9317187" lon="13.0842587"><ele>608.0</ele><time>2026-05-03T08:31:54.924Z</time></trkpt><trkpt lat="42.9318177" lon="13.0843193"><ele>608.0</ele><time>2026-05-03T08:31:56.914Z</time></trkpt><trkpt lat="42.9319135" lon="13.0844075"><ele>608.0</ele><time>2026-05-03T08:31:58.918Z</time></trkpt><trkpt lat="42.9320056" lon="13.0844865"><ele>608.0</ele><time>2026-05-03T08:32:00.916Z</time></trkpt><trkpt lat="42.9320858" lon="13.084555"><ele>608.0</ele><time>2026-05-03T08:32:02.92Z</time></trkpt><trkpt lat="42.9321486" lon="13.0845957"><ele>608.0</ele><time>2026-05-03T08:32:04.918Z</time></trkpt><trkpt lat="42.9322034" lon="13.0846444"><ele>608.0</ele><time>2026-05-03T08:32:09.917Z</time></trkpt><trkpt lat="42.9322792" lon="13.0846372"><ele>608.0</ele><time>2026-05-03T08:32:12.921Z</time></trkpt><trkpt lat="42.9323667" lon="13.0845235"><ele>608.0</ele><time>2026-05-03T08:32:14.918Z</time></trkpt><trkpt lat="42.9324136" lon="13.0844433"><ele>608.0</ele><time>2026-05-03T08:32:15.918Z</time></trkpt><trkpt lat="42.932457" lon="13.0843658"><ele>608.0</ele><time>2026-05-03T08:32:16.906Z</time></trkpt><trkpt lat="42.9324964" lon="13.084296"><ele>608.0</ele><time>2026-05-03T08:32:17.918Z</time></trkpt><trkpt lat="42.9325353" lon="13.0842238"><ele>608.0</ele><time>2026-05-03T08:32:18.914Z</time></trkpt><trkpt lat="42.9325792" lon="13.0841455"><ele>608.0</ele><time>2026-05-03T08:32:19.904Z</time></trkpt><trkpt lat="42.9326265" lon="13.0840623"><ele>608.0</ele><time>2026-05-03T08:32:20.918Z</time></trkpt><trkpt lat="42.9326685" lon="13.0839857"><ele>608.0</ele><time>2026-05-03T08:32:21.913Z</time></trkpt><trkpt lat="42.932742" lon="13.0838584"><ele>608.0</ele><time>2026-05-03T08:32:23.917Z</time></trkpt><trkpt lat="42.9328101" lon="13.0837427"><ele>608.8571428571428</ele><time>2026-05-03T08:32:25.918Z</time></trkpt><trkpt lat="42.9328665" lon="13.0836446"><ele>609.7142857142858</ele><time>2026-05-03T08:32:27.911Z</time></trkpt><trkpt lat="42.9329147" lon="13.0835627"><ele>610.5714285714286</ele><time>2026-05-03T08:32:29.911Z</time></trkpt><trkpt lat="42.9329554" lon="13.0834893"><ele>611.4285714285713</ele><time>2026-05-03T08:32:31.922Z</time></trkpt><trkpt lat="42.9329858" lon="13.083409"><ele>612.2857142857142</ele><time>2026-05-03T08:32:34.922Z</time></trkpt><trkpt lat="42.9329212" lon="13.083358"><ele>613.1428571428571</ele><time>2026-05-03T08:32:37.916Z</time></trkpt><trkpt lat="42.93286" lon="13.0833279"><ele>614.0</ele><time>2026-05-03T08:32:39.92Z</time></trkpt><trkpt lat="42.9328126" lon="13.0832709"><ele>614.0</ele><time>2026-05-03T08:32:41.924Z</time></trkpt></trkseg></trk></gpx>